<?xml version='1.0' encoding='UTF-8'?><gpx version="1.1" creator="JPX - https://github.com/jenetics/jpx" xmlns="http://www.topografix.com/GPX/1/1"><trk><trkseg><trkpt lat="43.011633564520935" lon="12.360012502427013"><ele>260.6666666666667</ele><time>2026-04-04T12:54:42Z</time></trkpt><trkpt lat="43.01170005455587" lon="12.360011508333244"><ele>261.33333333333337</ele><time>2026-04-04T12:54:47Z</time></trkpt><trkpt lat="43.01173099567845" lon="12.359889732365128"><ele>262.0</ele><time>2026-04-04T12:54:49Z</time></trkpt><trkpt lat="43.011750471902815" lon="12.359796670390155"><ele>262.6666666666667</ele><time>2026-04-04T12:54:50Z</time></trkpt><trkpt lat="43.01178990013865" lon="12.359726128488973"><ele>263.3333333333333</ele><time>2026-04-04T12:54:53Z</time></trkpt><trkpt lat="43.011740743594316" lon="12.359621349734498"><ele>264.0</ele><time>2026-04-04T12:55:01Z</time></trkpt><trkpt lat="43.0116799035904" lon="12.359596491643638"><ele>265.0</ele><time>2026-04-04T12:55:02Z</time></trkpt><trkpt lat="43.01161010639692" lon="12.35957046693809"><ele>266.0</ele><time>2026-04-04T12:55:03Z</time></trkpt><trkpt lat="43.011534692215825" lon="12.359547481964213"><ele>267.0</ele><time>2026-04-04T12:55:04Z</time></trkpt><trkpt lat="43.01144330992398" lon="12.359520304719453"><ele>268.0</ele><time>2026-04-04T12:55:05Z</time></trkpt><trkpt lat="43.01135729684995" lon="12.359485504761423"><ele>269.0</ele><time>2026-04-04T12:55:06Z</time></trkpt><trkpt lat="43.01126535963386" lon="12.359444281319337"><ele>270.0</ele><time>2026-04-04T12:55:07Z</time></trkpt><trkpt lat="43.01117667994703" lon="12.359404494906759"><ele>270.0</ele><time>2026-04-04T12:55:08Z</time></trkpt><trkpt lat="43.011086925160726" lon="12.359367903794297"><ele>270.0</ele><time>2026-04-04T12:55:09Z</time></trkpt><trkpt lat="43.011000219837385" lon="12.359330529412183"><ele>270.0</ele><time>2026-04-04T12:55:10Z</time></trkpt><trkpt lat="43.010913976962186" lon="12.359290203212229"><ele>270.0</ele><time>2026-04-04T12:55:11Z</time></trkpt><trkpt lat="43.01082539969876" lon="12.35925314223363"><ele>270.0</ele><time>2026-04-04T12:55:12Z</time></trkpt><trkpt lat="43.01073156848745" lon="12.359218810338929"><ele>269.0</ele><time>2026-04-04T12:55:13Z</time></trkpt><trkpt lat="43.01063639934998" lon="12.359189362615005"><ele>268.0</ele><time>2026-04-04T12:55:14Z</time></trkpt><trkpt lat="43.010533699707864" lon="12.359148804792836"><ele>267.0</ele><time>2026-04-04T12:55:15Z</time></trkpt><trkpt lat="43.01042047525199" lon="12.359102337403035"><ele>266.0</ele><time>2026-04-04T12:55:16Z</time></trkpt><trkpt lat="43.01030222144867" lon="12.359052393002752"><ele>265.0</ele><time>2026-04-04T12:55:17Z</time></trkpt><trkpt lat="43.01016951793803" lon="12.35899943892833"><ele>265.0</ele><time>2026-04-04T12:55:18Z</time></trkpt><trkpt lat="43.0100156824317" lon="12.3589155227271"><ele>265.0</ele><time>2026-04-04T12:55:19Z</time></trkpt><trkpt lat="43.00986963987278" lon="12.358823592561643"><ele>265.0</ele><time>2026-04-04T12:55:20Z</time></trkpt><trkpt lat="43.009713694550115" lon="12.358718048018986"><ele>266.0</ele><time>2026-04-04T12:55:21Z</time></trkpt><trkpt lat="43.009557126492815" lon="12.358607598311265"><ele>267.0</ele><time>2026-04-04T12:55:22Z</time></trkpt><trkpt lat="43.009397495758485" lon="12.358497866664719"><ele>268.0</ele><time>2026-04-04T12:55:23Z</time></trkpt><trkpt lat="43.00921832230397" lon="12.358373781148758"><ele>267.0</ele><time>2026-04-04T12:55:24Z</time></trkpt><trkpt lat="43.00903219250601" lon="12.358237333021755"><ele>266.0</ele><time>2026-04-04T12:55:25Z</time></trkpt><trkpt lat="43.008839624514245" lon="12.358116380267274"><ele>265.0</ele><time>2026-04-04T12:55:26Z</time></trkpt><trkpt lat="43.0086477394503" lon="12.357991430969584"><ele>265.3333333333333</ele><time>2026-04-04T12:55:27Z</time></trkpt><trkpt lat="43.00846312319497" lon="12.357864129973487"><ele>265.6666666666667</ele><time>2026-04-04T12:55:28Z</time></trkpt><trkpt lat="43.00827864398086" lon="12.357738063089233"><ele>266.0</ele><time>2026-04-04T12:55:29Z</time></trkpt><trkpt lat="43.00809536994696" lon="12.357612589613167"><ele>266.0</ele><time>2026-04-04T12:55:30Z</time></trkpt><trkpt lat="43.00791974450076" lon="12.357489390423957"><ele>266.0</ele><time>2026-04-04T12:55:31Z</time></trkpt><trkpt lat="43.00774633592224" lon="12.357370625332292"><ele>266.0</ele><time>2026-04-04T12:55:32Z</time></trkpt><trkpt lat="43.007562506138086" lon="12.35725231654927"><ele>265.33333333333337</ele><time>2026-04-04T12:55:33Z</time></trkpt><trkpt lat="43.00737395475715" lon="12.357135450843154"><ele>264.6666666666667</ele><time>2026-04-04T12:55:34Z</time></trkpt><trkpt lat="43.00719009177217" lon="12.35702053648838"><ele>264.0</ele><time>2026-04-04T12:55:35Z</time></trkpt><trkpt lat="43.006981034020086" lon="12.356933782883084"><ele>264.0</ele><time>2026-04-04T12:55:36Z</time></trkpt><trkpt lat="43.00674575176737" lon="12.356857192999938"><ele>264.0</ele><time>2026-04-04T12:55:37Z</time></trkpt><trkpt lat="43.006495278388414" lon="12.356796924595873"><ele>264.0</ele><time>2026-04-04T12:55:38Z</time></trkpt><trkpt lat="43.006276317362726" lon="12.356763082211993"><ele>264.0</ele><time>2026-04-04T12:55:39Z</time></trkpt><trkpt lat="43.00607096107728" lon="12.35673392928684"><ele>264.0</ele><time>2026-04-04T12:55:40Z</time></trkpt><trkpt lat="43.005881903989476" lon="12.356703044826878"><ele>261.3333333333333</ele><time>2026-04-04T12:55:41Z</time></trkpt><trkpt lat="43.005700594264866" lon="12.356674920200062"><ele>258.66666666666663</ele><time>2026-04-04T12:55:42Z</time></trkpt><trkpt lat="43.00553124144607" lon="12.356646665379518"><ele>256.0</ele><time>2026-04-04T12:55:43Z</time></trkpt><trkpt lat="43.00534231639378" lon="12.35667614700619"><ele>256.0</ele><time>2026-04-04T12:55:44Z</time></trkpt><trkpt lat="43.005100604226605" lon="12.35670914190805"><ele>256.0</ele><time>2026-04-04T12:55:45Z</time></trkpt><trkpt lat="43.00485757957048" lon="12.35675096216474"><ele>254.0</ele><time>2026-04-04T12:55:46Z</time></trkpt><trkpt lat="43.00461716036276" lon="12.356771061544142"><ele>252.0</ele><time>2026-04-04T12:55:47Z</time></trkpt><trkpt lat="43.00437331586791" lon="12.356763843105044"><ele>253.0</ele><time>2026-04-04T12:55:48Z</time></trkpt><trkpt lat="43.00413110882585" lon="12.35671334251438"><ele>254.0</ele><time>2026-04-04T12:55:49Z</time></trkpt><trkpt lat="43.00388275270195" lon="12.356622911642553"><ele>254.0</ele><time>2026-04-04T12:55:50Z</time></trkpt><trkpt lat="43.00360917807485" lon="12.35654111097685"><ele>254.0</ele><time>2026-04-04T12:55:51Z</time></trkpt><trkpt lat="43.003344009928334" lon="12.35641706382608"><ele>254.5</ele><time>2026-04-04T12:55:52Z</time></trkpt><trkpt lat="43.00308535782811" lon="12.356310438940723"><ele>255.0</ele><time>2026-04-04T12:55:53Z</time></trkpt><trkpt lat="43.002830863051614" lon="12.356187392982132"><ele>255.0</ele><time>2026-04-04T12:55:54Z</time></trkpt><trkpt lat="43.00258169159585" lon="12.356062262746349"><ele>255.0</ele><time>2026-04-04T12:55:55Z</time></trkpt><trkpt lat="43.002335935985116" lon="12.355958777491606"><ele>256.0</ele><time>2026-04-04T12:55:56Z</time></trkpt><trkpt lat="43.00211455784235" lon="12.35583981052792"><ele>257.0</ele><time>2026-04-04T12:55:57Z</time></trkpt><trkpt lat="43.00190175264015" lon="12.355708739518642"><ele>257.0</ele><time>2026-04-04T12:55:58Z</time></trkpt><trkpt lat="43.00169538456163" lon="12.355569269026931"><ele>257.0</ele><time>2026-04-04T12:55:59Z</time></trkpt><trkpt lat="43.00149207588361" lon="12.355393091572502"><ele>260.5</ele><time>2026-04-04T12:56:00Z</time></trkpt><trkpt lat="43.001276846075555" lon="12.355218251845663"><ele>264.0</ele><time>2026-04-04T12:56:01Z</time></trkpt><trkpt lat="43.00106400580225" lon="12.355022722431887"><ele>264.0</ele><time>2026-04-04T12:56:02Z</time></trkpt><trkpt lat="43.00084974820878" lon="12.354832772101997"><ele>264.0</ele><time>2026-04-04T12:56:03Z</time></trkpt><trkpt lat="43.00066993836256" lon="12.35457667282389"><ele>269.0</ele><time>2026-04-04T12:56:04Z</time></trkpt><trkpt lat="43.000509140242606" lon="12.354307874077886"><ele>274.0</ele><time>2026-04-04T12:56:05Z</time></trkpt><trkpt lat="43.000377361848095" lon="12.354030358738358"><ele>275.5</ele><time>2026-04-04T12:56:06Z</time></trkpt><trkpt lat="43.00024204889726" lon="12.353727441458576"><ele>277.0</ele><time>2026-04-04T12:56:07Z</time></trkpt><trkpt lat="43.00009356653257" lon="12.353432870930199"><ele>277.0</ele><time>2026-04-04T12:56:08Z</time></trkpt><trkpt lat="42.99996931701019" lon="12.353149969816274"><ele>277.0</ele><time>2026-04-04T12:56:09Z</time></trkpt><trkpt lat="42.99985380426787" lon="12.352903772103137"><ele>277.66666666666663</ele><time>2026-04-04T12:56:10Z</time></trkpt><trkpt lat="42.99975400298181" lon="12.352683984915211"><ele>278.3333333333333</ele><time>2026-04-04T12:56:11Z</time></trkpt><trkpt lat="42.999663923967645" lon="12.352474240125364"><ele>279.0</ele><time>2026-04-04T12:56:12Z</time></trkpt><trkpt lat="42.99957941998675" lon="12.352286122776613"><ele>279.25</ele><time>2026-04-04T12:56:13Z</time></trkpt><trkpt lat="42.999514482597256" lon="12.352108226865466"><ele>279.5</ele><time>2026-04-04T12:56:14Z</time></trkpt><trkpt lat="42.999444837915476" lon="12.351969372134013"><ele>279.75</ele><time>2026-04-04T12:56:15Z</time></trkpt><trkpt lat="42.999389303515386" lon="12.351864628716758"><ele>280.0</ele><time>2026-04-04T12:56:16Z</time></trkpt><trkpt lat="42.99937936525324" lon="12.351745102632224"><ele>280.0</ele><time>2026-04-04T12:56:17Z</time></trkpt><trkpt lat="42.99933499325876" lon="12.351633205457839"><ele>280.0</ele><time>2026-04-04T12:56:19Z</time></trkpt><trkpt lat="42.99955729816158" lon="12.351293876648503"><ele>280.0</ele><time>2026-04-04T12:56:20Z</time></trkpt><trkpt lat="42.99963925884121" lon="12.351060838770877"><ele>281.66666666666663</ele><time>2026-04-04T12:56:21Z</time></trkpt><trkpt lat="42.99971799111679" lon="12.350836003172004"><ele>283.3333333333333</ele><time>2026-04-04T12:56:22Z</time></trkpt><trkpt lat="42.999797773080296" lon="12.350610737090372"><ele>285.0</ele><time>2026-04-04T12:56:23Z</time></trkpt><trkpt lat="42.99987494950437" lon="12.350378874343102"><ele>287.3333333333333</ele><time>2026-04-04T12:56:24Z</time></trkpt><trkpt lat="42.99994977224827" lon="12.350148896632653"><ele>289.66666666666663</ele><time>2026-04-04T12:56:25Z</time></trkpt><trkpt lat="43.000029727720296" lon="12.349911348808112"><ele>292.0</ele><time>2026-04-04T12:56:26Z</time></trkpt><trkpt lat="43.0001089922717" lon="12.34967308793997"><ele>294.0</ele><time>2026-04-04T12:56:27Z</time></trkpt><trkpt lat="43.000184360487744" lon="12.349442196608857"><ele>296.0</ele><time>2026-04-04T12:56:28Z</time></trkpt><trkpt lat="43.00024936531101" lon="12.349241017218523"><ele>298.0</ele><time>2026-04-04T12:56:29Z</time></trkpt><trkpt lat="43.00030892533825" lon="12.349063396907901"><ele>298.0</ele><time>2026-04-04T12:56:30Z</time></trkpt><trkpt lat="43.00035523586362" lon="12.348902073137188"><ele>298.0</ele><time>2026-04-04T12:56:31Z</time></trkpt><trkpt lat="43.00039418509835" lon="12.348737483476892"><ele>298.0</ele><time>2026-04-04T12:56:32Z</time></trkpt><trkpt lat="43.00040528476717" lon="12.348549801611016"><ele>298.0</ele><time>2026-04-04T12:56:33Z</time></trkpt><trkpt lat="43.00039870792232" lon="12.348356955450974"><ele>298.66666666666663</ele><time>2026-04-04T12:56:34Z</time></trkpt><trkpt lat="43.000365880805106" lon="12.348168481402732"><ele>299.3333333333333</ele><time>2026-04-04T12:56:35Z</time></trkpt><trkpt lat="43.00029879537696" lon="12.347978029665228"><ele>300.0</ele><time>2026-04-04T12:56:36Z</time></trkpt><trkpt lat="43.000203576499594" lon="12.347789878378556"><ele>298.5</ele><time>2026-04-04T12:56:37Z</time></trkpt><trkpt lat="43.00010143337773" lon="12.347611567204963"><ele>297.0</ele><time>2026-04-04T12:56:38Z</time></trkpt><trkpt lat="43.0000169359793" lon="12.347459271247102"><ele>295.5</ele><time>2026-04-04T12:56:39Z</time></trkpt><trkpt lat="42.999963769617025" lon="12.347295545585297"><ele>294.0</ele><time>2026-04-04T12:56:40Z</time></trkpt><trkpt lat="42.9999606192166" lon="12.347103302189097"><ele>292.6666666666667</ele><time>2026-04-04T12:56:41Z</time></trkpt><trkpt lat="42.99997166318842" lon="12.34685726336081"><ele>291.33333333333337</ele><time>2026-04-04T12:56:42Z</time></trkpt><trkpt lat="42.99998385567037" lon="12.346601133667722"><ele>290.0</ele><time>2026-04-04T12:56:43Z</time></trkpt><trkpt lat="42.99998735563826" lon="12.34634177807044"><ele>289.33333333333337</ele><time>2026-04-04T12:56:44Z</time></trkpt><trkpt lat="42.999996394666724" lon="12.346100825179667"><ele>288.6666666666667</ele><time>2026-04-04T12:56:45Z</time></trkpt><trkpt lat="43.000025389523785" lon="12.345877090861139"><ele>288.0</ele><time>2026-04-04T12:56:46Z</time></trkpt><trkpt lat="43.000096971481675" lon="12.34565995725585"><ele>288.0</ele><time>2026-04-04T12:56:47Z</time></trkpt><trkpt lat="43.0002023009226" lon="12.345445653618631"><ele>288.0</ele><time>2026-04-04T12:56:48Z</time></trkpt><trkpt lat="43.0003408965889" lon="12.345221648281711"><ele>288.0</ele><time>2026-04-04T12:56:49Z</time></trkpt><trkpt lat="43.00047239910583" lon="12.34500687245204"><ele>288.0</ele><time>2026-04-04T12:56:50Z</time></trkpt><trkpt lat="43.00058946597981" lon="12.344789566915829"><ele>288.0</ele><time>2026-04-04T12:56:51Z</time></trkpt><trkpt lat="43.000706665514855" lon="12.344568486203904"><ele>288.0</ele><time>2026-04-04T12:56:52Z</time></trkpt><trkpt lat="43.00082325932197" lon="12.344352586437346"><ele>287.6666666666667</ele><time>2026-04-04T12:56:53Z</time></trkpt><trkpt lat="43.00093967948876" lon="12.34414104113344"><ele>287.33333333333337</ele><time>2026-04-04T12:56:54Z</time></trkpt><trkpt lat="43.00104708708863" lon="12.343932651053098"><ele>287.0</ele><time>2026-04-04T12:56:55Z</time></trkpt><trkpt lat="43.00116864071218" lon="12.343703939330075"><ele>287.0</ele><time>2026-04-04T12:56:56Z</time></trkpt><trkpt lat="43.00128162464363" lon="12.343485355505507"><ele>287.0</ele><time>2026-04-04T12:56:57Z</time></trkpt><trkpt lat="43.00139626167123" lon="12.34326005659078"><ele>287.0</ele><time>2026-04-04T12:56:58Z</time></trkpt><trkpt lat="43.00150366300044" lon="12.343050927136286"><ele>287.6666666666667</ele><time>2026-04-04T12:56:59Z</time></trkpt><trkpt lat="43.0016082077493" lon="12.34285469967091"><ele>288.3333333333333</ele><time>2026-04-04T12:57:00Z</time></trkpt><trkpt lat="43.00171075905784" lon="12.342660269725704"><ele>289.0</ele><time>2026-04-04T12:57:01Z</time></trkpt><trkpt lat="43.00179571691112" lon="12.342457381994777"><ele>287.0</ele><time>2026-04-04T12:57:02Z</time></trkpt><trkpt lat="43.00185413672846" lon="12.34224652107363"><ele>285.0</ele><time>2026-04-04T12:57:03Z</time></trkpt><trkpt lat="43.00188503454428" lon="12.341996067222144"><ele>283.0</ele><time>2026-04-04T12:57:04Z</time></trkpt><trkpt lat="43.001890538027844" lon="12.341712689310429"><ele>282.3333333333333</ele><time>2026-04-04T12:57:05Z</time></trkpt><trkpt lat="43.00189083621038" lon="12.34141783936582"><ele>281.6666666666667</ele><time>2026-04-04T12:57:06Z</time></trkpt><trkpt lat="43.0018974090862" lon="12.341118344109866"><ele>281.0</ele><time>2026-04-04T12:57:07Z</time></trkpt><trkpt lat="43.001902799612076" lon="12.340835918560801"><ele>280.6666666666667</ele><time>2026-04-04T12:57:08Z</time></trkpt><trkpt lat="43.0019088715213" lon="12.34057851816953"><ele>280.3333333333333</ele><time>2026-04-04T12:57:09Z</time></trkpt><trkpt lat="43.00191438755243" lon="12.340336365867028"><ele>280.0</ele><time>2026-04-04T12:57:10Z</time></trkpt><trkpt lat="43.00192266057745" lon="12.34011457043258"><ele>278.66666666666663</ele><time>2026-04-04T12:57:11Z</time></trkpt><trkpt lat="43.00196965212782" lon="12.339926443600213"><ele>277.3333333333333</ele><time>2026-04-04T12:57:12Z</time></trkpt><trkpt lat="43.002051972616925" lon="12.33974564949534"><ele>276.0</ele><time>2026-04-04T12:57:13Z</time></trkpt><trkpt lat="43.00217641661302" lon="12.339577061829457"><ele>275.0</ele><time>2026-04-04T12:57:14Z</time></trkpt><trkpt lat="43.0023436580051" lon="12.339407931038066"><ele>274.0</ele><time>2026-04-04T12:57:15Z</time></trkpt><trkpt lat="43.00251133121048" lon="12.339226739017134"><ele>273.0</ele><time>2026-04-04T12:57:16Z</time></trkpt><trkpt lat="43.00269070234272" lon="12.339028624106998"><ele>272.6666666666667</ele><time>2026-04-04T12:57:17Z</time></trkpt><trkpt lat="43.00286139454315" lon="12.33882015775398"><ele>272.33333333333337</ele><time>2026-04-04T12:57:18Z</time></trkpt><trkpt lat="43.00302397695735" lon="12.338626882038442"><ele>272.0</ele><time>2026-04-04T12:57:19Z</time></trkpt><trkpt lat="43.003180740597045" lon="12.338441223203692"><ele>271.6666666666667</ele><time>2026-04-04T12:57:20Z</time></trkpt><trkpt lat="43.00333508081514" lon="12.33826266559758"><ele>271.3333333333333</ele><time>2026-04-04T12:57:21Z</time></trkpt><trkpt lat="43.00348000745635" lon="12.33809337668082"><ele>271.0</ele><time>2026-04-04T12:57:22Z</time></trkpt><trkpt lat="43.00362370363501" lon="12.337936539938887"><ele>271.3333333333333</ele><time>2026-04-04T12:57:23Z</time></trkpt><trkpt lat="43.003781848590585" lon="12.33780935765253"><ele>271.6666666666667</ele><time>2026-04-04T12:57:24Z</time></trkpt><trkpt lat="43.00397223636366" lon="12.337727343495512"><ele>272.0</ele><time>2026-04-04T12:57:25Z</time></trkpt><trkpt lat="43.00416487882217" lon="12.337671728518528"><ele>272.0</ele><time>2026-04-04T12:57:26Z</time></trkpt><trkpt lat="43.004331598098865" lon="12.337606312196526"><ele>272.0</ele><time>2026-04-04T12:57:27Z</time></trkpt><trkpt lat="43.004491122077596" lon="12.33749149036245"><ele>272.0</ele><time>2026-04-04T12:57:28Z</time></trkpt><trkpt lat="43.004653210108735" lon="12.337339002707369"><ele>272.6666666666667</ele><time>2026-04-04T12:57:29Z</time></trkpt><trkpt lat="43.004817299683836" lon="12.337142206385854"><ele>273.3333333333333</ele><time>2026-04-04T12:57:30Z</time></trkpt><trkpt lat="43.00497250519341" lon="12.336960401972053"><ele>274.0</ele><time>2026-04-04T12:57:31Z</time></trkpt><trkpt lat="43.005116876946396" lon="12.336822669134163"><ele>271.3333333333333</ele><time>2026-04-04T12:57:32Z</time></trkpt><trkpt lat="43.005257912153716" lon="12.336667509699765"><ele>268.6666666666667</ele><time>2026-04-04T12:57:33Z</time></trkpt><trkpt lat="43.005393302597156" lon="12.336521530737029"><ele>266.0</ele><time>2026-04-04T12:57:34Z</time></trkpt><trkpt lat="43.00552912844305" lon="12.336373282099439"><ele>265.6666666666667</ele><time>2026-04-04T12:57:35Z</time></trkpt><trkpt lat="43.005660695205684" lon="12.336234293565575"><ele>265.3333333333333</ele><time>2026-04-04T12:57:36Z</time></trkpt><trkpt lat="43.00580171459604" lon="12.336113857484685"><ele>265.0</ele><time>2026-04-04T12:57:37Z</time></trkpt><trkpt lat="43.0059528163824" lon="12.336025079838064"><ele>264.66666666666663</ele><time>2026-04-04T12:57:38Z</time></trkpt><trkpt lat="43.00611280315029" lon="12.335927603109328"><ele>264.3333333333333</ele><time>2026-04-04T12:57:39Z</time></trkpt><trkpt lat="43.006279852921146" lon="12.33584869384769"><ele>264.0</ele><time>2026-04-04T12:57:40Z</time></trkpt><trkpt lat="43.00643232409517" lon="12.33574893465401"><ele>264.0</ele><time>2026-04-04T12:57:41Z</time></trkpt><trkpt lat="43.0065790524223" lon="12.335617765949477"><ele>264.0</ele><time>2026-04-04T12:57:41.999Z</time></trkpt><trkpt lat="43.006717111842775" lon="12.33545387307761"><ele>264.0</ele><time>2026-04-04T12:57:42.999Z</time></trkpt><trkpt lat="43.00685822710607" lon="12.335281170829132"><ele>263.3333333333333</ele><time>2026-04-04T12:57:43.999Z</time></trkpt><trkpt lat="43.00700462294134" lon="12.33514300985349"><ele>262.66666666666663</ele><time>2026-04-04T12:57:44.999Z</time></trkpt><trkpt lat="43.00713072496517" lon="12.33500149073798"><ele>262.0</ele><time>2026-04-04T12:57:45.999Z</time></trkpt><trkpt lat="43.007251876934895" lon="12.334863322595323"><ele>261.75</ele><time>2026-04-04T12:57:46.999Z</time></trkpt><trkpt lat="43.00734774397107" lon="12.334717860232963"><ele>261.5</ele><time>2026-04-04T12:57:48Z</time></trkpt><trkpt lat="43.00744628156994" lon="12.33460056409805"><ele>261.25</ele><time>2026-04-04T12:57:49Z</time></trkpt><trkpt lat="43.00750676674459" lon="12.334427043571278"><ele>261.0</ele><time>2026-04-04T12:57:50Z</time></trkpt><trkpt lat="43.00755133236459" lon="12.334218064558883"><ele>261.0</ele><time>2026-04-04T12:57:51Z</time></trkpt><trkpt lat="43.00757476721437" lon="12.333995233889448"><ele>261.0</ele><time>2026-04-04T12:57:52Z</time></trkpt><trkpt lat="43.007611459764476" lon="12.333780340922809"><ele>261.0</ele><time>2026-04-04T12:57:53Z</time></trkpt><trkpt lat="43.00763466299938" lon="12.33355923333408"><ele>259.3333333333333</ele><time>2026-04-04T12:57:54Z</time></trkpt><trkpt lat="43.00765829214735" lon="12.333325046717556"><ele>257.66666666666663</ele><time>2026-04-04T12:57:55Z</time></trkpt><trkpt lat="43.00768156250423" lon="12.333094801530686"><ele>256.0</ele><time>2026-04-04T12:57:56Z</time></trkpt><trkpt lat="43.0077022747263" lon="12.33286665183368"><ele>255.33333333333331</ele><time>2026-04-04T12:57:57Z</time></trkpt><trkpt lat="43.007722112759446" lon="12.332636886986574"><ele>254.66666666666669</ele><time>2026-04-04T12:57:58Z</time></trkpt><trkpt lat="43.00774138111957" lon="12.332413720121652"><ele>254.0</ele><time>2026-04-04T12:57:59Z</time></trkpt><trkpt lat="43.00774785976128" lon="12.332190791608832"><ele>254.0</ele><time>2026-04-04T12:58:00Z</time></trkpt><trkpt lat="43.007769710678154" lon="12.331990361836601"><ele>254.0</ele><time>2026-04-04T12:58:01Z</time></trkpt><trkpt lat="43.00780590667612" lon="12.33179855695181"><ele>254.0</ele><time>2026-04-04T12:58:02Z</time></trkpt><trkpt lat="43.007825841710066" lon="12.331596974744228"><ele>254.0</ele><time>2026-04-04T12:58:03Z</time></trkpt><trkpt lat="43.00782848008888" lon="12.331386284939745"><ele>254.33333333333334</ele><time>2026-04-04T12:58:04Z</time></trkpt><trkpt lat="43.00784156142676" lon="12.331175189210573"><ele>254.66666666666669</ele><time>2026-04-04T12:58:05Z</time></trkpt><trkpt lat="43.00782675537258" lon="12.330946974986981"><ele>255.0</ele><time>2026-04-04T12:58:06Z</time></trkpt><trkpt lat="43.00778664781598" lon="12.33069987243185"><ele>255.0</ele><time>2026-04-04T12:58:07Z</time></trkpt><trkpt lat="43.007734964718345" lon="12.330437271940108"><ele>255.0</ele><time>2026-04-04T12:58:08Z</time></trkpt><trkpt lat="43.00768990574996" lon="12.330202304375314"><ele>255.0</ele><time>2026-04-04T12:58:09Z</time></trkpt><trkpt lat="43.007653185556734" lon="12.329991187906183"><ele>255.0</ele><time>2026-04-04T12:58:10Z</time></trkpt><trkpt lat="43.00761621939575" lon="12.329781711076725"><ele>255.0</ele><time>2026-04-04T12:58:11Z</time></trkpt><trkpt lat="43.00757698863717" lon="12.329573604258746"><ele>255.0</ele><time>2026-04-04T12:58:12Z</time></trkpt><trkpt lat="43.007532447068826" lon="12.329382544407688"><ele>253.66666666666669</ele><time>2026-04-04T12:58:13Z</time></trkpt><trkpt lat="43.00747113840464" lon="12.329200264152128"><ele>252.33333333333334</ele><time>2026-04-04T12:58:14Z</time></trkpt><trkpt lat="43.00737341097756" lon="12.329038062286243"><ele>251.0</ele><time>2026-04-04T12:58:15Z</time></trkpt><trkpt lat="43.00726116750465" lon="12.328894241888335"><ele>251.0</ele><time>2026-04-04T12:58:16Z</time></trkpt><trkpt lat="43.00714353645787" lon="12.328740658624803"><ele>251.0</ele><time>2026-04-04T12:58:17Z</time></trkpt><trkpt lat="43.00702684008377" lon="12.328574416773462"><ele>251.0</ele><time>2026-04-04T12:58:18Z</time></trkpt><trkpt lat="43.00692487231849" lon="12.32840508546859"><ele>251.0</ele><time>2026-04-04T12:58:19Z</time></trkpt><trkpt lat="43.00681106633478" lon="12.328273777257262"><ele>251.0</ele><time>2026-04-04T12:58:20Z</time></trkpt><trkpt lat="43.00671659602934" lon="12.328132136647167"><ele>251.0</ele><time>2026-04-04T12:58:21Z</time></trkpt><trkpt lat="43.006629771340975" lon="12.328001394274636"><ele>251.0</ele><time>2026-04-04T12:58:22Z</time></trkpt><trkpt lat="43.00655029482253" lon="12.327878338896182"><ele>250.4</ele><time>2026-04-04T12:58:23Z</time></trkpt><trkpt lat="43.00647635134321" lon="12.327764677651102"><ele>249.8</ele><time>2026-04-04T12:58:24Z</time></trkpt><trkpt lat="43.00639415415892" lon="12.327659211545027"><ele>249.20000000000002</ele><time>2026-04-04T12:58:25Z</time></trkpt><trkpt lat="43.0063081140356" lon="12.327564989776029"><ele>248.60000000000002</ele><time>2026-04-04T12:58:26Z</time></trkpt><trkpt lat="43.00621615003305" lon="12.327480924075704"><ele>248.0</ele><time>2026-04-04T12:58:27Z</time></trkpt><trkpt lat="43.00611611184605" lon="12.327391508820531"><ele>248.0</ele><time>2026-04-04T12:58:28Z</time></trkpt><trkpt lat="43.00602204163945" lon="12.32729987150443"><ele>248.0</ele><time>2026-04-04T12:58:29Z</time></trkpt><trkpt lat="43.005933806368155" lon="12.32720738001568"><ele>248.0</ele><time>2026-04-04T12:58:30Z</time></trkpt><trkpt lat="43.00585546857621" lon="12.32712159016992"><ele>248.0</ele><time>2026-04-04T12:58:31Z</time></trkpt><trkpt lat="43.00577317267082" lon="12.327072567678604"><ele>248.0</ele><time>2026-04-04T12:58:32Z</time></trkpt><trkpt lat="43.0056792052314" lon="12.327063873421237"><ele>246.33333333333334</ele><time>2026-04-04T12:58:33Z</time></trkpt><trkpt lat="43.005594186793225" lon="12.32707129585147"><ele>244.66666666666669</ele><time>2026-04-04T12:58:34Z</time></trkpt><trkpt lat="43.0055200047956" lon="12.327062149696793"><ele>243.0</ele><time>2026-04-04T12:58:35Z</time></trkpt><trkpt lat="43.005463662832746" lon="12.327023408721583"><ele>241.33333333333331</ele><time>2026-04-04T12:58:36Z</time></trkpt><trkpt lat="43.00540767064739" lon="12.326877593839635"><ele>239.66666666666666</ele><time>2026-04-04T12:58:38Z</time></trkpt><trkpt lat="43.005425987427806" lon="12.32678309058165"><ele>238.0</ele><time>2026-04-04T12:58:39Z</time></trkpt><trkpt lat="43.00545298597974" lon="12.326661523615442"><ele>238.0</ele><time>2026-04-04T12:58:40Z</time></trkpt><trkpt lat="43.00547994777911" lon="12.326523926509243"><ele>238.0</ele><time>2026-04-04T12:58:41Z</time></trkpt><trkpt lat="43.00552201856827" lon="12.326410978802281"><ele>238.0</ele><time>2026-04-04T12:58:42Z</time></trkpt><trkpt lat="43.005537736426874" lon="12.32628379634537"><ele>238.0</ele><time>2026-04-04T12:58:43Z</time></trkpt><trkpt lat="43.00555352029998" lon="12.326176231574127"><ele>238.0</ele><time>2026-04-04T12:58:44Z</time></trkpt><trkpt lat="43.00553147782902" lon="12.326050593865842"><ele>237.4</ele><time>2026-04-04T12:58:45Z</time></trkpt><trkpt lat="43.00547189663258" lon="12.325936400172251"><ele>236.8</ele><time>2026-04-04T12:58:46Z</time></trkpt><trkpt lat="43.00539228586326" lon="12.32582560531014"><ele>236.2</ele><time>2026-04-04T12:58:47Z</time></trkpt><trkpt lat="43.00531407752204" lon="12.325715550941835"><ele>235.6</ele><time>2026-04-04T12:58:48Z</time></trkpt><trkpt lat="43.005251692553166" lon="12.32559027222831"><ele>235.0</ele><time>2026-04-04T12:58:49Z</time></trkpt><trkpt lat="43.005162477611016" lon="12.32546606508326"><ele>233.75</ele><time>2026-04-04T12:58:50Z</time></trkpt><trkpt lat="43.00508708680407" lon="12.325314370314919"><ele>232.5</ele><time>2026-04-04T12:58:51Z</time></trkpt><trkpt lat="43.005029442411164" lon="12.325152128401141"><ele>231.25</ele><time>2026-04-04T12:58:52Z</time></trkpt><trkpt lat="43.00495667173377" lon="12.325000856371448"><ele>230.0</ele><time>2026-04-04T12:58:53Z</time></trkpt><trkpt lat="43.00490111884377" lon="12.32484017983947"><ele>228.0</ele><time>2026-04-04T12:58:54Z</time></trkpt><trkpt lat="43.00485307634255" lon="12.324685247240895"><ele>226.0</ele><time>2026-04-04T12:58:55Z</time></trkpt><trkpt lat="43.004806498656535" lon="12.324534166924474"><ele>224.0</ele><time>2026-04-04T12:58:56Z</time></trkpt><trkpt lat="43.00474722696943" lon="12.32439242718703"><ele>222.0</ele><time>2026-04-04T12:58:57Z</time></trkpt><trkpt lat="43.00466548933446" lon="12.324284481977921"><ele>222.0</ele><time>2026-04-04T12:58:58Z</time></trkpt><trkpt lat="43.00457589135306" lon="12.324182915050425"><ele>222.0</ele><time>2026-04-04T12:58:59Z</time></trkpt><trkpt lat="43.00447567822295" lon="12.324071565603134"><ele>222.0</ele><time>2026-04-04T12:59:00Z</time></trkpt><trkpt lat="43.004400292464744" lon="12.323939277157931"><ele>222.0</ele><time>2026-04-04T12:59:01Z</time></trkpt><trkpt lat="43.0043186573262" lon="12.323816459266396"><ele>221.25</ele><time>2026-04-04T12:59:02Z</time></trkpt><trkpt lat="43.00423981760991" lon="12.323682463044227"><ele>220.5</ele><time>2026-04-04T12:59:03Z</time></trkpt><trkpt lat="43.00415460191266" lon="12.32355236513597"><ele>219.75</ele><time>2026-04-04T12:59:04Z</time></trkpt><trkpt lat="43.00407885645387" lon="12.323408237138144"><ele>219.0</ele><time>2026-04-04T12:59:05Z</time></trkpt><trkpt lat="43.00400948836885" lon="12.323267040422833"><ele>218.16666666666666</ele><time>2026-04-04T12:59:06Z</time></trkpt><trkpt lat="43.003975876093214" lon="12.323129288028126"><ele>217.33333333333331</ele><time>2026-04-04T12:59:07Z</time></trkpt><trkpt lat="43.00395770675922" lon="12.323008319717577"><ele>216.5</ele><time>2026-04-04T12:59:08Z</time></trkpt><trkpt lat="43.00396369695659" lon="12.32290215302689"><ele>215.66666666666666</ele><time>2026-04-04T12:59:09Z</time></trkpt><trkpt lat="43.00396968470871" lon="12.322789489431578"><ele>214.83333333333331</ele><time>2026-04-04T12:59:10Z</time></trkpt><trkpt lat="43.00401923508392" lon="12.322697683151587"><ele>214.0</ele><time>2026-04-04T12:59:11Z</time></trkpt><trkpt lat="43.00409561325162" lon="12.322653615212358"><ele>213.79999999999998</ele><time>2026-04-04T12:59:12Z</time></trkpt><trkpt lat="43.00416600387127" lon="12.322606903001123"><ele>213.59999999999997</ele><time>2026-04-04T12:59:13Z</time></trkpt><trkpt lat="43.0042422538685" lon="12.32260781581003"><ele>213.4</ele><time>2026-04-04T12:59:14Z</time></trkpt><trkpt lat="43.004319589656234" lon="12.322617173716258"><ele>213.2</ele><time>2026-04-04T12:59:15Z</time></trkpt><trkpt lat="43.00440938207606" lon="12.322627635297538"><ele>213.0</ele><time>2026-04-04T12:59:17Z</time></trkpt><trkpt lat="43.00445868993005" lon="12.322425578012282"><ele>213.0</ele><time>2026-04-04T12:59:19Z</time></trkpt><trkpt lat="43.00442306719317" lon="12.32234716710837"><ele>213.0</ele><time>2026-04-04T12:59:20Z</time></trkpt><trkpt lat="43.00439602056428" lon="12.322265315159122"><ele>213.0</ele><time>2026-04-04T12:59:21Z</time></trkpt><trkpt lat="43.0043873807465" lon="12.322177010200647"><ele>213.0</ele><time>2026-04-04T12:59:22Z</time></trkpt><trkpt lat="43.00434194032394" lon="12.322049326153698"><ele>213.0</ele><time>2026-04-04T12:59:24Z</time></trkpt><trkpt lat="43.00429434827462" lon="12.32190790583589"><ele>213.0</ele><time>2026-04-04T12:59:26Z</time></trkpt><trkpt lat="43.00425444270299" lon="12.321830910211503"><ele>212.0</ele><time>2026-04-04T12:59:27Z</time></trkpt><trkpt lat="43.00423999111523" lon="12.321669095952098"><ele>211.0</ele><time>2026-04-04T12:59:29Z</time></trkpt><trkpt lat="43.00421681638031" lon="12.321535764586178"><ele>210.0</ele><time>2026-04-04T12:59:31Z</time></trkpt><trkpt lat="43.00419200212424" lon="12.321396756001688"><ele>209.0</ele><time>2026-04-04T12:59:33Z</time></trkpt><trkpt lat="43.00417081353814" lon="12.321265962943084"><ele>208.0</ele><time>2026-04-04T12:59:35Z</time></trkpt><trkpt lat="43.004155585487005" lon="12.321172544188345"><ele>207.83333333333331</ele><time>2026-04-04T12:59:37Z</time></trkpt><trkpt lat="43.004123593955164" lon="12.321072939898865"><ele>207.66666666666666</ele><time>2026-04-04T12:59:39Z</time></trkpt><trkpt lat="43.00411311782602" lon="12.320978647869184"><ele>207.5</ele><time>2026-04-04T12:59:41Z</time></trkpt><trkpt lat="43.004099503445566" lon="12.320888441918903"><ele>207.33333333333331</ele><time>2026-04-04T12:59:43Z</time></trkpt><trkpt lat="43.0040814252095" lon="12.320801887978096"><ele>207.16666666666666</ele><time>2026-04-04T13:00:13Z</time></trkpt><trkpt lat="43.00407033408843" lon="12.320639574014635"><ele>207.0</ele><time>2026-04-04T13:00:15Z</time></trkpt><trkpt lat="43.00405626549755" lon="12.32054018400225"><ele>206.8</ele><time>2026-04-04T13:00:16Z</time></trkpt><trkpt lat="43.00404109033082" lon="12.320433319876186"><ele>206.6</ele><time>2026-04-04T13:00:17Z</time></trkpt><trkpt lat="43.004013720242206" lon="12.320312617600464"><ele>206.4</ele><time>2026-04-04T13:00:18Z</time></trkpt><trkpt lat="43.00398795562305" lon="12.320159102527718"><ele>206.20000000000002</ele><time>2026-04-04T13:00:19Z</time></trkpt><trkpt lat="43.00396242830023" lon="12.319953495463285"><ele>206.0</ele><time>2026-04-04T13:00:20Z</time></trkpt><trkpt lat="43.00392846474038" lon="12.319738586230805"><ele>206.0</ele><time>2026-04-04T13:00:21Z</time></trkpt><trkpt lat="43.00389589138459" lon="12.319503635246718"><ele>206.0</ele><time>2026-04-04T13:00:22Z</time></trkpt><trkpt lat="43.00386210624043" lon="12.319263385838521"><ele>206.0</ele><time>2026-04-04T13:00:23Z</time></trkpt><trkpt lat="43.00382263104985" lon="12.31902753673336"><ele>206.33333333333334</ele><time>2026-04-04T13:00:24Z</time></trkpt><trkpt lat="43.00378990024175" lon="12.318780778372249"><ele>206.66666666666669</ele><time>2026-04-04T13:00:25Z</time></trkpt><trkpt lat="43.003752263772974" lon="12.318519724017182"><ele>207.0</ele><time>2026-04-04T13:00:26Z</time></trkpt><trkpt lat="43.0037153992961" lon="12.318255850836316"><ele>207.0</ele><time>2026-04-04T13:00:27Z</time></trkpt><trkpt lat="43.003679492543" lon="12.317980122230761"><ele>207.0</ele><time>2026-04-04T13:00:28Z</time></trkpt><trkpt lat="43.003651817488056" lon="12.317710599360181"><ele>207.0</ele><time>2026-04-04T13:00:29Z</time></trkpt><trkpt lat="43.003637963208135" lon="12.317454130040211"><ele>206.66666666666669</ele><time>2026-04-04T13:00:30Z</time></trkpt><trkpt lat="43.00366687935911" lon="12.317220257481807"><ele>206.33333333333334</ele><time>2026-04-04T13:00:31Z</time></trkpt><trkpt lat="43.003695614845824" lon="12.316982824994957"><ele>206.0</ele><time>2026-04-04T13:00:32Z</time></trkpt><trkpt lat="43.0037412891264" lon="12.316729273844356"><ele>206.0</ele><time>2026-04-04T13:00:33Z</time></trkpt><trkpt lat="43.00377664938183" lon="12.316477113633624"><ele>206.0</ele><time>2026-04-04T13:00:34Z</time></trkpt><trkpt lat="43.003824880618076" lon="12.316270105094642"><ele>206.0</ele><time>2026-04-04T13:00:35Z</time></trkpt><trkpt lat="43.00386425071069" lon="12.316075262957737"><ele>206.0</ele><time>2026-04-04T13:00:36Z</time></trkpt><trkpt lat="43.00388467044479" lon="12.315899989011852"><ele>206.0</ele><time>2026-04-04T13:00:37Z</time></trkpt><trkpt lat="43.00388753410356" lon="12.315732771540736"><ele>206.0</ele><time>2026-04-04T13:00:38Z</time></trkpt><trkpt lat="43.00386818932366" lon="12.315576895728476"><ele>206.0</ele><time>2026-04-04T13:00:39Z</time></trkpt><trkpt lat="43.00383321683369" lon="12.315400066288765"><ele>206.0</ele><time>2026-04-04T13:00:40Z</time></trkpt><trkpt lat="43.00377880653749" lon="12.31521661422513"><ele>206.0</ele><time>2026-04-04T13:00:41Z</time></trkpt><trkpt lat="43.00371368974215" lon="12.315036649168077"><ele>206.0</ele><time>2026-04-04T13:00:42Z</time></trkpt><trkpt lat="43.003672188946325" lon="12.314855588144914"><ele>206.0</ele><time>2026-04-04T13:00:43Z</time></trkpt><trkpt lat="43.00363592689881" lon="12.314697303002681"><ele>206.25</ele><time>2026-04-04T13:00:44Z</time></trkpt><trkpt lat="43.00361390871846" lon="12.314537675817743"><ele>206.5</ele><time>2026-04-04T13:00:45Z</time></trkpt><trkpt lat="43.0036238518381" lon="12.314397012464921"><ele>206.75</ele><time>2026-04-04T13:00:46Z</time></trkpt><trkpt lat="43.003654525222224" lon="12.314251494424614"><ele>207.0</ele><time>2026-04-04T13:00:47Z</time></trkpt><trkpt lat="43.00368567720769" lon="12.314089932969496"><ele>207.0</ele><time>2026-04-04T13:00:48Z</time></trkpt><trkpt lat="43.00374267512744" lon="12.313917982917587"><ele>207.0</ele><time>2026-04-04T13:00:49Z</time></trkpt><trkpt lat="43.00380404459266" lon="12.3137482645742"><ele>207.0</ele><time>2026-04-04T13:00:50Z</time></trkpt><trkpt lat="43.003872858418156" lon="12.313563713969534"><ele>207.0</ele><time>2026-04-04T13:00:51Z</time></trkpt><trkpt lat="43.00394718471835" lon="12.313378219798684"><ele>206.66666666666669</ele><time>2026-04-04T13:00:52Z</time></trkpt><trkpt lat="43.004021127007064" lon="12.313192110800529"><ele>206.33333333333334</ele><time>2026-04-04T13:00:53Z</time></trkpt><trkpt lat="43.00410624772444" lon="12.312984386324741"><ele>206.0</ele><time>2026-04-04T13:00:54Z</time></trkpt><trkpt lat="43.00419458174141" lon="12.31275615324478"><ele>207.0</ele><time>2026-04-04T13:00:55Z</time></trkpt><trkpt lat="43.00429316870445" lon="12.312503147117209"><ele>208.0</ele><time>2026-04-04T13:00:56Z</time></trkpt><trkpt lat="43.00439530210286" lon="12.312253332263653"><ele>209.0</ele><time>2026-04-04T13:00:57Z</time></trkpt><trkpt lat="43.004495226597825" lon="12.312001701326333"><ele>210.0</ele><time>2026-04-04T13:00:58Z</time></trkpt><trkpt lat="43.00461120409416" lon="12.311765308677792"><ele>211.0</ele><time>2026-04-04T13:00:59Z</time></trkpt><trkpt lat="43.00470385933931" lon="12.311542912452863"><ele>212.0</ele><time>2026-04-04T13:01:00Z</time></trkpt><trkpt lat="43.00479542185592" lon="12.311324275615128"><ele>212.66666666666669</ele><time>2026-04-04T13:01:01Z</time></trkpt><trkpt lat="43.00488280165851" lon="12.311115626346783"><ele>213.33333333333331</ele><time>2026-04-04T13:01:02Z</time></trkpt><trkpt lat="43.00495410245898" lon="12.31091253136932"><ele>214.0</ele><time>2026-04-04T13:01:03Z</time></trkpt><trkpt lat="43.00504728997931" lon="12.310731817370849"><ele>217.66666666666666</ele><time>2026-04-04T13:01:04Z</time></trkpt><trkpt lat="43.00514310694031" lon="12.310533614767193"><ele>221.33333333333331</ele><time>2026-04-04T13:01:05Z</time></trkpt><trkpt lat="43.00523908321401" lon="12.310324238188924"><ele>225.0</ele><time>2026-04-04T13:01:06Z</time></trkpt><trkpt lat="43.00533684737695" lon="12.310110884880006"><ele>225.0</ele><time>2026-04-04T13:01:07Z</time></trkpt><trkpt lat="43.00544538762445" lon="12.309885171209341"><ele>225.0</ele><time>2026-04-04T13:01:08Z</time></trkpt><trkpt lat="43.005548109487044" lon="12.30966627956405"><ele>225.0</ele><time>2026-04-04T13:01:09Z</time></trkpt><trkpt lat="43.00564868947927" lon="12.309464016983455"><ele>227.0</ele><time>2026-04-04T13:01:10Z</time></trkpt><trkpt lat="43.0057379647409" lon="12.309277426906746"><ele>229.0</ele><time>2026-04-04T13:01:11Z</time></trkpt><trkpt lat="43.00583278797005" lon="12.309085521552706"><ele>231.0</ele><time>2026-04-04T13:01:12Z</time></trkpt><trkpt lat="43.00592714586052" lon="12.308907130212585"><ele>234.33333333333331</ele><time>2026-04-04T13:01:13Z</time></trkpt><trkpt lat="43.0060184143158" lon="12.308725390247226"><ele>237.66666666666666</ele><time>2026-04-04T13:01:14Z</time></trkpt><trkpt lat="43.00610823062191" lon="12.308553124526991"><ele>241.0</ele><time>2026-04-04T13:01:15Z</time></trkpt><trkpt lat="43.00619042154826" lon="12.308377441734715"><ele>241.0</ele><time>2026-04-04T13:01:16Z</time></trkpt><trkpt lat="43.006259154754055" lon="12.308210468309605"><ele>241.0</ele><time>2026-04-04T13:01:17Z</time></trkpt><trkpt lat="43.00631342324426" lon="12.308055439935508"><ele>241.0</ele><time>2026-04-04T13:01:18Z</time></trkpt><trkpt lat="43.00635352414651" lon="12.307920241106943"><ele>241.0</ele><time>2026-04-04T13:01:19Z</time></trkpt><trkpt lat="43.00638199499184" lon="12.30779590920827"><ele>242.20000000000002</ele><time>2026-04-04T13:01:20Z</time></trkpt><trkpt lat="43.00639181711295" lon="12.307681262144943"><ele>243.40000000000003</ele><time>2026-04-04T13:01:21Z</time></trkpt><trkpt lat="43.00639080042638" lon="12.30755998083015"><ele>244.6</ele><time>2026-04-04T13:01:22Z</time></trkpt><trkpt lat="43.0063777604806" lon="12.307420677376356"><ele>245.8</ele><time>2026-04-04T13:01:23Z</time></trkpt><trkpt lat="43.00637532631305" lon="12.307246651390349"><ele>247.0</ele><time>2026-04-04T13:01:24Z</time></trkpt><trkpt lat="43.0063325047301" lon="12.30705026006177"><ele>248.66666666666666</ele><time>2026-04-04T13:01:25Z</time></trkpt><trkpt lat="43.006315728197755" lon="12.306824747881459"><ele>250.33333333333331</ele><time>2026-04-04T13:01:26Z</time></trkpt><trkpt lat="43.006280597882835" lon="12.30659761670715"><ele>252.0</ele><time>2026-04-04T13:01:27Z</time></trkpt><trkpt lat="43.00624062397529" lon="12.306369847889382"><ele>253.0</ele><time>2026-04-04T13:01:28Z</time></trkpt><trkpt lat="43.006174962507544" lon="12.306124891870668"><ele>254.0</ele><time>2026-04-04T13:01:29Z</time></trkpt><trkpt lat="43.006120220113885" lon="12.305869189930057"><ele>255.0</ele><time>2026-04-04T13:01:30Z</time></trkpt><trkpt lat="43.00605718424465" lon="12.305629482085246"><ele>256.3333333333333</ele><time>2026-04-04T13:01:31Z</time></trkpt><trkpt lat="43.00597855654879" lon="12.305365072158926"><ele>257.66666666666663</ele><time>2026-04-04T13:01:32Z</time></trkpt><trkpt lat="43.0058966296596" lon="12.30511862160075"><ele>259.0</ele><time>2026-04-04T13:01:33Z</time></trkpt><trkpt lat="43.00583206424532" lon="12.304847899518933"><ele>260.3333333333333</ele><time>2026-04-04T13:01:34Z</time></trkpt><trkpt lat="43.005758973351014" lon="12.304587314147977"><ele>261.6666666666667</ele><time>2026-04-04T13:01:35Z</time></trkpt><trkpt lat="43.00569223642352" lon="12.304336275502745"><ele>263.0</ele><time>2026-04-04T13:01:36Z</time></trkpt><trkpt lat="43.00561916717558" lon="12.30409287088219"><ele>265.6666666666667</ele><time>2026-04-04T13:01:37Z</time></trkpt><trkpt lat="43.00558210007543" lon="12.303829046637944"><ele>268.3333333333333</ele><time>2026-04-04T13:01:38Z</time></trkpt><trkpt lat="43.00553732806375" lon="12.30358734048141"><ele>271.0</ele><time>2026-04-04T13:01:39Z</time></trkpt><trkpt lat="43.00549622238214" lon="12.303351052715549"><ele>271.0</ele><time>2026-04-04T13:01:40Z</time></trkpt><trkpt lat="43.00546198225741" lon="12.303151832740367"><ele>271.0</ele><time>2026-04-04T13:01:41Z</time></trkpt><trkpt lat="43.00543117607343" lon="12.30297094839624"><ele>271.0</ele><time>2026-04-04T13:01:42Z</time></trkpt><trkpt lat="43.00540291042957" lon="12.302804980986542"><ele>271.0</ele><time>2026-04-04T13:01:43Z</time></trkpt><trkpt lat="43.00538352055705" lon="12.30265916359544"><ele>271.6</ele><time>2026-04-04T13:01:44Z</time></trkpt><trkpt lat="43.00537075561512" lon="12.30253535869825"><ele>272.20000000000005</ele><time>2026-04-04T13:01:45Z</time></trkpt><trkpt lat="43.005373936771754" lon="12.302425904436438"><ele>272.79999999999995</ele><time>2026-04-04T13:01:46Z</time></trkpt><trkpt lat="43.00539642839059" lon="12.302303695197889"><ele>273.4</ele><time>2026-04-04T13:01:47Z</time></trkpt><trkpt lat="43.00543146056557" lon="12.302142827413906"><ele>274.0</ele><time>2026-04-04T13:01:48Z</time></trkpt><trkpt lat="43.00546351840116" lon="12.301958566538147"><ele>274.0</ele><time>2026-04-04T13:01:49Z</time></trkpt><trkpt lat="43.00550341542218" lon="12.301807742263678"><ele>274.0</ele><time>2026-04-04T13:01:50Z</time></trkpt><trkpt lat="43.005570128527495" lon="12.301684595167007"><ele>274.0</ele><time>2026-04-04T13:01:51Z</time></trkpt><trkpt lat="43.00562869561997" lon="12.301554587470246"><ele>274.0</ele><time>2026-04-04T13:01:52Z</time></trkpt><trkpt lat="43.00569041855659" lon="12.301409355181233"><ele>274.25</ele><time>2026-04-04T13:01:53Z</time></trkpt><trkpt lat="43.00577108360619" lon="12.301255190910464"><ele>274.5</ele><time>2026-04-04T13:01:53.999Z</time></trkpt><trkpt lat="43.00585131174002" lon="12.301104413915361"><ele>274.75</ele><time>2026-04-04T13:01:54.999Z</time></trkpt><trkpt lat="43.005936259521775" lon="12.300949885824311"><ele>275.0</ele><time>2026-04-04T13:01:55.999Z</time></trkpt><trkpt lat="43.00601991152154" lon="12.300805090784841"><ele>275.0</ele><time>2026-04-04T13:01:56.999Z</time></trkpt><trkpt lat="43.00608857810286" lon="12.30067553909657"><ele>275.0</ele><time>2026-04-04T13:01:57.999Z</time></trkpt><trkpt lat="43.006147955567506" lon="12.300550382651764"><ele>275.0</ele><time>2026-04-04T13:01:58.999Z</time></trkpt><trkpt lat="43.006203504900796" lon="12.300427493441829"><ele>275.0</ele><time>2026-04-04T13:01:59.999Z</time></trkpt><trkpt lat="43.00624129852411" lon="12.300308345724323"><ele>275.0</ele><time>2026-04-04T13:02:00.999Z</time></trkpt><trkpt lat="43.006274660402354" lon="12.300167709525036"><ele>274.8</ele><time>2026-04-04T13:02:01.999Z</time></trkpt><trkpt lat="43.006287221197645" lon="12.300038753587373"><ele>274.6</ele><time>2026-04-04T13:02:02.999Z</time></trkpt><trkpt lat="43.00628173200618" lon="12.299919137049134"><ele>274.4</ele><time>2026-04-04T13:02:03.999Z</time></trkpt><trkpt lat="43.00628755111414" lon="12.299782641844361"><ele>274.2</ele><time>2026-04-04T13:02:04.999Z</time></trkpt><trkpt lat="43.0062766914349" lon="12.29963001510877"><ele>274.0</ele><time>2026-04-04T13:02:05.999Z</time></trkpt><trkpt lat="43.006270583457315" lon="12.29948535749058"><ele>273.4</ele><time>2026-04-04T13:02:06.999Z</time></trkpt><trkpt lat="43.006268627998054" lon="12.299340753660967"><ele>272.79999999999995</ele><time>2026-04-04T13:02:07.999Z</time></trkpt><trkpt lat="43.00625258781184" lon="12.299191053283044"><ele>272.20000000000005</ele><time>2026-04-04T13:02:08.999Z</time></trkpt><trkpt lat="43.00624668031057" lon="12.299041484923038"><ele>271.6</ele><time>2026-04-04T13:02:10Z</time></trkpt><trkpt lat="43.00624281614907" lon="12.298906767969422"><ele>271.0</ele><time>2026-04-04T13:02:11Z</time></trkpt><trkpt lat="43.00624819621199" lon="12.298783656181257"><ele>270.8333333333333</ele><time>2026-04-04T13:02:12Z</time></trkpt><trkpt lat="43.00624192928682" lon="12.298664115558"><ele>270.66666666666663</ele><time>2026-04-04T13:02:13Z</time></trkpt><trkpt lat="43.00623584120441" lon="12.298547986450725"><ele>270.5</ele><time>2026-04-04T13:02:14Z</time></trkpt><trkpt lat="43.00623183099699" lon="12.298442187405021"><ele>270.3333333333333</ele><time>2026-04-04T13:02:15Z</time></trkpt><trkpt lat="43.006229506829136" lon="12.298345525836856"><ele>270.1666666666667</ele><time>2026-04-04T13:02:16Z</time></trkpt><trkpt lat="43.00623590469616" lon="12.298190821357526"><ele>270.0</ele><time>2026-04-04T13:02:18Z</time></trkpt><trkpt lat="43.00626160642254" lon="12.298043407185766"><ele>269.75</ele><time>2026-04-04T13:02:20Z</time></trkpt><trkpt lat="43.00620249088085" lon="12.297889190197996"><ele>269.5</ele><time>2026-04-04T13:02:21Z</time></trkpt><trkpt lat="43.00616911575729" lon="12.297746738718542"><ele>269.25</ele><time>2026-04-04T13:02:22Z</time></trkpt><trkpt lat="43.006152893287435" lon="12.297591524659422"><ele>269.0</ele><time>2026-04-04T13:02:23Z</time></trkpt><trkpt lat="43.00613522336777" lon="12.297395523697006"><ele>268.6666666666667</ele><time>2026-04-04T13:02:24Z</time></trkpt><trkpt lat="43.006128593710294" lon="12.297162618430294"><ele>268.3333333333333</ele><time>2026-04-04T13:02:25Z</time></trkpt><trkpt lat="43.006132436601" lon="12.296914357762429"><ele>268.0</ele><time>2026-04-04T13:02:26Z</time></trkpt><trkpt lat="43.006137214455975" lon="12.296684244293152"><ele>268.0</ele><time>2026-04-04T13:02:27Z</time></trkpt><trkpt lat="43.00613771293656" lon="12.296459801635574"><ele>268.0</ele><time>2026-04-04T13:02:28Z</time></trkpt><trkpt lat="43.006128615912424" lon="12.296203956563334"><ele>268.0</ele><time>2026-04-04T13:02:29Z</time></trkpt><trkpt lat="43.006101553934506" lon="12.295957233759259"><ele>267.0</ele><time>2026-04-04T13:02:30Z</time></trkpt><trkpt lat="43.0060528790197" lon="12.295708313697665"><ele>266.0</ele><time>2026-04-04T13:02:31Z</time></trkpt><trkpt lat="43.005996505604195" lon="12.295453034135893"><ele>265.0</ele><time>2026-04-04T13:02:32Z</time></trkpt><trkpt lat="43.00595002169174" lon="12.295200863544121"><ele>264.0</ele><time>2026-04-04T13:02:33Z</time></trkpt><trkpt lat="43.005908931231524" lon="12.294953850644488"><ele>263.0</ele><time>2026-04-04T13:02:34Z</time></trkpt><trkpt lat="43.005866662274244" lon="12.294719257233416"><ele>262.0</ele><time>2026-04-04T13:02:35Z</time></trkpt><trkpt lat="43.00582633737914" lon="12.294499009870844"><ele>258.66666666666663</ele><time>2026-04-04T13:02:36Z</time></trkpt><trkpt lat="43.00580059956591" lon="12.294269048064416"><ele>255.33333333333331</ele><time>2026-04-04T13:02:37Z</time></trkpt><trkpt lat="43.005762440290404" lon="12.294057397334386"><ele>252.0</ele><time>2026-04-04T13:02:38Z</time></trkpt><trkpt lat="43.005722396613315" lon="12.2938355432659"><ele>252.0</ele><time>2026-04-04T13:02:39Z</time></trkpt><trkpt lat="43.00568348738585" lon="12.293618306688733"><ele>252.0</ele><time>2026-04-04T13:02:40Z</time></trkpt><trkpt lat="43.00564708890861" lon="12.293412215035708"><ele>252.0</ele><time>2026-04-04T13:02:41Z</time></trkpt><trkpt lat="43.00561119236869" lon="12.293208965354948"><ele>251.33333333333331</ele><time>2026-04-04T13:02:42Z</time></trkpt><trkpt lat="43.005575717627124" lon="12.293002251911986"><ele>250.66666666666666</ele><time>2026-04-04T13:02:43Z</time></trkpt><trkpt lat="43.0055351584956" lon="12.2927684318319"><ele>250.0</ele><time>2026-04-04T13:02:44Z</time></trkpt><trkpt lat="43.00548705742464" lon="12.292534728378088"><ele>250.0</ele><time>2026-04-04T13:02:45Z</time></trkpt><trkpt lat="43.005418809400595" lon="12.292300057700368"><ele>250.0</ele><time>2026-04-04T13:02:46Z</time></trkpt><trkpt lat="43.00536004060647" lon="12.29207010654787"><ele>250.0</ele><time>2026-04-04T13:02:47Z</time></trkpt><trkpt lat="43.005292185373" lon="12.291823954421675"><ele>251.33333333333331</ele><time>2026-04-04T13:02:48Z</time></trkpt><trkpt lat="43.005219006848904" lon="12.291555751241898"><ele>252.66666666666669</ele><time>2026-04-04T13:02:49Z</time></trkpt><trkpt lat="43.005161332588955" lon="12.291277809131493"><ele>254.0</ele><time>2026-04-04T13:02:50Z</time></trkpt><trkpt lat="43.00508709858066" lon="12.290993449471555"><ele>253.5</ele><time>2026-04-04T13:02:51Z</time></trkpt><trkpt lat="43.00499478189745" lon="12.290708879113364"><ele>253.0</ele><time>2026-04-04T13:02:52Z</time></trkpt><trkpt lat="43.00491888593883" lon="12.290418081551715"><ele>253.0</ele><time>2026-04-04T13:02:53Z</time></trkpt><trkpt lat="43.004841235171085" lon="12.290131239716475"><ele>253.0</ele><time>2026-04-04T13:02:54Z</time></trkpt><trkpt lat="43.00476290701145" lon="12.289839146562745"><ele>256.0</ele><time>2026-04-04T13:02:55Z</time></trkpt><trkpt lat="43.00470523971736" lon="12.289546904766995"><ele>259.0</ele><time>2026-04-04T13:02:56Z</time></trkpt><trkpt lat="43.004604427893085" lon="12.289284302336611"><ele>262.0</ele><time>2026-04-04T13:02:57Z</time></trkpt><trkpt lat="43.004507513166466" lon="12.289034869573726"><ele>264.66666666666663</ele><time>2026-04-04T13:02:58Z</time></trkpt><trkpt lat="43.0043929238092" lon="12.288800438597821"><ele>267.3333333333333</ele><time>2026-04-04T13:02:59Z</time></trkpt><trkpt lat="43.00429212777468" lon="12.288533959224205"><ele>270.0</ele><time>2026-04-04T13:03:00Z</time></trkpt><trkpt lat="43.00420399889869" lon="12.288261953119399"><ele>271.6666666666667</ele><time>2026-04-04T13:03:01Z</time></trkpt><trkpt lat="43.00412661867682" lon="12.287983475034496"><ele>273.33333333333337</ele><time>2026-04-04T13:03:02Z</time></trkpt><trkpt lat="43.004054804662864" lon="12.287709354612801"><ele>275.0</ele><time>2026-04-04T13:03:03Z</time></trkpt><trkpt lat="43.00398678293332" lon="12.287430295763727"><ele>276.0</ele><time>2026-04-04T13:03:04Z</time></trkpt><trkpt lat="43.00392113587972" lon="12.287160978977829"><ele>277.0</ele><time>2026-04-04T13:03:05Z</time></trkpt><trkpt lat="43.003844589961304" lon="12.286903102753278"><ele>278.0</ele><time>2026-04-04T13:03:06Z</time></trkpt><trkpt lat="43.00378704379736" lon="12.286665436569713"><ele>278.0</ele><time>2026-04-04T13:03:07Z</time></trkpt><trkpt lat="43.00375707609031" lon="12.286463762530555"><ele>278.0</ele><time>2026-04-04T13:03:08Z</time></trkpt><trkpt lat="43.00372125138657" lon="12.28630172906581"><ele>278.0</ele><time>2026-04-04T13:03:09Z</time></trkpt><trkpt lat="43.00369364240986" lon="12.286157186094426"><ele>278.0</ele><time>2026-04-04T13:03:10Z</time></trkpt><trkpt lat="43.003673953802895" lon="12.286013280413584"><ele>278.75</ele><time>2026-04-04T13:03:11Z</time></trkpt><trkpt lat="43.00365935613487" lon="12.285848107340021"><ele>279.5</ele><time>2026-04-04T13:03:12Z</time></trkpt><trkpt lat="43.00365459819328" lon="12.285651277970006"><ele>280.25</ele><time>2026-04-04T13:03:13Z</time></trkpt><trkpt lat="43.003655541003305" lon="12.285419864631514"><ele>281.0</ele><time>2026-04-04T13:03:14Z</time></trkpt><trkpt lat="43.0036564299114" lon="12.285201682324752"><ele>281.0</ele><time>2026-04-04T13:03:15Z</time></trkpt><trkpt lat="43.003637864759575" lon="12.284998870196468"><ele>281.0</ele><time>2026-04-04T13:03:16Z</time></trkpt><trkpt lat="43.00361967203475" lon="12.284798661457915"><ele>281.0</ele><time>2026-04-04T13:03:17Z</time></trkpt><trkpt lat="43.00357807149474" lon="12.284601974273484"><ele>281.0</ele><time>2026-04-04T13:03:18Z</time></trkpt><trkpt lat="43.00351796872073" lon="12.284405171856923"><ele>281.0</ele><time>2026-04-04T13:03:19Z</time></trkpt><trkpt lat="43.003439843257866" lon="12.284206610798524"><ele>281.0</ele><time>2026-04-04T13:03:20Z</time></trkpt><trkpt lat="43.003379963088044" lon="12.28400244582288"><ele>281.0</ele><time>2026-04-04T13:03:21Z</time></trkpt><trkpt lat="43.003314511765524" lon="12.283812763737357"><ele>280.75</ele><time>2026-04-04T13:03:22Z</time></trkpt><trkpt lat="43.003254233378804" lon="12.283632703824008"><ele>280.5</ele><time>2026-04-04T13:03:23Z</time></trkpt><trkpt lat="43.00320093542753" lon="12.28345040395024"><ele>280.25</ele><time>2026-04-04T13:03:24Z</time></trkpt><trkpt lat="43.00315342065606" lon="12.283268592146477"><ele>280.0</ele><time>2026-04-04T13:03:25Z</time></trkpt><trkpt lat="43.00310761677482" lon="12.28308148991986"><ele>278.25</ele><time>2026-04-04T13:03:26Z</time></trkpt><trkpt lat="43.00306369606375" lon="12.282900470310691"><ele>276.5</ele><time>2026-04-04T13:03:27Z</time></trkpt><trkpt lat="43.003026049846994" lon="12.28272276924261"><ele>274.75</ele><time>2026-04-04T13:03:28Z</time></trkpt><trkpt lat="43.00299221125656" lon="12.282543575332266"><ele>273.0</ele><time>2026-04-04T13:03:29Z</time></trkpt><trkpt lat="43.002965530592775" lon="12.282367718103641"><ele>271.25</ele><time>2026-04-04T13:03:30Z</time></trkpt><trkpt lat="43.00295344308356" lon="12.282194923196457"><ele>269.5</ele><time>2026-04-04T13:03:31Z</time></trkpt><trkpt lat="43.00296515520331" lon="12.282029183236299"><ele>267.75</ele><time>2026-04-04T13:03:32Z</time></trkpt><trkpt lat="43.00298643464884" lon="12.281871952970237"><ele>266.0</ele><time>2026-04-04T13:03:33Z</time></trkpt><trkpt lat="43.00299626240352" lon="12.281700085137192"><ele>266.0</ele><time>2026-04-04T13:03:34Z</time></trkpt><trkpt lat="43.00301655298261" lon="12.281539377777275"><ele>266.0</ele><time>2026-04-04T13:03:35Z</time></trkpt><trkpt lat="43.00303798212891" lon="12.281389582451958"><ele>266.0</ele><time>2026-04-04T13:03:36Z</time></trkpt><trkpt lat="43.00302749250511" lon="12.281238748535186"><ele>266.0</ele><time>2026-04-04T13:03:37Z</time></trkpt><trkpt lat="43.00300088898378" lon="12.281079014310722"><ele>265.75</ele><time>2026-04-04T13:03:38Z</time></trkpt><trkpt lat="43.002918771420376" lon="12.280927625608282"><ele>265.5</ele><time>2026-04-04T13:03:39Z</time></trkpt><trkpt lat="43.00284674668997" lon="12.2807670993312"><ele>265.25</ele><time>2026-04-04T13:03:40Z</time></trkpt><trkpt lat="43.00276613461518" lon="12.28061003501231"><ele>265.0</ele><time>2026-04-04T13:03:41Z</time></trkpt><trkpt lat="43.00268892285568" lon="12.280458886488628"><ele>265.0</ele><time>2026-04-04T13:03:42Z</time></trkpt><trkpt lat="43.00261577143631" lon="12.280304719231832"><ele>265.0</ele><time>2026-04-04T13:03:43Z</time></trkpt><trkpt lat="43.002546588083355" lon="12.280144268935697"><ele>265.0</ele><time>2026-04-04T13:03:44Z</time></trkpt><trkpt lat="43.00247374953359" lon="12.279998784217536"><ele>265.0</ele><time>2026-04-04T13:03:45Z</time></trkpt><trkpt lat="43.002405974792225" lon="12.279857934999232"><ele>264.0</ele><time>2026-04-04T13:03:46Z</time></trkpt><trkpt lat="43.00233829274854" lon="12.279713023976331"><ele>263.0</ele><time>2026-04-04T13:03:47Z</time></trkpt><trkpt lat="43.00226728487198" lon="12.27958927364448"><ele>262.0</ele><time>2026-04-04T13:03:48Z</time></trkpt><trkpt lat="43.00219086706837" lon="12.2794490969485"><ele>261.0</ele><time>2026-04-04T13:03:49Z</time></trkpt><trkpt lat="43.00211768151373" lon="12.27928011600915"><ele>261.0</ele><time>2026-04-04T13:03:50Z</time></trkpt><trkpt lat="43.00202453966134" lon="12.279136206306674"><ele>261.0</ele><time>2026-04-04T13:03:51Z</time></trkpt><trkpt lat="43.00194129906602" lon="12.278961574576678"><ele>261.0</ele><time>2026-04-04T13:03:52Z</time></trkpt><trkpt lat="43.00184914845417" lon="12.278797040148687"><ele>261.0</ele><time>2026-04-04T13:03:53Z</time></trkpt><trkpt lat="43.00175576887516" lon="12.278620963074884"><ele>260.0</ele><time>2026-04-04T13:03:54Z</time></trkpt><trkpt lat="43.001655976412835" lon="12.278448374948953"><ele>259.0</ele><time>2026-04-04T13:03:55Z</time></trkpt><trkpt lat="43.00155889453081" lon="12.278271816981647"><ele>258.0</ele><time>2026-04-04T13:03:56Z</time></trkpt><trkpt lat="43.001461422418195" lon="12.278099187053924"><ele>260.3333333333333</ele><time>2026-04-04T13:03:57Z</time></trkpt><trkpt lat="43.00137241419464" lon="12.277929258947973"><ele>262.66666666666663</ele><time>2026-04-04T13:03:58Z</time></trkpt><trkpt lat="43.001282539591884" lon="12.277757904940293"><ele>265.0</ele><time>2026-04-04T13:03:59Z</time></trkpt><trkpt lat="43.001184427604045" lon="12.277575981019817"><ele>265.0</ele><time>2026-04-04T13:03:59.999Z</time></trkpt><trkpt lat="43.00108207919739" lon="12.277398418741363"><ele>265.0</ele><time>2026-04-04T13:04:00.999Z</time></trkpt><trkpt lat="43.00098475410421" lon="12.277218676222274"><ele>265.0</ele><time>2026-04-04T13:04:01.999Z</time></trkpt><trkpt lat="43.00088574339312" lon="12.27702605209772"><ele>265.3333333333333</ele><time>2026-04-04T13:04:02.999Z</time></trkpt><trkpt lat="43.000785907590085" lon="12.276828368371453"><ele>265.6666666666667</ele><time>2026-04-04T13:04:03.999Z</time></trkpt><trkpt lat="43.000695518995485" lon="12.276646275585172"><ele>266.0</ele><time>2026-04-04T13:04:04.999Z</time></trkpt><trkpt lat="43.00061026891004" lon="12.27648463727813"><ele>267.75</ele><time>2026-04-04T13:04:05.999Z</time></trkpt><trkpt lat="43.000519476675215" lon="12.27631914731748"><ele>269.5</ele><time>2026-04-04T13:04:06.999Z</time></trkpt><trkpt lat="43.000429286334494" lon="12.276156045393915"><ele>271.25</ele><time>2026-04-04T13:04:07.999Z</time></trkpt><trkpt lat="43.00034376831435" lon="12.275999242781708"><ele>273.0</ele><time>2026-04-04T13:04:08.999Z</time></trkpt><trkpt lat="43.00025992843159" lon="12.275848889408893"><ele>273.0</ele><time>2026-04-04T13:04:09.999Z</time></trkpt><trkpt lat="43.000178180792545" lon="12.275698213821848"><ele>273.0</ele><time>2026-04-04T13:04:10.999Z</time></trkpt><trkpt lat="43.000098681164715" lon="12.27555618062129"><ele>273.0</ele><time>2026-04-04T13:04:11.999Z</time></trkpt><trkpt lat="43.00002421036665" lon="12.275424550223557"><ele>273.0</ele><time>2026-04-04T13:04:12.999Z</time></trkpt><trkpt lat="42.99995561964069" lon="12.275303144870197"><ele>272.6666666666667</ele><time>2026-04-04T13:04:13.999Z</time></trkpt><trkpt lat="42.99990403158148" lon="12.275191546225608"><ele>272.3333333333333</ele><time>2026-04-04T13:04:15Z</time></trkpt><trkpt lat="42.999871141080284" lon="12.27507936693375"><ele>272.0</ele><time>2026-04-04T13:04:16Z</time></trkpt><trkpt lat="42.999867718914984" lon="12.274968005371019"><ele>271.66666666666663</ele><time>2026-04-04T13:04:17Z</time></trkpt><trkpt lat="42.99989575022721" lon="12.274872937787812"><ele>271.3333333333333</ele><time>2026-04-04T13:04:18Z</time></trkpt><trkpt lat="42.999956348625005" lon="12.27481347010716"><ele>271.0</ele><time>2026-04-04T13:04:19Z</time></trkpt><trkpt lat="43.0000334057267" lon="12.274766591347223"><ele>271.0</ele><time>2026-04-04T13:04:20Z</time></trkpt><trkpt lat="43.00013150417676" lon="12.27471750723845"><ele>271.0</ele><time>2026-04-04T13:04:21Z</time></trkpt><trkpt lat="43.00027013726691" lon="12.274780513442096"><ele>271.0</ele><time>2026-04-04T13:04:22Z</time></trkpt><trkpt lat="43.000405726298396" lon="12.274802296454723"><ele>271.0</ele><time>2026-04-04T13:04:23Z</time></trkpt><trkpt lat="43.00056911140113" lon="12.274820984568187"><ele>271.0</ele><time>2026-04-04T13:04:24Z</time></trkpt><trkpt lat="43.00074123857857" lon="12.274833637402235"><ele>271.0</ele><time>2026-04-04T13:04:25Z</time></trkpt><trkpt lat="43.000910957034094" lon="12.274837912655068"><ele>271.0</ele><time>2026-04-04T13:04:26Z</time></trkpt><trkpt lat="43.00107769669359" lon="12.274852120815124"><ele>270.3333333333333</ele><time>2026-04-04T13:04:27Z</time></trkpt><trkpt lat="43.00125548820987" lon="12.274864826404002"><ele>269.6666666666667</ele><time>2026-04-04T13:04:28Z</time></trkpt><trkpt lat="43.00142786410877" lon="12.27487126506735"><ele>269.0</ele><time>2026-04-04T13:04:29Z</time></trkpt><trkpt lat="43.00159282505795" lon="12.274853419900733"><ele>269.33333333333337</ele><time>2026-04-04T13:04:30Z</time></trkpt><trkpt lat="43.001748536632554" lon="12.274787153837929"><ele>269.6666666666667</ele><time>2026-04-04T13:04:31Z</time></trkpt><trkpt lat="43.001900551011865" lon="12.27467421655068"><ele>270.0</ele><time>2026-04-04T13:04:32Z</time></trkpt><trkpt lat="43.00204216540084" lon="12.274527450027373"><ele>265.6666666666667</ele><time>2026-04-04T13:04:33Z</time></trkpt><trkpt lat="43.00217021925862" lon="12.274389999575321"><ele>261.33333333333337</ele><time>2026-04-04T13:04:34Z</time></trkpt><trkpt lat="43.00229286794292" lon="12.274264298177364"><ele>257.0</ele><time>2026-04-04T13:04:35Z</time></trkpt><trkpt lat="43.002400246560704" lon="12.274147921922895"><ele>258.0</ele><time>2026-04-04T13:04:36Z</time></trkpt><trkpt lat="43.002520679708105" lon="12.274066113184473"><ele>259.0</ele><time>2026-04-04T13:04:37Z</time></trkpt><trkpt lat="43.00264171550618" lon="12.274006973906978"><ele>260.0</ele><time>2026-04-04T13:04:38Z</time></trkpt><trkpt lat="43.00276979443663" lon="12.274018914701022"><ele>261.0</ele><time>2026-04-04T13:04:39Z</time></trkpt><trkpt lat="43.00287930122991" lon="12.274058007910686"><ele>261.0</ele><time>2026-04-04T13:04:40Z</time></trkpt><trkpt lat="43.0029564320228" lon="12.274105047139747"><ele>261.0</ele><time>2026-04-04T13:04:41Z</time></trkpt><trkpt lat="43.00304185005556" lon="12.274125729029558"><ele>261.0</ele><time>2026-04-04T13:04:43Z</time></trkpt><trkpt lat="43.00306594912627" lon="12.273961093630305"><ele>261.0</ele><time>2026-04-04T13:04:46Z</time></trkpt><trkpt lat="43.0029271711527" lon="12.27390953378282"><ele>261.0</ele><time>2026-04-04T13:04:48Z</time></trkpt><trkpt lat="43.002842622645815" lon="12.273862995486585"><ele>258.0</ele><time>2026-04-04T13:04:49Z</time></trkpt><trkpt lat="43.00275058527231" lon="12.273801605629622"><ele>255.00000000000003</ele><time>2026-04-04T13:04:50Z</time></trkpt><trkpt lat="43.00265441525264" lon="12.27373755181375"><ele>252.00000000000003</ele><time>2026-04-04T13:04:51Z</time></trkpt><trkpt lat="43.00256849266634" lon="12.273652149155547"><ele>249.0</ele><time>2026-04-04T13:04:52Z</time></trkpt><trkpt lat="43.002472088478186" lon="12.27358216573538"><ele>246.0</ele><time>2026-04-04T13:04:53Z</time></trkpt><trkpt lat="43.002376214962304" lon="12.273510245679592"><ele>246.0</ele><time>2026-04-04T13:04:54Z</time></trkpt><trkpt lat="43.00228206119095" lon="12.27343961572347"><ele>246.00000000000003</ele><time>2026-04-04T13:04:55Z</time></trkpt><trkpt lat="43.00219454934395" lon="12.273373968235223"><ele>246.00000000000003</ele><time>2026-04-04T13:04:56Z</time></trkpt><trkpt lat="43.00210559128411" lon="12.273317387989106"><ele>246.0</ele><time>2026-04-04T13:04:57Z</time></trkpt><trkpt lat="43.002015459484774" lon="12.273258868580244"><ele>246.0</ele><time>2026-04-04T13:04:58Z</time></trkpt><trkpt lat="43.00193371219944" lon="12.273199398402383"><ele>246.0</ele><time>2026-04-04T13:04:59Z</time></trkpt><trkpt lat="43.001855075984146" lon="12.273140181104244"><ele>246.00000000000003</ele><time>2026-04-04T13:05:00Z</time></trkpt><trkpt lat="43.00179584486488" lon="12.273056255125972"><ele>246.00000000000003</ele><time>2026-04-04T13:05:01Z</time></trkpt><trkpt lat="43.00174288209885" lon="12.272956804130192"><ele>246.0</ele><time>2026-04-04T13:05:02Z</time></trkpt><trkpt lat="43.00170366514448" lon="12.272816630107899"><ele>246.0</ele><time>2026-04-04T13:05:03Z</time></trkpt><trkpt lat="43.001685859108655" lon="12.272674885188913"><ele>246.20000000000002</ele><time>2026-04-04T13:05:04Z</time></trkpt><trkpt lat="43.001683497555334" lon="12.272532807742742"><ele>246.40000000000003</ele><time>2026-04-04T13:05:05Z</time></trkpt><trkpt lat="43.00172274364468" lon="12.272407935926745"><ele>246.6</ele><time>2026-04-04T13:05:06Z</time></trkpt><trkpt lat="43.00178470008502" lon="12.272283545937503"><ele>246.8</ele><time>2026-04-04T13:05:07Z</time></trkpt><trkpt lat="43.001866414352186" lon="12.272137049560254"><ele>247.0</ele><time>2026-04-04T13:05:08Z</time></trkpt><trkpt lat="43.0019358627709" lon="12.271987632661983"><ele>247.0</ele><time>2026-04-04T13:05:09Z</time></trkpt><trkpt lat="43.002002512152465" lon="12.27185671617274"><ele>247.0</ele><time>2026-04-04T13:05:10Z</time></trkpt><trkpt lat="43.00207301693157" lon="12.271735796133118"><ele>247.0</ele><time>2026-04-04T13:05:11Z</time></trkpt><trkpt lat="43.00213741310412" lon="12.271615969126948"><ele>247.0</ele><time>2026-04-04T13:05:12Z</time></trkpt><trkpt lat="43.00220931409418" lon="12.271486401036988"><ele>248.0</ele><time>2026-04-04T13:05:13Z</time></trkpt><trkpt lat="43.0022847848798" lon="12.271347105034616"><ele>249.0</ele><time>2026-04-04T13:05:14Z</time></trkpt><trkpt lat="43.00236272824349" lon="12.271206758964496"><ele>250.0</ele><time>2026-04-04T13:05:15Z</time></trkpt><trkpt lat="43.00243928082932" lon="12.271072477418596"><ele>251.0</ele><time>2026-04-04T13:05:16Z</time></trkpt><trkpt lat="43.002516064463684" lon="12.270943752703035"><ele>247.25</ele><time>2026-04-04T13:05:17Z</time></trkpt><trkpt lat="43.00259015697857" lon="12.270811305900667"><ele>243.5</ele><time>2026-04-04T13:05:18Z</time></trkpt><trkpt lat="43.0026594658383" lon="12.270678047676686"><ele>239.75</ele><time>2026-04-04T13:05:19Z</time></trkpt><trkpt lat="43.00273321810209" lon="12.270543530262456"><ele>236.0</ele><time>2026-04-04T13:05:20Z</time></trkpt><trkpt lat="43.00282022007214" lon="12.270423568701426"><ele>236.0</ele><time>2026-04-04T13:05:21Z</time></trkpt><trkpt lat="43.0028854794327" lon="12.270277426531825"><ele>236.0</ele><time>2026-04-04T13:05:22Z</time></trkpt><trkpt lat="43.00295633589693" lon="12.270146350308368"><ele>236.0</ele><time>2026-04-04T13:05:23Z</time></trkpt><trkpt lat="43.0030173357458" lon="12.269986505991273"><ele>236.0</ele><time>2026-04-04T13:05:24Z</time></trkpt><trkpt lat="43.003056417640785" lon="12.269799008135559"><ele>236.33333333333334</ele><time>2026-04-04T13:05:25Z</time></trkpt><trkpt lat="43.00308535941037" lon="12.269598422336749"><ele>236.66666666666669</ele><time>2026-04-04T13:05:26Z</time></trkpt><trkpt lat="43.0031203630466" lon="12.269388220218257"><ele>237.0</ele><time>2026-04-04T13:05:27Z</time></trkpt><trkpt lat="43.003150356605076" lon="12.269168727757975"><ele>237.0</ele><time>2026-04-04T13:05:28Z</time></trkpt><trkpt lat="43.00318568051089" lon="12.268976791653179"><ele>237.0</ele><time>2026-04-04T13:05:29Z</time></trkpt><trkpt lat="43.00322683052936" lon="12.268789995685092"><ele>237.0</ele><time>2026-04-04T13:05:30Z</time></trkpt><trkpt lat="43.003258010491564" lon="12.2685997871414"><ele>237.0</ele><time>2026-04-04T13:05:31Z</time></trkpt><trkpt lat="43.00327456269557" lon="12.268400982522744"><ele>236.75</ele><time>2026-04-04T13:05:32Z</time></trkpt><trkpt lat="43.00331245814416" lon="12.26821885121813"><ele>236.5</ele><time>2026-04-04T13:05:33Z</time></trkpt><trkpt lat="43.00334177822755" lon="12.268040022503877"><ele>236.25</ele><time>2026-04-04T13:05:34Z</time></trkpt><trkpt lat="43.00335949344454" lon="12.267847995610358"><ele>236.0</ele><time>2026-04-04T13:05:35Z</time></trkpt><trkpt lat="43.003358910772775" lon="12.267653591239283"><ele>234.33333333333334</ele><time>2026-04-04T13:05:36Z</time></trkpt><trkpt lat="43.00333429772056" lon="12.267456665853144"><ele>232.66666666666669</ele><time>2026-04-04T13:05:37Z</time></trkpt><trkpt lat="43.00328635892265" lon="12.267256142140361"><ele>231.0</ele><time>2026-04-04T13:05:38Z</time></trkpt><trkpt lat="43.00323669461817" lon="12.267032433426865"><ele>231.0</ele><time>2026-04-04T13:05:39Z</time></trkpt><trkpt lat="43.003188430503876" lon="12.266834646465972"><ele>231.0</ele><time>2026-04-04T13:05:40Z</time></trkpt><trkpt lat="43.003144225796404" lon="12.266653494992878"><ele>231.0</ele><time>2026-04-04T13:05:41Z</time></trkpt><trkpt lat="43.00310496173529" lon="12.266492590340834"><ele>231.0</ele><time>2026-04-04T13:05:42Z</time></trkpt><trkpt lat="43.00306311032061" lon="12.266321082689775"><ele>230.75</ele><time>2026-04-04T13:05:43Z</time></trkpt><trkpt lat="43.00302371234372" lon="12.266147201293025"><ele>230.5</ele><time>2026-04-04T13:05:44Z</time></trkpt><trkpt lat="43.00299030784944" lon="12.265984347027404"><ele>230.25</ele><time>2026-04-04T13:05:45Z</time></trkpt><trkpt lat="43.00296090386402" lon="12.265820140636896"><ele>230.0</ele><time>2026-04-04T13:05:46Z</time></trkpt><trkpt lat="43.00294617170233" lon="12.26564873864596"><ele>230.25</ele><time>2026-04-04T13:05:47Z</time></trkpt><trkpt lat="43.0029433521827" lon="12.265477042601482"><ele>230.5</ele><time>2026-04-04T13:05:48Z</time></trkpt><trkpt lat="43.00294684485974" lon="12.265293233714127"><ele>230.75</ele><time>2026-04-04T13:05:49Z</time></trkpt><trkpt lat="43.00295039183941" lon="12.265114980409129"><ele>231.0</ele><time>2026-04-04T13:05:50Z</time></trkpt><trkpt lat="43.00295294993937" lon="12.264943396030885"><ele>229.0</ele><time>2026-04-04T13:05:51Z</time></trkpt><trkpt lat="43.002953152186855" lon="12.264771711480414"><ele>227.0</ele><time>2026-04-04T13:05:52Z</time></trkpt><trkpt lat="43.002941899841595" lon="12.264602703163886"><ele>225.0</ele><time>2026-04-04T13:05:53Z</time></trkpt><trkpt lat="43.002910028065436" lon="12.26442091204295"><ele>223.0</ele><time>2026-04-04T13:05:54Z</time></trkpt><trkpt lat="43.00285933281642" lon="12.264231201280685"><ele>223.0</ele><time>2026-04-04T13:05:55Z</time></trkpt><trkpt lat="43.00280844827387" lon="12.264048114770702"><ele>223.0</ele><time>2026-04-04T13:05:56Z</time></trkpt><trkpt lat="43.00276044240719" lon="12.26387886563479"><ele>223.0</ele><time>2026-04-04T13:05:57Z</time></trkpt><trkpt lat="43.00271770322514" lon="12.2637344001144"><ele>223.0</ele><time>2026-04-04T13:05:58Z</time></trkpt><trkpt lat="43.00267794541261" lon="12.263595596415152"><ele>221.33333333333331</ele><time>2026-04-04T13:05:59Z</time></trkpt><trkpt lat="43.00264240477472" lon="12.263461284375312"><ele>219.66666666666666</ele><time>2026-04-04T13:06:00Z</time></trkpt><trkpt lat="43.00260407232262" lon="12.26334422759909"><ele>218.0</ele><time>2026-04-04T13:06:01Z</time></trkpt><trkpt lat="43.00258077284903" lon="12.263238025185478"><ele>216.33333333333331</ele><time>2026-04-04T13:06:02Z</time></trkpt><trkpt lat="43.00255153406207" lon="12.263145460702294"><ele>214.66666666666666</ele><time>2026-04-04T13:06:03Z</time></trkpt><trkpt lat="43.00252010425455" lon="12.263051184099172"><ele>213.0</ele><time>2026-04-04T13:06:04Z</time></trkpt><trkpt lat="43.002509549195636" lon="12.26296120123055"><ele>212.0</ele><time>2026-04-04T13:06:05Z</time></trkpt><trkpt lat="43.00257212577078" lon="12.262820578344542"><ele>211.0</ele><time>2026-04-04T13:06:07Z</time></trkpt><trkpt lat="43.00262794891205" lon="12.262754197921959"><ele>210.0</ele><time>2026-04-04T13:06:08Z</time></trkpt><trkpt lat="43.002683100974636" lon="12.262696793967953"><ele>209.0</ele><time>2026-04-04T13:06:09Z</time></trkpt><trkpt lat="43.00275816426959" lon="12.26258585359759"><ele>208.0</ele><time>2026-04-04T13:06:11Z</time></trkpt><trkpt lat="43.00281461587701" lon="12.262469298289146"><ele>208.0</ele><time>2026-04-04T13:06:13Z</time></trkpt><trkpt lat="43.00280505220349" lon="12.262377982329959"><ele>208.0</ele><time>2026-04-04T13:06:14Z</time></trkpt><trkpt lat="43.0027809485958" lon="12.262282371019928"><ele>208.0</ele><time>2026-04-04T13:06:15Z</time></trkpt><trkpt lat="43.00277292309848" lon="12.262188740169625"><ele>208.0</ele><time>2026-04-04T13:06:16Z</time></trkpt><trkpt lat="43.002765840248216" lon="12.262096143200663"><ele>208.0</ele><time>2026-04-04T13:06:17Z</time></trkpt><trkpt lat="43.00276284556201" lon="12.261990184659085"><ele>208.0</ele><time>2026-04-04T13:06:18Z</time></trkpt><trkpt lat="43.00276671457182" lon="12.261895221534093"><ele>208.0</ele><time>2026-04-04T13:06:19Z</time></trkpt><trkpt lat="43.00277760348382" lon="12.261803627278452"><ele>207.7142857142857</ele><time>2026-04-04T13:06:20Z</time></trkpt><trkpt lat="43.00279333733296" lon="12.26171606949136"><ele>207.42857142857144</ele><time>2026-04-04T13:06:21Z</time></trkpt><trkpt lat="43.00281201142985" lon="12.26163034405256"><ele>207.14285714285714</ele><time>2026-04-04T13:06:22Z</time></trkpt><trkpt lat="43.00282432147318" lon="12.261529350168427"><ele>206.85714285714283</ele><time>2026-04-04T13:06:23Z</time></trkpt><trkpt lat="43.00284910524273" lon="12.261431800912886"><ele>206.57142857142856</ele><time>2026-04-04T13:06:24Z</time></trkpt><trkpt lat="43.002876069055226" lon="12.261352834478542"><ele>206.28571428571428</ele><time>2026-04-04T13:06:25Z</time></trkpt><trkpt lat="43.00290315237942" lon="12.261271833248975"><ele>206.0</ele><time>2026-04-04T13:06:26Z</time></trkpt><trkpt lat="43.00294636482358" lon="12.261123483694382"><ele>205.8</ele><time>2026-04-04T13:06:28Z</time></trkpt><trkpt lat="43.00300585776023" lon="12.260965554574595"><ele>205.60000000000002</ele><time>2026-04-04T13:06:30Z</time></trkpt><trkpt lat="43.003035120474756" lon="12.260877269646764"><ele>205.4</ele><time>2026-04-04T13:06:31Z</time></trkpt><trkpt lat="43.00306542296088" lon="12.260790697897086"><ele>205.2</ele><time>2026-04-04T13:06:32Z</time></trkpt><trkpt lat="43.00309119612581" lon="12.26070819308574"><ele>205.0</ele><time>2026-04-04T13:06:33Z</time></trkpt><trkpt lat="43.00312425321849" lon="12.260547053591623"><ele>205.0</ele><time>2026-04-04T13:06:35Z</time></trkpt><trkpt lat="43.003159819372" lon="12.260357313206663"><ele>205.0</ele><time>2026-04-04T13:06:37Z</time></trkpt><trkpt lat="43.003167297419566" lon="12.260217338004772"><ele>205.0</ele><time>2026-04-04T13:06:38Z</time></trkpt><trkpt lat="43.00318146146218" lon="12.2600522810237"><ele>205.0</ele><time>2026-04-04T13:06:39Z</time></trkpt><trkpt lat="43.003195802352174" lon="12.259887626262008"><ele>205.25</ele><time>2026-04-04T13:06:40Z</time></trkpt><trkpt lat="43.00319578205135" lon="12.259720949389822"><ele>205.5</ele><time>2026-04-04T13:06:41Z</time></trkpt><trkpt lat="43.00320319771955" lon="12.25952397883822"><ele>205.75</ele><time>2026-04-04T13:06:42Z</time></trkpt><trkpt lat="43.00320514012947" lon="12.259342775891264"><ele>206.0</ele><time>2026-04-04T13:06:43Z</time></trkpt><trkpt lat="43.00320536226943" lon="12.259182232177517"><ele>206.0</ele><time>2026-04-04T13:06:44Z</time></trkpt><trkpt lat="43.003207887114385" lon="12.259051380265825"><ele>206.0</ele><time>2026-04-04T13:06:45Z</time></trkpt><trkpt lat="43.0032048195566" lon="12.258934741999392"><ele>206.0</ele><time>2026-04-04T13:06:46Z</time></trkpt><trkpt lat="43.003190165140204" lon="12.25882932434777"><ele>206.0</ele><time>2026-04-04T13:06:47Z</time></trkpt><trkpt lat="43.00313150937456" lon="12.258682009316066"><ele>206.0</ele><time>2026-04-04T13:06:49Z</time></trkpt><trkpt lat="43.0030565843716" lon="12.258638851572835"><ele>206.0</ele><time>2026-04-04T13:06:50Z</time></trkpt><trkpt lat="43.00294141786824" lon="12.258641112533251"><ele>206.0</ele><time>2026-04-04T13:06:51Z</time></trkpt><trkpt lat="43.00283165396381" lon="12.2585905050741"><ele>206.0</ele><time>2026-04-04T13:06:52Z</time></trkpt><trkpt lat="43.00270227425529" lon="12.25857563064206"><ele>206.0</ele><time>2026-04-04T13:06:53Z</time></trkpt><trkpt lat="43.00257822047209" lon="12.258532640033804"><ele>205.8</ele><time>2026-04-04T13:06:54Z</time></trkpt><trkpt lat="43.002462289606065" lon="12.258488582642418"><ele>205.60000000000002</ele><time>2026-04-04T13:06:55Z</time></trkpt><trkpt lat="43.00236194835829" lon="12.258425784199257"><ele>205.4</ele><time>2026-04-04T13:06:56Z</time></trkpt><trkpt lat="43.00227818793581" lon="12.258386194014879"><ele>205.2</ele><time>2026-04-04T13:06:57Z</time></trkpt><trkpt lat="43.002206465625534" lon="12.258339162696677"><ele>205.0</ele><time>2026-04-04T13:06:58Z</time></trkpt><trkpt lat="43.00214226016931" lon="12.258277652305372"><ele>204.99999999999997</ele><time>2026-04-04T13:06:59Z</time></trkpt><trkpt lat="43.002080149712505" lon="12.258193551693056"><ele>205.0</ele><time>2026-04-04T13:07:00Z</time></trkpt><trkpt lat="43.00202879597833" lon="12.258119404544638"><ele>205.0</ele><time>2026-04-04T13:07:01Z</time></trkpt><trkpt lat="43.00197176020471" lon="12.258009189565177"><ele>205.0</ele><time>2026-04-04T13:07:03Z</time></trkpt><trkpt lat="43.001979763797365" lon="12.257881342962216"><ele>204.99999999999997</ele><time>2026-04-04T13:07:05Z</time></trkpt><trkpt lat="43.00201842155207" lon="12.257789059084201"><ele>205.0</ele><time>2026-04-04T13:07:06Z</time></trkpt><trkpt lat="43.00205244819107" lon="12.257703230313219"><ele>205.0</ele><time>2026-04-04T13:07:07Z</time></trkpt><trkpt lat="43.00204964175626" lon="12.25754346490049"><ele>205.0</ele><time>2026-04-04T13:07:09Z</time></trkpt><trkpt lat="43.00197006433457" lon="12.257407957209761"><ele>205.0</ele><time>2026-04-04T13:07:11Z</time></trkpt><trkpt lat="43.001921375175804" lon="12.25735222997505"><ele>205.0</ele><time>2026-04-04T13:07:12Z</time></trkpt><trkpt lat="43.001858539778226" lon="12.257298845319372"><ele>205.0</ele><time>2026-04-04T13:07:13Z</time></trkpt><trkpt lat="43.00178886991117" lon="12.2572056151728"><ele>205.2</ele><time>2026-04-04T13:07:14Z</time></trkpt><trkpt lat="43.00174202037421" lon="12.257094511291015"><ele>205.4</ele><time>2026-04-04T13:07:15Z</time></trkpt><trkpt lat="43.00171307651871" lon="12.256982038393765"><ele>205.60000000000002</ele><time>2026-04-04T13:07:16Z</time></trkpt><trkpt lat="43.00171815220208" lon="12.256862396732313"><ele>205.8</ele><time>2026-04-04T13:07:17Z</time></trkpt><trkpt lat="43.00172738834605" lon="12.256689495789296"><ele>206.0</ele><time>2026-04-04T13:07:18Z</time></trkpt><trkpt lat="43.001728347824596" lon="12.25648937032082"><ele>206.0</ele><time>2026-04-04T13:07:19Z</time></trkpt><trkpt lat="43.00174195028203" lon="12.256276181771412"><ele>206.0</ele><time>2026-04-04T13:07:20Z</time></trkpt><trkpt lat="43.00175728037767" lon="12.256054836289882"><ele>206.0</ele><time>2026-04-04T13:07:21Z</time></trkpt><trkpt lat="43.00176969457939" lon="12.255856740571575"><ele>206.0</ele><time>2026-04-04T13:07:22Z</time></trkpt><trkpt lat="43.001788658415485" lon="12.25566016525757"><ele>206.0</ele><time>2026-04-04T13:07:23Z</time></trkpt><trkpt lat="43.00180227619911" lon="12.255466795193572"><ele>206.0</ele><time>2026-04-04T13:07:24Z</time></trkpt><trkpt lat="43.00181780909204" lon="12.255283278652517"><ele>206.0</ele><time>2026-04-04T13:07:25Z</time></trkpt><trkpt lat="43.00183078253921" lon="12.255086993189476"><ele>206.4</ele><time>2026-04-04T13:07:26Z</time></trkpt><trkpt lat="43.00184061029529" lon="12.25491745123148"><ele>206.8</ele><time>2026-04-04T13:07:27Z</time></trkpt><trkpt lat="43.00184102802473" lon="12.254780986694575"><ele>207.20000000000002</ele><time>2026-04-04T13:07:28Z</time></trkpt><trkpt lat="43.001837690226566" lon="12.254657610729911"><ele>207.60000000000002</ele><time>2026-04-04T13:07:29Z</time></trkpt><trkpt lat="43.00183370551368" lon="12.25456243487686"><ele>208.0</ele><time>2026-04-04T13:07:30Z</time></trkpt><trkpt lat="43.001861495266475" lon="12.254475739977343"><ele>210.8</ele><time>2026-04-04T13:07:33Z</time></trkpt><trkpt lat="43.0019342675474" lon="12.25450378786619"><ele>213.60000000000002</ele><time>2026-04-04T13:07:34Z</time></trkpt><trkpt lat="43.00207140331396" lon="12.25450378786487"><ele>216.39999999999998</ele><time>2026-04-04T13:07:36Z</time></trkpt><trkpt lat="43.00215656495389" lon="12.25448607911804"><ele>219.2</ele><time>2026-04-04T13:07:37Z</time></trkpt><trkpt lat="43.00224854325793" lon="12.254491869678807"><ele>222.0</ele><time>2026-04-04T13:07:38Z</time></trkpt><trkpt lat="43.002343466492974" lon="12.254495558719732"><ele>222.0</ele><time>2026-04-04T13:07:39Z</time></trkpt><trkpt lat="43.002454869942696" lon="12.254492854792733"><ele>222.0</ele><time>2026-04-04T13:07:40Z</time></trkpt><trkpt lat="43.00255909218413" lon="12.254490562441967"><ele>222.0</ele><time>2026-04-04T13:07:41Z</time></trkpt><trkpt lat="43.002655797728636" lon="12.254482839793216"><ele>222.0</ele><time>2026-04-04T13:07:42Z</time></trkpt><trkpt lat="43.002754268774694" lon="12.25446378130455"><ele>222.0</ele><time>2026-04-04T13:07:43Z</time></trkpt><trkpt lat="43.002847202082755" lon="12.254436259695783"><ele>222.0</ele><time>2026-04-04T13:07:44Z</time></trkpt><trkpt lat="43.002927077902534" lon="12.254417446559664"><ele>222.0</ele><time>2026-04-04T13:07:45Z</time></trkpt><trkpt lat="43.003010859482714" lon="12.254399155473292"><ele>222.0</ele><time>2026-04-04T13:07:46Z</time></trkpt><trkpt lat="43.00309312910907" lon="12.254373212423362"><ele>222.0</ele><time>2026-04-04T13:07:47Z</time></trkpt><trkpt lat="43.00318141598909" lon="12.254338958989512"><ele>222.0</ele><time>2026-04-04T13:07:48Z</time></trkpt><trkpt lat="43.00326790790382" lon="12.254281073167443"><ele>222.0</ele><time>2026-04-04T13:07:49Z</time></trkpt><trkpt lat="43.003355088113004" lon="12.254229673906272"><ele>221.2</ele><time>2026-04-04T13:07:50Z</time></trkpt><trkpt lat="43.00344656634143" lon="12.254186646096938"><ele>220.39999999999998</ele><time>2026-04-04T13:07:51Z</time></trkpt><trkpt lat="43.003541580210324" lon="12.254167906426094"><ele>219.60000000000002</ele><time>2026-04-04T13:07:52Z</time></trkpt><trkpt lat="43.003633995532475" lon="12.254128477135602"><ele>218.8</ele><time>2026-04-04T13:07:53Z</time></trkpt><trkpt lat="43.00371776488126" lon="12.254070728200782"><ele>218.0</ele><time>2026-04-04T13:07:54Z</time></trkpt><trkpt lat="43.003804838146344" lon="12.25404176334831"><ele>218.0</ele><time>2026-04-04T13:07:55Z</time></trkpt><trkpt lat="43.00389525080232" lon="12.253991567418788"><ele>218.0</ele><time>2026-04-04T13:07:56Z</time></trkpt><trkpt lat="43.003995568004925" lon="12.253939003423644"><ele>218.0</ele><time>2026-04-04T13:07:57Z</time></trkpt><trkpt lat="43.00411015049332" lon="12.253895707401625"><ele>218.0</ele><time>2026-04-04T13:07:58Z</time></trkpt><trkpt lat="43.004245096010855" lon="12.253856124860748"><ele>218.8</ele><time>2026-04-04T13:07:59Z</time></trkpt><trkpt lat="43.00436394640481" lon="12.253816755215139"><ele>219.60000000000002</ele><time>2026-04-04T13:08:00Z</time></trkpt><trkpt lat="43.0044682981263" lon="12.253776871615385"><ele>220.39999999999998</ele><time>2026-04-04T13:08:01Z</time></trkpt><trkpt lat="43.00457297746683" lon="12.253744290818204"><ele>221.2</ele><time>2026-04-04T13:08:02Z</time></trkpt><trkpt lat="43.0046739146338" lon="12.25370171788326"><ele>222.0</ele><time>2026-04-04T13:08:03Z</time></trkpt><trkpt lat="43.00478544998008" lon="12.253635171179829"><ele>222.0</ele><time>2026-04-04T13:08:04Z</time></trkpt><trkpt lat="43.00491361045047" lon="12.25356172117575"><ele>222.0</ele><time>2026-04-04T13:08:05Z</time></trkpt><trkpt lat="43.005021128580644" lon="12.253483599370783"><ele>222.0</ele><time>2026-04-04T13:08:06Z</time></trkpt><trkpt lat="43.00512951167243" lon="12.253422870018044"><ele>222.0</ele><time>2026-04-04T13:08:07Z</time></trkpt><trkpt lat="43.005239315888566" lon="12.253368478869605"><ele>219.75</ele><time>2026-04-04T13:08:08Z</time></trkpt><trkpt lat="43.00534962712502" lon="12.253327264995276"><ele>217.5</ele><time>2026-04-04T13:08:09Z</time></trkpt><trkpt lat="43.00546251019732" lon="12.253312608618927"><ele>215.25</ele><time>2026-04-04T13:08:10Z</time></trkpt><trkpt lat="43.00560741549252" lon="12.253310715231695"><ele>213.0</ele><time>2026-04-04T13:08:11Z</time></trkpt><trkpt lat="43.00575114953706" lon="12.253308419438602"><ele>212.8</ele><time>2026-04-04T13:08:12Z</time></trkpt><trkpt lat="43.00587751177967" lon="12.253303572248688"><ele>212.60000000000002</ele><time>2026-04-04T13:08:13Z</time></trkpt><trkpt lat="43.00598302724695" lon="12.253302824059789"><ele>212.39999999999998</ele><time>2026-04-04T13:08:14Z</time></trkpt><trkpt lat="43.00606367705025" lon="12.253310683199697"><ele>212.2</ele><time>2026-04-04T13:08:15Z</time></trkpt><trkpt lat="43.006140306189735" lon="12.253323995190067"><ele>212.0</ele><time>2026-04-04T13:08:16Z</time></trkpt><trkpt lat="43.00624025309531" lon="12.253362970197566"><ele>212.0</ele><time>2026-04-04T13:08:17Z</time></trkpt><trkpt lat="43.00636174263215" lon="12.25334439236307"><ele>212.0</ele><time>2026-04-04T13:08:18Z</time></trkpt><trkpt lat="43.0064815684113" lon="12.253349465718259"><ele>212.0</ele><time>2026-04-04T13:08:19Z</time></trkpt><trkpt lat="43.00660041295658" lon="12.25335117414775"><ele>212.0</ele><time>2026-04-04T13:08:20Z</time></trkpt><trkpt lat="43.006727541928925" lon="12.25335062851631"><ele>212.5</ele><time>2026-04-04T13:08:21Z</time></trkpt><trkpt lat="43.006853158099" lon="12.253335018737229"><ele>213.0</ele><time>2026-04-04T13:08:22Z</time></trkpt><trkpt lat="43.0069729806915" lon="12.253323911597096"><ele>213.5</ele><time>2026-04-04T13:08:23Z</time></trkpt><trkpt lat="43.007082653627684" lon="12.253293636870058"><ele>214.0</ele><time>2026-04-04T13:08:24Z</time></trkpt><trkpt lat="43.007196495688575" lon="12.253247100687378"><ele>214.0</ele><time>2026-04-04T13:08:25Z</time></trkpt><trkpt lat="43.00732885259593" lon="12.253155916747874"><ele>214.0</ele><time>2026-04-04T13:08:26Z</time></trkpt><trkpt lat="43.00745828449813" lon="12.253084912791588"><ele>214.0</ele><time>2026-04-04T13:08:27Z</time></trkpt><trkpt lat="43.00758822294651" lon="12.253028949811796"><ele>214.0</ele><time>2026-04-04T13:08:28Z</time></trkpt><trkpt lat="43.00772366908526" lon="12.252985109061138"><ele>214.39999999999998</ele><time>2026-04-04T13:08:29Z</time></trkpt><trkpt lat="43.00784959246584" lon="12.252948110998299"><ele>214.79999999999998</ele><time>2026-04-04T13:08:30Z</time></trkpt><trkpt lat="43.007959102500415" lon="12.252911130547435"><ele>215.20000000000002</ele><time>2026-04-04T13:08:31Z</time></trkpt><trkpt lat="43.008056952260006" lon="12.252884894579207"><ele>215.60000000000002</ele><time>2026-04-04T13:08:32Z</time></trkpt><trkpt lat="43.00814098006317" lon="12.252846303795378"><ele>216.0</ele><time>2026-04-04T13:08:33Z</time></trkpt><trkpt lat="43.00823562855186" lon="12.252804646700493"><ele>215.25</ele><time>2026-04-04T13:08:34Z</time></trkpt><trkpt lat="43.00835470436353" lon="12.252779014186093"><ele>214.5</ele><time>2026-04-04T13:08:35Z</time></trkpt><trkpt lat="43.008483411046456" lon="12.252783830271792"><ele>213.75</ele><time>2026-04-04T13:08:36Z</time></trkpt><trkpt lat="43.008625605504676" lon="12.252754750675864"><ele>213.0</ele><time>2026-04-04T13:08:37Z</time></trkpt><trkpt lat="43.008756985881234" lon="12.252781917464835"><ele>213.0</ele><time>2026-04-04T13:08:38Z</time></trkpt><trkpt lat="43.00889096095499" lon="12.252795449349424"><ele>213.0</ele><time>2026-04-04T13:08:39Z</time></trkpt><trkpt lat="43.00903606191272" lon="12.252794692300778"><ele>213.0</ele><time>2026-04-04T13:08:40Z</time></trkpt><trkpt lat="43.00917306709677" lon="12.252813939974647"><ele>213.0</ele><time>2026-04-04T13:08:41Z</time></trkpt><trkpt lat="43.009300984785035" lon="12.252822752700247"><ele>213.0</ele><time>2026-04-04T13:08:42Z</time></trkpt><trkpt lat="43.00942191057743" lon="12.252840724265901"><ele>213.0</ele><time>2026-04-04T13:08:43Z</time></trkpt><trkpt lat="43.00954580888325" lon="12.252866895250952"><ele>213.0</ele><time>2026-04-04T13:08:44Z</time></trkpt><trkpt lat="43.00966990608034" lon="12.252898094130947"><ele>213.0</ele><time>2026-04-04T13:08:45Z</time></trkpt><trkpt lat="43.009785425600825" lon="12.252926398829484"><ele>213.0</ele><time>2026-04-04T13:08:46Z</time></trkpt><trkpt lat="43.00990358695801" lon="12.252964048042214"><ele>213.0</ele><time>2026-04-04T13:08:47Z</time></trkpt><trkpt lat="43.01001751152281" lon="12.252962328368891"><ele>213.0</ele><time>2026-04-04T13:08:48Z</time></trkpt><trkpt lat="43.010114969955836" lon="12.252909903881976"><ele>213.0</ele><time>2026-04-04T13:08:49Z</time></trkpt><trkpt lat="43.010203823143485" lon="12.252842755268569"><ele>213.0</ele><time>2026-04-04T13:08:50Z</time></trkpt><trkpt lat="43.01029855087422" lon="12.252786330961163"><ele>212.5</ele><time>2026-04-04T13:08:51Z</time></trkpt><trkpt lat="43.010402039849716" lon="12.252685751847713"><ele>212.0</ele><time>2026-04-04T13:08:52Z</time></trkpt><trkpt lat="43.01049130595953" lon="12.252598871090683"><ele>211.5</ele><time>2026-04-04T13:08:53Z</time></trkpt><trkpt lat="43.01059172476132" lon="12.25254830146323"><ele>211.0</ele><time>2026-04-04T13:08:54Z</time></trkpt><trkpt lat="43.01070104711594" lon="12.252511957835088"><ele>211.25</ele><time>2026-04-04T13:08:55Z</time></trkpt><trkpt lat="43.01082932327173" lon="12.252467366312265"><ele>211.5</ele><time>2026-04-04T13:08:56Z</time></trkpt><trkpt lat="43.01095736713519" lon="12.252399903795373"><ele>211.75</ele><time>2026-04-04T13:08:57Z</time></trkpt><trkpt lat="43.011086685895926" lon="12.252365172088282"><ele>212.0</ele><time>2026-04-04T13:08:58Z</time></trkpt><trkpt lat="43.01122210734927" lon="12.252310846582084"><ele>213.0</ele><time>2026-04-04T13:08:59Z</time></trkpt><trkpt lat="43.01134848336972" lon="12.25225418775633"><ele>214.0</ele><time>2026-04-04T13:09:00Z</time></trkpt><trkpt lat="43.011460593632314" lon="12.252196695697853"><ele>215.0</ele><time>2026-04-04T13:09:01Z</time></trkpt><trkpt lat="43.01156179610849" lon="12.252126528075912"><ele>216.0</ele><time>2026-04-04T13:09:02Z</time></trkpt><trkpt lat="43.01167039634029" lon="12.252054176598845"><ele>216.0</ele><time>2026-04-04T13:09:03Z</time></trkpt><trkpt lat="43.01178064947053" lon="12.252000546719653"><ele>216.00000000000003</ele><time>2026-04-04T13:09:04Z</time></trkpt><trkpt lat="43.01187214864039" lon="12.251927827444213"><ele>216.00000000000003</ele><time>2026-04-04T13:09:05Z</time></trkpt><trkpt lat="43.01195949481324" lon="12.25188395286449"><ele>216.0</ele><time>2026-04-04T13:09:06Z</time></trkpt><trkpt lat="43.01204251318292" lon="12.251860061718919"><ele>216.0</ele><time>2026-04-04T13:09:07Z</time></trkpt><trkpt lat="43.012132010137144" lon="12.251858857671603"><ele>216.0</ele><time>2026-04-04T13:09:08Z</time></trkpt><trkpt lat="43.01221385403504" lon="12.251892812280301"><ele>216.0</ele><time>2026-04-04T13:09:09Z</time></trkpt><trkpt lat="43.012302724019754" lon="12.25194908728291"><ele>216.0</ele><time>2026-04-04T13:09:10Z</time></trkpt><trkpt lat="43.01238321025855" lon="12.251992110556"><ele>216.0</ele><time>2026-04-04T13:09:11Z</time></trkpt><trkpt lat="43.01244844745014" lon="12.252017602741788"><ele>216.0</ele><time>2026-04-04T13:09:12Z</time></trkpt><trkpt lat="43.012525144087434" lon="12.252003505246682"><ele>216.0</ele><time>2026-04-04T13:09:14Z</time></trkpt><trkpt lat="43.012520703377895" lon="12.251835694552005"><ele>215.0</ele><time>2026-04-04T13:09:16Z</time></trkpt><trkpt lat="43.01253275216608" lon="12.251728294855894"><ele>214.00000000000003</ele><time>2026-04-04T13:09:17Z</time></trkpt><trkpt lat="43.0125484944157" lon="12.251586150144146"><ele>213.0</ele><time>2026-04-04T13:09:18Z</time></trkpt><trkpt lat="43.012584083009195" lon="12.25143309072944"><ele>212.0</ele><time>2026-04-04T13:09:19Z</time></trkpt><trkpt lat="43.01262267885412" lon="12.251276176592471"><ele>211.0</ele><time>2026-04-04T13:09:20Z</time></trkpt><trkpt lat="43.01263529418473" lon="12.251131559305096"><ele>211.0</ele><time>2026-04-04T13:09:21Z</time></trkpt><trkpt lat="43.01265471005506" lon="12.251010247530383"><ele>211.0</ele><time>2026-04-04T13:09:22Z</time></trkpt><trkpt lat="43.01267900030191" lon="12.250903534708856"><ele>211.0</ele><time>2026-04-04T13:09:23Z</time></trkpt><trkpt lat="43.01265600005038" lon="12.250766888214264"><ele>211.0</ele><time>2026-04-04T13:09:24Z</time></trkpt><trkpt lat="43.01265435612648" lon="12.250635438623197"><ele>211.0</ele><time>2026-04-04T13:09:25Z</time></trkpt><trkpt lat="43.012636697823204" lon="12.250503891500902"><ele>212.0</ele><time>2026-04-04T13:09:26Z</time></trkpt><trkpt lat="43.01261531525563" lon="12.250364486214668"><ele>213.0</ele><time>2026-04-04T13:09:27Z</time></trkpt><trkpt lat="43.012587116565264" lon="12.250216585524212"><ele>214.00000000000003</ele><time>2026-04-04T13:09:28Z</time></trkpt><trkpt lat="43.01255014997156" lon="12.250093696510993"><ele>215.0</ele><time>2026-04-04T13:09:29Z</time></trkpt><trkpt lat="43.01250135633828" lon="12.249937600582838"><ele>216.0</ele><time>2026-04-04T13:09:30Z</time></trkpt><trkpt lat="43.012441322519564" lon="12.249770012381353"><ele>218.20000000000002</ele><time>2026-04-04T13:09:31Z</time></trkpt><trkpt lat="43.012387388494666" lon="12.249602192761738"><ele>220.40000000000003</ele><time>2026-04-04T13:09:32Z</time></trkpt><trkpt lat="43.01235864404902" lon="12.249448156771667"><ele>222.6</ele><time>2026-04-04T13:09:33Z</time></trkpt><trkpt lat="43.01233509949655" lon="12.249330648072734"><ele>224.8</ele><time>2026-04-04T13:09:34Z</time></trkpt><trkpt lat="43.01232944638659" lon="12.249203534886306"><ele>227.0</ele><time>2026-04-04T13:09:36Z</time></trkpt><trkpt lat="43.012448711726655" lon="12.249144797395676"><ele>226.33333333333334</ele><time>2026-04-04T13:09:38Z</time></trkpt><trkpt lat="43.01253420957019" lon="12.24912395354685"><ele>225.66666666666669</ele><time>2026-04-04T13:09:39Z</time></trkpt><trkpt lat="43.01262083493267" lon="12.24907843276829"><ele>225.0</ele><time>2026-04-04T13:09:40Z</time></trkpt><trkpt lat="43.01270049281272" lon="12.24902031121693"><ele>224.33333333333331</ele><time>2026-04-04T13:09:41Z</time></trkpt><trkpt lat="43.01275635588503" lon="12.248971350746766"><ele>223.66666666666666</ele><time>2026-04-04T13:09:42Z</time></trkpt><trkpt lat="43.01279929063641" lon="12.248836551178888"><ele>223.0</ele><time>2026-04-04T13:09:44Z</time></trkpt><trkpt lat="43.01276305921659" lon="12.24874764205888"><ele>224.66666666666666</ele><time>2026-04-04T13:09:45Z</time></trkpt><trkpt lat="43.01275494074777" lon="12.248647101298117"><ele>226.33333333333331</ele><time>2026-04-04T13:09:46Z</time></trkpt><trkpt lat="43.01275473633115" lon="12.248548861108247"><ele>228.0</ele><time>2026-04-04T13:09:47Z</time></trkpt><trkpt lat="43.01279209978661" lon="12.24840897776224"><ele>229.66666666666669</ele><time>2026-04-04T13:09:49Z</time></trkpt><trkpt lat="43.012872212494756" lon="12.24838624409576"><ele>231.33333333333334</ele><time>2026-04-04T13:09:51Z</time></trkpt><trkpt lat="43.01293514601196" lon="12.248350223306517"><ele>233.0</ele><time>2026-04-04T13:09:52Z</time></trkpt><trkpt lat="43.013010815592196" lon="12.248288925404722"><ele>233.00000000000003</ele><time>2026-04-04T13:09:53Z</time></trkpt><trkpt lat="43.01309261351212" lon="12.248242849784642"><ele>233.0</ele><time>2026-04-04T13:09:54Z</time></trkpt><trkpt lat="43.013159350493744" lon="12.24819229602399"><ele>233.0</ele><time>2026-04-04T13:09:55Z</time></trkpt><trkpt lat="43.01322733773828" lon="12.248141790640995"><ele>233.0</ele><time>2026-04-04T13:09:56Z</time></trkpt><trkpt lat="43.01329071766039" lon="12.248102772301634"><ele>233.00000000000003</ele><time>2026-04-04T13:09:57Z</time></trkpt><trkpt lat="43.01339833531956" lon="12.24803641447863"><ele>233.0</ele><time>2026-04-04T13:09:59Z</time></trkpt><trkpt lat="43.01349505839231" lon="12.247969333753947"><ele>233.5</ele><time>2026-04-04T13:10:01Z</time></trkpt><trkpt lat="43.01358420738954" lon="12.247888429201545"><ele>234.0</ele><time>2026-04-04T13:10:03Z</time></trkpt><trkpt lat="43.01366040651545" lon="12.247851356274102"><ele>234.5</ele><time>2026-04-04T13:10:05Z</time></trkpt><trkpt lat="43.01373919570161" lon="12.247797531597447"><ele>235.0</ele><time>2026-04-04T13:10:07Z</time></trkpt><trkpt lat="43.01374122872062" lon="12.24755517880742"><ele>234.99999999999997</ele><time>2026-04-04T13:10:09Z</time></trkpt><trkpt lat="43.0137170977095" lon="12.247474517603727"><ele>235.0</ele><time>2026-04-04T13:10:10Z</time></trkpt><trkpt lat="43.01368540505225" lon="12.247389334303367"><ele>235.0</ele><time>2026-04-04T13:10:11Z</time></trkpt><trkpt lat="43.01363715912687" lon="12.247306503056054"><ele>235.0</ele><time>2026-04-04T13:10:12Z</time></trkpt><trkpt lat="43.01356633919613" lon="12.247223051789614"><ele>234.99999999999997</ele><time>2026-04-04T13:10:13Z</time></trkpt><trkpt lat="43.01349542989606" lon="12.247181471536088"><ele>235.0</ele><time>2026-04-04T13:10:14Z</time></trkpt><trkpt lat="43.013422474013" lon="12.247208460797347"><ele>236.66666666666666</ele><time>2026-04-04T13:10:15Z</time></trkpt><trkpt lat="43.01335424225045" lon="12.247273293710741"><ele>238.33333333333331</ele><time>2026-04-04T13:10:16Z</time></trkpt><trkpt lat="43.01327764290013" lon="12.24731192201243"><ele>240.0</ele><time>2026-04-04T13:10:17Z</time></trkpt><trkpt lat="43.01319622721083" lon="12.247361491619673"><ele>241.66666666666669</ele><time>2026-04-04T13:10:17.999Z</time></trkpt><trkpt lat="43.013104831778435" lon="12.247411925170264"><ele>243.33333333333334</ele><time>2026-04-04T13:10:18.999Z</time></trkpt><trkpt lat="43.01302495870167" lon="12.247439434080245"><ele>245.0</ele><time>2026-04-04T13:10:19.999Z</time></trkpt><trkpt lat="43.01293393707975" lon="12.247421244570058"><ele>245.0</ele><time>2026-04-04T13:10:20.999Z</time></trkpt><trkpt lat="43.012848060840334" lon="12.247392861949095"><ele>245.0</ele><time>2026-04-04T13:10:21.999Z</time></trkpt><trkpt lat="43.01276515686635" lon="12.247337420709707"><ele>245.0</ele><time>2026-04-04T13:10:22.999Z</time></trkpt><trkpt lat="43.012685326059945" lon="12.247260195233126"><ele>245.0</ele><time>2026-04-04T13:10:23.999Z</time></trkpt><trkpt lat="43.012597458098696" lon="12.247165625505549"><ele>245.0</ele><time>2026-04-04T13:10:25Z</time></trkpt><trkpt lat="43.01249122888333" lon="12.247074101973858"><ele>248.5</ele><time>2026-04-04T13:10:26Z</time></trkpt><trkpt lat="43.01238972576041" lon="12.246969294418074"><ele>252.0</ele><time>2026-04-04T13:10:27Z</time></trkpt><trkpt lat="43.0122771037936" lon="12.246890034591903"><ele>255.5</ele><time>2026-04-04T13:10:28Z</time></trkpt><trkpt lat="43.01217004746422" lon="12.246827715797437"><ele>259.0</ele><time>2026-04-04T13:10:29Z</time></trkpt><trkpt lat="43.01208188767073" lon="12.24677865770511"><ele>259.0</ele><time>2026-04-04T13:10:30Z</time></trkpt><trkpt lat="43.01201488211015" lon="12.246689544441814"><ele>259.0</ele><time>2026-04-04T13:10:31Z</time></trkpt><trkpt lat="43.01195257955775" lon="12.246580812959982"><ele>259.0</ele><time>2026-04-04T13:10:32Z</time></trkpt><trkpt lat="43.01188381109541" lon="12.246461753297375"><ele>259.0</ele><time>2026-04-04T13:10:33Z</time></trkpt><trkpt lat="43.011818385193216" lon="12.246387308376077"><ele>259.0</ele><time>2026-04-04T13:10:34Z</time></trkpt><trkpt lat="43.01172859818533" lon="12.246317488436718"><ele>262.2</ele><time>2026-04-04T13:10:35Z</time></trkpt><trkpt lat="43.011652045090536" lon="12.246231818651552"><ele>265.4</ele><time>2026-04-04T13:10:36Z</time></trkpt><trkpt lat="43.01159447445487" lon="12.246134399191444"><ele>268.6</ele><time>2026-04-04T13:10:37Z</time></trkpt><trkpt lat="43.01150500080582" lon="12.246018379952242"><ele>271.8</ele><time>2026-04-04T13:10:38Z</time></trkpt><trkpt lat="43.01141209744796" lon="12.24590721297913"><ele>275.0</ele><time>2026-04-04T13:10:39Z</time></trkpt><trkpt lat="43.011318460094" lon="12.245835953840656"><ele>275.0</ele><time>2026-04-04T13:10:40Z</time></trkpt><trkpt lat="43.01124295780648" lon="12.245762584497296"><ele>275.0</ele><time>2026-04-04T13:10:41Z</time></trkpt><trkpt lat="43.0111673366973" lon="12.245710555547088"><ele>275.0</ele><time>2026-04-04T13:10:42Z</time></trkpt><trkpt lat="43.01109546277509" lon="12.245655228061496"><ele>275.0</ele><time>2026-04-04T13:10:43Z</time></trkpt><trkpt lat="43.011013303676755" lon="12.245614798596678"><ele>275.0</ele><time>2026-04-04T13:10:44Z</time></trkpt><trkpt lat="43.010937777159974" lon="12.24561326230782"><ele>275.0</ele><time>2026-04-04T13:10:45Z</time></trkpt><trkpt lat="43.010865261660975" lon="12.24566754898123"><ele>277.0</ele><time>2026-04-04T13:10:46Z</time></trkpt><trkpt lat="43.01078271725807" lon="12.245726097524592"><ele>279.0</ele><time>2026-04-04T13:10:47Z</time></trkpt><trkpt lat="43.01068920227503" lon="12.245796835016291"><ele>281.0</ele><time>2026-04-04T13:10:48Z</time></trkpt><trkpt lat="43.010569940424105" lon="12.245863205556043"><ele>283.0</ele><time>2026-04-04T13:10:49Z</time></trkpt><trkpt lat="43.01045845115738" lon="12.245929287892771"><ele>283.0</ele><time>2026-04-04T13:10:50Z</time></trkpt><trkpt lat="43.01036885785399" lon="12.2460086774121"><ele>283.0</ele><time>2026-04-04T13:10:51Z</time></trkpt><trkpt lat="43.01030090197406" lon="12.246070372192637"><ele>283.0</ele><time>2026-04-04T13:10:52Z</time></trkpt><trkpt lat="43.010228501213206" lon="12.246077642949633"><ele>283.0</ele><time>2026-04-04T13:10:53Z</time></trkpt><trkpt lat="43.010134297833105" lon="12.246115735377627"><ele>283.0</ele><time>2026-04-04T13:10:54Z</time></trkpt><trkpt lat="43.00999872256189" lon="12.246146850692647"><ele>286.25</ele><time>2026-04-04T13:10:55Z</time></trkpt><trkpt lat="43.009866681093065" lon="12.246191730207057"><ele>289.5</ele><time>2026-04-04T13:10:56Z</time></trkpt><trkpt lat="43.00975471605713" lon="12.246241941630114"><ele>292.75</ele><time>2026-04-04T13:10:57Z</time></trkpt><trkpt lat="43.0096444007097" lon="12.246291894866856"><ele>296.0</ele><time>2026-04-04T13:10:58Z</time></trkpt><trkpt lat="43.00951701630522" lon="12.246318652394663"><ele>296.0</ele><time>2026-04-04T13:10:59Z</time></trkpt><trkpt lat="43.0093946595074" lon="12.246288305475616"><ele>296.0</ele><time>2026-04-04T13:11:00Z</time></trkpt><trkpt lat="43.00929281309668" lon="12.246263982240997"><ele>296.0</ele><time>2026-04-04T13:11:01Z</time></trkpt><trkpt lat="43.00921287083043" lon="12.246228531568105"><ele>296.0</ele><time>2026-04-04T13:11:02Z</time></trkpt><trkpt lat="43.00917909965901" lon="12.246038070043303"><ele>297.40000000000003</ele><time>2026-04-04T13:11:04Z</time></trkpt><trkpt lat="43.009134652192266" lon="12.245960949785527"><ele>298.8</ele><time>2026-04-04T13:11:05Z</time></trkpt><trkpt lat="43.00908113267952" lon="12.24586412988353"><ele>300.20000000000005</ele><time>2026-04-04T13:11:06Z</time></trkpt><trkpt lat="43.008978060358416" lon="12.245841044923111"><ele>301.6</ele><time>2026-04-04T13:11:07Z</time></trkpt><trkpt lat="43.00888736548028" lon="12.245792844615645"><ele>303.0</ele><time>2026-04-04T13:11:08Z</time></trkpt><trkpt lat="43.00881961999377" lon="12.24570709573523"><ele>304.4</ele><time>2026-04-04T13:11:09Z</time></trkpt><trkpt lat="43.00878694224847" lon="12.245578800701885"><ele>305.8</ele><time>2026-04-04T13:11:10Z</time></trkpt><trkpt lat="43.00871949507584" lon="12.245443729228787"><ele>307.2</ele><time>2026-04-04T13:11:11Z</time></trkpt><trkpt lat="43.008649557313326" lon="12.245339645161797"><ele>308.6</ele><time>2026-04-04T13:11:12Z</time></trkpt><trkpt lat="43.008587359173724" lon="12.245245057905281"><ele>310.0</ele><time>2026-04-04T13:11:13Z</time></trkpt><trkpt lat="43.00848975645349" lon="12.24513267781175"><ele>310.0</ele><time>2026-04-04T13:11:15Z</time></trkpt><trkpt lat="43.008435138933756" lon="12.245065512731369"><ele>310.0</ele><time>2026-04-04T13:11:16Z</time></trkpt><trkpt lat="43.008323692203376" lon="12.245100882692926"><ele>310.0</ele><time>2026-04-04T13:11:17Z</time></trkpt><trkpt lat="43.008220073913144" lon="12.245120708546587"><ele>310.0</ele><time>2026-04-04T13:11:18Z</time></trkpt><trkpt lat="43.00810304854848" lon="12.245161338645685"><ele>310.0</ele><time>2026-04-04T13:11:19Z</time></trkpt><trkpt lat="43.00798493351191" lon="12.245218305022979"><ele>310.5</ele><time>2026-04-04T13:11:20Z</time></trkpt><trkpt lat="43.00787061562365" lon="12.245266137041394"><ele>311.0</ele><time>2026-04-04T13:11:21Z</time></trkpt><trkpt lat="43.00774092224221" lon="12.245292969449977"><ele>311.5</ele><time>2026-04-04T13:11:22Z</time></trkpt><trkpt lat="43.007605785272006" lon="12.24529010333218"><ele>312.0</ele><time>2026-04-04T13:11:23Z</time></trkpt><trkpt lat="43.00746303598759" lon="12.245281908952265"><ele>312.0</ele><time>2026-04-04T13:11:24Z</time></trkpt><trkpt lat="43.007319366340035" lon="12.245269039879927"><ele>312.0</ele><time>2026-04-04T13:11:25Z</time></trkpt><trkpt lat="43.00718573866405" lon="12.245256215120996"><ele>312.0</ele><time>2026-04-04T13:11:26Z</time></trkpt><trkpt lat="43.00707746229348" lon="12.245261169678349"><ele>312.0</ele><time>2026-04-04T13:11:27Z</time></trkpt><trkpt lat="43.006970998555474" lon="12.245284142819285"><ele>312.0</ele><time>2026-04-04T13:11:28Z</time></trkpt><trkpt lat="43.0068770429688" lon="12.245308862168553"><ele>312.0</ele><time>2026-04-04T13:11:29Z</time></trkpt><trkpt lat="43.00679224723085" lon="12.245326548135896"><ele>312.0</ele><time>2026-04-04T13:11:30Z</time></trkpt><trkpt lat="43.0067161540778" lon="12.24533083898333"><ele>312.0</ele><time>2026-04-04T13:11:31Z</time></trkpt><trkpt lat="43.006639823908884" lon="12.24533051067326"><ele>312.0</ele><time>2026-04-04T13:11:32Z</time></trkpt><trkpt lat="43.00652296848611" lon="12.245322973198135"><ele>312.8</ele><time>2026-04-04T13:11:34Z</time></trkpt><trkpt lat="43.006414714982625" lon="12.245322404713216"><ele>313.6</ele><time>2026-04-04T13:11:36Z</time></trkpt><trkpt lat="43.00630981208835" lon="12.24535470038436"><ele>314.40000000000003</ele><time>2026-04-04T13:11:38Z</time></trkpt><trkpt lat="43.0062405576355" lon="12.245403111698517"><ele>315.2</ele><time>2026-04-04T13:11:40Z</time></trkpt><trkpt lat="43.00615909553317" lon="12.245457342376351"><ele>316.0</ele><time>2026-04-04T13:11:42Z</time></trkpt><trkpt lat="43.00608776816801" lon="12.245495700512905"><ele>316.0</ele><time>2026-04-04T13:11:43Z</time></trkpt><trkpt lat="43.00598844365451" lon="12.245538836103547"><ele>316.0</ele><time>2026-04-04T13:11:44Z</time></trkpt><trkpt lat="43.00586486984696" lon="12.245574303066872"><ele>316.0</ele><time>2026-04-04T13:11:45Z</time></trkpt><trkpt lat="43.00572759453297" lon="12.245602225928735"><ele>316.0</ele><time>2026-04-04T13:11:46Z</time></trkpt><trkpt lat="43.00558511709535" lon="12.245635053438686"><ele>315.5</ele><time>2026-04-04T13:11:47Z</time></trkpt><trkpt lat="43.005437836323594" lon="12.24566752172095"><ele>315.0</ele><time>2026-04-04T13:11:48Z</time></trkpt><trkpt lat="43.00529180073841" lon="12.245711206447758"><ele>314.5</ele><time>2026-04-04T13:11:49Z</time></trkpt><trkpt lat="43.00514663016527" lon="12.24576043765055"><ele>314.0</ele><time>2026-04-04T13:11:50Z</time></trkpt><trkpt lat="43.00498418131778" lon="12.245811572865424"><ele>312.6666666666667</ele><time>2026-04-04T13:11:51Z</time></trkpt><trkpt lat="43.00483938339297" lon="12.245868547896482"><ele>311.3333333333333</ele><time>2026-04-04T13:11:52Z</time></trkpt><trkpt lat="43.004691247364086" lon="12.245925347428122"><ele>310.0</ele><time>2026-04-04T13:11:53Z</time></trkpt><trkpt lat="43.00454268932756" lon="12.245968710470777"><ele>310.0</ele><time>2026-04-04T13:11:54Z</time></trkpt><trkpt lat="43.00439643866161" lon="12.246009379278597"><ele>310.0</ele><time>2026-04-04T13:11:55Z</time></trkpt><trkpt lat="43.00427136521908" lon="12.24605684212613"><ele>310.0</ele><time>2026-04-04T13:11:56Z</time></trkpt><trkpt lat="43.00415539223742" lon="12.246109254087386"><ele>310.0</ele><time>2026-04-04T13:11:57Z</time></trkpt><trkpt lat="43.00402370037466" lon="12.24612282300896"><ele>312.0</ele><time>2026-04-04T13:11:58Z</time></trkpt><trkpt lat="43.00386959675718" lon="12.246121343858984"><ele>314.0</ele><time>2026-04-04T13:11:59Z</time></trkpt><trkpt lat="43.003735122740196" lon="12.246160013660267"><ele>316.0</ele><time>2026-04-04T13:12:00Z</time></trkpt><trkpt lat="43.003609949778614" lon="12.246187348408949"><ele>318.0</ele><time>2026-04-04T13:12:01Z</time></trkpt><trkpt lat="43.00349124468122" lon="12.246226966797401"><ele>318.0</ele><time>2026-04-04T13:12:02Z</time></trkpt><trkpt lat="43.00338654107013" lon="12.24624464074907"><ele>318.0</ele><time>2026-04-04T13:12:03Z</time></trkpt><trkpt lat="43.00327976647408" lon="12.246197876496598"><ele>318.0</ele><time>2026-04-04T13:12:04Z</time></trkpt><trkpt lat="43.00317449938436" lon="12.246153537216683"><ele>318.0</ele><time>2026-04-04T13:12:05Z</time></trkpt><trkpt lat="43.003052974317285" lon="12.246121419881202"><ele>318.25</ele><time>2026-04-04T13:12:06Z</time></trkpt><trkpt lat="43.002916004750325" lon="12.246069992776311"><ele>318.5</ele><time>2026-04-04T13:12:07Z</time></trkpt><trkpt lat="43.002789407563476" lon="12.246007956762568"><ele>318.75</ele><time>2026-04-04T13:12:08Z</time></trkpt><trkpt lat="43.002679713885264" lon="12.245959652386057"><ele>319.0</ele><time>2026-04-04T13:12:09Z</time></trkpt><trkpt lat="43.002564773837804" lon="12.245931621551874"><ele>320.4</ele><time>2026-04-04T13:12:10Z</time></trkpt><trkpt lat="43.00244054505089" lon="12.24592740319507"><ele>321.79999999999995</ele><time>2026-04-04T13:12:11Z</time></trkpt><trkpt lat="43.00233523852184" lon="12.245942636266864"><ele>323.20000000000005</ele><time>2026-04-04T13:12:12Z</time></trkpt><trkpt lat="43.00223135785868" lon="12.245985639675371"><ele>324.6</ele><time>2026-04-04T13:12:13Z</time></trkpt><trkpt lat="43.00213121409464" lon="12.246047620577471"><ele>326.0</ele><time>2026-04-04T13:12:14Z</time></trkpt><trkpt lat="43.00203904585708" lon="12.246121480884883"><ele>326.0</ele><time>2026-04-04T13:12:15Z</time></trkpt><trkpt lat="43.0019412699412" lon="12.246221841877473"><ele>326.0</ele><time>2026-04-04T13:12:16Z</time></trkpt><trkpt lat="43.00185059569762" lon="12.246320413582499"><ele>326.0</ele><time>2026-04-04T13:12:17Z</time></trkpt><trkpt lat="43.00174678907886" lon="12.246375551132964"><ele>326.0</ele><time>2026-04-04T13:12:18Z</time></trkpt><trkpt lat="43.001628060663855" lon="12.246425930690389"><ele>325.0</ele><time>2026-04-04T13:12:19Z</time></trkpt><trkpt lat="43.00150111867887" lon="12.246493639568497"><ele>324.0</ele><time>2026-04-04T13:12:20.001Z</time></trkpt><trkpt lat="43.001356653470744" lon="12.246532526382008"><ele>323.0</ele><time>2026-04-04T13:12:21.001Z</time></trkpt><trkpt lat="43.001238587743515" lon="12.246589511149296"><ele>322.0</ele><time>2026-04-04T13:12:22.001Z</time></trkpt><trkpt lat="43.0011248848964" lon="12.246632044868052"><ele>322.0</ele><time>2026-04-04T13:12:23.001Z</time></trkpt><trkpt lat="43.000995456672854" lon="12.246658031016922"><ele>322.0</ele><time>2026-04-04T13:12:23.999Z</time></trkpt><trkpt lat="43.000877226421146" lon="12.246672733724154"><ele>322.0</ele><time>2026-04-04T13:12:24.999Z</time></trkpt><trkpt lat="43.0007654101383" lon="12.246694981639392"><ele>322.0</ele><time>2026-04-04T13:12:25.999Z</time></trkpt><trkpt lat="43.00063793143378" lon="12.24672145206766"><ele>322.0</ele><time>2026-04-04T13:12:26.999Z</time></trkpt><trkpt lat="43.000505292703544" lon="12.246748880398169"><ele>322.0</ele><time>2026-04-04T13:12:27.999Z</time></trkpt><trkpt lat="43.000382992823056" lon="12.246767086463922"><ele>322.0</ele><time>2026-04-04T13:12:28.999Z</time></trkpt><trkpt lat="43.00029226398416" lon="12.246767510479648"><ele>322.0</ele><time>2026-04-04T13:12:29.999Z</time></trkpt><trkpt lat="43.000217320990515" lon="12.246699424696526"><ele>322.0</ele><time>2026-04-04T13:12:30.999Z</time></trkpt><trkpt lat="43.00011706976913" lon="12.24664091809135"><ele>322.0</ele><time>2026-04-04T13:12:31.999Z</time></trkpt><trkpt lat="43.00001097682915" lon="12.246594738941846"><ele>322.0</ele><time>2026-04-04T13:12:32.999Z</time></trkpt><trkpt lat="42.999902691137514" lon="12.24653402645526"><ele>322.0</ele><time>2026-04-04T13:12:33.999Z</time></trkpt><trkpt lat="42.99980033608747" lon="12.246484028617507"><ele>322.0</ele><time>2026-04-04T13:12:34.999Z</time></trkpt><trkpt lat="42.99971744065208" lon="12.246445721574704"><ele>322.0</ele><time>2026-04-04T13:12:35.999Z</time></trkpt><trkpt lat="42.99965713891155" lon="12.246383922333562"><ele>321.0</ele><time>2026-04-04T13:12:36.999Z</time></trkpt><trkpt lat="42.99964203912288" lon="12.246250421783758"><ele>320.0</ele><time>2026-04-04T13:12:38Z</time></trkpt><trkpt lat="42.99957234382773" lon="12.246169304894085"><ele>319.0</ele><time>2026-04-04T13:12:39Z</time></trkpt><trkpt lat="42.99950717617291" lon="12.246128601005603"><ele>318.0</ele><time>2026-04-04T13:12:40Z</time></trkpt><trkpt lat="42.99942221413474" lon="12.24609438209252"><ele>317.0</ele><time>2026-04-04T13:12:42Z</time></trkpt><trkpt lat="42.99931477998906" lon="12.246122869762456"><ele>317.0</ele><time>2026-04-04T13:12:44Z</time></trkpt><trkpt lat="42.99924989849859" lon="12.246154908028416"><ele>317.0</ele><time>2026-04-04T13:12:45Z</time></trkpt><trkpt lat="42.999172688434484" lon="12.246183941557621"><ele>317.0</ele><time>2026-04-04T13:12:46Z</time></trkpt><trkpt lat="42.99908274261113" lon="12.246210046267695"><ele>317.0</ele><time>2026-04-04T13:12:47Z</time></trkpt><trkpt lat="42.99897540559876" lon="12.246219812807748"><ele>317.0</ele><time>2026-04-04T13:12:48Z</time></trkpt><trkpt lat="42.998865828018815" lon="12.246222767917443"><ele>320.0</ele><time>2026-04-04T13:12:49Z</time></trkpt><trkpt lat="42.998746085029886" lon="12.246228299501764"><ele>323.0</ele><time>2026-04-04T13:12:50Z</time></trkpt><trkpt lat="42.99862693666158" lon="12.246238468926906"><ele>326.0</ele><time>2026-04-04T13:12:51Z</time></trkpt><trkpt lat="42.99850647196987" lon="12.246241794588542"><ele>329.0</ele><time>2026-04-04T13:12:52Z</time></trkpt><trkpt lat="42.998384156248484" lon="12.246250180857386"><ele>329.0</ele><time>2026-04-04T13:12:53Z</time></trkpt><trkpt lat="42.99825673432922" lon="12.246272899359377"><ele>329.0</ele><time>2026-04-04T13:12:54Z</time></trkpt><trkpt lat="42.99814829022062" lon="12.246299781565193"><ele>329.0</ele><time>2026-04-04T13:12:55Z</time></trkpt><trkpt lat="42.99803942227345" lon="12.246310280691151"><ele>329.0</ele><time>2026-04-04T13:12:56Z</time></trkpt><trkpt lat="42.9979259862175" lon="12.246320392964936"><ele>329.0</ele><time>2026-04-04T13:12:57Z</time></trkpt><trkpt lat="42.99778719248627" lon="12.246290068648308"><ele>329.0</ele><time>2026-04-04T13:12:58Z</time></trkpt><trkpt lat="42.99766026258524" lon="12.246253828211609"><ele>329.0</ele><time>2026-04-04T13:12:59Z</time></trkpt><trkpt lat="42.99754080146783" lon="12.246231085294944"><ele>329.0</ele><time>2026-04-04T13:13:00Z</time></trkpt><trkpt lat="42.997424127129435" lon="12.246215259394342"><ele>330.5</ele><time>2026-04-04T13:13:01Z</time></trkpt><trkpt lat="42.99731077064544" lon="12.246180604929625"><ele>332.0</ele><time>2026-04-04T13:13:02Z</time></trkpt><trkpt lat="42.99719928886851" lon="12.246134417217599"><ele>333.5</ele><time>2026-04-04T13:13:03Z</time></trkpt><trkpt lat="42.997087606573245" lon="12.246054263663845"><ele>335.0</ele><time>2026-04-04T13:13:04Z</time></trkpt><trkpt lat="42.9969688638881" lon="12.245963264693719"><ele>335.0</ele><time>2026-04-04T13:13:05Z</time></trkpt><trkpt lat="42.99685806691913" lon="12.245890358418755"><ele>335.0</ele><time>2026-04-04T13:13:06Z</time></trkpt><trkpt lat="42.99675681296283" lon="12.24582211804223"><ele>335.0</ele><time>2026-04-04T13:13:07Z</time></trkpt><trkpt lat="42.99665710931021" lon="12.245729794572089"><ele>335.0</ele><time>2026-04-04T13:13:08Z</time></trkpt><trkpt lat="42.99657242489191" lon="12.245629497645812"><ele>333.0</ele><time>2026-04-04T13:13:09Z</time></trkpt><trkpt lat="42.99648816014704" lon="12.245528930876286"><ele>331.0</ele><time>2026-04-04T13:13:10Z</time></trkpt><trkpt lat="42.99639358453319" lon="12.245426418491979"><ele>329.0</ele><time>2026-04-04T13:13:11Z</time></trkpt><trkpt lat="42.996286103252615" lon="12.245322328049731"><ele>327.0</ele><time>2026-04-04T13:13:12Z</time></trkpt><trkpt lat="42.99618897107838" lon="12.245240863052366"><ele>327.0</ele><time>2026-04-04T13:13:13Z</time></trkpt><trkpt lat="42.996109261983065" lon="12.245154413555113"><ele>327.0</ele><time>2026-04-04T13:13:14Z</time></trkpt><trkpt lat="42.99605237132274" lon="12.245056487527622"><ele>327.0</ele><time>2026-04-04T13:13:15Z</time></trkpt><trkpt lat="42.99599176951552" lon="12.244951795319876"><ele>327.0</ele><time>2026-04-04T13:13:16Z</time></trkpt><trkpt lat="42.995925021458035" lon="12.244890850354095"><ele>327.0</ele><time>2026-04-04T13:13:17Z</time></trkpt><trkpt lat="42.995841075943865" lon="12.244832532108655"><ele>327.75</ele><time>2026-04-04T13:13:18Z</time></trkpt><trkpt lat="42.99573764053572" lon="12.24476483562865"><ele>328.5</ele><time>2026-04-04T13:13:19Z</time></trkpt><trkpt lat="42.99562314518608" lon="12.244698748515797"><ele>329.25</ele><time>2026-04-04T13:13:20Z</time></trkpt><trkpt lat="42.99550675551273" lon="12.244634238167235"><ele>330.0</ele><time>2026-04-04T13:13:21Z</time></trkpt><trkpt lat="42.99539917497244" lon="12.244555094447778"><ele>330.0</ele><time>2026-04-04T13:13:22Z</time></trkpt><trkpt lat="42.995294941632274" lon="12.24448288347105"><ele>330.0</ele><time>2026-04-04T13:13:23Z</time></trkpt><trkpt lat="42.995187183759384" lon="12.244431465200483"><ele>330.0</ele><time>2026-04-04T13:13:24Z</time></trkpt><trkpt lat="42.99508088333751" lon="12.244388862121156"><ele>330.0</ele><time>2026-04-04T13:13:25Z</time></trkpt><trkpt lat="42.99498356856934" lon="12.24436295255355"><ele>330.0</ele><time>2026-04-04T13:13:26Z</time></trkpt><trkpt lat="42.99489001214932" lon="12.244346494395383"><ele>332.0</ele><time>2026-04-04T13:13:27Z</time></trkpt><trkpt lat="42.99479640005191" lon="12.244322500649222"><ele>334.0</ele><time>2026-04-04T13:13:28Z</time></trkpt><trkpt lat="42.99471395818058" lon="12.244309452499476"><ele>336.0</ele><time>2026-04-04T13:13:29Z</time></trkpt><trkpt lat="42.99462661335179" lon="12.244330126239667"><ele>338.0</ele><time>2026-04-04T13:13:30Z</time></trkpt><trkpt lat="42.99452552695174" lon="12.244371324025062"><ele>340.0</ele><time>2026-04-04T13:13:31Z</time></trkpt><trkpt lat="42.994422874197156" lon="12.244384171764604"><ele>340.0</ele><time>2026-04-04T13:13:32Z</time></trkpt><trkpt lat="42.99431687378863" lon="12.244379095537173"><ele>340.0</ele><time>2026-04-04T13:13:33Z</time></trkpt><trkpt lat="42.99422703313513" lon="12.244382516936536"><ele>340.0</ele><time>2026-04-04T13:13:34Z</time></trkpt><trkpt lat="42.99414272086928" lon="12.244390907568413"><ele>340.0</ele><time>2026-04-04T13:13:35Z</time></trkpt><trkpt lat="42.994072263476305" lon="12.244376993385265"><ele>340.0</ele><time>2026-04-04T13:13:36Z</time></trkpt><trkpt lat="42.99400297021162" lon="12.244327273059032"><ele>340.0</ele><time>2026-04-04T13:13:37Z</time></trkpt><trkpt lat="42.99394619033415" lon="12.244262758781748"><ele>339.66666666666663</ele><time>2026-04-04T13:13:38Z</time></trkpt><trkpt lat="42.99388675880735" lon="12.2442138928966"><ele>339.3333333333333</ele><time>2026-04-04T13:13:39Z</time></trkpt><trkpt lat="42.99381038659452" lon="12.244198030160748"><ele>339.0</ele><time>2026-04-04T13:13:40Z</time></trkpt><trkpt lat="42.99372043857527" lon="12.244195839614504"><ele>338.6666666666667</ele><time>2026-04-04T13:13:41Z</time></trkpt><trkpt lat="42.99363024078761" lon="12.24418428053579"><ele>338.33333333333337</ele><time>2026-04-04T13:13:42Z</time></trkpt><trkpt lat="42.99352772097839" lon="12.244155197034058"><ele>338.0</ele><time>2026-04-04T13:13:43Z</time></trkpt><trkpt lat="42.99343422693011" lon="12.244126677214346"><ele>338.0</ele><time>2026-04-04T13:13:44Z</time></trkpt><trkpt lat="42.993347893081285" lon="12.244090956603367"><ele>338.0</ele><time>2026-04-04T13:13:45Z</time></trkpt><trkpt lat="42.99326915441893" lon="12.244057168041474"><ele>338.0</ele><time>2026-04-04T13:13:46Z</time></trkpt><trkpt lat="42.99319840102186" lon="12.244017943670494"><ele>338.0</ele><time>2026-04-04T13:13:47Z</time></trkpt><trkpt lat="42.99312525174423" lon="12.243956669803127"><ele>338.0</ele><time>2026-04-04T13:13:48Z</time></trkpt><trkpt lat="42.993062146883005" lon="12.243905183463907"><ele>338.0</ele><time>2026-04-04T13:13:49Z</time></trkpt><trkpt lat="42.99299866520517" lon="12.243858300267076"><ele>336.1666666666667</ele><time>2026-04-04T13:13:50Z</time></trkpt><trkpt lat="42.9929220611462" lon="12.243812480671197"><ele>334.33333333333337</ele><time>2026-04-04T13:13:51Z</time></trkpt><trkpt lat="42.9928459839386" lon="12.243780010659568"><ele>332.5</ele><time>2026-04-04T13:13:52Z</time></trkpt><trkpt lat="42.99277583564455" lon="12.243754082981207"><ele>330.6666666666667</ele><time>2026-04-04T13:13:53Z</time></trkpt><trkpt lat="42.992658415408286" lon="12.243718301345675"><ele>328.8333333333333</ele><time>2026-04-04T13:13:55Z</time></trkpt><trkpt lat="42.992597411722706" lon="12.24369690410645"><ele>327.0</ele><time>2026-04-04T13:13:56Z</time></trkpt><trkpt lat="42.99252735401744" lon="12.243676883187272"><ele>326.8</ele><time>2026-04-04T13:13:57Z</time></trkpt><trkpt lat="42.99244036789624" lon="12.243636099563368"><ele>326.6</ele><time>2026-04-04T13:13:58Z</time></trkpt><trkpt lat="42.992330744502155" lon="12.243584303798821"><ele>326.40000000000003</ele><time>2026-04-04T13:13:59Z</time></trkpt><trkpt lat="42.99223214960572" lon="12.24353603774527"><ele>326.20000000000005</ele><time>2026-04-04T13:14:00Z</time></trkpt><trkpt lat="42.992134036168764" lon="12.243483047624078"><ele>326.0</ele><time>2026-04-04T13:14:01Z</time></trkpt><trkpt lat="42.99204053536158" lon="12.243428093179118"><ele>326.0</ele><time>2026-04-04T13:14:02Z</time></trkpt><trkpt lat="42.991947749747794" lon="12.243378478813588"><ele>326.0</ele><time>2026-04-04T13:14:03Z</time></trkpt><trkpt lat="42.99184172387335" lon="12.243322771076858"><ele>326.0</ele><time>2026-04-04T13:14:04Z</time></trkpt><trkpt lat="42.991731189632766" lon="12.243273475830266"><ele>326.0</ele><time>2026-04-04T13:14:05Z</time></trkpt><trkpt lat="42.991620150973645" lon="12.243227233678166"><ele>326.0</ele><time>2026-04-04T13:14:06.001Z</time></trkpt><trkpt lat="42.9915114948479" lon="12.243193104759948"><ele>323.8</ele><time>2026-04-04T13:14:07.001Z</time></trkpt><trkpt lat="42.99142656298025" lon="12.243129904401545"><ele>321.6</ele><time>2026-04-04T13:14:08.001Z</time></trkpt><trkpt lat="42.99133106367454" lon="12.243081255866203"><ele>319.4</ele><time>2026-04-04T13:14:09.001Z</time></trkpt><trkpt lat="42.9912578787173" lon="12.243040346914057"><ele>317.2</ele><time>2026-04-04T13:14:10.001Z</time></trkpt><trkpt lat="42.99120016114816" lon="12.243003537395063"><ele>315.0</ele><time>2026-04-04T13:14:11.001Z</time></trkpt><trkpt lat="42.991101637213255" lon="12.242942304681408"><ele>315.0</ele><time>2026-04-04T13:14:12.001Z</time></trkpt><trkpt lat="42.99097240856109" lon="12.242928206424525"><ele>315.0</ele><time>2026-04-04T13:14:13.001Z</time></trkpt><trkpt lat="42.99084213682535" lon="12.24290849476175"><ele>315.0</ele><time>2026-04-04T13:14:14.001Z</time></trkpt><trkpt lat="42.99070388796391" lon="12.24287813704176"><ele>315.0</ele><time>2026-04-04T13:14:15.001Z</time></trkpt><trkpt lat="42.99058945659042" lon="12.242842510268536"><ele>315.8333333333333</ele><time>2026-04-04T13:14:16.001Z</time></trkpt><trkpt lat="42.9904923583845" lon="12.242797613566179"><ele>316.6666666666667</ele><time>2026-04-04T13:14:17.001Z</time></trkpt><trkpt lat="42.99043011188284" lon="12.242751967462796"><ele>317.5</ele><time>2026-04-04T13:14:18.001Z</time></trkpt><trkpt lat="42.99038211534879" lon="12.242660226746642"><ele>318.33333333333337</ele><time>2026-04-04T13:14:19.001Z</time></trkpt><trkpt lat="42.99033135550537" lon="12.242574073218124"><ele>319.1666666666667</ele><time>2026-04-04T13:14:20.001Z</time></trkpt><trkpt lat="42.99026875259807" lon="12.242469221858606"><ele>320.0</ele><time>2026-04-04T13:14:21.001Z</time></trkpt><trkpt lat="42.99019473437762" lon="12.242360087463926"><ele>320.8</ele><time>2026-04-04T13:14:22.001Z</time></trkpt><trkpt lat="42.99012248384156" lon="12.242269070812005"><ele>321.6</ele><time>2026-04-04T13:14:23.001Z</time></trkpt><trkpt lat="42.99005912363951" lon="12.242204341183793"><ele>322.4</ele><time>2026-04-04T13:14:24.001Z</time></trkpt><trkpt lat="42.989953788324435" lon="12.242138846324556"><ele>323.2</ele><time>2026-04-04T13:14:26.001Z</time></trkpt><trkpt lat="42.98983503332223" lon="12.242208922395195"><ele>324.0</ele><time>2026-04-04T13:14:28.001Z</time></trkpt><trkpt lat="42.98977865680102" lon="12.24232418694489"><ele>324.0</ele><time>2026-04-04T13:14:29.001Z</time></trkpt><trkpt lat="42.98970540640583" lon="12.24243083605562"><ele>324.0</ele><time>2026-04-04T13:14:30Z</time></trkpt><trkpt lat="42.989631423343035" lon="12.242518511912813"><ele>324.0</ele><time>2026-04-04T13:14:31Z</time></trkpt><trkpt lat="42.98956219190519" lon="12.242591101633788"><ele>324.0</ele><time>2026-04-04T13:14:32Z</time></trkpt><trkpt lat="42.98949672667288" lon="12.242656323796732"><ele>324.0</ele><time>2026-04-04T13:14:33Z</time></trkpt><trkpt lat="42.98943422872044" lon="12.242718393817738"><ele>324.0</ele><time>2026-04-04T13:14:34Z</time></trkpt><trkpt lat="42.98935138946787" lon="12.242760429428921"><ele>324.0</ele><time>2026-04-04T13:14:35Z</time></trkpt><trkpt lat="42.989259298663704" lon="12.242784671541665"><ele>324.0</ele><time>2026-04-04T13:14:36Z</time></trkpt><trkpt lat="42.989155551593925" lon="12.242798288247757"><ele>324.0</ele><time>2026-04-04T13:14:37Z</time></trkpt><trkpt lat="42.989042567505784" lon="12.242814685618484"><ele>324.0</ele><time>2026-04-04T13:14:38Z</time></trkpt><trkpt lat="42.988948503261405" lon="12.242830316077315"><ele>322.8333333333333</ele><time>2026-04-04T13:14:39Z</time></trkpt><trkpt lat="42.988875545157654" lon="12.24284132441182"><ele>321.6666666666667</ele><time>2026-04-04T13:14:40Z</time></trkpt><trkpt lat="42.98881120416297" lon="12.242841927435752"><ele>320.5</ele><time>2026-04-04T13:14:41Z</time></trkpt><trkpt lat="42.98869648313338" lon="12.242783512310195"><ele>319.33333333333337</ele><time>2026-04-04T13:14:43Z</time></trkpt><trkpt lat="42.988666490170644" lon="12.242694938141577"><ele>318.1666666666667</ele><time>2026-04-04T13:14:44Z</time></trkpt><trkpt lat="42.988680451933035" lon="12.242559476796435"><ele>317.0</ele><time>2026-04-04T13:14:46Z</time></trkpt><trkpt lat="42.98872264285598" lon="12.242459191243512"><ele>317.0</ele><time>2026-04-04T13:14:47Z</time></trkpt><trkpt lat="42.98874546747207" lon="12.242344185654563"><ele>317.0</ele><time>2026-04-04T13:14:48Z</time></trkpt><trkpt lat="42.98872754510347" lon="12.242174890560419"><ele>317.0</ele><time>2026-04-04T13:14:50Z</time></trkpt><trkpt lat="42.98868327636623" lon="12.242112853632584"><ele>317.0</ele><time>2026-04-04T13:14:51Z</time></trkpt><trkpt lat="42.98862161370629" lon="12.242074172958421"><ele>317.0</ele><time>2026-04-04T13:14:52Z</time></trkpt><trkpt lat="42.98854499784368" lon="12.242056661352247"><ele>317.0</ele><time>2026-04-04T13:14:53Z</time></trkpt><trkpt lat="42.98847890668289" lon="12.242027329100697"><ele>318.0</ele><time>2026-04-04T13:14:54Z</time></trkpt><trkpt lat="42.98840327754845" lon="12.241993763742848"><ele>319.0</ele><time>2026-04-04T13:14:55Z</time></trkpt><trkpt lat="42.9883194350556" lon="12.241958148316511"><ele>320.0</ele><time>2026-04-04T13:14:56Z</time></trkpt><trkpt lat="42.988227945173136" lon="12.24192205343984"><ele>321.0</ele><time>2026-04-04T13:14:57Z</time></trkpt><trkpt lat="42.988151348098235" lon="12.241892044873115"><ele>322.0</ele><time>2026-04-04T13:14:58Z</time></trkpt><trkpt lat="42.98806901277751" lon="12.241871341525131"><ele>323.0</ele><time>2026-04-04T13:14:59Z</time></trkpt><trkpt lat="42.98796355483889" lon="12.241943577855718"><ele>323.0</ele><time>2026-04-04T13:15:01Z</time></trkpt><trkpt lat="42.98789967830038" lon="12.24198522759157"><ele>323.0</ele><time>2026-04-04T13:15:02Z</time></trkpt><trkpt lat="42.98780691006288" lon="12.241996654932755"><ele>323.0</ele><time>2026-04-04T13:15:03Z</time></trkpt><trkpt lat="42.98770342942279" lon="12.24204585346289"><ele>323.0</ele><time>2026-04-04T13:15:04Z</time></trkpt><trkpt lat="42.98760003630606" lon="12.242051173966733"><ele>323.0</ele><time>2026-04-04T13:15:05Z</time></trkpt><trkpt lat="42.98750117989175" lon="12.24208246303459"><ele>324.4</ele><time>2026-04-04T13:15:06Z</time></trkpt><trkpt lat="42.987411532700854" lon="12.24213214780799"><ele>325.79999999999995</ele><time>2026-04-04T13:15:07Z</time></trkpt><trkpt lat="42.987325832348674" lon="12.242186173415682"><ele>327.2</ele><time>2026-04-04T13:15:08Z</time></trkpt><trkpt lat="42.987239533461185" lon="12.242242820677989"><ele>328.6</ele><time>2026-04-04T13:15:09Z</time></trkpt><trkpt lat="42.987141974691696" lon="12.242307381932351"><ele>330.0</ele><time>2026-04-04T13:15:10Z</time></trkpt><trkpt lat="42.98705865295729" lon="12.242365370351692"><ele>331.6</ele><time>2026-04-04T13:15:11Z</time></trkpt><trkpt lat="42.986993075381804" lon="12.24240868841324"><ele>333.2</ele><time>2026-04-04T13:15:12Z</time></trkpt><trkpt lat="42.98692246946147" lon="12.242438033944017"><ele>334.79999999999995</ele><time>2026-04-04T13:15:13Z</time></trkpt><trkpt lat="42.98682699439644" lon="12.242440480431009"><ele>336.4</ele><time>2026-04-04T13:15:14Z</time></trkpt><trkpt lat="42.98671284490974" lon="12.242427934838899"><ele>338.0</ele><time>2026-04-04T13:15:15Z</time></trkpt><trkpt lat="42.98658949031774" lon="12.242399227955467"><ele>339.75</ele><time>2026-04-04T13:15:16Z</time></trkpt><trkpt lat="42.986470576991" lon="12.24236884159381"><ele>341.5</ele><time>2026-04-04T13:15:17Z</time></trkpt><trkpt lat="42.986360851116146" lon="12.24232845050408"><ele>343.25</ele><time>2026-04-04T13:15:18Z</time></trkpt><trkpt lat="42.986246584665" lon="12.242276068753858"><ele>345.0</ele><time>2026-04-04T13:15:19Z</time></trkpt><trkpt lat="42.986125361145135" lon="12.242224632272643"><ele>345.0</ele><time>2026-04-04T13:15:20Z</time></trkpt><trkpt lat="42.9860137806892" lon="12.24220547079076"><ele>345.0</ele><time>2026-04-04T13:15:21Z</time></trkpt><trkpt lat="42.98590519925478" lon="12.24214646703493"><ele>345.0</ele><time>2026-04-04T13:15:22Z</time></trkpt><trkpt lat="42.98580367085205" lon="12.24211514445437"><ele>345.0</ele><time>2026-04-04T13:15:23Z</time></trkpt><trkpt lat="42.98570480664577" lon="12.242072039084949"><ele>345.0</ele><time>2026-04-04T13:15:24Z</time></trkpt><trkpt lat="42.98560558188975" lon="12.242014125189915"><ele>348.4</ele><time>2026-04-04T13:15:25Z</time></trkpt><trkpt lat="42.98550364080053" lon="12.241970043252202"><ele>351.8</ele><time>2026-04-04T13:15:26Z</time></trkpt><trkpt lat="42.98540506180085" lon="12.24191169323552"><ele>355.20000000000005</ele><time>2026-04-04T13:15:27Z</time></trkpt><trkpt lat="42.985317988618995" lon="12.241855327123378"><ele>358.6</ele><time>2026-04-04T13:15:28Z</time></trkpt><trkpt lat="42.985249759190374" lon="12.241798516824716"><ele>362.0</ele><time>2026-04-04T13:15:29Z</time></trkpt><trkpt lat="42.985184692405284" lon="12.241749850098394"><ele>362.0</ele><time>2026-04-04T13:15:30Z</time></trkpt><trkpt lat="42.985109000311645" lon="12.2416986993189"><ele>362.0</ele><time>2026-04-04T13:15:31Z</time></trkpt><trkpt lat="42.985029344608265" lon="12.241654978931345"><ele>362.0</ele><time>2026-04-04T13:15:32Z</time></trkpt><trkpt lat="42.98496312957725" lon="12.241581953772965"><ele>362.0</ele><time>2026-04-04T13:15:33Z</time></trkpt><trkpt lat="42.98489924593364" lon="12.241511334884965"><ele>362.0</ele><time>2026-04-04T13:15:34Z</time></trkpt><trkpt lat="42.98483217869113" lon="12.241437166318901"><ele>362.0</ele><time>2026-04-04T13:15:35Z</time></trkpt><trkpt lat="42.98477066814875" lon="12.241380357207694"><ele>364.5</ele><time>2026-04-04T13:15:36Z</time></trkpt><trkpt lat="42.98471000578087" lon="12.241329675403875"><ele>367.0</ele><time>2026-04-04T13:15:37Z</time></trkpt><trkpt lat="42.98463302291277" lon="12.241275766797298"><ele>369.5</ele><time>2026-04-04T13:15:38Z</time></trkpt><trkpt lat="42.984548434332865" lon="12.241244674305905"><ele>372.0</ele><time>2026-04-04T13:15:39Z</time></trkpt><trkpt lat="42.98446824599312" lon="12.241198406397958"><ele>374.5</ele><time>2026-04-04T13:15:40Z</time></trkpt><trkpt lat="42.98439414123647" lon="12.24115925696817"><ele>377.0</ele><time>2026-04-04T13:15:41Z</time></trkpt><trkpt lat="42.98433444730123" lon="12.241131508094544"><ele>377.0</ele><time>2026-04-04T13:15:42Z</time></trkpt><trkpt lat="42.98422051736429" lon="12.241054181885453"><ele>377.0</ele><time>2026-04-04T13:15:44.001Z</time></trkpt><trkpt lat="42.98415601140064" lon="12.241007866155003"><ele>377.0</ele><time>2026-04-04T13:15:45.001Z</time></trkpt><trkpt lat="42.98408585087277" lon="12.24093956355699"><ele>377.0</ele><time>2026-04-04T13:15:46.001Z</time></trkpt><trkpt lat="42.98399846181798" lon="12.240867588402912"><ele>377.0</ele><time>2026-04-04T13:15:47.001Z</time></trkpt><trkpt lat="42.98393502004487" lon="12.240773692044199"><ele>377.8</ele><time>2026-04-04T13:15:48.001Z</time></trkpt><trkpt lat="42.98388437320856" lon="12.240709611065585"><ele>378.6</ele><time>2026-04-04T13:15:49.001Z</time></trkpt><trkpt lat="42.98382487518289" lon="12.240595504124265"><ele>379.40000000000003</ele><time>2026-04-04T13:15:51.001Z</time></trkpt><trkpt lat="42.98380317911878" lon="12.240497170086712"><ele>380.20000000000005</ele><time>2026-04-04T13:15:52.001Z</time></trkpt><trkpt lat="42.983791062448056" lon="12.240343040745756"><ele>381.0</ele><time>2026-04-04T13:15:54.001Z</time></trkpt><trkpt lat="42.983747721157464" lon="12.240197018904894"><ele>381.0</ele><time>2026-04-04T13:15:56.001Z</time></trkpt><trkpt lat="42.98367730138579" lon="12.240137963361597"><ele>381.0</ele><time>2026-04-04T13:15:57.001Z</time></trkpt><trkpt lat="42.98361593413245" lon="12.240109338740034"><ele>381.0</ele><time>2026-04-04T13:15:58.001Z</time></trkpt><trkpt lat="42.98350768551894" lon="12.240113212702058"><ele>381.0</ele><time>2026-04-04T13:16:00.001Z</time></trkpt><trkpt lat="42.98343607621872" lon="12.240099594679846"><ele>381.0</ele><time>2026-04-04T13:16:03.001Z</time></trkpt><trkpt lat="42.98336076298524" lon="12.240102644857991"><ele>381.0</ele><time>2026-04-04T13:16:49Z</time></trkpt><trkpt lat="42.98328839087237" lon="12.240087662365239"><ele>380.8333333333333</ele><time>2026-04-04T13:16:50Z</time></trkpt><trkpt lat="42.98321692870332" lon="12.24007711865498"><ele>380.6666666666667</ele><time>2026-04-04T13:16:51Z</time></trkpt><trkpt lat="42.983133897679394" lon="12.24007212292201"><ele>380.5</ele><time>2026-04-04T13:16:52Z</time></trkpt><trkpt lat="42.983045902304355" lon="12.240073160690716"><ele>380.33333333333337</ele><time>2026-04-04T13:16:53Z</time></trkpt><trkpt lat="42.982956985200104" lon="12.240072786828096"><ele>380.1666666666667</ele><time>2026-04-04T13:16:54Z</time></trkpt><trkpt lat="42.982863267180065" lon="12.240082222799138"><ele>380.0</ele><time>2026-04-04T13:16:55Z</time></trkpt><trkpt lat="42.98277796103174" lon="12.240099668321676"><ele>380.0</ele><time>2026-04-04T13:16:56Z</time></trkpt><trkpt lat="42.98269634719302" lon="12.240110575675505"><ele>380.0</ele><time>2026-04-04T13:16:57Z</time></trkpt><trkpt lat="42.98260395297956" lon="12.240119546836642"><ele>380.0</ele><time>2026-04-04T13:16:58Z</time></trkpt><trkpt lat="42.98250572596962" lon="12.2401172940426"><ele>380.0</ele><time>2026-04-04T13:16:59Z</time></trkpt><trkpt lat="42.9823958037126" lon="12.240112029590602"><ele>380.0</ele><time>2026-04-04T13:17:00Z</time></trkpt><trkpt lat="42.98229220463282" lon="12.240102053266003"><ele>382.0</ele><time>2026-04-04T13:17:01Z</time></trkpt><trkpt lat="42.982187772405425" lon="12.24008882460825"><ele>384.0</ele><time>2026-04-04T13:17:02Z</time></trkpt><trkpt lat="42.98208131551963" lon="12.240071260659091"><ele>386.0</ele><time>2026-04-04T13:17:03Z</time></trkpt><trkpt lat="42.98197999034496" lon="12.240051674874001"><ele>388.0</ele><time>2026-04-04T13:17:04Z</time></trkpt><trkpt lat="42.981880639930566" lon="12.240023292763516"><ele>390.0</ele><time>2026-04-04T13:17:05Z</time></trkpt><trkpt lat="42.98179304007484" lon="12.239958235241568"><ele>390.0</ele><time>2026-04-04T13:17:06Z</time></trkpt><trkpt lat="42.98170622249817" lon="12.239896709356351"><ele>390.0</ele><time>2026-04-04T13:17:07Z</time></trkpt><trkpt lat="42.98162738505181" lon="12.239805237194123"><ele>390.0</ele><time>2026-04-04T13:17:08Z</time></trkpt><trkpt lat="42.981555093794846" lon="12.239695769228069"><ele>390.0</ele><time>2026-04-04T13:17:09Z</time></trkpt><trkpt lat="42.98148649760826" lon="12.2395813693165"><ele>390.0</ele><time>2026-04-04T13:17:10Z</time></trkpt><trkpt lat="42.98141568761719" lon="12.239479235065634"><ele>392.5</ele><time>2026-04-04T13:17:11Z</time></trkpt><trkpt lat="42.98136048683277" lon="12.23937110103614"><ele>395.0</ele><time>2026-04-04T13:17:12Z</time></trkpt><trkpt lat="42.98130276840486" lon="12.239279782640574"><ele>397.5</ele><time>2026-04-04T13:17:13Z</time></trkpt><trkpt lat="42.98125755300946" lon="12.239201252927833"><ele>400.0</ele><time>2026-04-04T13:17:14Z</time></trkpt><trkpt lat="42.98120792808708" lon="12.239090633413406"><ele>402.5</ele><time>2026-04-04T13:17:16Z</time></trkpt><trkpt lat="42.98119071809635" lon="12.239007365431945"><ele>405.0</ele><time>2026-04-04T13:17:18Z</time></trkpt><trkpt lat="42.981221503471325" lon="12.238880512330363"><ele>405.2</ele><time>2026-04-04T13:17:40.001Z</time></trkpt><trkpt lat="42.98127986742877" lon="12.238792740841854"><ele>405.4</ele><time>2026-04-04T13:17:41.001Z</time></trkpt><trkpt lat="42.9813496351411" lon="12.238720490477101"><ele>405.6</ele><time>2026-04-04T13:17:42.001Z</time></trkpt><trkpt lat="42.98142746688563" lon="12.238626987109779"><ele>405.8</ele><time>2026-04-04T13:17:43.001Z</time></trkpt><trkpt lat="42.98149580287468" lon="12.238514711341924"><ele>406.0</ele><time>2026-04-04T13:17:44.001Z</time></trkpt><trkpt lat="42.98156973686838" lon="12.238423381022525"><ele>406.0</ele><time>2026-04-04T13:17:45.001Z</time></trkpt><trkpt lat="42.981635006799266" lon="12.238329443929894"><ele>406.0</ele><time>2026-04-04T13:17:46.001Z</time></trkpt><trkpt lat="42.9817023918344" lon="12.23824426154009"><ele>406.0</ele><time>2026-04-04T13:17:47.001Z</time></trkpt><trkpt lat="42.98177200380665" lon="12.238164354989667"><ele>406.0</ele><time>2026-04-04T13:17:48.001Z</time></trkpt><trkpt lat="42.98184189111987" lon="12.238086048942368"><ele>406.0</ele><time>2026-04-04T13:17:49.001Z</time></trkpt><trkpt lat="42.981914622458476" lon="12.238000045183455"><ele>403.4</ele><time>2026-04-04T13:17:50.001Z</time></trkpt><trkpt lat="42.98198282528785" lon="12.237902257748683"><ele>400.8</ele><time>2026-04-04T13:17:51.001Z</time></trkpt><trkpt lat="42.982040576399015" lon="12.237786330041603"><ele>398.2</ele><time>2026-04-04T13:17:52.001Z</time></trkpt><trkpt lat="42.98208461155093" lon="12.237664606717445"><ele>395.59999999999997</ele><time>2026-04-04T13:17:53.001Z</time></trkpt><trkpt lat="42.98211811186675" lon="12.23754253369597"><ele>393.0</ele><time>2026-04-04T13:17:54.001Z</time></trkpt><trkpt lat="42.98215872114082" lon="12.23743434979587"><ele>393.0</ele><time>2026-04-04T13:17:55.001Z</time></trkpt><trkpt lat="42.98220511068976" lon="12.237339403397513"><ele>393.0</ele><time>2026-04-04T13:17:56.001Z</time></trkpt><trkpt lat="42.98226577411638" lon="12.237264034883278"><ele>393.0</ele><time>2026-04-04T13:17:57.001Z</time></trkpt><trkpt lat="42.98234405902613" lon="12.237199637382577"><ele>393.0</ele><time>2026-04-04T13:17:58.001Z</time></trkpt><trkpt lat="42.9824359102515" lon="12.237150685101179"><ele>393.0</ele><time>2026-04-04T13:17:59.001Z</time></trkpt><trkpt lat="42.98253517859545" lon="12.237097768183204"><ele>392.0</ele><time>2026-04-04T13:18:00.001Z</time></trkpt><trkpt lat="42.98262255298872" lon="12.2370269452499"><ele>391.0</ele><time>2026-04-04T13:18:01.001Z</time></trkpt><trkpt lat="42.98270286966176" lon="12.236920235319877"><ele>390.0</ele><time>2026-04-04T13:18:02.001Z</time></trkpt><trkpt lat="42.982758765909864" lon="12.236787328132605"><ele>389.0</ele><time>2026-04-04T13:18:03.001Z</time></trkpt><trkpt lat="42.98279268881588" lon="12.23664123785977"><ele>388.0</ele><time>2026-04-04T13:18:04.001Z</time></trkpt><trkpt lat="42.982812437167716" lon="12.236504302313675"><ele>386.79999999999995</ele><time>2026-04-04T13:18:05.001Z</time></trkpt><trkpt lat="42.98280437776751" lon="12.236390471063249"><ele>385.6</ele><time>2026-04-04T13:18:06.001Z</time></trkpt><trkpt lat="42.98276019116039" lon="12.236290866434336"><ele>384.4</ele><time>2026-04-04T13:18:07.001Z</time></trkpt><trkpt lat="42.98269175173208" lon="12.23619000170126"><ele>383.20000000000005</ele><time>2026-04-04T13:18:08.001Z</time></trkpt><trkpt lat="42.98261105419075" lon="12.236081898762796"><ele>382.0</ele><time>2026-04-04T13:18:09.001Z</time></trkpt><trkpt lat="42.98256798220457" lon="12.235922513445324"><ele>382.0</ele><time>2026-04-04T13:18:10.001Z</time></trkpt><trkpt lat="42.98254746099817" lon="12.235751032892214"><ele>382.0</ele><time>2026-04-04T13:18:11.001Z</time></trkpt><trkpt lat="42.98254225174412" lon="12.235542624921735"><ele>382.0</ele><time>2026-04-04T13:18:12.001Z</time></trkpt><trkpt lat="42.98254430348396" lon="12.23533294822767"><ele>382.0</ele><time>2026-04-04T13:18:13.001Z</time></trkpt><trkpt lat="42.982563426361025" lon="12.235123530898795"><ele>382.75</ele><time>2026-04-04T13:18:14.001Z</time></trkpt><trkpt lat="42.98257043278308" lon="12.234933092781647"><ele>383.5</ele><time>2026-04-04T13:18:15.001Z</time></trkpt><trkpt lat="42.98257925907166" lon="12.23476133572079"><ele>384.25</ele><time>2026-04-04T13:18:16.001Z</time></trkpt><trkpt lat="42.98258595042014" lon="12.234597507518409"><ele>385.0</ele><time>2026-04-04T13:18:17.001Z</time></trkpt><trkpt lat="42.98256744401251" lon="12.234429663566386"><ele>385.0</ele><time>2026-04-04T13:18:18.001Z</time></trkpt><trkpt lat="42.98256898738746" lon="12.234264722190547"><ele>385.0</ele><time>2026-04-04T13:18:19.001Z</time></trkpt><trkpt lat="42.98257846734156" lon="12.234085365561787"><ele>385.0</ele><time>2026-04-04T13:18:20.001Z</time></trkpt><trkpt lat="42.982621282134154" lon="12.233921559378462"><ele>385.0</ele><time>2026-04-04T13:18:21.001Z</time></trkpt><trkpt lat="42.98265653027419" lon="12.23375398192406"><ele>388.75</ele><time>2026-04-04T13:18:22.001Z</time></trkpt><trkpt lat="42.982699304108124" lon="12.23359680901476"><ele>392.5</ele><time>2026-04-04T13:18:23.001Z</time></trkpt><trkpt lat="42.982750209603935" lon="12.233443849343985"><ele>396.25</ele><time>2026-04-04T13:18:24.001Z</time></trkpt><trkpt lat="42.98285639609671" lon="12.233345480411606"><ele>400.0</ele><time>2026-04-04T13:18:25.001Z</time></trkpt><trkpt lat="42.982973955949866" lon="12.233258022297154"><ele>400.0</ele><time>2026-04-04T13:18:26.001Z</time></trkpt><trkpt lat="42.983085333230605" lon="12.233152637034102"><ele>400.0</ele><time>2026-04-04T13:18:27.001Z</time></trkpt><trkpt lat="42.98319733233805" lon="12.233078393828633"><ele>400.0</ele><time>2026-04-04T13:18:28.001Z</time></trkpt><trkpt lat="42.98329120016758" lon="12.232990647665018"><ele>400.0</ele><time>2026-04-04T13:18:29.001Z</time></trkpt><trkpt lat="42.98338179520916" lon="12.232890748708892"><ele>400.0</ele><time>2026-04-04T13:18:30.001Z</time></trkpt><trkpt lat="42.98347129855018" lon="12.232814110935747"><ele>400.0</ele><time>2026-04-04T13:18:31.001Z</time></trkpt><trkpt lat="42.98355729155893" lon="12.23275598552886"><ele>400.0</ele><time>2026-04-04T13:18:32.001Z</time></trkpt><trkpt lat="42.983641902213556" lon="12.232706812133042"><ele>400.0</ele><time>2026-04-04T13:18:33.001Z</time></trkpt><trkpt lat="42.98372454429017" lon="12.232658299149671"><ele>400.0</ele><time>2026-04-04T13:18:34.001Z</time></trkpt><trkpt lat="42.98382121523431" lon="12.232599334042554"><ele>400.0</ele><time>2026-04-04T13:18:35.001Z</time></trkpt><trkpt lat="42.98391751410314" lon="12.232524167002742"><ele>400.0</ele><time>2026-04-04T13:18:36.001Z</time></trkpt><trkpt lat="42.98400853697417" lon="12.232445463476907"><ele>400.0</ele><time>2026-04-04T13:18:37.001Z</time></trkpt><trkpt lat="42.984097099524995" lon="12.232373978391838"><ele>400.0</ele><time>2026-04-04T13:18:38.001Z</time></trkpt><trkpt lat="42.984182583760855" lon="12.232294368331727"><ele>400.0</ele><time>2026-04-04T13:18:39.001Z</time></trkpt><trkpt lat="42.98425351562885" lon="12.232209926075386"><ele>397.6</ele><time>2026-04-04T13:18:40.001Z</time></trkpt><trkpt lat="42.984321887658844" lon="12.23212936997759"><ele>395.2</ele><time>2026-04-04T13:18:41.001Z</time></trkpt><trkpt lat="42.98438831071012" lon="12.232035327790339"><ele>392.79999999999995</ele><time>2026-04-04T13:18:42Z</time></trkpt><trkpt lat="42.98445460037819" lon="12.231942407435195"><ele>390.4</ele><time>2026-04-04T13:18:43Z</time></trkpt><trkpt lat="42.984520832957976" lon="12.231860136154063"><ele>388.0</ele><time>2026-04-04T13:18:44Z</time></trkpt><trkpt lat="42.98458619186262" lon="12.231773081943613"><ele>388.0</ele><time>2026-04-04T13:18:45Z</time></trkpt><trkpt lat="42.98464813293482" lon="12.231673776563161"><ele>388.0</ele><time>2026-04-04T13:18:46Z</time></trkpt><trkpt lat="42.9847048965672" lon="12.231555239402923"><ele>388.0</ele><time>2026-04-04T13:18:47Z</time></trkpt><trkpt lat="42.9847535151498" lon="12.231428701977086"><ele>388.0</ele><time>2026-04-04T13:18:48Z</time></trkpt><trkpt lat="42.98479635490282" lon="12.231279331338216"><ele>388.0</ele><time>2026-04-04T13:18:49Z</time></trkpt><trkpt lat="42.984844164269305" lon="12.231136257946364"><ele>388.75</ele><time>2026-04-04T13:18:50Z</time></trkpt><trkpt lat="42.98490775463731" lon="12.230999522062104"><ele>389.5</ele><time>2026-04-04T13:18:51Z</time></trkpt><trkpt lat="42.984975865603055" lon="12.230866110336462"><ele>390.25</ele><time>2026-04-04T13:18:52Z</time></trkpt><trkpt lat="42.98504605224091" lon="12.230741560512051"><ele>391.0</ele><time>2026-04-04T13:18:53Z</time></trkpt><trkpt lat="42.98512320409458" lon="12.230637455325143"><ele>391.0</ele><time>2026-04-04T13:18:54Z</time></trkpt><trkpt lat="42.985217578984205" lon="12.230535933265726"><ele>391.0</ele><time>2026-04-04T13:18:55Z</time></trkpt><trkpt lat="42.985332793749414" lon="12.230429118830164"><ele>391.0</ele><time>2026-04-04T13:18:56Z</time></trkpt><trkpt lat="42.985452784540264" lon="12.230338766488641"><ele>391.0</ele><time>2026-04-04T13:18:57Z</time></trkpt><trkpt lat="42.98556547701768" lon="12.23026907008115"><ele>391.0</ele><time>2026-04-04T13:18:58Z</time></trkpt><trkpt lat="42.98567540780435" lon="12.230195536199691"><ele>391.0</ele><time>2026-04-04T13:18:59Z</time></trkpt><trkpt lat="42.98577881092592" lon="12.23011618666227"><ele>391.0</ele><time>2026-04-04T13:19:00Z</time></trkpt><trkpt lat="42.98586842068536" lon="12.230034009417526"><ele>391.0</ele><time>2026-04-04T13:19:01Z</time></trkpt><trkpt lat="42.9859547758326" lon="12.229963575912112"><ele>391.0</ele><time>2026-04-04T13:19:02Z</time></trkpt><trkpt lat="42.98603780529774" lon="12.229881675100339"><ele>388.75</ele><time>2026-04-04T13:19:03Z</time></trkpt><trkpt lat="42.98612041117518" lon="12.22978672668352"><ele>386.5</ele><time>2026-04-04T13:19:04Z</time></trkpt><trkpt lat="42.986211795769606" lon="12.229679592210568"><ele>384.25</ele><time>2026-04-04T13:19:05Z</time></trkpt><trkpt lat="42.98630454720909" lon="12.229564798771829"><ele>382.0</ele><time>2026-04-04T13:19:06Z</time></trkpt><trkpt lat="42.98640507647583" lon="12.229442194782434"><ele>382.0</ele><time>2026-04-04T13:19:07Z</time></trkpt><trkpt lat="42.986502143078894" lon="12.229322321797913"><ele>382.0</ele><time>2026-04-04T13:19:08Z</time></trkpt><trkpt lat="42.98660355241409" lon="12.229193792030475"><ele>382.0</ele><time>2026-04-04T13:19:09Z</time></trkpt><trkpt lat="42.98670517190763" lon="12.229079515116684"><ele>382.0</ele><time>2026-04-04T13:19:10Z</time></trkpt><trkpt lat="42.98680482875789" lon="12.228981400499585"><ele>380.40000000000003</ele><time>2026-04-04T13:19:11Z</time></trkpt><trkpt lat="42.986903617255386" lon="12.22889369692166"><ele>378.8</ele><time>2026-04-04T13:19:12Z</time></trkpt><trkpt lat="42.986997955783366" lon="12.228801664822194"><ele>377.2</ele><time>2026-04-04T13:19:13Z</time></trkpt><trkpt lat="42.98707955087039" lon="12.228705541805208"><ele>375.6</ele><time>2026-04-04T13:19:14Z</time></trkpt><trkpt lat="42.98715194636375" lon="12.228605237537094"><ele>374.0</ele><time>2026-04-04T13:19:15Z</time></trkpt><trkpt lat="42.987230227306526" lon="12.228512567850949"><ele>374.0</ele><time>2026-04-04T13:19:16Z</time></trkpt><trkpt lat="42.98730620734078" lon="12.228401686297163"><ele>374.0</ele><time>2026-04-04T13:19:17Z</time></trkpt><trkpt lat="42.98738928110231" lon="12.228296799395753"><ele>374.0</ele><time>2026-04-04T13:19:18Z</time></trkpt><trkpt lat="42.98746050667092" lon="12.228186702671339"><ele>374.0</ele><time>2026-04-04T13:19:19Z</time></trkpt><trkpt lat="42.987520347795915" lon="12.228066576477607"><ele>374.0</ele><time>2026-04-04T13:19:20Z</time></trkpt><trkpt lat="42.987582395587836" lon="12.227939162846866"><ele>370.0</ele><time>2026-04-04T13:19:21Z</time></trkpt><trkpt lat="42.98764533262229" lon="12.227807145774415"><ele>366.0</ele><time>2026-04-04T13:19:22Z</time></trkpt><trkpt lat="42.98771368364291" lon="12.22766852165127"><ele>362.0</ele><time>2026-04-04T13:19:23Z</time></trkpt><trkpt lat="42.9877842464683" lon="12.227525364408324"><ele>358.0</ele><time>2026-04-04T13:19:24Z</time></trkpt><trkpt lat="42.98785491835055" lon="12.227378201579473"><ele>358.75</ele><time>2026-04-04T13:19:25Z</time></trkpt><trkpt lat="42.98792339967102" lon="12.227239010468846"><ele>359.5</ele><time>2026-04-04T13:19:26Z</time></trkpt><trkpt lat="42.98799157699221" lon="12.227099955347766"><ele>360.25</ele><time>2026-04-04T13:19:27Z</time></trkpt><trkpt lat="42.988060456928906" lon="12.226959716739545"><ele>361.0</ele><time>2026-04-04T13:19:28Z</time></trkpt><trkpt lat="42.98814056609602" lon="12.226793477999916"><ele>361.0</ele><time>2026-04-04T13:19:29Z</time></trkpt><trkpt lat="42.98822254828439" lon="12.226629617354776"><ele>361.0</ele><time>2026-04-04T13:19:30Z</time></trkpt><trkpt lat="42.98829689812722" lon="12.22647024041003"><ele>361.0</ele><time>2026-04-04T13:19:31Z</time></trkpt><trkpt lat="42.988368341977065" lon="12.226324467811155"><ele>361.0</ele><time>2026-04-04T13:19:32Z</time></trkpt><trkpt lat="42.98843709653183" lon="12.22618124111178"><ele>358.25</ele><time>2026-04-04T13:19:33Z</time></trkpt><trkpt lat="42.98850327334189" lon="12.226026467205578"><ele>355.5</ele><time>2026-04-04T13:19:34Z</time></trkpt><trkpt lat="42.98856655242977" lon="12.225865640985663"><ele>352.75</ele><time>2026-04-04T13:19:35Z</time></trkpt><trkpt lat="42.98862810001464" lon="12.225705778881863"><ele>350.0</ele><time>2026-04-04T13:19:36Z</time></trkpt><trkpt lat="42.98869151666694" lon="12.225548083585636"><ele>350.0</ele><time>2026-04-04T13:19:37Z</time></trkpt><trkpt lat="42.98875606884077" lon="12.22539610438912"><ele>350.0</ele><time>2026-04-04T13:19:38Z</time></trkpt><trkpt lat="42.98882229194129" lon="12.225242501981404"><ele>350.0</ele><time>2026-04-04T13:19:39Z</time></trkpt><trkpt lat="42.988881927633706" lon="12.22509007761526"><ele>350.0</ele><time>2026-04-04T13:19:40Z</time></trkpt><trkpt lat="42.988930663395564" lon="12.224943766472137"><ele>351.0</ele><time>2026-04-04T13:19:41Z</time></trkpt><trkpt lat="42.98896831311695" lon="12.224806389572969"><ele>352.0</ele><time>2026-04-04T13:19:42Z</time></trkpt><trkpt lat="42.98899581619791" lon="12.22465140386496"><ele>353.0</ele><time>2026-04-04T13:19:43Z</time></trkpt><trkpt lat="42.98902592436612" lon="12.224489132359757"><ele>354.0</ele><time>2026-04-04T13:19:44Z</time></trkpt><trkpt lat="42.98906137712772" lon="12.224323904573593"><ele>354.0</ele><time>2026-04-04T13:19:45Z</time></trkpt><trkpt lat="42.98910828531889" lon="12.224164508707759"><ele>354.0</ele><time>2026-04-04T13:19:46Z</time></trkpt><trkpt lat="42.989166013730696" lon="12.22401043119432"><ele>354.0</ele><time>2026-04-04T13:19:47Z</time></trkpt><trkpt lat="42.989242364887566" lon="12.223871154256289"><ele>354.0</ele><time>2026-04-04T13:19:48.001Z</time></trkpt><trkpt lat="42.98934534717699" lon="12.223727742646817"><ele>350.5</ele><time>2026-04-04T13:19:49.001Z</time></trkpt><trkpt lat="42.98944727724775" lon="12.22360609987737"><ele>347.0</ele><time>2026-04-04T13:19:50.001Z</time></trkpt><trkpt lat="42.989542020442165" lon="12.223480995587565"><ele>343.5</ele><time>2026-04-04T13:19:51.001Z</time></trkpt><trkpt lat="42.98961867398847" lon="12.223340798651382"><ele>340.0</ele><time>2026-04-04T13:19:52.001Z</time></trkpt><trkpt lat="42.98968188879694" lon="12.223186714829199"><ele>340.25</ele><time>2026-04-04T13:19:53.001Z</time></trkpt><trkpt lat="42.98973096899509" lon="12.223026290181267"><ele>340.5</ele><time>2026-04-04T13:19:54.001Z</time></trkpt><trkpt lat="42.98976524775553" lon="12.22285554652849"><ele>340.75</ele><time>2026-04-04T13:19:55.001Z</time></trkpt><trkpt lat="42.98979431556982" lon="12.22268413489589"><ele>341.0</ele><time>2026-04-04T13:19:56.001Z</time></trkpt><trkpt lat="42.98981930683776" lon="12.222511741530813"><ele>341.0</ele><time>2026-04-04T13:19:57.001Z</time></trkpt><trkpt lat="42.98983734231733" lon="12.222354921461454"><ele>341.0</ele><time>2026-04-04T13:19:58.001Z</time></trkpt><trkpt lat="42.98984309397808" lon="12.22217230541406"><ele>341.0</ele><time>2026-04-04T13:19:59.001Z</time></trkpt><trkpt lat="42.98984890923671" lon="12.221985906352506"><ele>341.0</ele><time>2026-04-04T13:20:00.001Z</time></trkpt><trkpt lat="42.98988601106074" lon="12.221780928052736"><ele>341.25</ele><time>2026-04-04T13:20:01.001Z</time></trkpt><trkpt lat="42.98987514245574" lon="12.221649189626017"><ele>341.5</ele><time>2026-04-04T13:20:02.001Z</time></trkpt><trkpt lat="42.989888222785346" lon="12.221473104215772"><ele>341.75</ele><time>2026-04-04T13:20:03.001Z</time></trkpt><trkpt lat="42.98989975984686" lon="12.221280237893339"><ele>342.0</ele><time>2026-04-04T13:20:04.001Z</time></trkpt><trkpt lat="42.98987559630433" lon="12.22109287611357"><ele>342.0</ele><time>2026-04-04T13:20:05.001Z</time></trkpt><trkpt lat="42.98982657460093" lon="12.220913630620212"><ele>342.0</ele><time>2026-04-04T13:20:06.001Z</time></trkpt><trkpt lat="42.98976395773164" lon="12.2207444557585"><ele>342.0</ele><time>2026-04-04T13:20:07.001Z</time></trkpt><trkpt lat="42.989713906149916" lon="12.220583814988482"><ele>342.0</ele><time>2026-04-04T13:20:08.001Z</time></trkpt><trkpt lat="42.98968755067988" lon="12.220426603829853"><ele>340.75</ele><time>2026-04-04T13:20:09.001Z</time></trkpt><trkpt lat="42.989674188597824" lon="12.220264661203247"><ele>339.5</ele><time>2026-04-04T13:20:10.001Z</time></trkpt><trkpt lat="42.98967422932499" lon="12.22009804572677"><ele>338.25</ele><time>2026-04-04T13:20:11.001Z</time></trkpt><trkpt lat="42.989678055051144" lon="12.219917084528591"><ele>337.0</ele><time>2026-04-04T13:20:12.001Z</time></trkpt><trkpt lat="42.98969061465227" lon="12.219735242338633"><ele>336.75</ele><time>2026-04-04T13:20:13.001Z</time></trkpt><trkpt lat="42.989710484250914" lon="12.219554558981262"><ele>336.5</ele><time>2026-04-04T13:20:14.001Z</time></trkpt><trkpt lat="42.989746273116324" lon="12.219384039858227"><ele>336.25</ele><time>2026-04-04T13:20:15.001Z</time></trkpt><trkpt lat="42.98980422350371" lon="12.2192115087496"><ele>336.0</ele><time>2026-04-04T13:20:16.001Z</time></trkpt><trkpt lat="42.98988393120349" lon="12.21904025335497"><ele>336.75</ele><time>2026-04-04T13:20:17.001Z</time></trkpt><trkpt lat="42.989982750537905" lon="12.218880762858474"><ele>337.5</ele><time>2026-04-04T13:20:18.001Z</time></trkpt><trkpt lat="42.99010931832946" lon="12.218769907182466"><ele>338.25</ele><time>2026-04-04T13:20:19.001Z</time></trkpt><trkpt lat="42.99023004438153" lon="12.218681444664838"><ele>339.0</ele><time>2026-04-04T13:20:20.001Z</time></trkpt><trkpt lat="42.990345464331696" lon="12.218586024055217"><ele>339.0</ele><time>2026-04-04T13:20:21.001Z</time></trkpt><trkpt lat="42.99046506455989" lon="12.218522916078053"><ele>339.0</ele><time>2026-04-04T13:20:22.001Z</time></trkpt><trkpt lat="42.99057327379708" lon="12.218454095610065"><ele>339.0</ele><time>2026-04-04T13:20:23.001Z</time></trkpt><trkpt lat="42.99067193941389" lon="12.218377158956596"><ele>339.0</ele><time>2026-04-04T13:20:24.001Z</time></trkpt><trkpt lat="42.99075037815661" lon="12.218275235464"><ele>339.0</ele><time>2026-04-04T13:20:25.001Z</time></trkpt><trkpt lat="42.99080654096804" lon="12.218151744547958"><ele>339.0</ele><time>2026-04-04T13:20:26.001Z</time></trkpt><trkpt lat="42.99083046714515" lon="12.218001142248283"><ele>339.0</ele><time>2026-04-04T13:20:27.001Z</time></trkpt><trkpt lat="42.99084377964699" lon="12.217834472451436"><ele>339.0</ele><time>2026-04-04T13:20:28.001Z</time></trkpt><trkpt lat="42.99083926317853" lon="12.21766673544919"><ele>338.75</ele><time>2026-04-04T13:20:29.001Z</time></trkpt><trkpt lat="42.99082158306806" lon="12.21750524931467"><ele>338.5</ele><time>2026-04-04T13:20:30.001Z</time></trkpt><trkpt lat="42.99079072977257" lon="12.217339182068281"><ele>338.25</ele><time>2026-04-04T13:20:31.001Z</time></trkpt><trkpt lat="42.99075661193591" lon="12.217172824064033"><ele>338.0</ele><time>2026-04-04T13:20:32.001Z</time></trkpt><trkpt lat="42.99072347657611" lon="12.216994485212032"><ele>335.5</ele><time>2026-04-04T13:20:33.001Z</time></trkpt><trkpt lat="42.99069388105477" lon="12.216811659094969"><ele>333.0</ele><time>2026-04-04T13:20:34.001Z</time></trkpt><trkpt lat="42.99066059350198" lon="12.216637574091951"><ele>330.5</ele><time>2026-04-04T13:20:35.001Z</time></trkpt><trkpt lat="42.990624915387514" lon="12.216465463860837"><ele>328.0</ele><time>2026-04-04T13:20:36.001Z</time></trkpt><trkpt lat="42.99058457445969" lon="12.216299374093989"><ele>326.25</ele><time>2026-04-04T13:20:37.001Z</time></trkpt><trkpt lat="42.990540457534685" lon="12.216130905984151"><ele>324.5</ele><time>2026-04-04T13:20:38.001Z</time></trkpt><trkpt lat="42.990506074692405" lon="12.215964067955102"><ele>322.75</ele><time>2026-04-04T13:20:39.001Z</time></trkpt><trkpt lat="42.990458901168694" lon="12.21579037559456"><ele>321.0</ele><time>2026-04-04T13:20:40.001Z</time></trkpt><trkpt lat="42.9904044690648" lon="12.215610868296356"><ele>319.5</ele><time>2026-04-04T13:20:41.001Z</time></trkpt><trkpt lat="42.99035144528246" lon="12.215431811637917"><ele>318.0</ele><time>2026-04-04T13:20:42.001Z</time></trkpt><trkpt lat="42.990301192807344" lon="12.215266237813642"><ele>316.5</ele><time>2026-04-04T13:20:43.001Z</time></trkpt><trkpt lat="42.99024654200748" lon="12.215103839436644"><ele>315.0</ele><time>2026-04-04T13:20:44.001Z</time></trkpt><trkpt lat="42.99019974171906" lon="12.214947246502572"><ele>313.8</ele><time>2026-04-04T13:20:45.001Z</time></trkpt><trkpt lat="42.99015859480338" lon="12.214808529659628"><ele>312.6</ele><time>2026-04-04T13:20:46.001Z</time></trkpt><trkpt lat="42.99012872278947" lon="12.214673071408741"><ele>311.4</ele><time>2026-04-04T13:20:47.001Z</time></trkpt><trkpt lat="42.99012302622804" lon="12.214552083000706"><ele>310.2</ele><time>2026-04-04T13:20:48Z</time></trkpt><trkpt lat="42.990131938055285" lon="12.214440138712451"><ele>309.0</ele><time>2026-04-04T13:20:49Z</time></trkpt><trkpt lat="42.99017558168703" lon="12.214337918245555"><ele>309.0</ele><time>2026-04-04T13:20:50Z</time></trkpt><trkpt lat="42.99026864029725" lon="12.21423545670786"><ele>309.0</ele><time>2026-04-04T13:20:51Z</time></trkpt><trkpt lat="42.99036570531573" lon="12.214132175377392"><ele>309.0</ele><time>2026-04-04T13:20:52Z</time></trkpt><trkpt lat="42.990463022006054" lon="12.214032650029326"><ele>309.0</ele><time>2026-04-04T13:20:53Z</time></trkpt><trkpt lat="42.990546464360115" lon="12.213926144163255"><ele>308.4</ele><time>2026-04-04T13:20:54Z</time></trkpt><trkpt lat="42.99062812773002" lon="12.213831060949945"><ele>307.79999999999995</ele><time>2026-04-04T13:20:55Z</time></trkpt><trkpt lat="42.99070417239892" lon="12.21373190011336"><ele>307.20000000000005</ele><time>2026-04-04T13:20:56Z</time></trkpt><trkpt lat="42.99077485275841" lon="12.213622756288403"><ele>306.6</ele><time>2026-04-04T13:20:57Z</time></trkpt><trkpt lat="42.99086327199787" lon="12.213538040037989"><ele>306.0</ele><time>2026-04-04T13:20:58Z</time></trkpt><trkpt lat="42.99095387428573" lon="12.213471254851012"><ele>304.0</ele><time>2026-04-04T13:20:59Z</time></trkpt><trkpt lat="42.991054783406284" lon="12.213422261799384"><ele>302.0</ele><time>2026-04-04T13:21:00Z</time></trkpt><trkpt lat="42.99115678841685" lon="12.213371587637804"><ele>300.0</ele><time>2026-04-04T13:21:01Z</time></trkpt><trkpt lat="42.991259254513146" lon="12.213316407227854"><ele>298.0</ele><time>2026-04-04T13:21:02Z</time></trkpt><trkpt lat="42.99136070050519" lon="12.213259113712327"><ele>296.0</ele><time>2026-04-04T13:21:03Z</time></trkpt><trkpt lat="42.99145690789456" lon="12.213181968134739"><ele>295.6</ele><time>2026-04-04T13:21:04Z</time></trkpt><trkpt lat="42.99155311343959" lon="12.21313244007496"><ele>295.20000000000005</ele><time>2026-04-04T13:21:05Z</time></trkpt><trkpt lat="42.991626791625706" lon="12.213080484457643"><ele>294.79999999999995</ele><time>2026-04-04T13:21:06Z</time></trkpt><trkpt lat="42.99169092451532" lon="12.213035326327958"><ele>294.4</ele><time>2026-04-04T13:21:07Z</time></trkpt><trkpt lat="42.99179166720961" lon="12.212965225955621"><ele>294.0</ele><time>2026-04-04T13:21:09Z</time></trkpt><trkpt lat="42.99185457837707" lon="12.212843678070127"><ele>291.2</ele><time>2026-04-04T13:21:11Z</time></trkpt><trkpt lat="42.99188097886203" lon="12.212751722866154"><ele>288.4</ele><time>2026-04-04T13:21:12Z</time></trkpt><trkpt lat="42.99193038420962" lon="12.212644959842343"><ele>285.6</ele><time>2026-04-04T13:21:13Z</time></trkpt><trkpt lat="42.99198148614352" lon="12.212527490963263"><ele>282.8</ele><time>2026-04-04T13:21:14Z</time></trkpt><trkpt lat="42.99203263983828" lon="12.212400486610258"><ele>280.0</ele><time>2026-04-04T13:21:15Z</time></trkpt><trkpt lat="42.99208131358848" lon="12.212276106023728"><ele>280.0</ele><time>2026-04-04T13:21:16Z</time></trkpt><trkpt lat="42.992131788661865" lon="12.212144163553864"><ele>280.0</ele><time>2026-04-04T13:21:17Z</time></trkpt><trkpt lat="42.99216705958848" lon="12.211999753262806"><ele>280.0</ele><time>2026-04-04T13:21:18Z</time></trkpt><trkpt lat="42.992212794030294" lon="12.211879463203791"><ele>280.0</ele><time>2026-04-04T13:21:19Z</time></trkpt><trkpt lat="42.99224421638905" lon="12.211776430104118"><ele>280.0</ele><time>2026-04-04T13:21:20Z</time></trkpt><trkpt lat="42.992273789238425" lon="12.21167553452598"><ele>280.0</ele><time>2026-04-04T13:21:21Z</time></trkpt><trkpt lat="42.99229575179038" lon="12.211577735048579"><ele>280.0</ele><time>2026-04-04T13:21:22Z</time></trkpt><trkpt lat="42.99228050384667" lon="12.21147498232504"><ele>280.0</ele><time>2026-04-04T13:21:23Z</time></trkpt><trkpt lat="42.9922391949268" lon="12.211389790424185"><ele>280.0</ele><time>2026-04-04T13:21:24Z</time></trkpt><trkpt lat="42.99218260340267" lon="12.211315361804646"><ele>280.0</ele><time>2026-04-04T13:21:25Z</time></trkpt><trkpt lat="42.992104221786924" lon="12.211262856642401"><ele>280.0</ele><time>2026-04-04T13:21:26Z</time></trkpt><trkpt lat="42.99200612827732" lon="12.211258464956881"><ele>279.0</ele><time>2026-04-04T13:21:27Z</time></trkpt><trkpt lat="42.991897387754854" lon="12.211273451192016"><ele>278.0</ele><time>2026-04-04T13:21:28Z</time></trkpt><trkpt lat="42.99178371847813" lon="12.211283572882998"><ele>277.0</ele><time>2026-04-04T13:21:29Z</time></trkpt><trkpt lat="42.99167332211059" lon="12.211267413154761"><ele>276.0</ele><time>2026-04-04T13:21:30Z</time></trkpt><trkpt lat="42.99157021947494" lon="12.211197082808944"><ele>275.0</ele><time>2026-04-04T13:21:31Z</time></trkpt><trkpt lat="42.99147063599476" lon="12.2111395522247"><ele>273.75</ele><time>2026-04-04T13:21:32Z</time></trkpt><trkpt lat="42.99139079465913" lon="12.211039495245979"><ele>272.5</ele><time>2026-04-04T13:21:33Z</time></trkpt><trkpt lat="42.99131395501081" lon="12.21092715492886"><ele>271.25</ele><time>2026-04-04T13:21:34Z</time></trkpt><trkpt lat="42.991230519875884" lon="12.210819546186839"><ele>270.0</ele><time>2026-04-04T13:21:35Z</time></trkpt><trkpt lat="42.991130388792925" lon="12.210728926490344"><ele>269.0</ele><time>2026-04-04T13:21:36Z</time></trkpt><trkpt lat="42.991019030318995" lon="12.210653810500856"><ele>268.0</ele><time>2026-04-04T13:21:37Z</time></trkpt><trkpt lat="42.99089382734601" lon="12.210571970358908"><ele>267.0</ele><time>2026-04-04T13:21:38Z</time></trkpt><trkpt lat="42.99077362675173" lon="12.210478290141095"><ele>266.0</ele><time>2026-04-04T13:21:39Z</time></trkpt><trkpt lat="42.99066063355722" lon="12.210351304081385"><ele>266.0</ele><time>2026-04-04T13:21:40Z</time></trkpt><trkpt lat="42.990552103006586" lon="12.210224123162195"><ele>266.0</ele><time>2026-04-04T13:21:41Z</time></trkpt><trkpt lat="42.99043493908178" lon="12.210128000925467"><ele>266.0</ele><time>2026-04-04T13:21:42Z</time></trkpt><trkpt lat="42.990315655485595" lon="12.210057237540939"><ele>266.0</ele><time>2026-04-04T13:21:43Z</time></trkpt><trkpt lat="42.990209609930304" lon="12.209986283096192"><ele>266.0</ele><time>2026-04-04T13:21:44Z</time></trkpt><trkpt lat="42.99012618441823" lon="12.20991920560699"><ele>266.0</ele><time>2026-04-04T13:21:45Z</time></trkpt><trkpt lat="42.990070155454035" lon="12.209836630956778"><ele>266.0</ele><time>2026-04-04T13:21:46Z</time></trkpt><trkpt lat="42.99005437903251" lon="12.209728762694414"><ele>266.0</ele><time>2026-04-04T13:21:47Z</time></trkpt><trkpt lat="42.99011142545193" lon="12.209614189807855"><ele>266.0</ele><time>2026-04-04T13:21:48Z</time></trkpt><trkpt lat="42.990150086923656" lon="12.209471485142123"><ele>264.25</ele><time>2026-04-04T13:21:49Z</time></trkpt><trkpt lat="42.990183072357205" lon="12.209308737108657"><ele>262.5</ele><time>2026-04-04T13:21:50Z</time></trkpt><trkpt lat="42.99023567035548" lon="12.209142119552537"><ele>260.75</ele><time>2026-04-04T13:21:51Z</time></trkpt><trkpt lat="42.99027201730242" lon="12.208977776814196"><ele>259.0</ele><time>2026-04-04T13:21:52Z</time></trkpt><trkpt lat="42.990354578347684" lon="12.208853929726944"><ele>257.25</ele><time>2026-04-04T13:21:53Z</time></trkpt><trkpt lat="42.99044673044546" lon="12.208742813141933"><ele>255.5</ele><time>2026-04-04T13:21:54Z</time></trkpt><trkpt lat="42.99053994133589" lon="12.20861470913344"><ele>253.75</ele><time>2026-04-04T13:21:55Z</time></trkpt><trkpt lat="42.990635613905596" lon="12.20849788749727"><ele>252.0</ele><time>2026-04-04T13:21:56Z</time></trkpt><trkpt lat="42.9907211579583" lon="12.20836137990478"><ele>252.0</ele><time>2026-04-04T13:21:57Z</time></trkpt><trkpt lat="42.99079520454602" lon="12.208228373450272"><ele>252.0</ele><time>2026-04-04T13:21:58Z</time></trkpt><trkpt lat="42.99085668178422" lon="12.208096222728459"><ele>252.0</ele><time>2026-04-04T13:21:59Z</time></trkpt><trkpt lat="42.99089993894954" lon="12.207940722223833"><ele>252.0</ele><time>2026-04-04T13:22:00Z</time></trkpt><trkpt lat="42.99093364635886" lon="12.207773365104318"><ele>248.75</ele><time>2026-04-04T13:22:01Z</time></trkpt><trkpt lat="42.990959123394035" lon="12.20758690890001"><ele>245.5</ele><time>2026-04-04T13:22:02Z</time></trkpt><trkpt lat="42.991008999678726" lon="12.207400317017896"><ele>242.25</ele><time>2026-04-04T13:22:03Z</time></trkpt><trkpt lat="42.99105099669061" lon="12.207209751526955"><ele>239.0</ele><time>2026-04-04T13:22:04Z</time></trkpt><trkpt lat="42.991082675227624" lon="12.207021510547765"><ele>237.75</ele><time>2026-04-04T13:22:05Z</time></trkpt><trkpt lat="42.99113014788822" lon="12.206836270746205"><ele>236.5</ele><time>2026-04-04T13:22:06Z</time></trkpt><trkpt lat="42.991175776411964" lon="12.206650474180472"><ele>235.25</ele><time>2026-04-04T13:22:07.001Z</time></trkpt><trkpt lat="42.991221154694095" lon="12.206467690510395"><ele>234.0</ele><time>2026-04-04T13:22:08.001Z</time></trkpt><trkpt lat="42.99126971834138" lon="12.206287521416428"><ele>233.25</ele><time>2026-04-04T13:22:09.001Z</time></trkpt><trkpt lat="42.99131775484455" lon="12.206118471744684"><ele>232.5</ele><time>2026-04-04T13:22:10.001Z</time></trkpt><trkpt lat="42.991371586500186" lon="12.20596080734079"><ele>231.75</ele><time>2026-04-04T13:22:11.001Z</time></trkpt><trkpt lat="42.991441795190745" lon="12.205818826554811"><ele>231.0</ele><time>2026-04-04T13:22:12.001Z</time></trkpt><trkpt lat="42.99153052643053" lon="12.205699160913232"><ele>231.0</ele><time>2026-04-04T13:22:13.001Z</time></trkpt><trkpt lat="42.991638760080036" lon="12.205589677642783"><ele>231.0</ele><time>2026-04-04T13:22:14.001Z</time></trkpt><trkpt lat="42.991758707576615" lon="12.205498442807238"><ele>231.0</ele><time>2026-04-04T13:22:15.001Z</time></trkpt><trkpt lat="42.9918934190637" lon="12.205412580204577"><ele>231.0</ele><time>2026-04-04T13:22:16.001Z</time></trkpt><trkpt lat="42.99204135573363" lon="12.205314637738613"><ele>229.66666666666669</ele><time>2026-04-04T13:22:17.001Z</time></trkpt><trkpt lat="42.99218617120166" lon="12.205188633311202"><ele>228.33333333333334</ele><time>2026-04-04T13:22:18.001Z</time></trkpt><trkpt lat="42.99231271758208" lon="12.205035846318912"><ele>227.0</ele><time>2026-04-04T13:22:19.001Z</time></trkpt><trkpt lat="42.992433552204524" lon="12.204863822720705"><ele>227.33333333333334</ele><time>2026-04-04T13:22:20.001Z</time></trkpt><trkpt lat="42.99254557631611" lon="12.204678517922272"><ele>227.66666666666669</ele><time>2026-04-04T13:22:21.001Z</time></trkpt><trkpt lat="42.99264305368969" lon="12.204474360892121"><ele>228.0</ele><time>2026-04-04T13:22:22.001Z</time></trkpt><trkpt lat="42.99272926930471" lon="12.204248173402496"><ele>228.0</ele><time>2026-04-04T13:22:23.001Z</time></trkpt><trkpt lat="42.99280340952142" lon="12.204011336074542"><ele>228.0</ele><time>2026-04-04T13:22:24.001Z</time></trkpt><trkpt lat="42.99286826300458" lon="12.203773155490616"><ele>228.0</ele><time>2026-04-04T13:22:25.001Z</time></trkpt><trkpt lat="42.99292900938202" lon="12.203544429332254"><ele>228.0</ele><time>2026-04-04T13:22:26.001Z</time></trkpt><trkpt lat="42.992987911620325" lon="12.20331835807967"><ele>228.0</ele><time>2026-04-04T13:22:27.001Z</time></trkpt><trkpt lat="42.99304530771098" lon="12.20310652616435"><ele>228.0</ele><time>2026-04-04T13:22:28.001Z</time></trkpt><trkpt lat="42.993106672308166" lon="12.20288311245817"><ele>228.33333333333331</ele><time>2026-04-04T13:22:29.001Z</time></trkpt><trkpt lat="42.99316562343377" lon="12.202672888769465"><ele>228.66666666666666</ele><time>2026-04-04T13:22:30.001Z</time></trkpt><trkpt lat="42.99320491311322" lon="12.20246443948461"><ele>229.0</ele><time>2026-04-04T13:22:31.001Z</time></trkpt><trkpt lat="42.99322529116255" lon="12.202240032204962"><ele>231.0</ele><time>2026-04-04T13:22:32.001Z</time></trkpt><trkpt lat="42.99323601364837" lon="12.202010509960585"><ele>233.0</ele><time>2026-04-04T13:22:33.001Z</time></trkpt><trkpt lat="42.993235460346206" lon="12.201791758474668"><ele>235.0</ele><time>2026-04-04T13:22:34.001Z</time></trkpt><trkpt lat="42.99322133804549" lon="12.201575185818173"><ele>234.66666666666666</ele><time>2026-04-04T13:22:35.001Z</time></trkpt><trkpt lat="42.99319644318929" lon="12.201367528914746"><ele>234.33333333333331</ele><time>2026-04-04T13:22:36.001Z</time></trkpt><trkpt lat="42.9931661380575" lon="12.201154533197908"><ele>234.0</ele><time>2026-04-04T13:22:37.001Z</time></trkpt><trkpt lat="42.99312758248633" lon="12.200953327948117"><ele>234.0</ele><time>2026-04-04T13:22:38.001Z</time></trkpt><trkpt lat="42.99308685501608" lon="12.20074963959813"><ele>234.0</ele><time>2026-04-04T13:22:39.001Z</time></trkpt><trkpt lat="42.99305063475717" lon="12.200545205337804"><ele>234.0</ele><time>2026-04-04T13:22:40.001Z</time></trkpt><trkpt lat="42.99301873548421" lon="12.20033699972533"><ele>233.33333333333331</ele><time>2026-04-04T13:22:41.001Z</time></trkpt><trkpt lat="42.99298413730942" lon="12.200125290743138"><ele>232.66666666666666</ele><time>2026-04-04T13:22:42.001Z</time></trkpt><trkpt lat="42.992948240368555" lon="12.199919298272983"><ele>232.0</ele><time>2026-04-04T13:22:43.001Z</time></trkpt><trkpt lat="42.99290927258118" lon="12.19970432143765"><ele>231.33333333333331</ele><time>2026-04-04T13:22:44.001Z</time></trkpt><trkpt lat="42.99286915679742" lon="12.199498854956417"><ele>230.66666666666669</ele><time>2026-04-04T13:22:45.001Z</time></trkpt><trkpt lat="42.99282884681836" lon="12.19928302612788"><ele>230.0</ele><time>2026-04-04T13:22:46.001Z</time></trkpt><trkpt lat="42.992793263189895" lon="12.19906711346579"><ele>229.66666666666669</ele><time>2026-04-04T13:22:47.001Z</time></trkpt><trkpt lat="42.99275761771422" lon="12.198849278442337"><ele>229.33333333333331</ele><time>2026-04-04T13:22:48.001Z</time></trkpt><trkpt lat="42.99272935064129" lon="12.198632118892949"><ele>229.0</ele><time>2026-04-04T13:22:49.001Z</time></trkpt><trkpt lat="42.9927247123351" lon="12.198386158252907"><ele>229.33333333333331</ele><time>2026-04-04T13:22:50.001Z</time></trkpt><trkpt lat="42.9927504673113" lon="12.19810638202553"><ele>229.66666666666669</ele><time>2026-04-04T13:22:51.001Z</time></trkpt><trkpt lat="42.99280142125079" lon="12.197798745433404"><ele>230.0</ele><time>2026-04-04T13:22:52.001Z</time></trkpt><trkpt lat="42.99287022758164" lon="12.197463992146654"><ele>231.5</ele><time>2026-04-04T13:22:53.001Z</time></trkpt><trkpt lat="42.99295925228179" lon="12.19713868956972"><ele>233.0</ele><time>2026-04-04T13:22:54Z</time></trkpt><trkpt lat="42.99305404003181" lon="12.196792445960657"><ele>232.0</ele><time>2026-04-04T13:22:55Z</time></trkpt><trkpt lat="42.99314796465941" lon="12.196437721239159"><ele>231.0</ele><time>2026-04-04T13:22:56Z</time></trkpt><trkpt lat="42.993234022795264" lon="12.196108295106054"><ele>231.0</ele><time>2026-04-04T13:22:57Z</time></trkpt><trkpt lat="42.993312826629364" lon="12.195801539189851"><ele>231.0</ele><time>2026-04-04T13:22:58Z</time></trkpt><trkpt lat="42.99338765132716" lon="12.195504507491405"><ele>233.33333333333331</ele><time>2026-04-04T13:22:59Z</time></trkpt><trkpt lat="42.993462582396" lon="12.195222761249182"><ele>235.66666666666666</ele><time>2026-04-04T13:23:00Z</time></trkpt><trkpt lat="42.993538736004815" lon="12.194943160849414"><ele>238.0</ele><time>2026-04-04T13:23:01Z</time></trkpt><trkpt lat="42.993615603090426" lon="12.194671905409644"><ele>239.5</ele><time>2026-04-04T13:23:02Z</time></trkpt><trkpt lat="42.99370548443302" lon="12.19440154153953"><ele>241.0</ele><time>2026-04-04T13:23:03Z</time></trkpt><trkpt lat="42.993826637960666" lon="12.194116931896483"><ele>238.5</ele><time>2026-04-04T13:23:04Z</time></trkpt><trkpt lat="42.993976786220145" lon="12.193833524416434"><ele>236.0</ele><time>2026-04-04T13:23:05Z</time></trkpt><trkpt lat="42.99416194378159" lon="12.193559900965184"><ele>234.5</ele><time>2026-04-04T13:23:06Z</time></trkpt><trkpt lat="42.99435778096113" lon="12.19330272561455"><ele>233.0</ele><time>2026-04-04T13:23:07Z</time></trkpt><trkpt lat="42.99453665592892" lon="12.193039489822933"><ele>236.5</ele><time>2026-04-04T13:23:08Z</time></trkpt><trkpt lat="42.99470992805337" lon="12.192779581741643"><ele>240.0</ele><time>2026-04-04T13:23:09Z</time></trkpt><trkpt lat="42.99487617982889" lon="12.192521328183886"><ele>238.5</ele><time>2026-04-04T13:23:10Z</time></trkpt><trkpt lat="42.995041714194734" lon="12.19226793431322"><ele>237.0</ele><time>2026-04-04T13:23:11Z</time></trkpt><trkpt lat="42.99520810311071" lon="12.19202110491832"><ele>237.0</ele><time>2026-04-04T13:23:12Z</time></trkpt><trkpt lat="42.99537032028243" lon="12.1917738337417"><ele>237.0</ele><time>2026-04-04T13:23:13Z</time></trkpt><trkpt lat="42.99553169717341" lon="12.191530006473439"><ele>237.5</ele><time>2026-04-04T13:23:14Z</time></trkpt><trkpt lat="42.995686770664506" lon="12.191284863600526"><ele>238.0</ele><time>2026-04-04T13:23:15Z</time></trkpt><trkpt lat="42.99583812189561" lon="12.191019462570136"><ele>236.5</ele><time>2026-04-04T13:23:16Z</time></trkpt><trkpt lat="42.99597921650012" lon="12.190722707466438"><ele>235.0</ele><time>2026-04-04T13:23:17Z</time></trkpt><trkpt lat="42.996113440439586" lon="12.190406704252174"><ele>234.0</ele><time>2026-04-04T13:23:18Z</time></trkpt><trkpt lat="42.99624008783506" lon="12.19009982370199"><ele>233.0</ele><time>2026-04-04T13:23:19Z</time></trkpt><trkpt lat="42.996362003221485" lon="12.189822641636686"><ele>232.33333333333334</ele><time>2026-04-04T13:23:20Z</time></trkpt><trkpt lat="42.99648203832183" lon="12.189561956129799"><ele>231.66666666666669</ele><time>2026-04-04T13:23:21Z</time></trkpt><trkpt lat="42.99659168150052" lon="12.18931842763407"><ele>231.0</ele><time>2026-04-04T13:23:22Z</time></trkpt><trkpt lat="42.996706404762016" lon="12.189060657586095"><ele>230.66666666666669</ele><time>2026-04-04T13:23:23Z</time></trkpt><trkpt lat="42.99682146266624" lon="12.188816195769366"><ele>230.33333333333334</ele><time>2026-04-04T13:23:24Z</time></trkpt><trkpt lat="42.99693714620266" lon="12.188575244419052"><ele>230.0</ele><time>2026-04-04T13:23:25Z</time></trkpt><trkpt lat="42.99706111461759" lon="12.188329693767178"><ele>230.0</ele><time>2026-04-04T13:23:26Z</time></trkpt><trkpt lat="42.99719834046863" lon="12.188084393731204"><ele>230.0</ele><time>2026-04-04T13:23:27Z</time></trkpt><trkpt lat="42.99735008645764" lon="12.187854950503771"><ele>228.66666666666669</ele><time>2026-04-04T13:23:28Z</time></trkpt><trkpt lat="42.99750309964878" lon="12.187671513477527"><ele>227.33333333333331</ele><time>2026-04-04T13:23:29Z</time></trkpt><trkpt lat="42.997659060531184" lon="12.187505539400181"><ele>226.0</ele><time>2026-04-04T13:23:30Z</time></trkpt><trkpt lat="42.997809923090145" lon="12.187355582401606"><ele>226.0</ele><time>2026-04-04T13:23:31Z</time></trkpt><trkpt lat="42.99795592286665" lon="12.187221121032522"><ele>226.0</ele><time>2026-04-04T13:23:32Z</time></trkpt><trkpt lat="42.99808355530199" lon="12.18710684865587"><ele>226.0</ele><time>2026-04-04T13:23:33Z</time></trkpt><trkpt lat="42.99819449679269" lon="12.187004001499064"><ele>226.0</ele><time>2026-04-04T13:23:34Z</time></trkpt><trkpt lat="42.99828861230501" lon="12.1869153411457"><ele>226.0</ele><time>2026-04-04T13:23:35Z</time></trkpt><trkpt lat="42.9983832817405" lon="12.186831185038708"><ele>226.0</ele><time>2026-04-04T13:23:36Z</time></trkpt><trkpt lat="42.998481400135404" lon="12.186743364265297"><ele>226.0</ele><time>2026-04-04T13:23:37Z</time></trkpt><trkpt lat="42.9985912648954" lon="12.186659532776877"><ele>226.75</ele><time>2026-04-04T13:23:38Z</time></trkpt><trkpt lat="42.99869596708151" lon="12.18657880643595"><ele>227.5</ele><time>2026-04-04T13:23:39Z</time></trkpt><trkpt lat="42.99880662017755" lon="12.186493489453305"><ele>228.25</ele><time>2026-04-04T13:23:40Z</time></trkpt><trkpt lat="42.99892300722897" lon="12.186404795224135"><ele>229.0</ele><time>2026-04-04T13:23:41Z</time></trkpt><trkpt lat="42.99904338466297" lon="12.186317551005857"><ele>229.0</ele><time>2026-04-04T13:23:42Z</time></trkpt><trkpt lat="42.99914767969606" lon="12.18626360829456"><ele>228.99999999999997</ele><time>2026-04-04T13:23:43Z</time></trkpt><trkpt lat="42.999218477660854" lon="12.186183643182664"><ele>228.99999999999997</ele><time>2026-04-04T13:23:44Z</time></trkpt><trkpt lat="42.99930006289364" lon="12.186119776569265"><ele>229.0</ele><time>2026-04-04T13:23:45Z</time></trkpt><trkpt lat="42.999382805265306" lon="12.186053526391596"><ele>229.0</ele><time>2026-04-04T13:23:46Z</time></trkpt><trkpt lat="42.9994710724052" lon="12.185982855512014"><ele>229.0</ele><time>2026-04-04T13:23:47Z</time></trkpt><trkpt lat="42.99956919665225" lon="12.185907818428705"><ele>229.0</ele><time>2026-04-04T13:23:48Z</time></trkpt><trkpt lat="42.999673046831866" lon="12.185828422326889"><ele>229.0</ele><time>2026-04-04T13:23:49Z</time></trkpt><trkpt lat="42.9997858987248" lon="12.185739829868293"><ele>229.0</ele><time>2026-04-04T13:23:50Z</time></trkpt><trkpt lat="42.99990122906284" lon="12.18564367199499"><ele>227.75</ele><time>2026-04-04T13:23:51Z</time></trkpt><trkpt lat="43.00001659574024" lon="12.18553800635629"><ele>226.5</ele><time>2026-04-04T13:23:52Z</time></trkpt><trkpt lat="43.00011997435721" lon="12.18542899970074"><ele>225.25</ele><time>2026-04-04T13:23:53Z</time></trkpt><trkpt lat="43.00020633528335" lon="12.185328291724838"><ele>224.0</ele><time>2026-04-04T13:23:54Z</time></trkpt><trkpt lat="43.00028223512338" lon="12.18523380330367"><ele>224.00000000000003</ele><time>2026-04-04T13:23:55Z</time></trkpt><trkpt lat="43.00034403823679" lon="12.185153570398498"><ele>224.0</ele><time>2026-04-04T13:23:56Z</time></trkpt><trkpt lat="43.00039666472084" lon="12.185093916316168"><ele>224.0</ele><time>2026-04-04T13:23:57Z</time></trkpt><trkpt lat="43.00048476927069" lon="12.18509865761864"><ele>224.0</ele><time>2026-04-04T13:23:59Z</time></trkpt><trkpt lat="43.00055630825194" lon="12.185149385036256"><ele>224.00000000000003</ele><time>2026-04-04T13:24:01Z</time></trkpt><trkpt lat="43.00063318840609" lon="12.18510433981998"><ele>224.0</ele><time>2026-04-04T13:24:03Z</time></trkpt><trkpt lat="43.000693034904764" lon="12.184939313191606"><ele>224.0</ele><time>2026-04-04T13:24:05Z</time></trkpt><trkpt lat="43.00071642385799" lon="12.184823586732087"><ele>223.99999999999997</ele><time>2026-04-04T13:24:06Z</time></trkpt><trkpt lat="43.00074989603051" lon="12.1847054063337"><ele>223.99999999999997</ele><time>2026-04-04T13:24:07Z</time></trkpt><trkpt lat="43.0008079836766" lon="12.18458365090553"><ele>224.0</ele><time>2026-04-04T13:24:08Z</time></trkpt><trkpt lat="43.00089400487185" lon="12.184461376440249"><ele>224.0</ele><time>2026-04-04T13:24:09Z</time></trkpt><trkpt lat="43.00101394731819" lon="12.184316696167858"><ele>224.66666666666669</ele><time>2026-04-04T13:24:10Z</time></trkpt><trkpt lat="43.00116956374371" lon="12.184143410034654"><ele>225.33333333333331</ele><time>2026-04-04T13:24:11Z</time></trkpt><trkpt lat="43.0013350479218" lon="12.18395699599025"><ele>226.0</ele><time>2026-04-04T13:24:12Z</time></trkpt><trkpt lat="43.00147228694864" lon="12.183766281326555"><ele>226.66666666666666</ele><time>2026-04-04T13:24:13Z</time></trkpt><trkpt lat="43.00158907255564" lon="12.183567037434067"><ele>227.33333333333331</ele><time>2026-04-04T13:24:14Z</time></trkpt><trkpt lat="43.001675234542105" lon="12.183337659533892"><ele>228.0</ele><time>2026-04-04T13:24:15.001Z</time></trkpt><trkpt lat="43.0017465103523" lon="12.183071194159217"><ele>227.66666666666669</ele><time>2026-04-04T13:24:16.001Z</time></trkpt><trkpt lat="43.00182337081229" lon="12.182795927247858"><ele>227.33333333333334</ele><time>2026-04-04T13:24:17.001Z</time></trkpt><trkpt lat="43.00190524982495" lon="12.182533222907322"><ele>227.0</ele><time>2026-04-04T13:24:18.001Z</time></trkpt><trkpt lat="43.001991416559164" lon="12.182269245118222"><ele>227.0</ele><time>2026-04-04T13:24:19.001Z</time></trkpt><trkpt lat="43.00207904710311" lon="12.182007145485832"><ele>227.0</ele><time>2026-04-04T13:24:20.001Z</time></trkpt><trkpt lat="43.00217026797169" lon="12.18174276024892"><ele>227.0</ele><time>2026-04-04T13:24:21.001Z</time></trkpt><trkpt lat="43.00225955446462" lon="12.181483538356737"><ele>227.33333333333334</ele><time>2026-04-04T13:24:22.001Z</time></trkpt><trkpt lat="43.00234413937803" lon="12.181223446440566"><ele>227.66666666666669</ele><time>2026-04-04T13:24:23.001Z</time></trkpt><trkpt lat="43.002417440475135" lon="12.180984760161284"><ele>228.0</ele><time>2026-04-04T13:24:24.001Z</time></trkpt><trkpt lat="43.0024829244496" lon="12.180766412117393"><ele>228.0</ele><time>2026-04-04T13:24:25.001Z</time></trkpt><trkpt lat="43.002544000605795" lon="12.180563601556495"><ele>228.0</ele><time>2026-04-04T13:24:26.001Z</time></trkpt><trkpt lat="43.00260655967421" lon="12.18039222943938"><ele>228.0</ele><time>2026-04-04T13:24:27.001Z</time></trkpt><trkpt lat="43.00267556421947" lon="12.18025034108586"><ele>228.0</ele><time>2026-04-04T13:24:28.001Z</time></trkpt><trkpt lat="43.00276471774552" lon="12.180142194547566"><ele>228.0</ele><time>2026-04-04T13:24:29.001Z</time></trkpt><trkpt lat="43.00288408389447" lon="12.18006917986593"><ele>228.0</ele><time>2026-04-04T13:24:30.001Z</time></trkpt><trkpt lat="43.00301587284769" lon="12.180039375094683"><ele>228.0</ele><time>2026-04-04T13:24:31.001Z</time></trkpt><trkpt lat="43.00316123049751" lon="12.180002344241226"><ele>228.0</ele><time>2026-04-04T13:24:32.001Z</time></trkpt><trkpt lat="43.00330779823923" lon="12.179963395456218"><ele>227.66666666666669</ele><time>2026-04-04T13:24:33.001Z</time></trkpt><trkpt lat="43.00345502921498" lon="12.17992424088709"><ele>227.33333333333334</ele><time>2026-04-04T13:24:34.001Z</time></trkpt><trkpt lat="43.00360263285433" lon="12.179880488836469"><ele>227.0</ele><time>2026-04-04T13:24:35.001Z</time></trkpt><trkpt lat="43.00374882794642" lon="12.17983593342672"><ele>227.0</ele><time>2026-04-04T13:24:36.001Z</time></trkpt><trkpt lat="43.00389520905858" lon="12.179791424873507"><ele>227.0</ele><time>2026-04-04T13:24:37.001Z</time></trkpt><trkpt lat="43.00404190427296" lon="12.179746535555303"><ele>227.0</ele><time>2026-04-04T13:24:38.001Z</time></trkpt><trkpt lat="43.00418990560152" lon="12.179700649668126"><ele>226.75</ele><time>2026-04-04T13:24:39.001Z</time></trkpt><trkpt lat="43.004337274274754" lon="12.179656341983534"><ele>226.5</ele><time>2026-04-04T13:24:40.001Z</time></trkpt><trkpt lat="43.004478922356896" lon="12.179612901111827"><ele>226.25</ele><time>2026-04-04T13:24:41.001Z</time></trkpt><trkpt lat="43.00461335727216" lon="12.179576538829574"><ele>226.0</ele><time>2026-04-04T13:24:42.001Z</time></trkpt><trkpt lat="43.00475370447567" lon="12.179537168623062"><ele>226.0</ele><time>2026-04-04T13:24:43.001Z</time></trkpt><trkpt lat="43.004904379079036" lon="12.179493281738894"><ele>226.0</ele><time>2026-04-04T13:24:44.001Z</time></trkpt><trkpt lat="43.00506830431503" lon="12.179446537182423"><ele>226.0</ele><time>2026-04-04T13:24:45.001Z</time></trkpt><trkpt lat="43.00523725913342" lon="12.179398660586804"><ele>224.66666666666666</ele><time>2026-04-04T13:24:46.001Z</time></trkpt><trkpt lat="43.00540722414602" lon="12.179347584185303"><ele>223.33333333333331</ele><time>2026-04-04T13:24:47.001Z</time></trkpt><trkpt lat="43.00557489621995" lon="12.179297716467572"><ele>222.0</ele><time>2026-04-04T13:24:48.001Z</time></trkpt><trkpt lat="43.00572553766432" lon="12.179244578756059"><ele>220.66666666666669</ele><time>2026-04-04T13:24:49.001Z</time></trkpt><trkpt lat="43.005891499539274" lon="12.179181333150552"><ele>219.33333333333334</ele><time>2026-04-04T13:24:50.001Z</time></trkpt><trkpt lat="43.00604527042558" lon="12.179120418124784"><ele>218.0</ele><time>2026-04-04T13:24:51.001Z</time></trkpt><trkpt lat="43.006188429354" lon="12.179054341933133"><ele>219.33333333333334</ele><time>2026-04-04T13:24:52.001Z</time></trkpt><trkpt lat="43.00634290818718" lon="12.17898410011174"><ele>220.66666666666669</ele><time>2026-04-04T13:24:53.001Z</time></trkpt><trkpt lat="43.00649103590243" lon="12.178912941403652"><ele>222.0</ele><time>2026-04-04T13:24:54.001Z</time></trkpt><trkpt lat="43.00664517356924" lon="12.17884134882479"><ele>222.33333333333331</ele><time>2026-04-04T13:24:55.001Z</time></trkpt><trkpt lat="43.006790501947556" lon="12.178766162828571"><ele>222.66666666666666</ele><time>2026-04-04T13:24:56.001Z</time></trkpt><trkpt lat="43.00693270738564" lon="12.178695030130129"><ele>223.0</ele><time>2026-04-04T13:24:57.001Z</time></trkpt><trkpt lat="43.007089604640385" lon="12.178607383038909"><ele>223.0</ele><time>2026-04-04T13:24:58.001Z</time></trkpt><trkpt lat="43.00723205991749" lon="12.178533308506674"><ele>223.0</ele><time>2026-04-04T13:24:59.001Z</time></trkpt><trkpt lat="43.0073640075938" lon="12.17846635762633"><ele>223.0</ele><time>2026-04-04T13:25:00Z</time></trkpt><trkpt lat="43.00749584132946" lon="12.178403156649807"><ele>223.0</ele><time>2026-04-04T13:25:01Z</time></trkpt><trkpt lat="43.00762629587589" lon="12.178341553631041"><ele>223.75</ele><time>2026-04-04T13:25:02Z</time></trkpt><trkpt lat="43.00775859377961" lon="12.178278731338285"><ele>224.5</ele><time>2026-04-04T13:25:03Z</time></trkpt><trkpt lat="43.00788435202827" lon="12.178215067217574"><ele>225.25</ele><time>2026-04-04T13:25:04Z</time></trkpt><trkpt lat="43.00799292167128" lon="12.178160043643272"><ele>226.0</ele><time>2026-04-04T13:25:05Z</time></trkpt><trkpt lat="43.008085149813404" lon="12.178115405900666"><ele>225.99999999999997</ele><time>2026-04-04T13:25:06Z</time></trkpt><trkpt lat="43.008169728866704" lon="12.178095681321423"><ele>226.0</ele><time>2026-04-04T13:25:07Z</time></trkpt><trkpt lat="43.00824113182741" lon="12.178122029595858"><ele>226.0</ele><time>2026-04-04T13:25:08Z</time></trkpt><trkpt lat="43.0082959901857" lon="12.178187647893754"><ele>226.0</ele><time>2026-04-04T13:25:09Z</time></trkpt><trkpt lat="43.00832561426011" lon="12.178277313192774"><ele>225.99999999999997</ele><time>2026-04-04T13:25:10Z</time></trkpt><trkpt lat="43.008339931854046" lon="12.178402585463017"><ele>226.0</ele><time>2026-04-04T13:25:11Z</time></trkpt><trkpt lat="43.008350907516366" lon="12.178548994321257"><ele>226.25</ele><time>2026-04-04T13:25:12Z</time></trkpt><trkpt lat="43.00835621605175" lon="12.178683941426467"><ele>226.5</ele><time>2026-04-04T13:25:13Z</time></trkpt><trkpt lat="43.008358614710644" lon="12.178825722948059"><ele>226.75</ele><time>2026-04-04T13:25:14Z</time></trkpt><trkpt lat="43.00836351157091" lon="12.178995549074358"><ele>227.0</ele><time>2026-04-04T13:25:15Z</time></trkpt><trkpt lat="43.008365959349646" lon="12.179195716214823"><ele>227.0</ele><time>2026-04-04T13:25:16Z</time></trkpt><trkpt lat="43.008371089695785" lon="12.179405945168671"><ele>227.0</ele><time>2026-04-04T13:25:17Z</time></trkpt><trkpt lat="43.00838303192456" lon="12.179632445682614"><ele>227.0</ele><time>2026-04-04T13:25:18Z</time></trkpt><trkpt lat="43.0083957448438" lon="12.179868674895433"><ele>227.0</ele><time>2026-04-04T13:25:19Z</time></trkpt><trkpt lat="43.00841452927037" lon="12.180114807824372"><ele>227.0</ele><time>2026-04-04T13:25:20Z</time></trkpt><trkpt lat="43.00844579458064" lon="12.180348721292107"><ele>227.0</ele><time>2026-04-04T13:25:21Z</time></trkpt><trkpt lat="43.00849395466389" lon="12.180575548343747"><ele>227.0</ele><time>2026-04-04T13:25:22Z</time></trkpt><trkpt lat="43.0085439441746" lon="12.18077615263315"><ele>227.0</ele><time>2026-04-04T13:25:23Z</time></trkpt><trkpt lat="43.00859712903944" lon="12.180941871939368"><ele>227.0</ele><time>2026-04-04T13:25:24Z</time></trkpt><trkpt lat="43.00865313945271" lon="12.1811000234422"><ele>227.0</ele><time>2026-04-04T13:25:25Z</time></trkpt><trkpt lat="43.008703307250435" lon="12.181246025318291"><ele>227.00000000000003</ele><time>2026-04-04T13:25:26Z</time></trkpt><trkpt lat="43.008742090353216" lon="12.18135560212648"><ele>227.0</ele><time>2026-04-04T13:25:27Z</time></trkpt><trkpt lat="43.00877569491814" lon="12.181434132168528"><ele>227.0</ele><time>2026-04-04T13:25:28Z</time></trkpt><trkpt lat="43.00888508824333" lon="12.1814917948184"><ele>227.0</ele><time>2026-04-04T13:25:30Z</time></trkpt><trkpt lat="43.00894889913448" lon="12.18148384662015"><ele>227.00000000000003</ele><time>2026-04-04T13:25:31Z</time></trkpt><trkpt lat="43.00901377303995" lon="12.18146845641634"><ele>227.0</ele><time>2026-04-04T13:25:32Z</time></trkpt><trkpt lat="43.00908168576997" lon="12.181449309637538"><ele>226.83333333333334</ele><time>2026-04-04T13:25:33Z</time></trkpt><trkpt lat="43.00916677590675" lon="12.18142548435029"><ele>226.66666666666669</ele><time>2026-04-04T13:25:34Z</time></trkpt><trkpt lat="43.009238018548274" lon="12.181406168253098"><ele>226.5</ele><time>2026-04-04T13:25:35Z</time></trkpt><trkpt lat="43.009300804713085" lon="12.181391556736008"><ele>226.33333333333331</ele><time>2026-04-04T13:25:36Z</time></trkpt><trkpt lat="43.00938937040577" lon="12.181393769314708"><ele>226.16666666666666</ele><time>2026-04-04T13:25:38Z</time></trkpt><trkpt lat="43.00948073472579" lon="12.181427033512197"><ele>226.0</ele><time>2026-04-04T13:25:40Z</time></trkpt><trkpt lat="43.009572417026746" lon="12.181499645908723"><ele>226.20000000000002</ele><time>2026-04-04T13:25:42Z</time></trkpt><trkpt lat="43.009636684544446" lon="12.181575225373594"><ele>226.40000000000003</ele><time>2026-04-04T13:25:44Z</time></trkpt><trkpt lat="43.009716192293" lon="12.181643171353299"><ele>226.6</ele><time>2026-04-04T13:25:46Z</time></trkpt><trkpt lat="43.00979793807502" lon="12.181674220267835"><ele>226.8</ele><time>2026-04-04T13:25:48Z</time></trkpt><trkpt lat="43.009890444948134" lon="12.181650432190182"><ele>227.0</ele><time>2026-04-04T13:25:50Z</time></trkpt><trkpt lat="43.00999068341194" lon="12.181611195367898"><ele>227.6</ele><time>2026-04-04T13:25:52Z</time></trkpt><trkpt lat="43.0100866691283" lon="12.181582171757592"><ele>228.2</ele><time>2026-04-04T13:25:54Z</time></trkpt><trkpt lat="43.010172235731886" lon="12.18155759736318"><ele>228.8</ele><time>2026-04-04T13:25:56Z</time></trkpt><trkpt lat="43.010262904765675" lon="12.181529288010458"><ele>229.4</ele><time>2026-04-04T13:25:58Z</time></trkpt><trkpt lat="43.01036197329485" lon="12.181504846757035"><ele>230.0</ele><time>2026-04-04T13:26:00Z</time></trkpt><trkpt lat="43.01046659414774" lon="12.181460405986346"><ele>230.0</ele><time>2026-04-04T13:26:02Z</time></trkpt><trkpt lat="43.01052998331001" lon="12.181433915852711"><ele>230.0</ele><time>2026-04-04T13:26:03Z</time></trkpt><trkpt lat="43.010630176977" lon="12.181400732099995"><ele>230.0</ele><time>2026-04-04T13:26:05Z</time></trkpt><trkpt lat="43.01073381031433" lon="12.181338129498121"><ele>230.0</ele><time>2026-04-04T13:26:07Z</time></trkpt><trkpt lat="43.01084538372448" lon="12.181270532215759"><ele>230.0</ele><time>2026-04-04T13:26:09Z</time></trkpt><trkpt lat="43.01093923649985" lon="12.181201369538856"><ele>230.2</ele><time>2026-04-04T13:26:11.001Z</time></trkpt><trkpt lat="43.01102646977853" lon="12.181127056432931"><ele>230.4</ele><time>2026-04-04T13:26:13.001Z</time></trkpt><trkpt lat="43.011125886935865" lon="12.181034536311515"><ele>230.60000000000002</ele><time>2026-04-04T13:26:15.001Z</time></trkpt><trkpt lat="43.01118164927133" lon="12.180983402242793"><ele>230.8</ele><time>2026-04-04T13:26:16.001Z</time></trkpt><trkpt lat="43.011238491967916" lon="12.180933259843169"><ele>231.0</ele><time>2026-04-04T13:26:17.001Z</time></trkpt><trkpt lat="43.011345687652394" lon="12.180843843131715"><ele>231.0</ele><time>2026-04-04T13:26:19.001Z</time></trkpt><trkpt lat="43.011447685171255" lon="12.180788333870176"><ele>231.00000000000003</ele><time>2026-04-04T13:26:21.001Z</time></trkpt><trkpt lat="43.01155080062226" lon="12.180731355328255"><ele>231.00000000000003</ele><time>2026-04-04T13:26:23.001Z</time></trkpt><trkpt lat="43.011662174189055" lon="12.180717050548148"><ele>231.0</ele><time>2026-04-04T13:26:25.001Z</time></trkpt><trkpt lat="43.011767093404245" lon="12.180744130126634"><ele>231.0</ele><time>2026-04-04T13:26:27.001Z</time></trkpt><trkpt lat="43.01184498392377" lon="12.180743447424119"><ele>232.20000000000002</ele><time>2026-04-04T13:26:28.001Z</time></trkpt><trkpt lat="43.01193719305128" lon="12.180747639660948"><ele>233.40000000000003</ele><time>2026-04-04T13:26:29.001Z</time></trkpt><trkpt lat="43.01204232852171" lon="12.180754362447786"><ele>234.6</ele><time>2026-04-04T13:26:30.001Z</time></trkpt><trkpt lat="43.01216254060459" lon="12.180747826390744"><ele>235.8</ele><time>2026-04-04T13:26:31.001Z</time></trkpt><trkpt lat="43.01227709352323" lon="12.180749100777042"><ele>237.0</ele><time>2026-04-04T13:26:32.001Z</time></trkpt><trkpt lat="43.01238462588137" lon="12.180779201839654"><ele>237.0</ele><time>2026-04-04T13:26:33.001Z</time></trkpt><trkpt lat="43.01248407364914" lon="12.180827664237883"><ele>237.0</ele><time>2026-04-04T13:26:34.001Z</time></trkpt><trkpt lat="43.01258563887676" lon="12.180899539275485"><ele>237.0</ele><time>2026-04-04T13:26:35.001Z</time></trkpt><trkpt lat="43.012690713663986" lon="12.180985880002684"><ele>237.0</ele><time>2026-04-04T13:26:36.001Z</time></trkpt><trkpt lat="43.0127990802605" lon="12.181088136703737"><ele>238.5</ele><time>2026-04-04T13:26:37.001Z</time></trkpt><trkpt lat="43.01290513713998" lon="12.181212731238091"><ele>240.0</ele><time>2026-04-04T13:26:38.001Z</time></trkpt><trkpt lat="43.01300440462382" lon="12.18136171155416"><ele>241.5</ele><time>2026-04-04T13:26:39.001Z</time></trkpt><trkpt lat="43.01309656366974" lon="12.181503146474348"><ele>243.0</ele><time>2026-04-04T13:26:40.001Z</time></trkpt><trkpt lat="43.01318952060081" lon="12.181618699335488"><ele>244.0</ele><time>2026-04-04T13:26:41.001Z</time></trkpt><trkpt lat="43.01326546723765" lon="12.181690712511333"><ele>245.0</ele><time>2026-04-04T13:26:42.001Z</time></trkpt><trkpt lat="43.01333136241876" lon="12.181717075536902"><ele>246.0</ele><time>2026-04-04T13:26:43.001Z</time></trkpt><trkpt lat="43.013440802763924" lon="12.181709528497306"><ele>247.0</ele><time>2026-04-04T13:26:45.001Z</time></trkpt><trkpt lat="43.0135638691261" lon="12.181649040952703"><ele>248.0</ele><time>2026-04-04T13:26:47.001Z</time></trkpt><trkpt lat="43.01363566688959" lon="12.181604929696153"><ele>248.2</ele><time>2026-04-04T13:26:48.001Z</time></trkpt><trkpt lat="43.013712657127016" lon="12.1815455531362"><ele>248.4</ele><time>2026-04-04T13:26:49.001Z</time></trkpt><trkpt lat="43.01380187447879" lon="12.181473098203634"><ele>248.59999999999997</ele><time>2026-04-04T13:26:50.001Z</time></trkpt><trkpt lat="43.01389023172851" lon="12.181387929009444"><ele>248.79999999999998</ele><time>2026-04-04T13:26:51.001Z</time></trkpt><trkpt lat="43.01399738192599" lon="12.181286426564066"><ele>249.0</ele><time>2026-04-04T13:26:52.001Z</time></trkpt><trkpt lat="43.014107771674034" lon="12.181192712766784"><ele>249.25</ele><time>2026-04-04T13:26:53.001Z</time></trkpt><trkpt lat="43.01421667515897" lon="12.181093768534279"><ele>249.5</ele><time>2026-04-04T13:26:54.001Z</time></trkpt><trkpt lat="43.01432541794263" lon="12.18099028176495"><ele>249.75</ele><time>2026-04-04T13:26:55.001Z</time></trkpt><trkpt lat="43.014437903109155" lon="12.180881003167013"><ele>250.0</ele><time>2026-04-04T13:26:56.001Z</time></trkpt><trkpt lat="43.01454672705752" lon="12.180775109602148"><ele>249.75</ele><time>2026-04-04T13:26:57.001Z</time></trkpt><trkpt lat="43.014651471056254" lon="12.180667763164458"><ele>249.5</ele><time>2026-04-04T13:26:58.001Z</time></trkpt><trkpt lat="43.01475747658761" lon="12.180554198472182"><ele>249.25</ele><time>2026-04-04T13:26:59.001Z</time></trkpt><trkpt lat="43.01486062634707" lon="12.180433412600864"><ele>249.0</ele><time>2026-04-04T13:27:00.001Z</time></trkpt><trkpt lat="43.014962721595616" lon="12.180306741169847"><ele>249.75</ele><time>2026-04-04T13:27:01.001Z</time></trkpt><trkpt lat="43.015058826975505" lon="12.180180448960252"><ele>250.5</ele><time>2026-04-04T13:27:02.001Z</time></trkpt><trkpt lat="43.0151474510545" lon="12.180058994988679"><ele>251.25</ele><time>2026-04-04T13:27:03.001Z</time></trkpt><trkpt lat="43.0152318954447" lon="12.179931329133185"><ele>252.0</ele><time>2026-04-04T13:27:04.001Z</time></trkpt><trkpt lat="43.015308085596864" lon="12.17981038728446"><ele>252.0</ele><time>2026-04-04T13:27:05.001Z</time></trkpt><trkpt lat="43.01537962156504" lon="12.179689342795161"><ele>252.0</ele><time>2026-04-04T13:27:06Z</time></trkpt><trkpt lat="43.015452613301356" lon="12.179596368379336"><ele>252.0</ele><time>2026-04-04T13:27:07Z</time></trkpt><trkpt lat="43.01553294734201" lon="12.179518511028185"><ele>252.0</ele><time>2026-04-04T13:27:08Z</time></trkpt><trkpt lat="43.01563117942058" lon="12.179454191658177"><ele>252.0</ele><time>2026-04-04T13:27:09Z</time></trkpt><trkpt lat="43.015732133418425" lon="12.179398252439759"><ele>252.6</ele><time>2026-04-04T13:27:10Z</time></trkpt><trkpt lat="43.01583590220453" lon="12.179343568594062"><ele>253.2</ele><time>2026-04-04T13:27:11Z</time></trkpt><trkpt lat="43.015932855384456" lon="12.179279763560153"><ele>253.8</ele><time>2026-04-04T13:27:12Z</time></trkpt><trkpt lat="43.01602633796795" lon="12.179212075128865"><ele>254.4</ele><time>2026-04-04T13:27:13Z</time></trkpt><trkpt lat="43.016122694390724" lon="12.179145981335747"><ele>255.0</ele><time>2026-04-04T13:27:14Z</time></trkpt><trkpt lat="43.0162189280307" lon="12.17908766143887"><ele>255.0</ele><time>2026-04-04T13:27:15Z</time></trkpt><trkpt lat="43.01631409032432" lon="12.179022143796491"><ele>255.0</ele><time>2026-04-04T13:27:16Z</time></trkpt><trkpt lat="43.01641727393846" lon="12.178951759661176"><ele>255.0</ele><time>2026-04-04T13:27:17Z</time></trkpt><trkpt lat="43.016525840529944" lon="12.178874501291254"><ele>255.0</ele><time>2026-04-04T13:27:18Z</time></trkpt><trkpt lat="43.0166331412804" lon="12.178803169231943"><ele>255.4</ele><time>2026-04-04T13:27:19Z</time></trkpt><trkpt lat="43.01673757843001" lon="12.178734501442591"><ele>255.8</ele><time>2026-04-04T13:27:20Z</time></trkpt><trkpt lat="43.016826272435345" lon="12.178675152777203"><ele>256.2</ele><time>2026-04-04T13:27:21Z</time></trkpt><trkpt lat="43.016904121861835" lon="12.17862854488147"><ele>256.6</ele><time>2026-04-04T13:27:22Z</time></trkpt><trkpt lat="43.01697541691279" lon="12.178582411057135"><ele>257.0</ele><time>2026-04-04T13:27:23Z</time></trkpt><trkpt lat="43.01703587161658" lon="12.178466297712307"><ele>257.0</ele><time>2026-04-04T13:27:25Z</time></trkpt><trkpt lat="43.01702533851564" lon="12.178377176081991"><ele>257.0</ele><time>2026-04-04T13:27:26Z</time></trkpt><trkpt lat="43.01701851815492" lon="12.178279504705516"><ele>257.0</ele><time>2026-04-04T13:27:27Z</time></trkpt><trkpt lat="43.01703636147774" lon="12.178191800260278"><ele>257.0</ele><time>2026-04-04T13:27:28Z</time></trkpt><trkpt lat="43.01708366457502" lon="12.178113340735106"><ele>257.0</ele><time>2026-04-04T13:27:29Z</time></trkpt><trkpt lat="43.01714466235947" lon="12.178059297819871"><ele>257.0</ele><time>2026-04-04T13:27:30Z</time></trkpt><trkpt lat="43.01722924649898" lon="12.177997728536162"><ele>257.0</ele><time>2026-04-04T13:27:31Z</time></trkpt><trkpt lat="43.01732880956019" lon="12.177940241744771"><ele>257.25</ele><time>2026-04-04T13:27:32Z</time></trkpt><trkpt lat="43.01744463947732" lon="12.177873337687577"><ele>257.5</ele><time>2026-04-04T13:27:33Z</time></trkpt><trkpt lat="43.01756938472181" lon="12.177797296380525"><ele>257.75</ele><time>2026-04-04T13:27:34Z</time></trkpt><trkpt lat="43.01769737904175" lon="12.177713288868405"><ele>258.0</ele><time>2026-04-04T13:27:35Z</time></trkpt><trkpt lat="43.017827957760076" lon="12.17762093369317"><ele>258.0</ele><time>2026-04-04T13:27:36Z</time></trkpt><trkpt lat="43.01796129462399" lon="12.177532103517155"><ele>258.0</ele><time>2026-04-04T13:27:37Z</time></trkpt><trkpt lat="43.01808530250037" lon="12.177452669545064"><ele>258.0</ele><time>2026-04-04T13:27:38Z</time></trkpt><trkpt lat="43.01819617725805" lon="12.177378096079723"><ele>258.0</ele><time>2026-04-04T13:27:39Z</time></trkpt><trkpt lat="43.018301063163776" lon="12.177307140773198"><ele>259.0</ele><time>2026-04-04T13:27:40Z</time></trkpt><trkpt lat="43.01840089992132" lon="12.177234273186816"><ele>260.0</ele><time>2026-04-04T13:27:41Z</time></trkpt><trkpt lat="43.018503871062876" lon="12.177157268322517"><ele>261.0</ele><time>2026-04-04T13:27:42Z</time></trkpt><trkpt lat="43.01860580466679" lon="12.177089881054162"><ele>262.0</ele><time>2026-04-04T13:27:43Z</time></trkpt><trkpt lat="43.018703600420984" lon="12.17702164893956"><ele>262.0</ele><time>2026-04-04T13:27:44Z</time></trkpt><trkpt lat="43.01879313554204" lon="12.176957258252878"><ele>262.0</ele><time>2026-04-04T13:27:45Z</time></trkpt><trkpt lat="43.018872130657584" lon="12.176902634744083"><ele>262.0</ele><time>2026-04-04T13:27:46Z</time></trkpt><trkpt lat="43.018948044459734" lon="12.176855264504912"><ele>262.0</ele><time>2026-04-04T13:27:47Z</time></trkpt><trkpt lat="43.01903675204388" lon="12.17681196587273"><ele>262.0</ele><time>2026-04-04T13:27:48Z</time></trkpt><trkpt lat="43.019129739835286" lon="12.17677441700957"><ele>263.16666666666663</ele><time>2026-04-04T13:27:49Z</time></trkpt><trkpt lat="43.01921423635165" lon="12.176748219980023"><ele>264.3333333333333</ele><time>2026-04-04T13:27:50Z</time></trkpt><trkpt lat="43.019286816034956" lon="12.176741499720713"><ele>265.5</ele><time>2026-04-04T13:27:51Z</time></trkpt><trkpt lat="43.01938546403115" lon="12.176742944672874"><ele>266.6666666666667</ele><time>2026-04-04T13:27:52Z</time></trkpt><trkpt lat="43.019477850662014" lon="12.176727242451538"><ele>267.83333333333337</ele><time>2026-04-04T13:27:53Z</time></trkpt><trkpt lat="43.019566224760915" lon="12.176702594322277"><ele>269.0</ele><time>2026-04-04T13:27:54Z</time></trkpt><trkpt lat="43.019663917263884" lon="12.17667784770086"><ele>269.0</ele><time>2026-04-04T13:27:55Z</time></trkpt><trkpt lat="43.019768161516154" lon="12.176653083704021"><ele>269.0</ele><time>2026-04-04T13:27:56Z</time></trkpt><trkpt lat="43.01988181088587" lon="12.176624182352418"><ele>269.0</ele><time>2026-04-04T13:27:57Z</time></trkpt><trkpt lat="43.019994760367275" lon="12.176602165592834"><ele>269.0</ele><time>2026-04-04T13:27:58Z</time></trkpt><trkpt lat="43.020109443712066" lon="12.176574516039896"><ele>269.2</ele><time>2026-04-04T13:27:59Z</time></trkpt><trkpt lat="43.02021773786954" lon="12.17654485859602"><ele>269.4</ele><time>2026-04-04T13:28:00Z</time></trkpt><trkpt lat="43.020326288068595" lon="12.176516560059513"><ele>269.6</ele><time>2026-04-04T13:28:01Z</time></trkpt><trkpt lat="43.020434653130785" lon="12.176491095007684"><ele>269.8</ele><time>2026-04-04T13:28:02Z</time></trkpt><trkpt lat="43.02054004837669" lon="12.176467264767803"><ele>270.0</ele><time>2026-04-04T13:28:03Z</time></trkpt><trkpt lat="43.02063857789273" lon="12.176444250555548"><ele>269.1666666666667</ele><time>2026-04-04T13:28:04Z</time></trkpt><trkpt lat="43.02073025710183" lon="12.176421196510532"><ele>268.3333333333333</ele><time>2026-04-04T13:28:05Z</time></trkpt><trkpt lat="43.02080585576127" lon="12.176404012471695"><ele>267.5</ele><time>2026-04-04T13:28:06Z</time></trkpt><trkpt lat="43.02089815201792" lon="12.17640549923434"><ele>266.66666666666663</ele><time>2026-04-04T13:28:08Z</time></trkpt><trkpt lat="43.02096151770125" lon="12.176409570566316"><ele>265.8333333333333</ele><time>2026-04-04T13:28:09Z</time></trkpt><trkpt lat="43.0210292490303" lon="12.17639917672113"><ele>265.0</ele><time>2026-04-04T13:28:10Z</time></trkpt><trkpt lat="43.0211111418733" lon="12.176388241232427"><ele>265.0</ele><time>2026-04-04T13:28:11Z</time></trkpt><trkpt lat="43.02120091542741" lon="12.176368065261533"><ele>265.0</ele><time>2026-04-04T13:28:12Z</time></trkpt><trkpt lat="43.02128735183882" lon="12.176343244733129"><ele>265.0</ele><time>2026-04-04T13:28:13Z</time></trkpt><trkpt lat="43.02138699106246" lon="12.176319063353404"><ele>265.0</ele><time>2026-04-04T13:28:14Z</time></trkpt><trkpt lat="43.02149380948867" lon="12.176287481255518"><ele>265.0</ele><time>2026-04-04T13:28:15Z</time></trkpt><trkpt lat="43.0215965785549" lon="12.176252251816544"><ele>266.75</ele><time>2026-04-04T13:28:16Z</time></trkpt><trkpt lat="43.02170582309664" lon="12.176210382994492"><ele>268.5</ele><time>2026-04-04T13:28:17Z</time></trkpt><trkpt lat="43.02183369525518" lon="12.176166716315384"><ele>270.25</ele><time>2026-04-04T13:28:18Z</time></trkpt><trkpt lat="43.02195580392347" lon="12.176120518432585"><ele>272.0</ele><time>2026-04-04T13:28:19Z</time></trkpt><trkpt lat="43.02207344687615" lon="12.176072049749829"><ele>272.0</ele><time>2026-04-04T13:28:20Z</time></trkpt><trkpt lat="43.02218866942985" lon="12.176023223623408"><ele>272.0</ele><time>2026-04-04T13:28:21Z</time></trkpt><trkpt lat="43.022295481490374" lon="12.175981936258612"><ele>272.0</ele><time>2026-04-04T13:28:22Z</time></trkpt><trkpt lat="43.0223990757334" lon="12.175951550302095"><ele>272.0</ele><time>2026-04-04T13:28:23Z</time></trkpt><trkpt lat="43.02249176916299" lon="12.175919320171737"><ele>272.0</ele><time>2026-04-04T13:28:24Z</time></trkpt><trkpt lat="43.02258231507732" lon="12.175887190148504"><ele>273.5</ele><time>2026-04-04T13:28:25Z</time></trkpt><trkpt lat="43.02268128134356" lon="12.175846347525587"><ele>275.0</ele><time>2026-04-04T13:28:26Z</time></trkpt><trkpt lat="43.02279630768563" lon="12.175802520826023"><ele>276.5</ele><time>2026-04-04T13:28:27Z</time></trkpt><trkpt lat="43.02290752323264" lon="12.175760049317857"><ele>278.0</ele><time>2026-04-04T13:28:28Z</time></trkpt><trkpt lat="43.02301452647765" lon="12.17571508288796"><ele>276.75</ele><time>2026-04-04T13:28:29Z</time></trkpt><trkpt lat="43.02313447711049" lon="12.175663323303542"><ele>275.5</ele><time>2026-04-04T13:28:30Z</time></trkpt><trkpt lat="43.02326737551353" lon="12.17560872825906"><ele>274.25</ele><time>2026-04-04T13:28:31.001Z</time></trkpt><trkpt lat="43.023400639341155" lon="12.175555063029888"><ele>273.0</ele><time>2026-04-04T13:28:32.001Z</time></trkpt><trkpt lat="43.02350915540438" lon="12.175501940241512"><ele>275.5</ele><time>2026-04-04T13:28:33.001Z</time></trkpt><trkpt lat="43.023612213568114" lon="12.175447679415507"><ele>278.0</ele><time>2026-04-04T13:28:34.001Z</time></trkpt><trkpt lat="43.02372481151578" lon="12.175389541580788"><ele>280.5</ele><time>2026-04-04T13:28:35.001Z</time></trkpt><trkpt lat="43.02384886502219" lon="12.175325582753365"><ele>283.0</ele><time>2026-04-04T13:28:36.001Z</time></trkpt><trkpt lat="43.02397093598752" lon="12.175263688765604"><ele>283.0</ele><time>2026-04-04T13:28:37.001Z</time></trkpt><trkpt lat="43.02408987216461" lon="12.175195125089347"><ele>283.0</ele><time>2026-04-04T13:28:38.001Z</time></trkpt><trkpt lat="43.02420487268328" lon="12.175125635786944"><ele>283.0</ele><time>2026-04-04T13:28:39.001Z</time></trkpt><trkpt lat="43.02432765028909" lon="12.175046252187975"><ele>283.0</ele><time>2026-04-04T13:28:40.001Z</time></trkpt><trkpt lat="43.02445748866691" lon="12.174969588984078"><ele>282.5</ele><time>2026-04-04T13:28:41.001Z</time></trkpt><trkpt lat="43.02458619187982" lon="12.174902310707637"><ele>282.0</ele><time>2026-04-04T13:28:42.001Z</time></trkpt><trkpt lat="43.02470456070966" lon="12.174843853404905"><ele>281.5</ele><time>2026-04-04T13:28:43.001Z</time></trkpt><trkpt lat="43.02481927020928" lon="12.174784954001368"><ele>281.0</ele><time>2026-04-04T13:28:44.001Z</time></trkpt><trkpt lat="43.024940419239826" lon="12.174730017635927"><ele>282.25</ele><time>2026-04-04T13:28:45.001Z</time></trkpt><trkpt lat="43.02505748396162" lon="12.17468743779084"><ele>283.5</ele><time>2026-04-04T13:28:46.001Z</time></trkpt><trkpt lat="43.02516518871527" lon="12.174656951876122"><ele>284.75</ele><time>2026-04-04T13:28:47.001Z</time></trkpt><trkpt lat="43.02527222919323" lon="12.17462714267655"><ele>286.0</ele><time>2026-04-04T13:28:48.001Z</time></trkpt><trkpt lat="43.02540403628446" lon="12.174594061372687"><ele>286.0</ele><time>2026-04-04T13:28:49.001Z</time></trkpt><trkpt lat="43.02553404748615" lon="12.174561613529663"><ele>286.0</ele><time>2026-04-04T13:28:50.001Z</time></trkpt><trkpt lat="43.02565321767646" lon="12.174531539999755"><ele>286.0</ele><time>2026-04-04T13:28:51.001Z</time></trkpt><trkpt lat="43.025768852092355" lon="12.174504399722071"><ele>286.0</ele><time>2026-04-04T13:28:52.001Z</time></trkpt><trkpt lat="43.025877665855006" lon="12.174487304499209"><ele>286.0</ele><time>2026-04-04T13:28:53.001Z</time></trkpt><trkpt lat="43.02598280179451" lon="12.17447781929326"><ele>286.0</ele><time>2026-04-04T13:28:54.001Z</time></trkpt><trkpt lat="43.026087465060705" lon="12.174465602881606"><ele>286.0</ele><time>2026-04-04T13:28:55.001Z</time></trkpt><trkpt lat="43.02619340831078" lon="12.174440321808765"><ele>286.0</ele><time>2026-04-04T13:28:56.001Z</time></trkpt><trkpt lat="43.02628584512075" lon="12.174414708376085"><ele>286.0</ele><time>2026-04-04T13:28:57.001Z</time></trkpt><trkpt lat="43.02637213580287" lon="12.174388914394981"><ele>286.0</ele><time>2026-04-04T13:28:58.001Z</time></trkpt><trkpt lat="43.02645699479571" lon="12.174348651294421"><ele>286.0</ele><time>2026-04-04T13:28:59.001Z</time></trkpt><trkpt lat="43.02654534782938" lon="12.174295818070572"><ele>286.0</ele><time>2026-04-04T13:29:00.001Z</time></trkpt><trkpt lat="43.026615291889726" lon="12.174220950424417"><ele>286.0</ele><time>2026-04-04T13:29:01.001Z</time></trkpt><trkpt lat="43.02669305908673" lon="12.174137859903793"><ele>286.0</ele><time>2026-04-04T13:29:02.001Z</time></trkpt><trkpt lat="43.026771139915375" lon="12.17406109595653"><ele>286.66666666666663</ele><time>2026-04-04T13:29:03.001Z</time></trkpt><trkpt lat="43.02684893921915" lon="12.173987324158986"><ele>287.3333333333333</ele><time>2026-04-04T13:29:04.001Z</time></trkpt><trkpt lat="43.026921630875876" lon="12.173923416797615"><ele>288.0</ele><time>2026-04-04T13:29:05.001Z</time></trkpt><trkpt lat="43.026977913167464" lon="12.173860337068085"><ele>288.6666666666667</ele><time>2026-04-04T13:29:06.001Z</time></trkpt><trkpt lat="43.027030479700294" lon="12.173780630998387"><ele>289.33333333333337</ele><time>2026-04-04T13:29:07.001Z</time></trkpt><trkpt lat="43.027072280668634" lon="12.173677650169994"><ele>290.0</ele><time>2026-04-04T13:29:08.001Z</time></trkpt><trkpt lat="43.02710874479312" lon="12.173563427921005"><ele>290.0</ele><time>2026-04-04T13:29:09.001Z</time></trkpt><trkpt lat="43.02715819935213" lon="12.173451958871246"><ele>290.0</ele><time>2026-04-04T13:29:10.001Z</time></trkpt><trkpt lat="43.027224724492676" lon="12.173333820012623"><ele>290.0</ele><time>2026-04-04T13:29:11.001Z</time></trkpt><trkpt lat="43.02728879861599" lon="12.173225461336262"><ele>290.0</ele><time>2026-04-04T13:29:12Z</time></trkpt><trkpt lat="43.027344505988296" lon="12.173140579037822"><ele>290.0</ele><time>2026-04-04T13:29:13Z</time></trkpt><trkpt lat="43.02741246314436" lon="12.173062979191533"><ele>291.6</ele><time>2026-04-04T13:29:14Z</time></trkpt><trkpt lat="43.0274874649605" lon="12.172994121131117"><ele>293.2</ele><time>2026-04-04T13:29:15Z</time></trkpt><trkpt lat="43.02755549258294" lon="12.172927869251605"><ele>294.8</ele><time>2026-04-04T13:29:16Z</time></trkpt><trkpt lat="43.02764005382097" lon="12.172790897120308"><ele>296.4</ele><time>2026-04-04T13:29:18Z</time></trkpt><trkpt lat="43.027686156975264" lon="12.17264965802422"><ele>298.0</ele><time>2026-04-04T13:29:20Z</time></trkpt><trkpt lat="43.02773920418308" lon="12.17259502210527"><ele>298.0</ele><time>2026-04-04T13:29:22Z</time></trkpt><trkpt lat="43.0278551991957" lon="12.172513336360993"><ele>298.0</ele><time>2026-04-04T13:30:57Z</time></trkpt><trkpt lat="43.02793154432032" lon="12.172486916513781"><ele>298.0</ele><time>2026-04-04T13:30:58Z</time></trkpt><trkpt lat="43.028013444225316" lon="12.172472724403283"><ele>298.0</ele><time>2026-04-04T13:30:59Z</time></trkpt><trkpt lat="43.02813132906945" lon="12.172433801396805"><ele>298.0</ele><time>2026-04-04T13:31:01Z</time></trkpt><trkpt lat="43.02823941656392" lon="12.172335899377561"><ele>297.66666666666663</ele><time>2026-04-04T13:31:03Z</time></trkpt><trkpt lat="43.028313725398384" lon="12.172224903278424"><ele>297.3333333333333</ele><time>2026-04-04T13:31:05Z</time></trkpt><trkpt lat="43.02836868836175" lon="12.172144389425608"><ele>297.0</ele><time>2026-04-04T13:31:06Z</time></trkpt><trkpt lat="43.02842060314014" lon="12.17206878572181"><ele>296.6666666666667</ele><time>2026-04-04T13:31:07Z</time></trkpt><trkpt lat="43.02848667405985" lon="12.171981106902926"><ele>296.33333333333337</ele><time>2026-04-04T13:31:09Z</time></trkpt><trkpt lat="43.02854588849277" lon="12.171892300537564"><ele>296.0</ele><time>2026-04-04T13:31:45Z</time></trkpt><trkpt lat="43.0286363009086" lon="12.17179945659148"><ele>296.0</ele><time>2026-04-04T13:31:47Z</time></trkpt><trkpt lat="43.028705069289735" lon="12.171725473990156"><ele>296.0</ele><time>2026-04-04T13:31:49Z</time></trkpt><trkpt lat="43.028782641312716" lon="12.171651410381388"><ele>296.0</ele><time>2026-04-04T13:31:50Z</time></trkpt><trkpt lat="43.028842356866406" lon="12.171596108322797"><ele>296.0</ele><time>2026-04-04T13:31:51Z</time></trkpt><trkpt lat="43.028895405410424" lon="12.171542156854004"><ele>296.0</ele><time>2026-04-04T13:31:52Z</time></trkpt><trkpt lat="43.0289458291996" lon="12.171488475643121"><ele>296.0</ele><time>2026-04-04T13:31:53Z</time></trkpt><trkpt lat="43.02902251081171" lon="12.17140946953219"><ele>296.2</ele><time>2026-04-04T13:31:55Z</time></trkpt><trkpt lat="43.0291275033168" lon="12.171296305824079"><ele>296.40000000000003</ele><time>2026-04-04T13:32:30Z</time></trkpt><trkpt lat="43.02918968618773" lon="12.171219203141561"><ele>296.6</ele><time>2026-04-04T13:32:31Z</time></trkpt><trkpt lat="43.029265282944" lon="12.171147388628276"><ele>296.8</ele><time>2026-04-04T13:32:32Z</time></trkpt><trkpt lat="43.0293362925531" lon="12.171080451657893"><ele>297.0</ele><time>2026-04-04T13:32:33Z</time></trkpt><trkpt lat="43.02941626797645" lon="12.171006863027175"><ele>297.0</ele><time>2026-04-04T13:32:34Z</time></trkpt><trkpt lat="43.02948896417676" lon="12.170940025396263"><ele>297.0</ele><time>2026-04-04T13:32:35Z</time></trkpt><trkpt lat="43.02956573672419" lon="12.170870960215634"><ele>297.0</ele><time>2026-04-04T13:32:36Z</time></trkpt><trkpt lat="43.029642846183286" lon="12.170779539748532"><ele>297.0</ele><time>2026-04-04T13:32:37Z</time></trkpt><trkpt lat="43.02970453407414" lon="12.170670414576309"><ele>297.0</ele><time>2026-04-04T13:32:38Z</time></trkpt><trkpt lat="43.02975975929592" lon="12.170534989450578"><ele>296.0</ele><time>2026-04-04T13:32:39Z</time></trkpt><trkpt lat="43.029798383414025" lon="12.170392968266668"><ele>295.0</ele><time>2026-04-04T13:32:40Z</time></trkpt><trkpt lat="43.02983857441257" lon="12.170249729395351"><ele>294.0</ele><time>2026-04-04T13:32:41Z</time></trkpt><trkpt lat="43.0298750477725" lon="12.170131525861212"><ele>293.0</ele><time>2026-04-04T13:32:42Z</time></trkpt><trkpt lat="43.02991020741855" lon="12.170032947289855"><ele>292.0</ele><time>2026-04-04T13:32:43Z</time></trkpt><trkpt lat="43.02995253961825" lon="12.169950275845734"><ele>292.4</ele><time>2026-04-04T13:32:44Z</time></trkpt><trkpt lat="43.03000733293749" lon="12.169865929860775"><ele>292.79999999999995</ele><time>2026-04-04T13:32:45.001Z</time></trkpt><trkpt lat="43.03007812672752" lon="12.169793838919025"><ele>293.2</ele><time>2026-04-04T13:32:46.001Z</time></trkpt><trkpt lat="43.0301588042533" lon="12.169743330348417"><ele>293.59999999999997</ele><time>2026-04-04T13:32:47.001Z</time></trkpt><trkpt lat="43.03024937100771" lon="12.16971140551707"><ele>294.0</ele><time>2026-04-04T13:32:48.001Z</time></trkpt><trkpt lat="43.030358231164065" lon="12.169687855297786"><ele>294.0</ele><time>2026-04-04T13:32:49.001Z</time></trkpt><trkpt lat="43.030465880414155" lon="12.169647466667032"><ele>294.0</ele><time>2026-04-04T13:32:50.001Z</time></trkpt><trkpt lat="43.03055481298187" lon="12.169610247009283"><ele>294.0</ele><time>2026-04-04T13:32:51.001Z</time></trkpt><trkpt lat="43.03063087002684" lon="12.169571793539141"><ele>294.0</ele><time>2026-04-04T13:32:52.001Z</time></trkpt><trkpt lat="43.030708227940345" lon="12.169537348901361"><ele>294.0</ele><time>2026-04-04T13:32:54.001Z</time></trkpt><trkpt lat="43.03077863570267" lon="12.16949659183718"><ele>294.0</ele><time>2026-04-04T13:33:04.001Z</time></trkpt><trkpt lat="43.030837295487785" lon="12.169460293222063"><ele>295.5</ele><time>2026-04-04T13:33:05.001Z</time></trkpt><trkpt lat="43.03098154718234" lon="12.16939067373581"><ele>297.0</ele><time>2026-04-04T13:33:07.001Z</time></trkpt><trkpt lat="43.03107971329448" lon="12.16933962382276"><ele>298.5</ele><time>2026-04-04T13:33:08.001Z</time></trkpt><trkpt lat="43.03118285699378" lon="12.169286857441238"><ele>300.0</ele><time>2026-04-04T13:33:09.001Z</time></trkpt><trkpt lat="43.03128332328238" lon="12.169227540916854"><ele>300.0</ele><time>2026-04-04T13:33:10.001Z</time></trkpt><trkpt lat="43.03138610466413" lon="12.169174195032513"><ele>300.0</ele><time>2026-04-04T13:33:11.001Z</time></trkpt><trkpt lat="43.03149137285588" lon="12.169133101823457"><ele>300.0</ele><time>2026-04-04T13:33:12.001Z</time></trkpt><trkpt lat="43.03159827507294" lon="12.169104338326248"><ele>300.0</ele><time>2026-04-04T13:33:13.001Z</time></trkpt><trkpt lat="43.03170221306396" lon="12.169086267358905"><ele>300.0</ele><time>2026-04-04T13:33:14.001Z</time></trkpt><trkpt lat="43.03181232188426" lon="12.169070156824402"><ele>300.8</ele><time>2026-04-04T13:33:15.001Z</time></trkpt><trkpt lat="43.031919253615875" lon="12.169058664278072"><ele>301.6</ele><time>2026-04-04T13:33:16.001Z</time></trkpt><trkpt lat="43.03202167579903" lon="12.16905090202221"><ele>302.4</ele><time>2026-04-04T13:33:17.001Z</time></trkpt><trkpt lat="43.0321178815255" lon="12.169040004924142"><ele>303.2</ele><time>2026-04-04T13:33:18.001Z</time></trkpt><trkpt lat="43.032209308618036" lon="12.169023906410128"><ele>304.0</ele><time>2026-04-04T13:33:19.001Z</time></trkpt><trkpt lat="43.0322965169465" lon="12.168997283411032"><ele>304.2</ele><time>2026-04-04T13:33:20.001Z</time></trkpt><trkpt lat="43.032365436357445" lon="12.168940777019687"><ele>304.4</ele><time>2026-04-04T13:33:21.001Z</time></trkpt><trkpt lat="43.03243392250969" lon="12.16885739969705"><ele>304.6</ele><time>2026-04-04T13:33:22.001Z</time></trkpt><trkpt lat="43.032496802001845" lon="12.168770349346659"><ele>304.8</ele><time>2026-04-04T13:33:23.001Z</time></trkpt><trkpt lat="43.03257085091948" lon="12.168696477120191"><ele>305.0</ele><time>2026-04-04T13:33:24Z</time></trkpt><trkpt lat="43.03266705270309" lon="12.168627296564477"><ele>305.0</ele><time>2026-04-04T13:33:25Z</time></trkpt><trkpt lat="43.03278729583677" lon="12.16857406894297"><ele>305.0</ele><time>2026-04-04T13:33:26Z</time></trkpt><trkpt lat="43.032908733647616" lon="12.168531425035354"><ele>305.0</ele><time>2026-04-04T13:33:27Z</time></trkpt><trkpt lat="43.03303825963748" lon="12.168475687109616"><ele>305.0</ele><time>2026-04-04T13:33:28Z</time></trkpt><trkpt lat="43.03315382727311" lon="12.168425974126874"><ele>305.0</ele><time>2026-04-04T13:33:29Z</time></trkpt><trkpt lat="43.033267032944806" lon="12.168395304847126"><ele>305.0</ele><time>2026-04-04T13:33:30Z</time></trkpt><trkpt lat="43.0333565831705" lon="12.168357871838085"><ele>305.0</ele><time>2026-04-04T13:33:31Z</time></trkpt><trkpt lat="43.03344551561871" lon="12.16831493274044"><ele>305.0</ele><time>2026-04-04T13:33:32Z</time></trkpt><trkpt lat="43.03353453760031" lon="12.168284247610458"><ele>305.0</ele><time>2026-04-04T13:33:33Z</time></trkpt><trkpt lat="43.033619338013786" lon="12.168259131831416"><ele>306.1666666666667</ele><time>2026-04-04T13:33:34Z</time></trkpt><trkpt lat="43.03369909955346" lon="12.168250458527378"><ele>307.33333333333337</ele><time>2026-04-04T13:33:35Z</time></trkpt><trkpt lat="43.03376719844923" lon="12.168242720027008"><ele>308.5</ele><time>2026-04-04T13:33:36Z</time></trkpt><trkpt lat="43.03387287364099" lon="12.168201885530378"><ele>309.6666666666667</ele><time>2026-04-04T13:33:38Z</time></trkpt><trkpt lat="43.033940573333005" lon="12.168200800511771"><ele>310.8333333333333</ele><time>2026-04-04T13:33:39Z</time></trkpt><trkpt lat="43.03402269831129" lon="12.168201396043756"><ele>312.0</ele><time>2026-04-04T13:33:40Z</time></trkpt><trkpt lat="43.03409525118437" lon="12.168210778234256"><ele>311.6666666666667</ele><time>2026-04-04T13:33:41Z</time></trkpt><trkpt lat="43.03416970721542" lon="12.168198200775029"><ele>311.3333333333333</ele><time>2026-04-04T13:33:42Z</time></trkpt><trkpt lat="43.03424768552024" lon="12.168180889238762"><ele>311.0</ele><time>2026-04-04T13:33:43Z</time></trkpt><trkpt lat="43.034312003906386" lon="12.168172044646855"><ele>310.66666666666663</ele><time>2026-04-04T13:33:44Z</time></trkpt><trkpt lat="43.03442562165398" lon="12.168175912961448"><ele>310.3333333333333</ele><time>2026-04-04T13:33:46Z</time></trkpt><trkpt lat="43.034496161126604" lon="12.168174293854333"><ele>310.0</ele><time>2026-04-04T13:33:47Z</time></trkpt><trkpt lat="43.034612507418196" lon="12.168133368990228"><ele>310.0</ele><time>2026-04-04T13:33:49Z</time></trkpt><trkpt lat="43.0346813587464" lon="12.16810979503559"><ele>310.0</ele><time>2026-04-04T13:33:50Z</time></trkpt><trkpt lat="43.034759629481336" lon="12.168102276001376"><ele>310.0</ele><time>2026-04-04T13:33:51Z</time></trkpt><trkpt lat="43.03482329107763" lon="12.168094305833643"><ele>310.0</ele><time>2026-04-04T13:33:52Z</time></trkpt><trkpt lat="43.03488557861698" lon="12.168080545941137"><ele>310.0</ele><time>2026-04-04T13:33:53Z</time></trkpt><trkpt lat="43.03498607103023" lon="12.168066584727693"><ele>310.0</ele><time>2026-04-04T13:33:55Z</time></trkpt><trkpt lat="43.0350727622045" lon="12.168060637866109"><ele>310.8</ele><time>2026-04-04T13:33:58Z</time></trkpt><trkpt lat="43.03517304876503" lon="12.168062569438982"><ele>311.6</ele><time>2026-04-04T13:34:00Z</time></trkpt><trkpt lat="43.035245597399445" lon="12.168062167656423"><ele>312.4</ele><time>2026-04-04T13:34:01Z</time></trkpt><trkpt lat="43.03535788213881" lon="12.168028900023764"><ele>313.2</ele><time>2026-04-04T13:34:03Z</time></trkpt><trkpt lat="43.03543503678793" lon="12.167999188975672"><ele>314.0</ele><time>2026-04-04T13:34:04Z</time></trkpt><trkpt lat="43.03552330171712" lon="12.167966609195641"><ele>314.0</ele><time>2026-04-04T13:34:05Z</time></trkpt><trkpt lat="43.035606988999504" lon="12.167930924032797"><ele>314.0</ele><time>2026-04-04T13:34:06Z</time></trkpt><trkpt lat="43.035676667576524" lon="12.167893680437622"><ele>314.0</ele><time>2026-04-04T13:34:07Z</time></trkpt><trkpt lat="43.035751235745614" lon="12.167859685403792"><ele>314.0</ele><time>2026-04-04T13:34:08Z</time></trkpt><trkpt lat="43.035833938799456" lon="12.16784663790291"><ele>314.0</ele><time>2026-04-04T13:34:09Z</time></trkpt><trkpt lat="43.03592008677403" lon="12.167858417202224"><ele>314.0</ele><time>2026-04-04T13:34:10Z</time></trkpt><trkpt lat="43.03597258616926" lon="12.16790846602837"><ele>315.1666666666667</ele><time>2026-04-04T13:34:11Z</time></trkpt><trkpt lat="43.03606334469397" lon="12.168008625093886"><ele>316.33333333333337</ele><time>2026-04-04T13:34:13Z</time></trkpt><trkpt lat="43.03614740858001" lon="12.168038519189997"><ele>317.5</ele><time>2026-04-04T13:34:14Z</time></trkpt><trkpt lat="43.03621227650259" lon="12.168045408063032"><ele>318.6666666666667</ele><time>2026-04-04T13:34:15Z</time></trkpt><trkpt lat="43.03628068123696" lon="12.168047182799338"><ele>319.8333333333333</ele><time>2026-04-04T13:34:16Z</time></trkpt><trkpt lat="43.03635053380737" lon="12.168056830566641"><ele>321.0</ele><time>2026-04-04T13:34:17Z</time></trkpt><trkpt lat="43.03641446431375" lon="12.168059155220497"><ele>321.0</ele><time>2026-04-04T13:34:18Z</time></trkpt><trkpt lat="43.03649255223427" lon="12.168053313757405"><ele>321.0</ele><time>2026-04-04T13:34:19Z</time></trkpt><trkpt lat="43.036563621545305" lon="12.168047810860406"><ele>321.0</ele><time>2026-04-04T13:34:20Z</time></trkpt><trkpt lat="43.03664172693357" lon="12.16802758860771"><ele>321.0</ele><time>2026-04-04T13:34:22Z</time></trkpt><trkpt lat="43.03675220648343" lon="12.168001732346452"><ele>321.0</ele><time>2026-04-04T13:34:24Z</time></trkpt><trkpt lat="43.03685214689905" lon="12.167950056109715"><ele>321.0</ele><time>2026-04-04T13:34:26Z</time></trkpt><trkpt lat="43.036958113001916" lon="12.167833902574024"><ele>322.1666666666667</ele><time>2026-04-04T13:34:28Z</time></trkpt><trkpt lat="43.03700308265814" lon="12.167757257180407"><ele>323.3333333333333</ele><time>2026-04-04T13:34:29Z</time></trkpt><trkpt lat="43.037045645509075" lon="12.167669232605212"><ele>324.5</ele><time>2026-04-04T13:34:30Z</time></trkpt><trkpt lat="43.03709681188873" lon="12.16755875721877"><ele>325.66666666666663</ele><time>2026-04-04T13:34:31Z</time></trkpt><trkpt lat="43.037151064877975" lon="12.167442107251983"><ele>326.8333333333333</ele><time>2026-04-04T13:34:32Z</time></trkpt><trkpt lat="43.03720710902983" lon="12.167327260781548"><ele>328.0</ele><time>2026-04-04T13:34:33Z</time></trkpt><trkpt lat="43.037266486463956" lon="12.167206404184222"><ele>329.3333333333333</ele><time>2026-04-04T13:34:34Z</time></trkpt><trkpt lat="43.03733125889061" lon="12.167108030978792"><ele>330.66666666666663</ele><time>2026-04-04T13:34:35Z</time></trkpt><trkpt lat="43.037394847518065" lon="12.167020486059641"><ele>332.0</ele><time>2026-04-04T13:34:36Z</time></trkpt><trkpt lat="43.03743959873976" lon="12.166959249510327"><ele>333.3333333333333</ele><time>2026-04-04T13:34:37.001Z</time></trkpt><trkpt lat="43.03745885620724" lon="12.166838619874197"><ele>334.6666666666667</ele><time>2026-04-04T13:34:39.001Z</time></trkpt><trkpt lat="43.03741333344011" lon="12.166745942175977"><ele>336.0</ele><time>2026-04-04T13:34:41.001Z</time></trkpt><trkpt lat="43.03733345306456" lon="12.166716648109885"><ele>336.0</ele><time>2026-04-04T13:34:43.001Z</time></trkpt><trkpt lat="43.03723505101184" lon="12.166682165725993"><ele>336.0</ele><time>2026-04-04T13:34:45.001Z</time></trkpt><trkpt lat="43.03718487222268" lon="12.166578809924845"><ele>336.0</ele><time>2026-04-04T13:34:47.001Z</time></trkpt><trkpt lat="43.037215333037125" lon="12.166466909281514"><ele>336.0</ele><time>2026-04-04T13:34:49.001Z</time></trkpt><trkpt lat="43.03731067901693" lon="12.166410936722055"><ele>336.0</ele><time>2026-04-04T13:34:51.001Z</time></trkpt><trkpt lat="43.03737961673368" lon="12.166409224810927"><ele>337.4</ele><time>2026-04-04T13:34:52.001Z</time></trkpt><trkpt lat="43.037464886395426" lon="12.166386263273804"><ele>338.8</ele><time>2026-04-04T13:34:53.001Z</time></trkpt><trkpt lat="43.037537124013305" lon="12.166353672216262"><ele>340.2</ele><time>2026-04-04T13:34:54.001Z</time></trkpt><trkpt lat="43.03763809471857" lon="12.16631735604636"><ele>341.59999999999997</ele><time>2026-04-04T13:34:55.001Z</time></trkpt><trkpt lat="43.03775592287759" lon="12.16630196171542"><ele>343.0</ele><time>2026-04-04T13:34:56.001Z</time></trkpt><trkpt lat="43.037874522896104" lon="12.166275163256335"><ele>344.4</ele><time>2026-04-04T13:34:57.001Z</time></trkpt><trkpt lat="43.03796099755633" lon="12.166241309846477"><ele>345.79999999999995</ele><time>2026-04-04T13:34:58.001Z</time></trkpt><trkpt lat="43.03805979046922" lon="12.166182702491634"><ele>347.2</ele><time>2026-04-04T13:34:59.001Z</time></trkpt><trkpt lat="43.03817218937515" lon="12.16611126907249"><ele>348.6</ele><time>2026-04-04T13:35:00.001Z</time></trkpt><trkpt lat="43.03827275851724" lon="12.16604552520031"><ele>350.0</ele><time>2026-04-04T13:35:01.001Z</time></trkpt><trkpt lat="43.03840940598868" lon="12.165986003005086"><ele>351.6</ele><time>2026-04-04T13:35:02.001Z</time></trkpt><trkpt lat="43.03854291232325" lon="12.165931969905849"><ele>353.2</ele><time>2026-04-04T13:35:03.001Z</time></trkpt><trkpt lat="43.03864375231002" lon="12.165891834009793"><ele>354.79999999999995</ele><time>2026-04-04T13:35:04.001Z</time></trkpt><trkpt lat="43.038736611788714" lon="12.165848010766018"><ele>356.4</ele><time>2026-04-04T13:35:05.001Z</time></trkpt><trkpt lat="43.038818664998686" lon="12.165781575015055"><ele>358.0</ele><time>2026-04-04T13:35:06.001Z</time></trkpt><trkpt lat="43.038898110880005" lon="12.165701728652818"><ele>361.0</ele><time>2026-04-04T13:35:07.001Z</time></trkpt><trkpt lat="43.03896157164591" lon="12.165607239053314"><ele>364.0</ele><time>2026-04-04T13:35:08.001Z</time></trkpt><trkpt lat="43.0390391677383" lon="12.165481531876923"><ele>367.0</ele><time>2026-04-04T13:35:09.001Z</time></trkpt><trkpt lat="43.03912192650394" lon="12.165345236374986"><ele>370.0</ele><time>2026-04-04T13:35:10.001Z</time></trkpt><trkpt lat="43.03920923157825" lon="12.165203219801747"><ele>370.8</ele><time>2026-04-04T13:35:11.001Z</time></trkpt><trkpt lat="43.03930362729944" lon="12.165074565651505"><ele>371.6</ele><time>2026-04-04T13:35:12.001Z</time></trkpt><trkpt lat="43.03939224270352" lon="12.164979941877233"><ele>372.4</ele><time>2026-04-04T13:35:13.001Z</time></trkpt><trkpt lat="43.03947585800077" lon="12.164920556332063"><ele>373.2</ele><time>2026-04-04T13:35:14.001Z</time></trkpt><trkpt lat="43.03956901077978" lon="12.164879279940486"><ele>374.0</ele><time>2026-04-04T13:35:15.001Z</time></trkpt><trkpt lat="43.03967104899849" lon="12.164866867496016"><ele>374.0</ele><time>2026-04-04T13:35:16.001Z</time></trkpt><trkpt lat="43.03975690419558" lon="12.164881852983548"><ele>374.0</ele><time>2026-04-04T13:35:17.001Z</time></trkpt><trkpt lat="43.03982935244636" lon="12.164887846189576"><ele>374.0</ele><time>2026-04-04T13:35:18.001Z</time></trkpt><trkpt lat="43.039898153906506" lon="12.16490019080232"><ele>374.0</ele><time>2026-04-04T13:35:19.001Z</time></trkpt><trkpt lat="43.03996134354184" lon="12.164832504800161"><ele>374.0</ele><time>2026-04-04T13:35:21.001Z</time></trkpt><trkpt lat="43.039955144433435" lon="12.164679572807186"><ele>374.0</ele><time>2026-04-04T13:35:23.001Z</time></trkpt><trkpt lat="43.039927591481884" lon="12.164575481115586"><ele>377.4</ele><time>2026-04-04T13:35:24.001Z</time></trkpt><trkpt lat="43.039893165411804" lon="12.16446463471009"><ele>380.79999999999995</ele><time>2026-04-04T13:35:25.001Z</time></trkpt><trkpt lat="43.0398281604539" lon="12.164340631673197"><ele>384.20000000000005</ele><time>2026-04-04T13:35:26.001Z</time></trkpt><trkpt lat="43.03975408689491" lon="12.164238259390741"><ele>387.6</ele><time>2026-04-04T13:35:27.001Z</time></trkpt><trkpt lat="43.039673321226346" lon="12.164143946354821"><ele>391.0</ele><time>2026-04-04T13:35:28.001Z</time></trkpt><trkpt lat="43.0395890047514" lon="12.16409649043694"><ele>391.0</ele><time>2026-04-04T13:35:29.001Z</time></trkpt><trkpt lat="43.03948260713107" lon="12.164071693959519"><ele>391.0</ele><time>2026-04-04T13:35:30Z</time></trkpt><trkpt lat="43.039360214563345" lon="12.164070877342807"><ele>391.0</ele><time>2026-04-04T13:35:31Z</time></trkpt><trkpt lat="43.03923403757529" lon="12.164047570848764"><ele>391.0</ele><time>2026-04-04T13:35:32Z</time></trkpt><trkpt lat="43.03911042398143" lon="12.164007180480624"><ele>392.6666666666667</ele><time>2026-04-04T13:35:33Z</time></trkpt><trkpt lat="43.03902382891222" lon="12.163969388886708"><ele>394.33333333333337</ele><time>2026-04-04T13:35:34Z</time></trkpt><trkpt lat="43.038965156764014" lon="12.163923035902517"><ele>396.0</ele><time>2026-04-04T13:35:35Z</time></trkpt><trkpt lat="43.03890223757166" lon="12.16385675016211"><ele>397.66666666666663</ele><time>2026-04-04T13:35:37Z</time></trkpt><trkpt lat="43.03881749197241" lon="12.163796506668238"><ele>399.3333333333333</ele><time>2026-04-04T13:35:39Z</time></trkpt><trkpt lat="43.03875446474211" lon="12.163759041879516"><ele>401.0</ele><time>2026-04-04T13:35:41Z</time></trkpt><trkpt lat="43.03869375829883" lon="12.163710259816792"><ele>401.0</ele><time>2026-04-04T13:36:11Z</time></trkpt><trkpt lat="43.038573832352476" lon="12.163667472824262"><ele>401.0</ele><time>2026-04-04T13:36:13Z</time></trkpt><trkpt lat="43.03851032034847" lon="12.163647168649598"><ele>401.0</ele><time>2026-04-04T13:36:14Z</time></trkpt><trkpt lat="43.038447018679875" lon="12.16362746389477"><ele>401.0</ele><time>2026-04-04T13:36:15Z</time></trkpt><trkpt lat="43.03834364564875" lon="12.16361196430818"><ele>401.0</ele><time>2026-04-04T13:36:17Z</time></trkpt><trkpt lat="43.038240932033275" lon="12.16361533452474"><ele>398.5</ele><time>2026-04-04T13:36:19Z</time></trkpt><trkpt lat="43.03813364647493" lon="12.163619807728598"><ele>396.0</ele><time>2026-04-04T13:36:21Z</time></trkpt><trkpt lat="43.038036508675816" lon="12.163636197675213"><ele>393.5</ele><time>2026-04-04T13:36:23Z</time></trkpt><trkpt lat="43.03791731553102" lon="12.163639981723286"><ele>391.0</ele><time>2026-04-04T13:36:25Z</time></trkpt><trkpt lat="43.03778962355067" lon="12.163612234028722"><ele>391.00000000000006</ele><time>2026-04-04T13:36:27Z</time></trkpt><trkpt lat="43.03771538637601" lon="12.163593839156446"><ele>391.0</ele><time>2026-04-04T13:36:28Z</time></trkpt><trkpt lat="43.03763330881462" lon="12.163565911098951"><ele>391.0</ele><time>2026-04-04T13:36:29Z</time></trkpt><trkpt lat="43.037566406497284" lon="12.16354229181165"><ele>391.0</ele><time>2026-04-04T13:36:30Z</time></trkpt><trkpt lat="43.037499987557474" lon="12.16351483975045"><ele>391.00000000000006</ele><time>2026-04-04T13:36:31Z</time></trkpt><trkpt lat="43.037439045473974" lon="12.163481734286012"><ele>391.0</ele><time>2026-04-04T13:36:32Z</time></trkpt><trkpt lat="43.037333000547186" lon="12.163415284405266"><ele>392.4</ele><time>2026-04-04T13:36:34Z</time></trkpt><trkpt lat="43.03723372239022" lon="12.163354514781648"><ele>393.8</ele><time>2026-04-04T13:36:36Z</time></trkpt><trkpt lat="43.03713343204154" lon="12.163288244083368"><ele>395.2</ele><time>2026-04-04T13:36:38Z</time></trkpt><trkpt lat="43.03702758086563" lon="12.163207723256564"><ele>396.59999999999997</ele><time>2026-04-04T13:36:40Z</time></trkpt><trkpt lat="43.03697025935765" lon="12.163158479808933"><ele>398.0</ele><time>2026-04-04T13:36:41Z</time></trkpt><trkpt lat="43.03691247010376" lon="12.163112588022042"><ele>397.99999999999994</ele><time>2026-04-04T13:36:42Z</time></trkpt><trkpt lat="43.036855596851765" lon="12.16307301432899"><ele>398.0</ele><time>2026-04-04T13:36:43Z</time></trkpt><trkpt lat="43.03679224418078" lon="12.163036237430838"><ele>398.0</ele><time>2026-04-04T13:36:44Z</time></trkpt><trkpt lat="43.03672842405555" lon="12.163004787890017"><ele>398.0</ele><time>2026-04-04T13:36:45Z</time></trkpt><trkpt lat="43.03665231235813" lon="12.16297381086042"><ele>398.0</ele><time>2026-04-04T13:36:46Z</time></trkpt><trkpt lat="43.03657838794843" lon="12.162946789814962"><ele>397.99999999999994</ele><time>2026-04-04T13:36:47Z</time></trkpt><trkpt lat="43.03649766265258" lon="12.162915205066623"><ele>398.0</ele><time>2026-04-04T13:36:48Z</time></trkpt><trkpt lat="43.03641501636187" lon="12.162879037096088"><ele>395.8333333333333</ele><time>2026-04-04T13:36:49Z</time></trkpt><trkpt lat="43.03632655785619" lon="12.162845193603275"><ele>393.66666666666663</ele><time>2026-04-04T13:36:50Z</time></trkpt><trkpt lat="43.036251572341214" lon="12.162816012352344"><ele>391.5</ele><time>2026-04-04T13:36:51Z</time></trkpt><trkpt lat="43.03617390828998" lon="12.162790020463563"><ele>389.33333333333337</ele><time>2026-04-04T13:36:52Z</time></trkpt><trkpt lat="43.036086647643906" lon="12.162757110693418"><ele>387.1666666666667</ele><time>2026-04-04T13:36:53Z</time></trkpt><trkpt lat="43.035985377318376" lon="12.162725542369067"><ele>385.0</ele><time>2026-04-04T13:36:54Z</time></trkpt><trkpt lat="43.035877026146196" lon="12.162685323223627"><ele>382.75</ele><time>2026-04-04T13:36:55Z</time></trkpt><trkpt lat="43.03577700170851" lon="12.162640589261354"><ele>380.5</ele><time>2026-04-04T13:36:56Z</time></trkpt><trkpt lat="43.035671263573605" lon="12.162580384167828"><ele>378.25</ele><time>2026-04-04T13:36:57Z</time></trkpt><trkpt lat="43.03556013607354" lon="12.162512809031156"><ele>376.0</ele><time>2026-04-04T13:36:58Z</time></trkpt><trkpt lat="43.03545242165874" lon="12.162444731593196"><ele>376.0</ele><time>2026-04-04T13:36:59Z</time></trkpt><trkpt lat="43.035343073661835" lon="12.162387629704211"><ele>376.0</ele><time>2026-04-04T13:37:00Z</time></trkpt><trkpt lat="43.035235350768055" lon="12.162348201725427"><ele>376.0</ele><time>2026-04-04T13:37:01Z</time></trkpt><trkpt lat="43.03513057864692" lon="12.162320887454138"><ele>376.0</ele><time>2026-04-04T13:37:02Z</time></trkpt><trkpt lat="43.03503358058293" lon="12.162296535866377"><ele>376.0</ele><time>2026-04-04T13:37:03Z</time></trkpt><trkpt lat="43.03493230746456" lon="12.16228027319099"><ele>378.4</ele><time>2026-04-04T13:37:04Z</time></trkpt><trkpt lat="43.034828594590664" lon="12.16226003090939"><ele>380.8</ele><time>2026-04-04T13:37:05Z</time></trkpt><trkpt lat="43.03471287398963" lon="12.162236783895768"><ele>383.2</ele><time>2026-04-04T13:37:06Z</time></trkpt><trkpt lat="43.03460509461961" lon="12.162222184703788"><ele>385.59999999999997</ele><time>2026-04-04T13:37:07Z</time></trkpt><trkpt lat="43.03450556115895" lon="12.162198378619353"><ele>388.0</ele><time>2026-04-04T13:37:08Z</time></trkpt><trkpt lat="43.03441025378794" lon="12.162172870356956"><ele>388.0</ele><time>2026-04-04T13:37:09.001Z</time></trkpt><trkpt lat="43.03431036345791" lon="12.162141301663755"><ele>388.0</ele><time>2026-04-04T13:37:10.001Z</time></trkpt><trkpt lat="43.03420662342654" lon="12.162098729471516"><ele>388.0</ele><time>2026-04-04T13:37:11.001Z</time></trkpt><trkpt lat="43.034101756966244" lon="12.162041428823791"><ele>388.0</ele><time>2026-04-04T13:37:12.001Z</time></trkpt><trkpt lat="43.03401012829393" lon="12.161964913616526"><ele>388.0</ele><time>2026-04-04T13:37:13.001Z</time></trkpt><trkpt lat="43.03392004077058" lon="12.161882488363034"><ele>385.59999999999997</ele><time>2026-04-04T13:37:14.001Z</time></trkpt><trkpt lat="43.033825785705694" lon="12.161809856143766"><ele>383.2</ele><time>2026-04-04T13:37:15.001Z</time></trkpt><trkpt lat="43.03372879096776" lon="12.16174769274936"><ele>380.8</ele><time>2026-04-04T13:37:16.001Z</time></trkpt><trkpt lat="43.03363080586158" lon="12.161687959777886"><ele>378.4</ele><time>2026-04-04T13:37:17.001Z</time></trkpt><trkpt lat="43.03353275723675" lon="12.161632556468764"><ele>376.0</ele><time>2026-04-04T13:37:18.001Z</time></trkpt><trkpt lat="43.033443346691534" lon="12.161589464799482"><ele>376.0</ele><time>2026-04-04T13:37:19.001Z</time></trkpt><trkpt lat="43.03335626673784" lon="12.161546351158776"><ele>376.0</ele><time>2026-04-04T13:37:20.001Z</time></trkpt><trkpt lat="43.03326423709857" lon="12.161508716784821"><ele>376.0</ele><time>2026-04-04T13:37:21.001Z</time></trkpt><trkpt lat="43.03317899275814" lon="12.16150801355939"><ele>376.0</ele><time>2026-04-04T13:37:22.001Z</time></trkpt><trkpt lat="43.03309555438767" lon="12.161531398207153"><ele>376.0</ele><time>2026-04-04T13:37:23.001Z</time></trkpt><trkpt lat="43.033015232590444" lon="12.161594273862827"><ele>377.75</ele><time>2026-04-04T13:37:24.001Z</time></trkpt><trkpt lat="43.03293594027752" lon="12.161683782191508"><ele>379.5</ele><time>2026-04-04T13:37:25.001Z</time></trkpt><trkpt lat="43.032851884287226" lon="12.161780648071709"><ele>381.25</ele><time>2026-04-04T13:37:26.001Z</time></trkpt><trkpt lat="43.032749678129235" lon="12.161904334052569"><ele>383.0</ele><time>2026-04-04T13:37:27.001Z</time></trkpt><trkpt lat="43.032647135808084" lon="12.162006551681822"><ele>383.0</ele><time>2026-04-04T13:37:28.001Z</time></trkpt><trkpt lat="43.03253524985614" lon="12.162120555761796"><ele>383.0</ele><time>2026-04-04T13:37:29.001Z</time></trkpt><trkpt lat="43.032429582485186" lon="12.162238014634504"><ele>383.0</ele><time>2026-04-04T13:37:30.001Z</time></trkpt><trkpt lat="43.03234245398346" lon="12.16234356394685"><ele>383.0</ele><time>2026-04-04T13:37:31.001Z</time></trkpt><trkpt lat="43.03226731617443" lon="12.162421820540592"><ele>383.2</ele><time>2026-04-04T13:37:32.001Z</time></trkpt><trkpt lat="43.03219566595279" lon="12.16248324719063"><ele>383.4</ele><time>2026-04-04T13:37:33.001Z</time></trkpt><trkpt lat="43.03210913306032" lon="12.162517547289196"><ele>383.59999999999997</ele><time>2026-04-04T13:37:34.001Z</time></trkpt><trkpt lat="43.03202126012298" lon="12.162512385448613"><ele>383.79999999999995</ele><time>2026-04-04T13:37:35.001Z</time></trkpt><trkpt lat="43.03191940877416" lon="12.162507604108088"><ele>384.0</ele><time>2026-04-04T13:37:36Z</time></trkpt><trkpt lat="43.03181440409514" lon="12.162516051691643"><ele>384.0</ele><time>2026-04-04T13:37:37Z</time></trkpt><trkpt lat="43.031701276220865" lon="12.16251886790579"><ele>384.0</ele><time>2026-04-04T13:37:38Z</time></trkpt><trkpt lat="43.03158762560964" lon="12.162519593356992"><ele>384.0</ele><time>2026-04-04T13:37:39Z</time></trkpt><trkpt lat="43.03147957637185" lon="12.16252219235029"><ele>384.0</ele><time>2026-04-04T13:37:40Z</time></trkpt><trkpt lat="43.031378265006865" lon="12.162529539687853"><ele>384.0</ele><time>2026-04-04T13:37:41Z</time></trkpt><trkpt lat="43.03127058975669" lon="12.162539983595547"><ele>382.2</ele><time>2026-04-04T13:37:42Z</time></trkpt><trkpt lat="43.03117222556322" lon="12.162549685665224"><ele>380.4</ele><time>2026-04-04T13:37:43Z</time></trkpt><trkpt lat="43.03107659312904" lon="12.162554085135627"><ele>378.6</ele><time>2026-04-04T13:37:44Z</time></trkpt><trkpt lat="43.030984271846435" lon="12.16255670965674"><ele>376.8</ele><time>2026-04-04T13:37:45Z</time></trkpt><trkpt lat="43.03089619352145" lon="12.162566209979719"><ele>375.0</ele><time>2026-04-04T13:37:46Z</time></trkpt><trkpt lat="43.03081594625394" lon="12.162568022795018"><ele>373.0</ele><time>2026-04-04T13:37:47Z</time></trkpt><trkpt lat="43.03075029907138" lon="12.162562481894808"><ele>371.0</ele><time>2026-04-04T13:37:48Z</time></trkpt><trkpt lat="43.03067772287125" lon="12.162542717127984"><ele>369.0</ele><time>2026-04-04T13:37:49Z</time></trkpt><trkpt lat="43.03060733260348" lon="12.162490997868254"><ele>367.0</ele><time>2026-04-04T13:37:50Z</time></trkpt><trkpt lat="43.03054113115855" lon="12.162428584678336"><ele>365.0</ele><time>2026-04-04T13:37:51Z</time></trkpt><trkpt lat="43.030464909345596" lon="12.16236829715006"><ele>363.0</ele><time>2026-04-04T13:37:52Z</time></trkpt><trkpt lat="43.03037369144733" lon="12.16230157309616"><ele>362.4</ele><time>2026-04-04T13:37:53Z</time></trkpt><trkpt lat="43.03028340294613" lon="12.162218948113992"><ele>361.79999999999995</ele><time>2026-04-04T13:37:54Z</time></trkpt><trkpt lat="43.03018705588159" lon="12.162143573301421"><ele>361.2</ele><time>2026-04-04T13:37:55Z</time></trkpt><trkpt lat="43.03009563692856" lon="12.162075216980844"><ele>360.6</ele><time>2026-04-04T13:37:56Z</time></trkpt><trkpt lat="43.030016734759485" lon="12.162019125532547"><ele>360.0</ele><time>2026-04-04T13:37:57Z</time></trkpt><trkpt lat="43.029930746835255" lon="12.161968505532414"><ele>358.4</ele><time>2026-04-04T13:37:58Z</time></trkpt><trkpt lat="43.02983876822806" lon="12.16193557534931"><ele>356.8</ele><time>2026-04-04T13:37:59Z</time></trkpt><trkpt lat="43.029741309594534" lon="12.161921725139955"><ele>355.20000000000005</ele><time>2026-04-04T13:38:00Z</time></trkpt><trkpt lat="43.02964407271938" lon="12.16192401300049"><ele>353.6</ele><time>2026-04-04T13:38:01Z</time></trkpt><trkpt lat="43.02954468864008" lon="12.16194173380005"><ele>352.0</ele><time>2026-04-04T13:38:02Z</time></trkpt><trkpt lat="43.02943781664866" lon="12.161983596205161"><ele>352.0</ele><time>2026-04-04T13:38:03Z</time></trkpt><trkpt lat="43.029326331652214" lon="12.162043093106085"><ele>352.0</ele><time>2026-04-04T13:38:04Z</time></trkpt><trkpt lat="43.02921404856105" lon="12.162106356914288"><ele>352.0</ele><time>2026-04-04T13:38:05Z</time></trkpt><trkpt lat="43.02910155494766" lon="12.162167331326533"><ele>352.0</ele><time>2026-04-04T13:38:06Z</time></trkpt><trkpt lat="43.02898953686996" lon="12.162221409755606"><ele>350.75</ele><time>2026-04-04T13:38:07Z</time></trkpt><trkpt lat="43.02887801382833" lon="12.16227405802866"><ele>349.5</ele><time>2026-04-04T13:38:08Z</time></trkpt><trkpt lat="43.028773113243695" lon="12.162332725976892"><ele>348.25</ele><time>2026-04-04T13:38:09Z</time></trkpt><trkpt lat="43.02867129445842" lon="12.162392420385123"><ele>347.0</ele><time>2026-04-04T13:38:10Z</time></trkpt><trkpt lat="43.028565107718954" lon="12.162450799011314"><ele>347.0</ele><time>2026-04-04T13:38:11Z</time></trkpt><trkpt lat="43.028458985690186" lon="12.162500554190919"><ele>347.0</ele><time>2026-04-04T13:38:12Z</time></trkpt><trkpt lat="43.02834853179564" lon="12.162530798906564"><ele>347.0</ele><time>2026-04-04T13:38:13Z</time></trkpt><trkpt lat="43.028228327688204" lon="12.16253777247129"><ele>347.0</ele><time>2026-04-04T13:38:14Z</time></trkpt><trkpt lat="43.028102755928415" lon="12.162523361776051"><ele>345.5</ele><time>2026-04-04T13:38:15Z</time></trkpt><trkpt lat="43.02798198946021" lon="12.162505066534814"><ele>344.0</ele><time>2026-04-04T13:38:16Z</time></trkpt><trkpt lat="43.02784388746576" lon="12.162491113826837"><ele>342.5</ele><time>2026-04-04T13:38:17Z</time></trkpt><trkpt lat="43.02771604634379" lon="12.162474928226537"><ele>341.0</ele><time>2026-04-04T13:38:18Z</time></trkpt><trkpt lat="43.02758405278725" lon="12.16245505306592"><ele>338.25</ele><time>2026-04-04T13:38:19Z</time></trkpt><trkpt lat="43.027450533802565" lon="12.162435146506047"><ele>335.5</ele><time>2026-04-04T13:38:20Z</time></trkpt><trkpt lat="43.027312327021946" lon="12.162418009479223"><ele>332.75</ele><time>2026-04-04T13:38:21Z</time></trkpt><trkpt lat="43.02717253400522" lon="12.162396860618916"><ele>330.0</ele><time>2026-04-04T13:38:22Z</time></trkpt><trkpt lat="43.027036598498434" lon="12.162377450078907"><ele>330.0</ele><time>2026-04-04T13:38:23Z</time></trkpt><trkpt lat="43.026903101014064" lon="12.162367222356218"><ele>330.0</ele><time>2026-04-04T13:38:24Z</time></trkpt><trkpt lat="43.026777312549676" lon="12.16235865062583"><ele>330.0</ele><time>2026-04-04T13:38:25Z</time></trkpt><trkpt lat="43.026651724207696" lon="12.162345032994311"><ele>330.0</ele><time>2026-04-04T13:38:26Z</time></trkpt><trkpt lat="43.026533630019806" lon="12.162319091717594"><ele>329.0</ele><time>2026-04-04T13:38:27Z</time></trkpt><trkpt lat="43.026418590670865" lon="12.162295865141463"><ele>328.0</ele><time>2026-04-04T13:38:28Z</time></trkpt><trkpt lat="43.0263107567099" lon="12.162282638504996"><ele>327.0</ele><time>2026-04-04T13:38:29Z</time></trkpt><trkpt lat="43.02621215517866" lon="12.162264359665347"><ele>326.0</ele><time>2026-04-04T13:38:30Z</time></trkpt><trkpt lat="43.026127280374816" lon="12.162247460502398"><ele>325.0</ele><time>2026-04-04T13:38:31Z</time></trkpt><trkpt lat="43.02606368241832" lon="12.162232494887554"><ele>325.0</ele><time>2026-04-04T13:38:32Z</time></trkpt><trkpt lat="43.02594899632161" lon="12.162188326613242"><ele>325.0</ele><time>2026-04-04T13:38:34Z</time></trkpt><trkpt lat="43.02582656700659" lon="12.162170267234517"><ele>325.0</ele><time>2026-04-04T13:38:36Z</time></trkpt><trkpt lat="43.02575105001885" lon="12.162181327868101"><ele>325.0</ele><time>2026-04-04T13:38:37Z</time></trkpt><trkpt lat="43.02565832866378" lon="12.162204350980367"><ele>325.0</ele><time>2026-04-04T13:38:38Z</time></trkpt><trkpt lat="43.02557095963823" lon="12.162223355263665"><ele>323.5</ele><time>2026-04-04T13:38:39Z</time></trkpt><trkpt lat="43.02547162516784" lon="12.162249838332418"><ele>322.0</ele><time>2026-04-04T13:38:40Z</time></trkpt><trkpt lat="43.02536489394135" lon="12.162298387312159"><ele>320.5</ele><time>2026-04-04T13:38:41Z</time></trkpt><trkpt lat="43.025245433799014" lon="12.162381346231006"><ele>319.0</ele><time>2026-04-04T13:38:42Z</time></trkpt><trkpt lat="43.02512249248636" lon="12.162470239415685"><ele>319.0</ele><time>2026-04-04T13:38:43Z</time></trkpt><trkpt lat="43.024996689712346" lon="12.162553665632897"><ele>319.0</ele><time>2026-04-04T13:38:44Z</time></trkpt><trkpt lat="43.02487429581899" lon="12.162633429099216"><ele>319.0</ele><time>2026-04-04T13:38:45Z</time></trkpt><trkpt lat="43.02475262032052" lon="12.16271364059511"><ele>319.0</ele><time>2026-04-04T13:38:46Z</time></trkpt><trkpt lat="43.024641551944185" lon="12.162788652946238"><ele>319.0</ele><time>2026-04-04T13:38:47Z</time></trkpt><trkpt lat="43.02453582455755" lon="12.16285443818848"><ele>319.0</ele><time>2026-04-04T13:38:48Z</time></trkpt><trkpt lat="43.0244229727672" lon="12.16292482182252"><ele>319.0</ele><time>2026-04-04T13:38:49Z</time></trkpt><trkpt lat="43.02430927376023" lon="12.162997695641382"><ele>319.0</ele><time>2026-04-04T13:38:50Z</time></trkpt><trkpt lat="43.02418822920723" lon="12.163076228044197"><ele>319.5</ele><time>2026-04-04T13:38:51Z</time></trkpt><trkpt lat="43.02407317066055" lon="12.163151444234684"><ele>320.0</ele><time>2026-04-04T13:38:52Z</time></trkpt><trkpt lat="43.023963723774564" lon="12.163227972244576"><ele>320.5</ele><time>2026-04-04T13:38:53Z</time></trkpt><trkpt lat="43.02386016019245" lon="12.163309205142149"><ele>321.0</ele><time>2026-04-04T13:38:54Z</time></trkpt><trkpt lat="43.02376759669315" lon="12.163402672525622"><ele>321.0</ele><time>2026-04-04T13:38:55Z</time></trkpt><trkpt lat="43.023680642565814" lon="12.163508899015719"><ele>321.0</ele><time>2026-04-04T13:38:56Z</time></trkpt><trkpt lat="43.02362980248626" lon="12.163587310584782"><ele>321.0</ele><time>2026-04-04T13:38:57Z</time></trkpt><trkpt lat="43.02355164827413" lon="12.163653801905241"><ele>321.0</ele><time>2026-04-04T13:38:58Z</time></trkpt><trkpt lat="43.02336711477973" lon="12.163841662575079"><ele>321.0</ele><time>2026-04-04T13:38:59Z</time></trkpt><trkpt lat="43.02325751108394" lon="12.163955219219186"><ele>321.0</ele><time>2026-04-04T13:39:00Z</time></trkpt><trkpt lat="43.023159449124165" lon="12.164077630102904"><ele>321.0</ele><time>2026-04-04T13:39:01Z</time></trkpt><trkpt lat="43.02308110023857" lon="12.164202033556846"><ele>321.0</ele><time>2026-04-04T13:39:02Z</time></trkpt><trkpt lat="43.02301142368392" lon="12.164340480743903"><ele>323.75</ele><time>2026-04-04T13:39:03Z</time></trkpt><trkpt lat="43.02294582641093" lon="12.16449243099672"><ele>326.5</ele><time>2026-04-04T13:39:04Z</time></trkpt><trkpt lat="43.02288264200975" lon="12.164642779269146"><ele>329.25</ele><time>2026-04-04T13:39:05Z</time></trkpt><trkpt lat="43.022813500588775" lon="12.164785805076853"><ele>332.0</ele><time>2026-04-04T13:39:06Z</time></trkpt><trkpt lat="43.022733666622486" lon="12.164929963086632"><ele>332.0</ele><time>2026-04-04T13:39:07Z</time></trkpt><trkpt lat="43.0226623588958" lon="12.16504998641507"><ele>332.0</ele><time>2026-04-04T13:39:08.001Z</time></trkpt><trkpt lat="43.02259271470893" lon="12.165159381901454"><ele>332.0</ele><time>2026-04-04T13:39:09.001Z</time></trkpt><trkpt lat="43.022514217975946" lon="12.165275516104513"><ele>332.0</ele><time>2026-04-04T13:39:10.001Z</time></trkpt><trkpt lat="43.02241632775019" lon="12.165380064854155"><ele>332.75</ele><time>2026-04-04T13:39:11.001Z</time></trkpt><trkpt lat="43.02229680819573" lon="12.165457754327223"><ele>333.5</ele><time>2026-04-04T13:39:12.001Z</time></trkpt><trkpt lat="43.022159729416956" lon="12.16552125467282"><ele>334.25</ele><time>2026-04-04T13:39:13.001Z</time></trkpt><trkpt lat="43.0220230758922" lon="12.165571777218146"><ele>335.0</ele><time>2026-04-04T13:39:14.001Z</time></trkpt><trkpt lat="43.02189828486348" lon="12.16560951490991"><ele>335.0</ele><time>2026-04-04T13:39:15.001Z</time></trkpt><trkpt lat="43.0217761420951" lon="12.165647583739275"><ele>335.0</ele><time>2026-04-04T13:39:16.001Z</time></trkpt><trkpt lat="43.02166455142689" lon="12.165676026652957"><ele>335.0</ele><time>2026-04-04T13:39:17.001Z</time></trkpt><trkpt lat="43.02155148915863" lon="12.165700383248144"><ele>335.0</ele><time>2026-04-04T13:39:18.001Z</time></trkpt><trkpt lat="43.021432842666236" lon="12.165717577641104"><ele>332.25</ele><time>2026-04-04T13:39:19.001Z</time></trkpt><trkpt lat="43.021310610748614" lon="12.165729041249175"><ele>329.5</ele><time>2026-04-04T13:39:20.001Z</time></trkpt><trkpt lat="43.02119165371992" lon="12.165736319266971"><ele>326.75</ele><time>2026-04-04T13:39:21.001Z</time></trkpt><trkpt lat="43.021070910660505" lon="12.165749031221695"><ele>324.0</ele><time>2026-04-04T13:39:22.001Z</time></trkpt><trkpt lat="43.020948144936" lon="12.165775349785363"><ele>322.75</ele><time>2026-04-04T13:39:23.001Z</time></trkpt><trkpt lat="43.020815774893826" lon="12.165810803167467"><ele>321.5</ele><time>2026-04-04T13:39:24.001Z</time></trkpt><trkpt lat="43.02068782988773" lon="12.16584466322559"><ele>320.25</ele><time>2026-04-04T13:39:25.001Z</time></trkpt><trkpt lat="43.020558630199595" lon="12.165870490932335"><ele>319.0</ele><time>2026-04-04T13:39:26.001Z</time></trkpt><trkpt lat="43.020425248922294" lon="12.165885461183612"><ele>319.0</ele><time>2026-04-04T13:39:27.001Z</time></trkpt><trkpt lat="43.02028843860233" lon="12.165893559103242"><ele>319.0</ele><time>2026-04-04T13:39:28.001Z</time></trkpt><trkpt lat="43.02015398024983" lon="12.16589312688633"><ele>319.0</ele><time>2026-04-04T13:39:29.001Z</time></trkpt><trkpt lat="43.020019171026156" lon="12.165890877937557"><ele>319.0</ele><time>2026-04-04T13:39:30.001Z</time></trkpt><trkpt lat="43.019888516026185" lon="12.16588700897924"><ele>317.25</ele><time>2026-04-04T13:39:31.001Z</time></trkpt><trkpt lat="43.01975978137675" lon="12.165883575885669"><ele>315.5</ele><time>2026-04-04T13:39:32.001Z</time></trkpt><trkpt lat="43.01963135031657" lon="12.165893049443115"><ele>313.75</ele><time>2026-04-04T13:39:33.001Z</time></trkpt><trkpt lat="43.01950127639742" lon="12.165926284346131"><ele>312.0</ele><time>2026-04-04T13:39:34.001Z</time></trkpt><trkpt lat="43.01936822666821" lon="12.165994811331359"><ele>312.0</ele><time>2026-04-04T13:39:35.001Z</time></trkpt><trkpt lat="43.019222314574115" lon="12.166072867044106"><ele>312.0</ele><time>2026-04-04T13:39:36.001Z</time></trkpt><trkpt lat="43.01907874176074" lon="12.166153248673552"><ele>312.0</ele><time>2026-04-04T13:39:37.001Z</time></trkpt><trkpt lat="43.018933083365994" lon="12.16621928006986"><ele>309.3333333333333</ele><time>2026-04-04T13:39:38.001Z</time></trkpt><trkpt lat="43.01877713698605" lon="12.166274392681501"><ele>306.66666666666663</ele><time>2026-04-04T13:39:39.001Z</time></trkpt><trkpt lat="43.01862011642407" lon="12.166319303704471"><ele>304.0</ele><time>2026-04-04T13:39:40.001Z</time></trkpt><trkpt lat="43.018471150717275" lon="12.16636478174682"><ele>304.0</ele><time>2026-04-04T13:39:41.001Z</time></trkpt><trkpt lat="43.01833374557848" lon="12.1664093383452"><ele>304.0</ele><time>2026-04-04T13:39:42Z</time></trkpt><trkpt lat="43.018199528920704" lon="12.166453926795521"><ele>304.0</ele><time>2026-04-04T13:39:43Z</time></trkpt><trkpt lat="43.018070867841985" lon="12.166489357158303"><ele>304.0</ele><time>2026-04-04T13:39:44Z</time></trkpt><trkpt lat="43.017942004049296" lon="12.166495312939151"><ele>302.25</ele><time>2026-04-04T13:39:45Z</time></trkpt><trkpt lat="43.01781259883775" lon="12.166484655960229"><ele>300.5</ele><time>2026-04-04T13:39:46Z</time></trkpt><trkpt lat="43.0176864411975" lon="12.16647786698459"><ele>298.75</ele><time>2026-04-04T13:39:47Z</time></trkpt><trkpt lat="43.01756459034657" lon="12.166472016588182"><ele>297.0</ele><time>2026-04-04T13:39:48Z</time></trkpt><trkpt lat="43.0174565111791" lon="12.166457733024043"><ele>296.2</ele><time>2026-04-04T13:39:49Z</time></trkpt><trkpt lat="43.017372800293074" lon="12.16642485528009"><ele>295.4</ele><time>2026-04-04T13:39:50Z</time></trkpt><trkpt lat="43.01731237585136" lon="12.166361271091036"><ele>294.6</ele><time>2026-04-04T13:39:51Z</time></trkpt><trkpt lat="43.01726926489056" lon="12.166266824360328"><ele>293.8</ele><time>2026-04-04T13:39:52Z</time></trkpt><trkpt lat="43.017242687586794" lon="12.16612204180294"><ele>293.0</ele><time>2026-04-04T13:39:53Z</time></trkpt><trkpt lat="43.017218861395506" lon="12.165971907860781"><ele>293.0</ele><time>2026-04-04T13:39:54Z</time></trkpt><trkpt lat="43.01716598102335" lon="12.165840265939993"><ele>293.0</ele><time>2026-04-04T13:39:55Z</time></trkpt><trkpt lat="43.01708624004609" lon="12.165725176914878"><ele>293.0</ele><time>2026-04-04T13:39:56Z</time></trkpt><trkpt lat="43.01697249826611" lon="12.165642869987158"><ele>293.0</ele><time>2026-04-04T13:39:57Z</time></trkpt><trkpt lat="43.01684134418349" lon="12.165587256961556"><ele>290.75</ele><time>2026-04-04T13:39:58Z</time></trkpt><trkpt lat="43.01670276073551" lon="12.165552116660885"><ele>288.5</ele><time>2026-04-04T13:39:59Z</time></trkpt><trkpt lat="43.016577095471646" lon="12.165506878417483"><ele>286.25</ele><time>2026-04-04T13:40:00Z</time></trkpt><trkpt lat="43.01645514299859" lon="12.165455466434867"><ele>284.0</ele><time>2026-04-04T13:40:01Z</time></trkpt><trkpt lat="43.01633592015729" lon="12.165417380955688"><ele>283.0</ele><time>2026-04-04T13:40:02Z</time></trkpt><trkpt lat="43.01622878216264" lon="12.165387557999942"><ele>282.0</ele><time>2026-04-04T13:40:03Z</time></trkpt><trkpt lat="43.016117401810845" lon="12.16538082723846"><ele>281.0</ele><time>2026-04-04T13:40:04Z</time></trkpt><trkpt lat="43.01600005481857" lon="12.165379536198536"><ele>280.0</ele><time>2026-04-04T13:40:05Z</time></trkpt><trkpt lat="43.01587247321873" lon="12.165386239615815"><ele>280.0</ele><time>2026-04-04T13:40:06Z</time></trkpt><trkpt lat="43.01573655924053" lon="12.16539056513312"><ele>280.0</ele><time>2026-04-04T13:40:07Z</time></trkpt><trkpt lat="43.015596849725604" lon="12.165393106746697"><ele>280.0</ele><time>2026-04-04T13:40:08Z</time></trkpt><trkpt lat="43.01546569095461" lon="12.165394794750146"><ele>280.0</ele><time>2026-04-04T13:40:09Z</time></trkpt><trkpt lat="43.01535060397947" lon="12.1653980689959"><ele>280.0</ele><time>2026-04-04T13:40:10Z</time></trkpt><trkpt lat="43.01523568079629" lon="12.165403846418876"><ele>280.0</ele><time>2026-04-04T13:40:11Z</time></trkpt><trkpt lat="43.015133609032574" lon="12.165426001452513"><ele>280.0</ele><time>2026-04-04T13:40:12Z</time></trkpt><trkpt lat="43.015046199815274" lon="12.16547729004552"><ele>280.0</ele><time>2026-04-04T13:40:13Z</time></trkpt><trkpt lat="43.01496856765451" lon="12.16553318210743"><ele>280.0</ele><time>2026-04-04T13:40:14Z</time></trkpt><trkpt lat="43.01489419145916" lon="12.165565573103788"><ele>278.66666666666663</ele><time>2026-04-04T13:40:15Z</time></trkpt><trkpt lat="43.01481310811829" lon="12.165548416705857"><ele>277.3333333333333</ele><time>2026-04-04T13:40:16Z</time></trkpt><trkpt lat="43.01473462572614" lon="12.16548226539198"><ele>276.0</ele><time>2026-04-04T13:40:17Z</time></trkpt><trkpt lat="43.01467327137134" lon="12.16541929764527"><ele>274.6666666666667</ele><time>2026-04-04T13:40:18Z</time></trkpt><trkpt lat="43.01460693271062" lon="12.165402217885928"><ele>273.33333333333337</ele><time>2026-04-04T13:40:19Z</time></trkpt><trkpt lat="43.014539230982805" lon="12.165435846562682"><ele>272.0</ele><time>2026-04-04T13:40:20Z</time></trkpt><trkpt lat="43.01448225543194" lon="12.165517439748614"><ele>272.0</ele><time>2026-04-04T13:40:21Z</time></trkpt><trkpt lat="43.01442954521468" lon="12.165634592225226"><ele>272.0</ele><time>2026-04-04T13:40:22Z</time></trkpt><trkpt lat="43.01438503933943" lon="12.165771517814417"><ele>272.0</ele><time>2026-04-04T13:40:23Z</time></trkpt><trkpt lat="43.01433062452047" lon="12.165948758168309"><ele>272.0</ele><time>2026-04-04T13:40:24Z</time></trkpt><trkpt lat="43.01427389165089" lon="12.166158898119585"><ele>273.6666666666667</ele><time>2026-04-04T13:40:25Z</time></trkpt><trkpt lat="43.014220792443155" lon="12.16635316740032"><ele>275.3333333333333</ele><time>2026-04-04T13:40:26Z</time></trkpt><trkpt lat="43.014155433968604" lon="12.166560643164543"><ele>277.0</ele><time>2026-04-04T13:40:27Z</time></trkpt><trkpt lat="43.01409079894867" lon="12.166743312508126"><ele>275.0</ele><time>2026-04-04T13:40:28Z</time></trkpt><trkpt lat="43.01403625220356" lon="12.166928918538176"><ele>273.0</ele><time>2026-04-04T13:40:29Z</time></trkpt><trkpt lat="43.01399052400781" lon="12.16709877230523"><ele>271.0</ele><time>2026-04-04T13:40:30Z</time></trkpt><trkpt lat="43.013953438607956" lon="12.167273090111376"><ele>269.0</ele><time>2026-04-04T13:40:31Z</time></trkpt><trkpt lat="43.01391268807127" lon="12.167438089760045"><ele>269.0</ele><time>2026-04-04T13:40:32Z</time></trkpt><trkpt lat="43.01386672280776" lon="12.167612168412854"><ele>269.0</ele><time>2026-04-04T13:40:33Z</time></trkpt><trkpt lat="43.01381581055028" lon="12.167788631196379"><ele>269.0</ele><time>2026-04-04T13:40:34Z</time></trkpt><trkpt lat="43.013760479663354" lon="12.167970796242063"><ele>269.0</ele><time>2026-04-04T13:40:35Z</time></trkpt><trkpt lat="43.01370038497679" lon="12.16814147026858"><ele>269.5</ele><time>2026-04-04T13:40:36Z</time></trkpt><trkpt lat="43.01363749583408" lon="12.168303713205738"><ele>270.0</ele><time>2026-04-04T13:40:37Z</time></trkpt><trkpt lat="43.01357714461514" lon="12.168460447395967"><ele>270.5</ele><time>2026-04-04T13:40:38Z</time></trkpt><trkpt lat="43.01351482968983" lon="12.168625776657638"><ele>271.0</ele><time>2026-04-04T13:40:39Z</time></trkpt><trkpt lat="43.01344241074303" lon="12.168794118690204"><ele>271.0</ele><time>2026-04-04T13:40:40Z</time></trkpt><trkpt lat="43.013354489343534" lon="12.168959926103888"><ele>271.0</ele><time>2026-04-04T13:40:41Z</time></trkpt><trkpt lat="43.013256063474905" lon="12.169103692706704"><ele>271.0</ele><time>2026-04-04T13:40:42Z</time></trkpt><trkpt lat="43.0131572011372" lon="12.169256406839837"><ele>271.0</ele><time>2026-04-04T13:40:43Z</time></trkpt><trkpt lat="43.01305834908654" lon="12.169399122176655"><ele>268.66666666666663</ele><time>2026-04-04T13:40:44Z</time></trkpt><trkpt lat="43.012933165696836" lon="12.169542811345684"><ele>266.3333333333333</ele><time>2026-04-04T13:40:45Z</time></trkpt><trkpt lat="43.01278743462725" lon="12.169699378867422"><ele>264.0</ele><time>2026-04-04T13:40:46Z</time></trkpt><trkpt lat="43.01261590827035" lon="12.169845634298067"><ele>263.0</ele><time>2026-04-04T13:40:47Z</time></trkpt><trkpt lat="43.01247736667198" lon="12.169970498364455"><ele>262.0</ele><time>2026-04-04T13:40:48Z</time></trkpt><trkpt lat="43.01235197920856" lon="12.17008314575228"><ele>261.0</ele><time>2026-04-04T13:40:49Z</time></trkpt><trkpt lat="43.01222561565925" lon="12.170181885208985"><ele>261.0</ele><time>2026-04-04T13:40:50Z</time></trkpt><trkpt lat="43.012093417431615" lon="12.170265803444476"><ele>261.0</ele><time>2026-04-04T13:40:51Z</time></trkpt><trkpt lat="43.01195937262527" lon="12.17032425408898"><ele>261.0</ele><time>2026-04-04T13:40:52Z</time></trkpt><trkpt lat="43.011825136152616" lon="12.170356917417399"><ele>261.0</ele><time>2026-04-04T13:40:53Z</time></trkpt><trkpt lat="43.011687221023244" lon="12.170392154963587"><ele>259.5</ele><time>2026-04-04T13:40:54Z</time></trkpt><trkpt lat="43.01153812014593" lon="12.1704182880844"><ele>258.0</ele><time>2026-04-04T13:40:55Z</time></trkpt><trkpt lat="43.0113944522879" lon="12.170455426943674"><ele>256.5</ele><time>2026-04-04T13:40:56Z</time></trkpt><trkpt lat="43.01125814784179" lon="12.17049080414054"><ele>255.0</ele><time>2026-04-04T13:40:57Z</time></trkpt><trkpt lat="43.01112302258575" lon="12.170517620249608"><ele>255.0</ele><time>2026-04-04T13:40:58Z</time></trkpt><trkpt lat="43.010987064784096" lon="12.17055763367398"><ele>255.0</ele><time>2026-04-04T13:40:59Z</time></trkpt><trkpt lat="43.01085714857938" lon="12.170604818877386"><ele>255.0</ele><time>2026-04-04T13:41:00Z</time></trkpt><trkpt lat="43.01070711426794" lon="12.17066198571869"><ele>255.0</ele><time>2026-04-04T13:41:01Z</time></trkpt><trkpt lat="43.01056094515277" lon="12.170728046411591"><ele>255.66666666666669</ele><time>2026-04-04T13:41:02Z</time></trkpt><trkpt lat="43.01041360165331" lon="12.170799225670581"><ele>256.33333333333337</ele><time>2026-04-04T13:41:03Z</time></trkpt><trkpt lat="43.01026750606477" lon="12.17086430326828"><ele>257.0</ele><time>2026-04-04T13:41:04Z</time></trkpt><trkpt lat="43.01012402923915" lon="12.170938166409735"><ele>255.75</ele><time>2026-04-04T13:41:05Z</time></trkpt><trkpt lat="43.00998310300464" lon="12.171007261257628"><ele>254.5</ele><time>2026-04-04T13:41:06Z</time></trkpt><trkpt lat="43.009845775142125" lon="12.171069186203969"><ele>253.25</ele><time>2026-04-04T13:41:07Z</time></trkpt><trkpt lat="43.00972172188359" lon="12.171124757924236"><ele>252.0</ele><time>2026-04-04T13:41:08Z</time></trkpt><trkpt lat="43.00960305168929" lon="12.171176807829948"><ele>252.0</ele><time>2026-04-04T13:41:09Z</time></trkpt><trkpt lat="43.0094852335808" lon="12.17121796580874"><ele>252.0</ele><time>2026-04-04T13:41:10Z</time></trkpt><trkpt lat="43.00937204709213" lon="12.171250448406083"><ele>252.0</ele><time>2026-04-04T13:41:11Z</time></trkpt><trkpt lat="43.00925390958463" lon="12.171271971654555"><ele>252.0</ele><time>2026-04-04T13:41:12Z</time></trkpt><trkpt lat="43.00913555416739" lon="12.171278978399656"><ele>249.75</ele><time>2026-04-04T13:41:13Z</time></trkpt><trkpt lat="43.00901788132756" lon="12.171290000921218"><ele>247.5</ele><time>2026-04-04T13:41:14Z</time></trkpt><trkpt lat="43.00889969187598" lon="12.171306745940067"><ele>245.25</ele><time>2026-04-04T13:41:15Z</time></trkpt><trkpt lat="43.008785233461616" lon="12.171322160633595"><ele>243.0</ele><time>2026-04-04T13:41:16Z</time></trkpt><trkpt lat="43.008668866783715" lon="12.171338077206752"><ele>243.0</ele><time>2026-04-04T13:41:17Z</time></trkpt><trkpt lat="43.00854756863145" lon="12.171355311840312"><ele>243.0</ele><time>2026-04-04T13:41:18Z</time></trkpt><trkpt lat="43.00842655850358" lon="12.171369942558595"><ele>243.0</ele><time>2026-04-04T13:41:19Z</time></trkpt><trkpt lat="43.00830685593977" lon="12.171381331829213"><ele>243.0</ele><time>2026-04-04T13:41:20Z</time></trkpt><trkpt lat="43.00818655768426" lon="12.171396333701697"><ele>241.60000000000002</ele><time>2026-04-04T13:41:21Z</time></trkpt><trkpt lat="43.008074948932375" lon="12.17141176884469"><ele>240.20000000000002</ele><time>2026-04-04T13:41:22Z</time></trkpt><trkpt lat="43.007967040121464" lon="12.171424691776695"><ele>238.8</ele><time>2026-04-04T13:41:23Z</time></trkpt><trkpt lat="43.00785797281614" lon="12.171442686522159"><ele>237.4</ele><time>2026-04-04T13:41:24Z</time></trkpt><trkpt lat="43.007753270096664" lon="12.17146122192441"><ele>236.0</ele><time>2026-04-04T13:41:25.001Z</time></trkpt><trkpt lat="43.00765086218714" lon="12.171471416797402"><ele>236.00000000000003</ele><time>2026-04-04T13:41:26.001Z</time></trkpt><trkpt lat="43.007556554389154" lon="12.171479681227549"><ele>236.0</ele><time>2026-04-04T13:41:27.001Z</time></trkpt><trkpt lat="43.007473272625646" lon="12.171486644896996"><ele>236.0</ele><time>2026-04-04T13:41:28.001Z</time></trkpt><trkpt lat="43.007401292623136" lon="12.17148904363945"><ele>236.0</ele><time>2026-04-04T13:41:29.001Z</time></trkpt><trkpt lat="43.00729554328969" lon="12.171486865939645"><ele>236.00000000000003</ele><time>2026-04-04T13:41:31.001Z</time></trkpt><trkpt lat="43.0072328696479" lon="12.171528874087494"><ele>236.0</ele><time>2026-04-04T13:41:35.001Z</time></trkpt><trkpt lat="43.00719011183397" lon="12.171636700060638"><ele>235.0</ele><time>2026-04-04T13:41:37.001Z</time></trkpt><trkpt lat="43.00720182478277" lon="12.171760503638964"><ele>234.00000000000003</ele><time>2026-04-04T13:41:38.001Z</time></trkpt><trkpt lat="43.00722845621956" lon="12.171871484538947"><ele>233.00000000000003</ele><time>2026-04-04T13:41:39.001Z</time></trkpt><trkpt lat="43.007251689847195" lon="12.172007684794172"><ele>232.0</ele><time>2026-04-04T13:41:40.001Z</time></trkpt><trkpt lat="43.007274274225665" lon="12.172174608088328"><ele>231.0</ele><time>2026-04-04T13:41:41.001Z</time></trkpt><trkpt lat="43.007295379262" lon="12.17234637063454"><ele>230.0</ele><time>2026-04-04T13:41:42.001Z</time></trkpt><trkpt lat="43.007325591294105" lon="12.172529592306114"><ele>229.0</ele><time>2026-04-04T13:41:43.001Z</time></trkpt><trkpt lat="43.00735920823411" lon="12.172765550617946"><ele>228.0</ele><time>2026-04-04T13:41:44.001Z</time></trkpt><trkpt lat="43.00739826923209" lon="12.173028619617263"><ele>228.0</ele><time>2026-04-04T13:41:45.001Z</time></trkpt><trkpt lat="43.007442631167315" lon="12.17327956577743"><ele>228.0</ele><time>2026-04-04T13:41:46.001Z</time></trkpt><trkpt lat="43.00748626392744" lon="12.173533221653502"><ele>228.0</ele><time>2026-04-04T13:41:47.001Z</time></trkpt><trkpt lat="43.00753109947343" lon="12.173794333145226"><ele>228.66666666666669</ele><time>2026-04-04T13:41:48Z</time></trkpt><trkpt lat="43.00758192618155" lon="12.1740663534018"><ele>229.33333333333334</ele><time>2026-04-04T13:41:49Z</time></trkpt><trkpt lat="43.00763425974" lon="12.174349249164347"><ele>230.0</ele><time>2026-04-04T13:41:50Z</time></trkpt><trkpt lat="43.00768510134182" lon="12.174619956934505"><ele>230.0</ele><time>2026-04-04T13:41:51Z</time></trkpt><trkpt lat="43.00773396568664" lon="12.174881100312446"><ele>230.0</ele><time>2026-04-04T13:41:52Z</time></trkpt><trkpt lat="43.00778254447672" lon="12.17512676709703"><ele>230.0</ele><time>2026-04-04T13:41:53Z</time></trkpt><trkpt lat="43.00783364892613" lon="12.17537533564535"><ele>230.0</ele><time>2026-04-04T13:41:54Z</time></trkpt><trkpt lat="43.00787691763393" lon="12.175614852039919"><ele>230.0</ele><time>2026-04-04T13:41:55Z</time></trkpt><trkpt lat="43.00791896126567" lon="12.175844756889433"><ele>230.0</ele><time>2026-04-04T13:41:56Z</time></trkpt><trkpt lat="43.007966054681006" lon="12.176078521814551"><ele>230.33333333333334</ele><time>2026-04-04T13:41:57Z</time></trkpt><trkpt lat="43.0080099019881" lon="12.176305887236577"><ele>230.66666666666669</ele><time>2026-04-04T13:41:58Z</time></trkpt><trkpt lat="43.00805616440283" lon="12.176505355877746"><ele>231.0</ele><time>2026-04-04T13:41:59Z</time></trkpt><trkpt lat="43.00809808256567" lon="12.176691348450817"><ele>230.5</ele><time>2026-04-04T13:42:00Z</time></trkpt><trkpt lat="43.008126787278854" lon="12.176873795840379"><ele>230.0</ele><time>2026-04-04T13:42:01Z</time></trkpt><trkpt lat="43.00815683973359" lon="12.177064319245224"><ele>229.5</ele><time>2026-04-04T13:42:02Z</time></trkpt><trkpt lat="43.008189179331886" lon="12.177261278049642"><ele>229.0</ele><time>2026-04-04T13:42:03Z</time></trkpt><trkpt lat="43.00822672433978" lon="12.177470167874795"><ele>228.33333333333331</ele><time>2026-04-04T13:42:04Z</time></trkpt><trkpt lat="43.00826094630079" lon="12.17768437778682"><ele>227.66666666666669</ele><time>2026-04-04T13:42:05Z</time></trkpt><trkpt lat="43.008291461020626" lon="12.177912753520197"><ele>227.0</ele><time>2026-04-04T13:42:06Z</time></trkpt><trkpt lat="43.00831792314196" lon="12.178140590996252"><ele>227.33333333333334</ele><time>2026-04-04T13:42:07Z</time></trkpt><trkpt lat="43.00834035279135" lon="12.178377141413275"><ele>227.66666666666669</ele><time>2026-04-04T13:42:08Z</time></trkpt><trkpt lat="43.008355842706884" lon="12.178606659881925"><ele>228.0</ele><time>2026-04-04T13:42:09Z</time></trkpt><trkpt lat="43.00836654820598" lon="12.17883685407905"><ele>227.66666666666669</ele><time>2026-04-04T13:42:10Z</time></trkpt><trkpt lat="43.0083707943424" lon="12.179063794578049"><ele>227.33333333333334</ele><time>2026-04-04T13:42:11Z</time></trkpt><trkpt lat="43.00837892690953" lon="12.179286922027723"><ele>227.0</ele><time>2026-04-04T13:42:12Z</time></trkpt><trkpt lat="43.008383307122024" lon="12.179517409822449"><ele>227.0</ele><time>2026-04-04T13:42:13Z</time></trkpt><trkpt lat="43.00839672033007" lon="12.17974797410518"><ele>227.0</ele><time>2026-04-04T13:42:14Z</time></trkpt><trkpt lat="43.008417042043135" lon="12.179989431151915"><ele>227.0</ele><time>2026-04-04T13:42:15Z</time></trkpt><trkpt lat="43.00843927245517" lon="12.18022860778347"><ele>227.0</ele><time>2026-04-04T13:42:16Z</time></trkpt><trkpt lat="43.008474346152674" lon="12.180459032739321"><ele>227.0</ele><time>2026-04-04T13:42:17Z</time></trkpt><trkpt lat="43.00852244970616" lon="12.180679622779474"><ele>227.0</ele><time>2026-04-04T13:42:18Z</time></trkpt><trkpt lat="43.00858687659458" lon="12.180893532561779"><ele>227.0</ele><time>2026-04-04T13:42:19Z</time></trkpt><trkpt lat="43.008663657432585" lon="12.181102915304287"><ele>227.0</ele><time>2026-04-04T13:42:20Z</time></trkpt><trkpt lat="43.008737259899696" lon="12.181317161771029"><ele>227.0</ele><time>2026-04-04T13:42:21Z</time></trkpt><trkpt lat="43.00880206194056" lon="12.181541285309859"><ele>226.66666666666669</ele><time>2026-04-04T13:42:22Z</time></trkpt><trkpt lat="43.008856721342944" lon="12.181768548296011"><ele>226.33333333333331</ele><time>2026-04-04T13:42:23Z</time></trkpt><trkpt lat="43.008898763261904" lon="12.18199459063787"><ele>226.0</ele><time>2026-04-04T13:42:24Z</time></trkpt><trkpt lat="43.00892600620027" lon="12.182227251943669"><ele>225.33333333333331</ele><time>2026-04-04T13:42:25Z</time></trkpt><trkpt lat="43.00895210613048" lon="12.1824644381955"><ele>224.66666666666669</ele><time>2026-04-04T13:42:26Z</time></trkpt><trkpt lat="43.00898226868943" lon="12.182703495406875"><ele>224.0</ele><time>2026-04-04T13:42:27Z</time></trkpt><trkpt lat="43.00902158147943" lon="12.182950140085735"><ele>224.0</ele><time>2026-04-04T13:42:28Z</time></trkpt><trkpt lat="43.009077435708406" lon="12.183222398518147"><ele>224.0</ele><time>2026-04-04T13:42:29Z</time></trkpt><trkpt lat="43.00914691991999" lon="12.183519653865542"><ele>224.0</ele><time>2026-04-04T13:42:30Z</time></trkpt><trkpt lat="43.00923732476328" lon="12.183820036790662"><ele>224.5</ele><time>2026-04-04T13:42:31Z</time></trkpt><trkpt lat="43.009318547164824" lon="12.184117007048956"><ele>225.0</ele><time>2026-04-04T13:42:32Z</time></trkpt><trkpt lat="43.00938907694292" lon="12.184408765349366"><ele>225.0</ele><time>2026-04-04T13:42:33Z</time></trkpt><trkpt lat="43.00945554376153" lon="12.184695267142017"><ele>225.0</ele><time>2026-04-04T13:42:34Z</time></trkpt><trkpt lat="43.00952183537992" lon="12.1849856826431"><ele>225.0</ele><time>2026-04-04T13:42:35Z</time></trkpt><trkpt lat="43.009579823301166" lon="12.18526445109537"><ele>224.66666666666669</ele><time>2026-04-04T13:42:36Z</time></trkpt><trkpt lat="43.00964036216382" lon="12.185541944969405"><ele>224.33333333333334</ele><time>2026-04-04T13:42:37Z</time></trkpt><trkpt lat="43.00969583950937" lon="12.18581754523888"><ele>224.0</ele><time>2026-04-04T13:42:38Z</time></trkpt><trkpt lat="43.00975943760763" lon="12.1860891027235"><ele>224.0</ele><time>2026-04-04T13:42:39Z</time></trkpt><trkpt lat="43.00981910530757" lon="12.186357293451898"><ele>224.0</ele><time>2026-04-04T13:42:40Z</time></trkpt><trkpt lat="43.009877653221515" lon="12.18663476945327"><ele>224.0</ele><time>2026-04-04T13:42:41Z</time></trkpt><trkpt lat="43.00993200681137" lon="12.186901867467654"><ele>223.66666666666669</ele><time>2026-04-04T13:42:42Z</time></trkpt><trkpt lat="43.00998473188566" lon="12.187156709381334"><ele>223.33333333333331</ele><time>2026-04-04T13:42:43Z</time></trkpt><trkpt lat="43.01003934550899" lon="12.187402621301297"><ele>223.0</ele><time>2026-04-04T13:42:44Z</time></trkpt><trkpt lat="43.01008996517605" lon="12.187649753094297"><ele>225.0</ele><time>2026-04-04T13:42:45Z</time></trkpt><trkpt lat="43.01014040942579" lon="12.187879683769342"><ele>227.0</ele><time>2026-04-04T13:42:46Z</time></trkpt><trkpt lat="43.010194064349484" lon="12.188110290476075"><ele>229.0</ele><time>2026-04-04T13:42:47Z</time></trkpt><trkpt lat="43.01028101980789" lon="12.188328859838222"><ele>229.0</ele><time>2026-04-04T13:42:48Z</time></trkpt><trkpt lat="43.01039725999286" lon="12.188535574797916"><ele>229.0</ele><time>2026-04-04T13:42:49Z</time></trkpt><trkpt lat="43.01054288593741" lon="12.188724971068966"><ele>229.0</ele><time>2026-04-04T13:42:50Z</time></trkpt><trkpt lat="43.010693869233265" lon="12.188909706833225"><ele>228.33333333333331</ele><time>2026-04-04T13:42:51Z</time></trkpt><trkpt lat="43.01084100599344" lon="12.189104583145308"><ele>227.66666666666669</ele><time>2026-04-04T13:42:52Z</time></trkpt><trkpt lat="43.01098941755438" lon="12.189313093106385"><ele>227.0</ele><time>2026-04-04T13:42:53Z</time></trkpt><trkpt lat="43.01113414431591" lon="12.189528968938943"><ele>227.0</ele><time>2026-04-04T13:42:54Z</time></trkpt><trkpt lat="43.01127624317145" lon="12.189747614083998"><ele>227.0</ele><time>2026-04-04T13:42:55Z</time></trkpt><trkpt lat="43.0114179894884" lon="12.189972441945017"><ele>227.0</ele><time>2026-04-04T13:42:56Z</time></trkpt><trkpt lat="43.01155680366008" lon="12.190192468222374"><ele>227.0</ele><time>2026-04-04T13:42:57Z</time></trkpt><trkpt lat="43.01169405188565" lon="12.190411315039936"><ele>227.0</ele><time>2026-04-04T13:42:58Z</time></trkpt><trkpt lat="43.01182483359689" lon="12.190617110607809"><ele>227.0</ele><time>2026-04-04T13:42:59Z</time></trkpt><trkpt lat="43.01195053846649" lon="12.190810748846959"><ele>226.66666666666669</ele><time>2026-04-04T13:43:00Z</time></trkpt><trkpt lat="43.012077492872926" lon="12.190990546921638"><ele>226.33333333333331</ele><time>2026-04-04T13:43:01Z</time></trkpt><trkpt lat="43.01222015771947" lon="12.191157556829156"><ele>226.0</ele><time>2026-04-04T13:43:02Z</time></trkpt><trkpt lat="43.01238506953013" lon="12.191303620735601"><ele>226.0</ele><time>2026-04-04T13:43:03Z</time></trkpt><trkpt lat="43.01258474740203" lon="12.191430960020542"><ele>226.0</ele><time>2026-04-04T13:43:04Z</time></trkpt><trkpt lat="43.01280088177496" lon="12.191559840040705"><ele>227.0</ele><time>2026-04-04T13:43:05Z</time></trkpt><trkpt lat="43.01301562951005" lon="12.191691439571427"><ele>228.0</ele><time>2026-04-04T13:43:06Z</time></trkpt><trkpt lat="43.01325576743567" lon="12.191840892726592"><ele>229.0</ele><time>2026-04-04T13:43:07Z</time></trkpt><trkpt lat="43.01350252752528" lon="12.191998280598993"><ele>230.0</ele><time>2026-04-04T13:43:08Z</time></trkpt><trkpt lat="43.01372343845665" lon="12.192147825753064"><ele>230.0</ele><time>2026-04-04T13:43:09.001Z</time></trkpt><trkpt lat="43.013934708974915" lon="12.19228557745269"><ele>230.0</ele><time>2026-04-04T13:43:10.001Z</time></trkpt><trkpt lat="43.014139882817304" lon="12.192418998800548"><ele>231.5</ele><time>2026-04-04T13:43:11.001Z</time></trkpt><trkpt lat="43.014344531422886" lon="12.192549465374563"><ele>233.0</ele><time>2026-04-04T13:43:12.001Z</time></trkpt><trkpt lat="43.01456228819227" lon="12.192693737741273"><ele>233.0</ele><time>2026-04-04T13:43:13.001Z</time></trkpt><trkpt lat="43.01477482353678" lon="12.192835480990857"><ele>233.0</ele><time>2026-04-04T13:43:14.001Z</time></trkpt><trkpt lat="43.01497918783473" lon="12.192981573457159"><ele>233.0</ele><time>2026-04-04T13:43:15.001Z</time></trkpt><trkpt lat="43.01516878919074" lon="12.193157542648256"><ele>233.0</ele><time>2026-04-04T13:43:16.001Z</time></trkpt><trkpt lat="43.01535670996223" lon="12.193381041196501"><ele>234.0</ele><time>2026-04-04T13:43:17.001Z</time></trkpt><trkpt lat="43.01554495853084" lon="12.193644227830111"><ele>235.0</ele><time>2026-04-04T13:43:18.001Z</time></trkpt><trkpt lat="43.0157375851749" lon="12.193913229622796"><ele>237.5</ele><time>2026-04-04T13:43:19.001Z</time></trkpt><trkpt lat="43.01593146195529" lon="12.19416805322872"><ele>240.0</ele><time>2026-04-04T13:43:20.001Z</time></trkpt><trkpt lat="43.016122891869486" lon="12.194411044696443"><ele>240.0</ele><time>2026-04-04T13:43:21.001Z</time></trkpt><trkpt lat="43.01630582772142" lon="12.194647591617441"><ele>240.0</ele><time>2026-04-04T13:43:22.001Z</time></trkpt><trkpt lat="43.01648963352741" lon="12.194886141650723"><ele>243.5</ele><time>2026-04-04T13:43:23.001Z</time></trkpt><trkpt lat="43.01667603722559" lon="12.195132034421217"><ele>247.0</ele><time>2026-04-04T13:43:24.001Z</time></trkpt><trkpt lat="43.0168578142315" lon="12.195369970333598"><ele>247.0</ele><time>2026-04-04T13:43:25.001Z</time></trkpt><trkpt lat="43.01702890146696" lon="12.195594026858386"><ele>247.0</ele><time>2026-04-04T13:43:26.001Z</time></trkpt><trkpt lat="43.01719212535424" lon="12.195808992845132"><ele>247.0</ele><time>2026-04-04T13:43:27.001Z</time></trkpt><trkpt lat="43.01735389725256" lon="12.196016284799315"><ele>247.0</ele><time>2026-04-04T13:43:28.001Z</time></trkpt><trkpt lat="43.01750853400088" lon="12.1962165298107"><ele>247.0</ele><time>2026-04-04T13:43:29.001Z</time></trkpt><trkpt lat="43.01766254156709" lon="12.196414714732736"><ele>247.66666666666666</ele><time>2026-04-04T13:43:30.001Z</time></trkpt><trkpt lat="43.01781281523035" lon="12.196610351403857"><ele>248.33333333333331</ele><time>2026-04-04T13:43:31.001Z</time></trkpt><trkpt lat="43.01796174246829" lon="12.19680445094991"><ele>249.0</ele><time>2026-04-04T13:43:32.001Z</time></trkpt><trkpt lat="43.018114050441476" lon="12.197004807195974"><ele>249.0</ele><time>2026-04-04T13:43:33.001Z</time></trkpt><trkpt lat="43.018264040341215" lon="12.197202973857026"><ele>249.0</ele><time>2026-04-04T13:43:34.001Z</time></trkpt><trkpt lat="43.01840286559355" lon="12.19738955518236"><ele>249.0</ele><time>2026-04-04T13:43:35.001Z</time></trkpt><trkpt lat="43.018536183225244" lon="12.19755433463994"><ele>247.33333333333331</ele><time>2026-04-04T13:43:36.001Z</time></trkpt><trkpt lat="43.018675999657866" lon="12.1976835476663"><ele>245.66666666666666</ele><time>2026-04-04T13:43:37.001Z</time></trkpt><trkpt lat="43.01883757506986" lon="12.197789676641253"><ele>244.0</ele><time>2026-04-04T13:43:38.001Z</time></trkpt><trkpt lat="43.01900723638461" lon="12.197849576833951"><ele>242.66666666666666</ele><time>2026-04-04T13:43:39.001Z</time></trkpt><trkpt lat="43.019178942890825" lon="12.197912095170068"><ele>241.33333333333331</ele><time>2026-04-04T13:43:40.001Z</time></trkpt><trkpt lat="43.01933934953931" lon="12.197991268766218"><ele>240.0</ele><time>2026-04-04T13:43:41.001Z</time></trkpt><trkpt lat="43.01948381692891" lon="12.198080882846854"><ele>239.5</ele><time>2026-04-04T13:43:42.001Z</time></trkpt><trkpt lat="43.01961384882424" lon="12.198168335176803"><ele>239.0</ele><time>2026-04-04T13:43:43.001Z</time></trkpt><trkpt lat="43.01972876993164" lon="12.198253023104627"><ele>238.5</ele><time>2026-04-04T13:43:44.001Z</time></trkpt><trkpt lat="43.01982994909075" lon="12.19832914828364"><ele>238.0</ele><time>2026-04-04T13:43:45.001Z</time></trkpt><trkpt lat="43.0199042029387" lon="12.19841718894985"><ele>238.0</ele><time>2026-04-04T13:43:46.001Z</time></trkpt><trkpt lat="43.01995049334977" lon="12.198554360439477"><ele>238.0</ele><time>2026-04-04T13:43:47.001Z</time></trkpt><trkpt lat="43.01997626384045" lon="12.198726253134463"><ele>238.0</ele><time>2026-04-04T13:43:48.001Z</time></trkpt><trkpt lat="43.01996110898306" lon="12.198917950573726"><ele>238.0</ele><time>2026-04-04T13:43:49.001Z</time></trkpt><trkpt lat="43.01990836075624" lon="12.199122047920136"><ele>237.33333333333331</ele><time>2026-04-04T13:43:50.001Z</time></trkpt><trkpt lat="43.01982397148245" lon="12.199366532428419"><ele>236.66666666666669</ele><time>2026-04-04T13:43:51.001Z</time></trkpt><trkpt lat="43.01972949360526" lon="12.19960889067485"><ele>236.0</ele><time>2026-04-04T13:43:52.001Z</time></trkpt><trkpt lat="43.01963549958956" lon="12.199846393891852"><ele>235.5</ele><time>2026-04-04T13:43:53.001Z</time></trkpt><trkpt lat="43.01961422847125" lon="12.200036953602142"><ele>235.0</ele><time>2026-04-04T13:43:54Z</time></trkpt><trkpt lat="43.01960599206961" lon="12.200194900817175"><ele>234.5</ele><time>2026-04-04T13:43:55Z</time></trkpt><trkpt lat="43.0196306912185" lon="12.20034954721777"><ele>234.0</ele><time>2026-04-04T13:43:56Z</time></trkpt><trkpt lat="43.019693724525524" lon="12.200477834437713"><ele>234.0</ele><time>2026-04-04T13:43:57Z</time></trkpt><trkpt lat="43.0197896271911" lon="12.200579605495667"><ele>234.0</ele><time>2026-04-04T13:43:58Z</time></trkpt><trkpt lat="43.019907582119444" lon="12.200634552892655"><ele>234.0</ele><time>2026-04-04T13:43:59Z</time></trkpt><trkpt lat="43.020033640235724" lon="12.200645354240097"><ele>234.0</ele><time>2026-04-04T13:44:00Z</time></trkpt><trkpt lat="43.02015950490298" lon="12.200612647420263"><ele>233.75</ele><time>2026-04-04T13:44:01Z</time></trkpt><trkpt lat="43.020296233002774" lon="12.200538415287303"><ele>233.5</ele><time>2026-04-04T13:44:02Z</time></trkpt><trkpt lat="43.020427929303324" lon="12.20049231967221"><ele>233.25</ele><time>2026-04-04T13:44:03Z</time></trkpt><trkpt lat="43.02056999751397" lon="12.200525261170066"><ele>233.0</ele><time>2026-04-04T13:44:04Z</time></trkpt><trkpt lat="43.02070884179339" lon="12.200623181273762"><ele>233.33333333333334</ele><time>2026-04-04T13:44:05Z</time></trkpt><trkpt lat="43.02084633018359" lon="12.200770052321966"><ele>233.66666666666669</ele><time>2026-04-04T13:44:06Z</time></trkpt><trkpt lat="43.02097059986153" lon="12.200971868533971"><ele>234.0</ele><time>2026-04-04T13:44:07Z</time></trkpt><trkpt lat="43.021084217942274" lon="12.201186056205765"><ele>234.0</ele><time>2026-04-04T13:44:08Z</time></trkpt><trkpt lat="43.021205586435954" lon="12.201391219987672"><ele>234.0</ele><time>2026-04-04T13:44:09Z</time></trkpt><trkpt lat="43.02133299587885" lon="12.201584198785788"><ele>234.0</ele><time>2026-04-04T13:44:10Z</time></trkpt><trkpt lat="43.02147279905711" lon="12.201793381019439"><ele>233.33333333333331</ele><time>2026-04-04T13:44:11Z</time></trkpt><trkpt lat="43.02160760090782" lon="12.201999116677902"><ele>232.66666666666666</ele><time>2026-04-04T13:44:12Z</time></trkpt><trkpt lat="43.02174244538696" lon="12.202214034993304"><ele>232.0</ele><time>2026-04-04T13:44:13Z</time></trkpt><trkpt lat="43.0218753294644" lon="12.202435218266556"><ele>233.66666666666666</ele><time>2026-04-04T13:44:14Z</time></trkpt><trkpt lat="43.02200602094013" lon="12.202661716898604"><ele>235.33333333333331</ele><time>2026-04-04T13:44:15Z</time></trkpt><trkpt lat="43.02214036836285" lon="12.202892071648265"><ele>237.0</ele><time>2026-04-04T13:44:16Z</time></trkpt><trkpt lat="43.02228038454099" lon="12.20312631507338"><ele>236.5</ele><time>2026-04-04T13:44:17Z</time></trkpt><trkpt lat="43.02242601543448" lon="12.203365982791023"><ele>236.0</ele><time>2026-04-04T13:44:18Z</time></trkpt><trkpt lat="43.02257054253813" lon="12.20360550170065"><ele>237.5</ele><time>2026-04-04T13:44:19Z</time></trkpt><trkpt lat="43.022713968066995" lon="12.203845600056782"><ele>239.0</ele><time>2026-04-04T13:44:20Z</time></trkpt><trkpt lat="43.02285806918575" lon="12.204083056706494"><ele>239.5</ele><time>2026-04-04T13:44:21Z</time></trkpt><trkpt lat="43.02300044680281" lon="12.204322384914946"><ele>240.0</ele><time>2026-04-04T13:44:22Z</time></trkpt><trkpt lat="43.02314865809017" lon="12.204566413817773"><ele>240.0</ele><time>2026-04-04T13:44:23Z</time></trkpt><trkpt lat="43.02329610316648" lon="12.204805791247317"><ele>240.0</ele><time>2026-04-04T13:44:24Z</time></trkpt><trkpt lat="43.02344893663341" lon="12.205036278664261"><ele>239.33333333333331</ele><time>2026-04-04T13:44:25Z</time></trkpt><trkpt lat="43.02360555688732" lon="12.205261249292779"><ele>238.66666666666666</ele><time>2026-04-04T13:44:26Z</time></trkpt><trkpt lat="43.0237639504071" lon="12.205472690841471"><ele>238.0</ele><time>2026-04-04T13:44:27Z</time></trkpt><trkpt lat="43.02392784926406" lon="12.205681202183872"><ele>237.33333333333331</ele><time>2026-04-04T13:44:28Z</time></trkpt><trkpt lat="43.024092163841" lon="12.205884760318446"><ele>236.66666666666669</ele><time>2026-04-04T13:44:29Z</time></trkpt><trkpt lat="43.02425084996314" lon="12.206078215040769"><ele>236.0</ele><time>2026-04-04T13:44:30Z</time></trkpt><trkpt lat="43.0244096924796" lon="12.206259496367041"><ele>234.33333333333334</ele><time>2026-04-04T13:44:31Z</time></trkpt><trkpt lat="43.02457237742302" lon="12.2064369215934"><ele>232.66666666666669</ele><time>2026-04-04T13:44:32Z</time></trkpt><trkpt lat="43.02473210228857" lon="12.206600720533688"><ele>231.0</ele><time>2026-04-04T13:44:33Z</time></trkpt><trkpt lat="43.02490057858521" lon="12.20677864107318"><ele>229.66666666666669</ele><time>2026-04-04T13:44:34Z</time></trkpt><trkpt lat="43.02507002855777" lon="12.206961388220288"><ele>228.33333333333334</ele><time>2026-04-04T13:44:35Z</time></trkpt><trkpt lat="43.0252422445525" lon="12.207140578954602"><ele>227.0</ele><time>2026-04-04T13:44:36Z</time></trkpt><trkpt lat="43.02541942816464" lon="12.207324604358016"><ele>227.0</ele><time>2026-04-04T13:44:37Z</time></trkpt><trkpt lat="43.02559545561683" lon="12.207506317699265"><ele>227.0</ele><time>2026-04-04T13:44:38Z</time></trkpt><trkpt lat="43.025775231703875" lon="12.207690600169466"><ele>227.0</ele><time>2026-04-04T13:44:39Z</time></trkpt><trkpt lat="43.025944893914705" lon="12.207864961499203"><ele>227.0</ele><time>2026-04-04T13:44:40Z</time></trkpt><trkpt lat="43.02608941180722" lon="12.208033887062745"><ele>227.0</ele><time>2026-04-04T13:44:41Z</time></trkpt><trkpt lat="43.026229072332534" lon="12.208195631848056"><ele>227.0</ele><time>2026-04-04T13:44:42Z</time></trkpt><trkpt lat="43.02634700815229" lon="12.208347550774505"><ele>227.0</ele><time>2026-04-04T13:44:43Z</time></trkpt><trkpt lat="43.026653704951975" lon="12.208582469292788"><ele>227.0</ele><time>2026-04-04T13:44:44Z</time></trkpt><trkpt lat="43.02682168713844" lon="12.208758848008348"><ele>227.0</ele><time>2026-04-04T13:44:45Z</time></trkpt><trkpt lat="43.0269884279588" lon="12.208931952428141"><ele>227.0</ele><time>2026-04-04T13:44:46Z</time></trkpt><trkpt lat="43.02715798312597" lon="12.209102773308368"><ele>227.0</ele><time>2026-04-04T13:44:47Z</time></trkpt><trkpt lat="43.027330945763815" lon="12.20927543268509"><ele>226.66666666666669</ele><time>2026-04-04T13:44:48Z</time></trkpt><trkpt lat="43.027505648885665" lon="12.209451310802583"><ele>226.33333333333331</ele><time>2026-04-04T13:44:49Z</time></trkpt><trkpt lat="43.027679674672754" lon="12.209627625997157"><ele>226.0</ele><time>2026-04-04T13:44:50Z</time></trkpt><trkpt lat="43.027858474709824" lon="12.209810798239127"><ele>225.5</ele><time>2026-04-04T13:44:51Z</time></trkpt><trkpt lat="43.028041097393725" lon="12.209991396646743"><ele>225.0</ele><time>2026-04-04T13:44:52Z</time></trkpt><trkpt lat="43.02822170758651" lon="12.21017388798169"><ele>225.66666666666669</ele><time>2026-04-04T13:44:53Z</time></trkpt><trkpt lat="43.028392536436826" lon="12.210355940916976"><ele>226.33333333333334</ele><time>2026-04-04T13:44:54Z</time></trkpt><trkpt lat="43.028564969165394" lon="12.210531574819118"><ele>227.0</ele><time>2026-04-04T13:44:55Z</time></trkpt><trkpt lat="43.028736245023495" lon="12.210706601963182"><ele>227.0</ele><time>2026-04-04T13:44:56Z</time></trkpt><trkpt lat="43.02890089611299" lon="12.210890382329532"><ele>227.0</ele><time>2026-04-04T13:44:57Z</time></trkpt><trkpt lat="43.02906908990198" lon="12.211066080022038"><ele>227.0</ele><time>2026-04-04T13:44:58Z</time></trkpt><trkpt lat="43.02923913489736" lon="12.211235832218742"><ele>226.66666666666669</ele><time>2026-04-04T13:44:59Z</time></trkpt><trkpt lat="43.029406640699484" lon="12.21140302493379"><ele>226.33333333333331</ele><time>2026-04-04T13:45:00Z</time></trkpt><trkpt lat="43.029573452734816" lon="12.211576613955744"><ele>226.0</ele><time>2026-04-04T13:45:01Z</time></trkpt><trkpt lat="43.029740802731475" lon="12.211745494646935"><ele>226.33333333333331</ele><time>2026-04-04T13:45:02Z</time></trkpt><trkpt lat="43.029902965508434" lon="12.211907509268109"><ele>226.66666666666669</ele><time>2026-04-04T13:45:03Z</time></trkpt><trkpt lat="43.03006641615125" lon="12.212066182832299"><ele>227.0</ele><time>2026-04-04T13:45:04Z</time></trkpt><trkpt lat="43.030225109719694" lon="12.212227651855592"><ele>227.33333333333334</ele><time>2026-04-04T13:45:05Z</time></trkpt><trkpt lat="43.03036395726007" lon="12.212385953725082"><ele>227.66666666666669</ele><time>2026-04-04T13:45:06Z</time></trkpt><trkpt lat="43.0304851584947" lon="12.21254243289493"><ele>228.0</ele><time>2026-04-04T13:45:07Z</time></trkpt><trkpt lat="43.030584584057344" lon="12.212704090393641"><ele>228.0</ele><time>2026-04-04T13:45:08Z</time></trkpt><trkpt lat="43.03066044933613" lon="12.21285559858208"><ele>228.0</ele><time>2026-04-04T13:45:09Z</time></trkpt><trkpt lat="43.03070658548692" lon="12.21299896955328"><ele>228.0</ele><time>2026-04-04T13:45:10Z</time></trkpt><trkpt lat="43.03074606807546" lon="12.213141771731188"><ele>228.0</ele><time>2026-04-04T13:45:11Z</time></trkpt><trkpt lat="43.03100660352813" lon="12.21315394315188"><ele>227.0</ele><time>2026-04-04T13:45:12Z</time></trkpt><trkpt lat="43.03111204241357" lon="12.21325138127673"><ele>226.0</ele><time>2026-04-04T13:45:13Z</time></trkpt><trkpt lat="43.03124230511779" lon="12.213339502024096"><ele>225.0</ele><time>2026-04-04T13:45:14Z</time></trkpt><trkpt lat="43.03138420281576" lon="12.213467907974046"><ele>224.0</ele><time>2026-04-04T13:45:15Z</time></trkpt><trkpt lat="43.03152587744296" lon="12.213620955172305"><ele>224.33333333333334</ele><time>2026-04-04T13:45:16Z</time></trkpt><trkpt lat="43.03167031308012" lon="12.21377427176508"><ele>224.66666666666669</ele><time>2026-04-04T13:45:17Z</time></trkpt><trkpt lat="43.0318183345315" lon="12.213932707659735"><ele>225.0</ele><time>2026-04-04T13:45:18Z</time></trkpt><trkpt lat="43.03197385513534" lon="12.21409857064869"><ele>224.33333333333331</ele><time>2026-04-04T13:45:19Z</time></trkpt><trkpt lat="43.03213609892546" lon="12.214279674790482"><ele>223.66666666666666</ele><time>2026-04-04T13:45:20Z</time></trkpt><trkpt lat="43.032303500084375" lon="12.214464842980085"><ele>223.0</ele><time>2026-04-04T13:45:21Z</time></trkpt><trkpt lat="43.03247209796828" lon="12.21465146588994"><ele>222.0</ele><time>2026-04-04T13:45:22Z</time></trkpt><trkpt lat="43.03265117270863" lon="12.21484524345107"><ele>221.0</ele><time>2026-04-04T13:45:23Z</time></trkpt><trkpt lat="43.032840806918124" lon="12.215042967628216"><ele>221.0</ele><time>2026-04-04T13:45:24Z</time></trkpt><trkpt lat="43.033034972817376" lon="12.21524130463146"><ele>221.0</ele><time>2026-04-04T13:45:25Z</time></trkpt><trkpt lat="43.03322432025591" lon="12.215441640213127"><ele>220.5</ele><time>2026-04-04T13:45:26Z</time></trkpt><trkpt lat="43.03340859125522" lon="12.21563867531137"><ele>220.0</ele><time>2026-04-04T13:45:27Z</time></trkpt><trkpt lat="43.033596441551765" lon="12.21583105111234"><ele>220.0</ele><time>2026-04-04T13:45:28Z</time></trkpt><trkpt lat="43.033780255748525" lon="12.216031360050376"><ele>220.0</ele><time>2026-04-04T13:45:29Z</time></trkpt><trkpt lat="43.03396666155819" lon="12.21622856151324"><ele>220.0</ele><time>2026-04-04T13:45:30Z</time></trkpt><trkpt lat="43.03414852567808" lon="12.216430155992157"><ele>220.0</ele><time>2026-04-04T13:45:31Z</time></trkpt><trkpt lat="43.0343199144295" lon="12.216606541148627"><ele>220.0</ele><time>2026-04-04T13:45:32Z</time></trkpt><trkpt lat="43.034479707422946" lon="12.216767443154717"><ele>220.33333333333331</ele><time>2026-04-04T13:45:33Z</time></trkpt><trkpt lat="43.03462234106454" lon="12.216909809028534"><ele>220.66666666666669</ele><time>2026-04-04T13:45:34Z</time></trkpt><trkpt lat="43.03474553097378" lon="12.217082433403247"><ele>221.0</ele><time>2026-04-04T13:45:35Z</time></trkpt><trkpt lat="43.03484734637911" lon="12.217309251940776"><ele>221.33333333333334</ele><time>2026-04-04T13:45:36Z</time></trkpt><trkpt lat="43.03491616381538" lon="12.217563280940233"><ele>221.66666666666669</ele><time>2026-04-04T13:45:37Z</time></trkpt><trkpt lat="43.034969314790104" lon="12.217867661589741"><ele>222.0</ele><time>2026-04-04T13:45:38Z</time></trkpt><trkpt lat="43.035021259679" lon="12.218194359598522"><ele>223.0</ele><time>2026-04-04T13:45:39Z</time></trkpt><trkpt lat="43.035077319686785" lon="12.21851658573304"><ele>224.0</ele><time>2026-04-04T13:45:40Z</time></trkpt><trkpt lat="43.035139938497636" lon="12.218822527189497"><ele>223.0</ele><time>2026-04-04T13:45:41Z</time></trkpt><trkpt lat="43.03520114197177" lon="12.21912730202639"><ele>222.0</ele><time>2026-04-04T13:45:42Z</time></trkpt><trkpt lat="43.03525922553899" lon="12.21942295259227"><ele>222.0</ele><time>2026-04-04T13:45:43Z</time></trkpt><trkpt lat="43.035307101750405" lon="12.219695934906976"><ele>222.0</ele><time>2026-04-04T13:45:44Z</time></trkpt><trkpt lat="43.03535749715235" lon="12.219947361392176"><ele>222.0</ele><time>2026-04-04T13:45:45.001Z</time></trkpt><trkpt lat="43.035406346752055" lon="12.22018813622138"><ele>222.0</ele><time>2026-04-04T13:45:46.001Z</time></trkpt><trkpt lat="43.03545155850125" lon="12.220412859326933"><ele>222.0</ele><time>2026-04-04T13:45:47.001Z</time></trkpt><trkpt lat="43.03549356586281" lon="12.2206386230426"><ele>222.0</ele><time>2026-04-04T13:45:48.001Z</time></trkpt><trkpt lat="43.03553661781527" lon="12.220842306415268"><ele>222.66666666666669</ele><time>2026-04-04T13:45:49.001Z</time></trkpt><trkpt lat="43.03558732716357" lon="12.22102765826053"><ele>223.33333333333334</ele><time>2026-04-04T13:45:50.001Z</time></trkpt><trkpt lat="43.035651294007465" lon="12.221231797948326"><ele>224.0</ele><time>2026-04-04T13:45:51.001Z</time></trkpt><trkpt lat="43.03573682542057" lon="12.22142762987944"><ele>225.0</ele><time>2026-04-04T13:45:52.001Z</time></trkpt><trkpt lat="43.03583539827917" lon="12.22162925068041"><ele>226.0</ele><time>2026-04-04T13:45:53.001Z</time></trkpt><trkpt lat="43.035956180383344" lon="12.221820576129355"><ele>227.0</ele><time>2026-04-04T13:45:54.001Z</time></trkpt><trkpt lat="43.03609475894422" lon="12.22201682139096"><ele>227.0</ele><time>2026-04-04T13:45:55.001Z</time></trkpt><trkpt lat="43.0362389125514" lon="12.222226418718087"><ele>227.0</ele><time>2026-04-04T13:45:56.001Z</time></trkpt><trkpt lat="43.03637797989663" lon="12.22243836617954"><ele>227.0</ele><time>2026-04-04T13:45:57.001Z</time></trkpt><trkpt lat="43.03651960640805" lon="12.22265555256338"><ele>229.66666666666669</ele><time>2026-04-04T13:45:58.001Z</time></trkpt><trkpt lat="43.03666385682431" lon="12.222881674821476"><ele>232.33333333333331</ele><time>2026-04-04T13:45:59.001Z</time></trkpt><trkpt lat="43.03681328325126" lon="12.223105988679348"><ele>235.0</ele><time>2026-04-04T13:46:00Z</time></trkpt><trkpt lat="43.03696294882532" lon="12.223328728316874"><ele>235.0</ele><time>2026-04-04T13:46:01Z</time></trkpt><trkpt lat="43.0371131631009" lon="12.22354903579306"><ele>235.0</ele><time>2026-04-04T13:46:02Z</time></trkpt><trkpt lat="43.0372617396647" lon="12.223778792238164"><ele>235.0</ele><time>2026-04-04T13:46:03Z</time></trkpt><trkpt lat="43.037410407269284" lon="12.224005202226731"><ele>236.33333333333331</ele><time>2026-04-04T13:46:04Z</time></trkpt><trkpt lat="43.03755705558366" lon="12.224224982080553"><ele>237.66666666666669</ele><time>2026-04-04T13:46:05Z</time></trkpt><trkpt lat="43.037698323249835" lon="12.224437347361393"><ele>239.0</ele><time>2026-04-04T13:46:06Z</time></trkpt><trkpt lat="43.03783540685857" lon="12.224651442725007"><ele>238.0</ele><time>2026-04-04T13:46:07Z</time></trkpt><trkpt lat="43.03796826626847" lon="12.224854258256222"><ele>237.0</ele><time>2026-04-04T13:46:08Z</time></trkpt><trkpt lat="43.03809858182442" lon="12.225059145477806"><ele>236.0</ele><time>2026-04-04T13:46:09Z</time></trkpt><trkpt lat="43.038229375879816" lon="12.225257650956918"><ele>236.66666666666669</ele><time>2026-04-04T13:46:10Z</time></trkpt><trkpt lat="43.03836024512073" lon="12.225459923637668"><ele>237.33333333333331</ele><time>2026-04-04T13:46:11Z</time></trkpt><trkpt lat="43.03849182372751" lon="12.225659812251877"><ele>238.0</ele><time>2026-04-04T13:46:12Z</time></trkpt><trkpt lat="43.038616478198676" lon="12.22584889522719"><ele>238.0</ele><time>2026-04-04T13:46:13Z</time></trkpt><trkpt lat="43.03875099418024" lon="12.226059056934494"><ele>238.0</ele><time>2026-04-04T13:46:14Z</time></trkpt><trkpt lat="43.038882795651745" lon="12.2262586591078"><ele>238.0</ele><time>2026-04-04T13:46:15Z</time></trkpt><trkpt lat="43.03901866379651" lon="12.226469045579329"><ele>238.0</ele><time>2026-04-04T13:46:16Z</time></trkpt><trkpt lat="43.03915675430207" lon="12.226681538718509"><ele>238.0</ele><time>2026-04-04T13:46:17Z</time></trkpt><trkpt lat="43.03930263318549" lon="12.226898261180798"><ele>238.0</ele><time>2026-04-04T13:46:18Z</time></trkpt><trkpt lat="43.03943703421702" lon="12.227108090803169"><ele>238.0</ele><time>2026-04-04T13:46:19Z</time></trkpt><trkpt lat="43.03956957405635" lon="12.227305663584431"><ele>238.0</ele><time>2026-04-04T13:46:20Z</time></trkpt><trkpt lat="43.03969100392119" lon="12.227480504668542"><ele>238.0</ele><time>2026-04-04T13:46:21Z</time></trkpt><trkpt lat="43.03981118521828" lon="12.227646813277918"><ele>237.66666666666666</ele><time>2026-04-04T13:46:22Z</time></trkpt><trkpt lat="43.039930396738185" lon="12.227796961560882"><ele>237.33333333333331</ele><time>2026-04-04T13:46:23Z</time></trkpt><trkpt lat="43.04005228960716" lon="12.227945602678476"><ele>237.0</ele><time>2026-04-04T13:46:24Z</time></trkpt><trkpt lat="43.040171931038486" lon="12.228092710441427"><ele>237.75</ele><time>2026-04-04T13:46:25Z</time></trkpt><trkpt lat="43.04029516346087" lon="12.228234454412155"><ele>238.5</ele><time>2026-04-04T13:46:26Z</time></trkpt><trkpt lat="43.040403267422896" lon="12.228363229393436"><ele>239.25</ele><time>2026-04-04T13:46:27Z</time></trkpt><trkpt lat="43.04049769351371" lon="12.228479675256452"><ele>240.0</ele><time>2026-04-04T13:46:28Z</time></trkpt><trkpt lat="43.04057741631985" lon="12.228580417781533"><ele>240.0</ele><time>2026-04-04T13:46:29Z</time></trkpt><trkpt lat="43.04063549302062" lon="12.228647541422186"><ele>240.0</ele><time>2026-04-04T13:46:30Z</time></trkpt><trkpt lat="43.04075062301406" lon="12.228676674387454"><ele>240.0</ele><time>2026-04-04T13:46:32Z</time></trkpt><trkpt lat="43.04081301356954" lon="12.228654014303999"><ele>240.0</ele><time>2026-04-04T13:46:33Z</time></trkpt><trkpt lat="43.04089620392291" lon="12.228601830803656"><ele>240.0</ele><time>2026-04-04T13:46:35Z</time></trkpt><trkpt lat="43.04098329624313" lon="12.228487262820131"><ele>240.16666666666666</ele><time>2026-04-04T13:46:37Z</time></trkpt><trkpt lat="43.0410392944247" lon="12.228399727618328"><ele>240.33333333333331</ele><time>2026-04-04T13:46:38Z</time></trkpt><trkpt lat="43.041103971887075" lon="12.228310537357263"><ele>240.5</ele><time>2026-04-04T13:46:39Z</time></trkpt><trkpt lat="43.041173213622315" lon="12.228226492387973"><ele>240.66666666666666</ele><time>2026-04-04T13:46:40Z</time></trkpt><trkpt lat="43.04124275060164" lon="12.228142930033535"><ele>240.83333333333331</ele><time>2026-04-04T13:46:41Z</time></trkpt><trkpt lat="43.04130294183658" lon="12.228057650603743"><ele>241.0</ele><time>2026-04-04T13:46:42Z</time></trkpt><trkpt lat="43.04136539617938" lon="12.22797031732954"><ele>241.20000000000002</ele><time>2026-04-04T13:46:43Z</time></trkpt><trkpt lat="43.041428254669235" lon="12.22788195253705"><ele>241.40000000000003</ele><time>2026-04-04T13:46:44Z</time></trkpt><trkpt lat="43.041496858238894" lon="12.22778577784224"><ele>241.6</ele><time>2026-04-04T13:46:45Z</time></trkpt><trkpt lat="43.04158095350869" lon="12.227672735452511"><ele>241.8</ele><time>2026-04-04T13:46:46Z</time></trkpt><trkpt lat="43.04166190627025" lon="12.227565918543512"><ele>242.0</ele><time>2026-04-04T13:46:47Z</time></trkpt><trkpt lat="43.04174214079594" lon="12.227454312519145"><ele>242.75</ele><time>2026-04-04T13:46:48Z</time></trkpt><trkpt lat="43.04182310276922" lon="12.227325124028429"><ele>243.5</ele><time>2026-04-04T13:46:49Z</time></trkpt><trkpt lat="43.041918363060034" lon="12.227194016832733"><ele>244.25</ele><time>2026-04-04T13:46:50Z</time></trkpt><trkpt lat="43.04200709223228" lon="12.22705431635611"><ele>245.0</ele><time>2026-04-04T13:46:51Z</time></trkpt><trkpt lat="43.04212530963714" lon="12.226905227051752"><ele>246.0</ele><time>2026-04-04T13:46:52Z</time></trkpt><trkpt lat="43.04223688661624" lon="12.226761924281064"><ele>247.0</ele><time>2026-04-04T13:46:53Z</time></trkpt><trkpt lat="43.04234027623466" lon="12.226620239915801"><ele>248.0</ele><time>2026-04-04T13:46:54Z</time></trkpt><trkpt lat="43.04243842570389" lon="12.226487694701104"><ele>249.0</ele><time>2026-04-04T13:46:55Z</time></trkpt><trkpt lat="43.04252937877341" lon="12.226352674924266"><ele>250.39999999999998</ele><time>2026-04-04T13:46:56Z</time></trkpt><trkpt lat="43.04262314509985" lon="12.226231323271426"><ele>251.79999999999998</ele><time>2026-04-04T13:46:57Z</time></trkpt><trkpt lat="43.042704045014474" lon="12.22612349587165"><ele>253.20000000000002</ele><time>2026-04-04T13:46:58Z</time></trkpt><trkpt lat="43.04277757854702" lon="12.226024557868948"><ele>254.60000000000002</ele><time>2026-04-04T13:46:59Z</time></trkpt><trkpt lat="43.042837387874535" lon="12.225930933410705"><ele>256.0</ele><time>2026-04-04T13:47:00Z</time></trkpt><trkpt lat="43.04289428158557" lon="12.225864347755323"><ele>256.0</ele><time>2026-04-04T13:47:01Z</time></trkpt><trkpt lat="43.042947945486404" lon="12.225801937195893"><ele>256.0</ele><time>2026-04-04T13:47:02Z</time></trkpt><trkpt lat="43.04300904155387" lon="12.225747033284069"><ele>256.0</ele><time>2026-04-04T13:47:03Z</time></trkpt><trkpt lat="43.04307033787006" lon="12.225712652020084"><ele>256.0</ele><time>2026-04-04T13:47:04Z</time></trkpt><trkpt lat="43.04321749241826" lon="12.225709376410869"><ele>256.0</ele><time>2026-04-04T13:47:06Z</time></trkpt><trkpt lat="43.04331295145156" lon="12.225710830953824"><ele>257.25</ele><time>2026-04-04T13:47:07Z</time></trkpt><trkpt lat="43.04342221501683" lon="12.225722775181861"><ele>258.5</ele><time>2026-04-04T13:47:08Z</time></trkpt><trkpt lat="43.04354817833568" lon="12.2257346938862"><ele>259.75</ele><time>2026-04-04T13:47:09Z</time></trkpt><trkpt lat="43.043671029698494" lon="12.225737260281466"><ele>261.0</ele><time>2026-04-04T13:47:10Z</time></trkpt><trkpt lat="43.04380824840351" lon="12.225719109593582"><ele>261.0</ele><time>2026-04-04T13:47:11Z</time></trkpt><trkpt lat="43.04394615486204" lon="12.225709995815029"><ele>261.0</ele><time>2026-04-04T13:47:12Z</time></trkpt><trkpt lat="43.04407175663777" lon="12.225705624724043"><ele>261.0</ele><time>2026-04-04T13:47:13Z</time></trkpt><trkpt lat="43.04418956822349" lon="12.225699749683"><ele>261.0</ele><time>2026-04-04T13:47:14Z</time></trkpt><trkpt lat="43.044302547732116" lon="12.22568136213812"><ele>262.0</ele><time>2026-04-04T13:47:15Z</time></trkpt><trkpt lat="43.0444152365619" lon="12.225673621806864"><ele>263.0</ele><time>2026-04-04T13:47:16Z</time></trkpt><trkpt lat="43.044537797205535" lon="12.225665702791812"><ele>264.0</ele><time>2026-04-04T13:47:17Z</time></trkpt><trkpt lat="43.044676557761015" lon="12.225651431246852"><ele>265.0</ele><time>2026-04-04T13:47:18Z</time></trkpt><trkpt lat="43.044822592191146" lon="12.22563418017951"><ele>263.0</ele><time>2026-04-04T13:47:19Z</time></trkpt><trkpt lat="43.0449695131159" lon="12.22562216649142"><ele>261.0</ele><time>2026-04-04T13:47:20Z</time></trkpt><trkpt lat="43.04510732530838" lon="12.225606268727303"><ele>259.0</ele><time>2026-04-04T13:47:21Z</time></trkpt><trkpt lat="43.045267298249755" lon="12.225584432989693"><ele>257.0</ele><time>2026-04-04T13:47:22Z</time></trkpt><trkpt lat="43.04542400264063" lon="12.225560748717987"><ele>257.0</ele><time>2026-04-04T13:47:23Z</time></trkpt><trkpt lat="43.0455667677343" lon="12.225538594863137"><ele>257.0</ele><time>2026-04-04T13:47:24Z</time></trkpt><trkpt lat="43.045685890012386" lon="12.225517455031168"><ele>257.0</ele><time>2026-04-04T13:47:25Z</time></trkpt><trkpt lat="43.04580553182331" lon="12.22549864773349"><ele>257.0</ele><time>2026-04-04T13:47:26Z</time></trkpt><trkpt lat="43.04591997399616" lon="12.225478392059804"><ele>256.5</ele><time>2026-04-04T13:47:27Z</time></trkpt><trkpt lat="43.0460337904906" lon="12.22545793261908"><ele>256.0</ele><time>2026-04-04T13:47:28Z</time></trkpt><trkpt lat="43.046145307080025" lon="12.225439824400553"><ele>255.5</ele><time>2026-04-04T13:47:29Z</time></trkpt><trkpt lat="43.04627137168942" lon="12.225415113920546"><ele>255.0</ele><time>2026-04-04T13:47:30Z</time></trkpt><trkpt lat="43.04641144677433" lon="12.225390560290647"><ele>255.0</ele><time>2026-04-04T13:47:31Z</time></trkpt><trkpt lat="43.046549245445675" lon="12.225361037284083"><ele>255.0</ele><time>2026-04-04T13:47:32Z</time></trkpt><trkpt lat="43.046690359888906" lon="12.225319254595789"><ele>255.0</ele><time>2026-04-04T13:47:33Z</time></trkpt><trkpt lat="43.046826327609864" lon="12.225274117953864"><ele>255.0</ele><time>2026-04-04T13:47:34Z</time></trkpt><trkpt lat="43.046962472020404" lon="12.225232138923126"><ele>255.4</ele><time>2026-04-04T13:47:35Z</time></trkpt><trkpt lat="43.04707798403292" lon="12.22520437153283"><ele>255.8</ele><time>2026-04-04T13:47:36Z</time></trkpt><trkpt lat="43.04717541864545" lon="12.225179412348542"><ele>256.2</ele><time>2026-04-04T13:47:37Z</time></trkpt><trkpt lat="43.04727720263173" lon="12.225146730097082"><ele>256.6</ele><time>2026-04-04T13:47:38Z</time></trkpt><trkpt lat="43.0473848932782" lon="12.22511115988285"><ele>257.0</ele><time>2026-04-04T13:47:39Z</time></trkpt><trkpt lat="43.04749327422977" lon="12.225084076062483"><ele>257.0</ele><time>2026-04-04T13:47:40Z</time></trkpt><trkpt lat="43.04760911219308" lon="12.225054015917262"><ele>257.0</ele><time>2026-04-04T13:47:41Z</time></trkpt><trkpt lat="43.0477277839005" lon="12.225004765239479"><ele>257.0</ele><time>2026-04-04T13:47:42Z</time></trkpt><trkpt lat="43.04787615260822" lon="12.224946290118993"><ele>257.0</ele><time>2026-04-04T13:47:43.001Z</time></trkpt><trkpt lat="43.0480087614681" lon="12.22488766759477"><ele>257.0</ele><time>2026-04-04T13:47:44.001Z</time></trkpt><trkpt lat="43.048103453706545" lon="12.22483709285955"><ele>257.0</ele><time>2026-04-04T13:47:45.001Z</time></trkpt><trkpt lat="43.0481825006458" lon="12.224796717386475"><ele>257.0</ele><time>2026-04-04T13:47:46.001Z</time></trkpt><trkpt lat="43.0482611405275" lon="12.224764732093947"><ele>257.0</ele><time>2026-04-04T13:47:47.001Z</time></trkpt><trkpt lat="43.048345444073426" lon="12.22474876522176"><ele>257.0</ele><time>2026-04-04T13:47:48.001Z</time></trkpt><trkpt lat="43.048417706754286" lon="12.224729636322142"><ele>257.0</ele><time>2026-04-04T13:47:49.001Z</time></trkpt><trkpt lat="43.04851426569593" lon="12.22469797485623"><ele>257.1666666666667</ele><time>2026-04-04T13:47:50.001Z</time></trkpt><trkpt lat="43.04861069457088" lon="12.224686335271237"><ele>257.33333333333337</ele><time>2026-04-04T13:47:51.001Z</time></trkpt><trkpt lat="43.04871031234786" lon="12.224682969519474"><ele>257.5</ele><time>2026-04-04T13:47:52.001Z</time></trkpt><trkpt lat="43.04880150859315" lon="12.224669412511119"><ele>257.6666666666667</ele><time>2026-04-04T13:47:53.001Z</time></trkpt><trkpt lat="43.04887825227173" lon="12.224646811144124"><ele>257.8333333333333</ele><time>2026-04-04T13:47:54.001Z</time></trkpt><trkpt lat="43.04894682801885" lon="12.224615961611072"><ele>258.0</ele><time>2026-04-04T13:47:55.001Z</time></trkpt><trkpt lat="43.04901644706168" lon="12.224590290598837"><ele>258.0</ele><time>2026-04-04T13:47:56.001Z</time></trkpt><trkpt lat="43.049084567071965" lon="12.224569501966378"><ele>258.0</ele><time>2026-04-04T13:47:57.001Z</time></trkpt><trkpt lat="43.04917174287588" lon="12.224534894701728"><ele>258.0</ele><time>2026-04-04T13:47:59.001Z</time></trkpt><trkpt lat="43.04920368223241" lon="12.224421778590758"><ele>258.0</ele><time>2026-04-04T13:48:01.001Z</time></trkpt><trkpt lat="43.04919640653662" lon="12.224266396686183"><ele>258.0</ele><time>2026-04-04T13:48:03.001Z</time></trkpt><trkpt lat="43.04920497428341" lon="12.224110204380741"><ele>256.8</ele><time>2026-04-04T13:48:05.001Z</time></trkpt><trkpt lat="43.04923318659879" lon="12.2239647929872"><ele>255.60000000000002</ele><time>2026-04-04T13:48:07Z</time></trkpt><trkpt lat="43.049309304863606" lon="12.223884241603209"><ele>254.39999999999998</ele><time>2026-04-04T13:48:09Z</time></trkpt><trkpt lat="43.04943131688982" lon="12.223869295302336"><ele>253.2</ele><time>2026-04-04T13:48:11Z</time></trkpt><trkpt lat="43.04951611046031" lon="12.223871950456461"><ele>252.0</ele><time>2026-04-04T13:48:12Z</time></trkpt><trkpt lat="43.049610683046794" lon="12.223870633451531"><ele>252.0</ele><time>2026-04-04T13:48:13Z</time></trkpt><trkpt lat="43.04970929044538" lon="12.223875234535122"><ele>252.0</ele><time>2026-04-04T13:48:14Z</time></trkpt><trkpt lat="43.04980909191943" lon="12.223886412996169"><ele>252.0</ele><time>2026-04-04T13:48:15Z</time></trkpt><trkpt lat="43.049899689549505" lon="12.223893384042855"><ele>252.0</ele><time>2026-04-04T13:48:16Z</time></trkpt><trkpt lat="43.04997749839034" lon="12.22390595411432"><ele>252.0</ele><time>2026-04-04T13:48:17Z</time></trkpt><trkpt lat="43.05004143999453" lon="12.223899956130932"><ele>252.0</ele><time>2026-04-04T13:48:18Z</time></trkpt><trkpt lat="43.05013008818343" lon="12.223785168500257"><ele>251.8</ele><time>2026-04-04T13:48:20Z</time></trkpt><trkpt lat="43.0501706760913" lon="12.223693630923313"><ele>251.6</ele><time>2026-04-04T13:48:21Z</time></trkpt><trkpt lat="43.05020127001606" lon="12.223582427366525"><ele>251.40000000000003</ele><time>2026-04-04T13:48:22Z</time></trkpt><trkpt lat="43.0502333345615" lon="12.223456056957362"><ele>251.20000000000002</ele><time>2026-04-04T13:48:23Z</time></trkpt><trkpt lat="43.05026938176626" lon="12.223321443452432"><ele>251.0</ele><time>2026-04-04T13:48:24Z</time></trkpt><trkpt lat="43.050306168307955" lon="12.223185772537851"><ele>249.8</ele><time>2026-04-04T13:48:25Z</time></trkpt><trkpt lat="43.05035092996007" lon="12.223052187598823"><ele>248.60000000000002</ele><time>2026-04-04T13:48:26Z</time></trkpt><trkpt lat="43.050389104389474" lon="12.222923318965035"><ele>247.4</ele><time>2026-04-04T13:48:27Z</time></trkpt><trkpt lat="43.05042202496286" lon="12.222789745632909"><ele>246.2</ele><time>2026-04-04T13:48:28Z</time></trkpt><trkpt lat="43.05046046244828" lon="12.222664225903467"><ele>245.0</ele><time>2026-04-04T13:48:29Z</time></trkpt><trkpt lat="43.050499973383744" lon="12.222547831510052"><ele>245.0</ele><time>2026-04-04T13:48:30Z</time></trkpt><trkpt lat="43.050532828098454" lon="12.222427728128336"><ele>245.0</ele><time>2026-04-04T13:48:31Z</time></trkpt><trkpt lat="43.05056575868045" lon="12.222308678161527"><ele>245.0</ele><time>2026-04-04T13:48:32Z</time></trkpt><trkpt lat="43.05059825339861" lon="12.222202466119096"><ele>245.0</ele><time>2026-04-04T13:48:33Z</time></trkpt><trkpt lat="43.050640778967576" lon="12.222097208300406"><ele>245.0</ele><time>2026-04-04T13:48:34Z</time></trkpt><trkpt lat="43.050695026903576" lon="12.221994306926097"><ele>244.0</ele><time>2026-04-04T13:48:35Z</time></trkpt><trkpt lat="43.05077221627077" lon="12.221898821239716"><ele>243.0</ele><time>2026-04-04T13:48:36Z</time></trkpt><trkpt lat="43.05085641811699" lon="12.221834474606274"><ele>242.0</ele><time>2026-04-04T13:48:37Z</time></trkpt><trkpt lat="43.05093810420345" lon="12.22178856727528"><ele>241.0</ele><time>2026-04-04T13:48:38Z</time></trkpt><trkpt lat="43.051023209727674" lon="12.221740119593287"><ele>240.0</ele><time>2026-04-04T13:48:39Z</time></trkpt><trkpt lat="43.05110586451235" lon="12.221684697375585"><ele>239.5</ele><time>2026-04-04T13:48:40Z</time></trkpt><trkpt lat="43.05119065637709" lon="12.22163643917958"><ele>239.0</ele><time>2026-04-04T13:48:41Z</time></trkpt><trkpt lat="43.051275285329666" lon="12.221593692501328"><ele>238.5</ele><time>2026-04-04T13:48:42Z</time></trkpt><trkpt lat="43.051355497734434" lon="12.22154873199556"><ele>238.0</ele><time>2026-04-04T13:48:43Z</time></trkpt><trkpt lat="43.05143046608783" lon="12.22150701069093"><ele>237.5</ele><time>2026-04-04T13:48:44Z</time></trkpt><trkpt lat="43.05149256388265" lon="12.221445320634281"><ele>237.0</ele><time>2026-04-04T13:48:45Z</time></trkpt><trkpt lat="43.051568244051026" lon="12.22135278742162"><ele>236.2</ele><time>2026-04-04T13:48:46Z</time></trkpt><trkpt lat="43.05164105801925" lon="12.221233937429568"><ele>235.39999999999998</ele><time>2026-04-04T13:48:47Z</time></trkpt><trkpt lat="43.051705209530155" lon="12.221109438679134"><ele>234.60000000000002</ele><time>2026-04-04T13:48:48Z</time></trkpt><trkpt lat="43.05177824563959" lon="12.220987032998043"><ele>233.8</ele><time>2026-04-04T13:48:49Z</time></trkpt><trkpt lat="43.05184836590331" lon="12.220876026981363"><ele>233.0</ele><time>2026-04-04T13:48:50Z</time></trkpt><trkpt lat="43.051918912047505" lon="12.220769357743192"><ele>233.0</ele><time>2026-04-04T13:48:51Z</time></trkpt><trkpt lat="43.051982939066406" lon="12.220669858754706"><ele>233.0</ele><time>2026-04-04T13:48:52Z</time></trkpt><trkpt lat="43.05204509894197" lon="12.220566724973233"><ele>233.0</ele><time>2026-04-04T13:48:53Z</time></trkpt><trkpt lat="43.05210003224416" lon="12.220458382902367"><ele>233.0</ele><time>2026-04-04T13:48:54Z</time></trkpt><trkpt lat="43.052145797451296" lon="12.22036204093834"><ele>233.0</ele><time>2026-04-04T13:48:55Z</time></trkpt><trkpt lat="43.052192581751534" lon="12.220279132162691"><ele>233.0</ele><time>2026-04-04T13:48:56Z</time></trkpt><trkpt lat="43.0522855749764" lon="12.220222892781935"><ele>233.0</ele><time>2026-04-04T13:48:58Z</time></trkpt><trkpt lat="43.05235222347189" lon="12.220309385358101"><ele>233.0</ele><time>2026-04-04T13:49:00Z</time></trkpt><trkpt lat="43.05239032087824" lon="12.22039552398988"><ele>233.0</ele><time>2026-04-04T13:49:01Z</time></trkpt><trkpt lat="43.05241515465648" lon="12.22050599730426"><ele>233.0</ele><time>2026-04-04T13:49:02Z</time></trkpt><trkpt lat="43.052451529066296" lon="12.22068096507842"><ele>233.0</ele><time>2026-04-04T13:49:03Z</time></trkpt><trkpt lat="43.05249766980343" lon="12.220900597971447"><ele>233.0</ele><time>2026-04-04T13:49:04Z</time></trkpt><trkpt lat="43.05255487916336" lon="12.221142360657737"><ele>233.0</ele><time>2026-04-04T13:49:05Z</time></trkpt><trkpt lat="43.05262665967661" lon="12.22142417034072"><ele>233.5</ele><time>2026-04-04T13:49:06Z</time></trkpt><trkpt lat="43.05270294924235" lon="12.22172605751816"><ele>234.0</ele><time>2026-04-04T13:49:07Z</time></trkpt><trkpt lat="43.05278399563281" lon="12.22204008385365"><ele>235.0</ele><time>2026-04-04T13:49:08Z</time></trkpt><trkpt lat="43.05287305207234" lon="12.22237110332813"><ele>236.0</ele><time>2026-04-04T13:49:09Z</time></trkpt><trkpt lat="43.0529664954415" lon="12.222714124071931"><ele>236.0</ele><time>2026-04-04T13:49:10Z</time></trkpt><trkpt lat="43.05305253380721" lon="12.223033180823501"><ele>236.0</ele><time>2026-04-04T13:49:11Z</time></trkpt><trkpt lat="43.053142705326856" lon="12.223371860353327"><ele>238.5</ele><time>2026-04-04T13:49:12Z</time></trkpt><trkpt lat="43.05322962773395" lon="12.223714012164322"><ele>241.0</ele><time>2026-04-04T13:49:13Z</time></trkpt><trkpt lat="43.05331140722803" lon="12.224035265854985"><ele>241.0</ele><time>2026-04-04T13:49:14Z</time></trkpt><trkpt lat="43.05339092326133" lon="12.224340558862735"><ele>241.0</ele><time>2026-04-04T13:49:15Z</time></trkpt><trkpt lat="43.05346852584314" lon="12.224628864731143"><ele>243.33333333333331</ele><time>2026-04-04T13:49:16Z</time></trkpt><trkpt lat="43.05353462142396" lon="12.22488626068128"><ele>245.66666666666669</ele><time>2026-04-04T13:49:17Z</time></trkpt><trkpt lat="43.05360272235572" lon="12.225137781206534"><ele>248.0</ele><time>2026-04-04T13:49:18Z</time></trkpt><trkpt lat="43.053654734204585" lon="12.22535801037301"><ele>248.0</ele><time>2026-04-04T13:49:19Z</time></trkpt><trkpt lat="43.053673926251996" lon="12.225574729425976"><ele>248.0</ele><time>2026-04-04T13:49:20Z</time></trkpt><trkpt lat="43.053658113751254" lon="12.225813840603024"><ele>248.0</ele><time>2026-04-04T13:49:21Z</time></trkpt><trkpt lat="43.053611593231246" lon="12.226045185541459"><ele>247.66666666666669</ele><time>2026-04-04T13:49:22Z</time></trkpt><trkpt lat="43.053530190599425" lon="12.226254480881309"><ele>247.33333333333331</ele><time>2026-04-04T13:49:23Z</time></trkpt><trkpt lat="43.05341646521718" lon="12.226476466354342"><ele>247.0</ele><time>2026-04-04T13:49:24Z</time></trkpt><trkpt lat="43.0532897211955" lon="12.22668551765281"><ele>250.0</ele><time>2026-04-04T13:49:25Z</time></trkpt><trkpt lat="43.05317393335911" lon="12.226904914702585"><ele>253.0</ele><time>2026-04-04T13:49:26Z</time></trkpt><trkpt lat="43.05307772511943" lon="12.227165821249015"><ele>256.0</ele><time>2026-04-04T13:49:27Z</time></trkpt><trkpt lat="43.0530071417137" lon="12.227459254510414"><ele>256.5</ele><time>2026-04-04T13:49:28Z</time></trkpt><trkpt lat="43.05294657137415" lon="12.227768237113917"><ele>257.0</ele><time>2026-04-04T13:49:29Z</time></trkpt><trkpt lat="43.052880464390924" lon="12.228077958214893"><ele>261.0</ele><time>2026-04-04T13:49:30Z</time></trkpt><trkpt lat="43.052811964531465" lon="12.228379847339179"><ele>265.0</ele><time>2026-04-04T13:49:31Z</time></trkpt><trkpt lat="43.05274128081067" lon="12.228685559591968"><ele>266.5</ele><time>2026-04-04T13:49:32Z</time></trkpt><trkpt lat="43.05267269811758" lon="12.228991567083344"><ele>268.0</ele><time>2026-04-04T13:49:33Z</time></trkpt><trkpt lat="43.05260499065233" lon="12.229290210364784"><ele>268.0</ele><time>2026-04-04T13:49:34Z</time></trkpt><trkpt lat="43.05253860031578" lon="12.229597846630236"><ele>268.0</ele><time>2026-04-04T13:49:35Z</time></trkpt><trkpt lat="43.05247202875582" lon="12.22989530145971"><ele>275.3333333333333</ele><time>2026-04-04T13:49:36Z</time></trkpt><trkpt lat="43.052411337713664" lon="12.230161627244597"><ele>282.6666666666667</ele><time>2026-04-04T13:49:37Z</time></trkpt><trkpt lat="43.05235958020955" lon="12.230391898237151"><ele>290.0</ele><time>2026-04-04T13:49:38Z</time></trkpt><trkpt lat="43.052296292616795" lon="12.23063859211749"><ele>288.0</ele><time>2026-04-04T13:49:39Z</time></trkpt><trkpt lat="43.05220197640806" lon="12.230889228813941"><ele>286.0</ele><time>2026-04-04T13:49:40Z</time></trkpt><trkpt lat="43.05206718227048" lon="12.231122030180497"><ele>284.0</ele><time>2026-04-04T13:49:41Z</time></trkpt><trkpt lat="43.05192284997428" lon="12.231327391274176"><ele>283.33333333333337</ele><time>2026-04-04T13:49:42Z</time></trkpt><trkpt lat="43.05179399789141" lon="12.23150908123334"><ele>282.6666666666667</ele><time>2026-04-04T13:49:43.001Z</time></trkpt><trkpt lat="43.05168259578487" lon="12.23168128991186"><ele>282.0</ele><time>2026-04-04T13:49:44.001Z</time></trkpt><trkpt lat="43.05157640999415" lon="12.23185247444077"><ele>282.0</ele><time>2026-04-04T13:49:45.001Z</time></trkpt><trkpt lat="43.05147377770424" lon="12.232017725706305"><ele>282.0</ele><time>2026-04-04T13:49:46.001Z</time></trkpt><trkpt lat="43.051368333558685" lon="12.23218550518485"><ele>282.0</ele><time>2026-04-04T13:49:47.001Z</time></trkpt><trkpt lat="43.05126224022663" lon="12.232354243283186"><ele>281.0</ele><time>2026-04-04T13:49:48.001Z</time></trkpt><trkpt lat="43.0511534410485" lon="12.232518710779887"><ele>280.0</ele><time>2026-04-04T13:49:49.001Z</time></trkpt><trkpt lat="43.051048326562224" lon="12.232697765720102"><ele>279.0</ele><time>2026-04-04T13:49:50.001Z</time></trkpt><trkpt lat="43.050941523389234" lon="12.232868396130312"><ele>279.0</ele><time>2026-04-04T13:49:51.001Z</time></trkpt><trkpt lat="43.05083156206094" lon="12.233033809257956"><ele>279.0</ele><time>2026-04-04T13:49:52.001Z</time></trkpt><trkpt lat="43.0507261099747" lon="12.23320114273839"><ele>279.0</ele><time>2026-04-04T13:49:53.001Z</time></trkpt><trkpt lat="43.050628515604025" lon="12.233366509968901"><ele>276.0</ele><time>2026-04-04T13:49:54.001Z</time></trkpt><trkpt lat="43.05053811707838" lon="12.233534775478642"><ele>273.0</ele><time>2026-04-04T13:49:55.001Z</time></trkpt><trkpt lat="43.050474437593074" lon="12.233702372255305"><ele>270.0</ele><time>2026-04-04T13:49:56.001Z</time></trkpt><trkpt lat="43.05042884216446" lon="12.233867660278987"><ele>267.0</ele><time>2026-04-04T13:49:57.001Z</time></trkpt><trkpt lat="43.05040256797136" lon="12.234054751979807"><ele>267.0</ele><time>2026-04-04T13:49:58.001Z</time></trkpt><trkpt lat="43.05039086742469" lon="12.234236772612507"><ele>267.0</ele><time>2026-04-04T13:49:59.001Z</time></trkpt><trkpt lat="43.05037243313799" lon="12.23440849605345"><ele>267.0</ele><time>2026-04-04T13:50:00.001Z</time></trkpt><trkpt lat="43.050352053419815" lon="12.234559499921316"><ele>267.0</ele><time>2026-04-04T13:50:01.001Z</time></trkpt><trkpt lat="43.0503095289385" lon="12.234723331654362"><ele>267.5</ele><time>2026-04-04T13:50:02.001Z</time></trkpt><trkpt lat="43.05024101401976" lon="12.234877516753391"><ele>268.0</ele><time>2026-04-04T13:50:03.001Z</time></trkpt><trkpt lat="43.050145569472974" lon="12.235003471208437"><ele>268.5</ele><time>2026-04-04T13:50:04.001Z</time></trkpt><trkpt lat="43.050027189476836" lon="12.235091261960774"><ele>269.0</ele><time>2026-04-04T13:50:05.001Z</time></trkpt><trkpt lat="43.04988692364895" lon="12.235145260860794"><ele>269.0</ele><time>2026-04-04T13:50:06.001Z</time></trkpt><trkpt lat="43.04972999330249" lon="12.23516415792167"><ele>269.0</ele><time>2026-04-04T13:50:07.001Z</time></trkpt><trkpt lat="43.04954537379363" lon="12.235164812875409"><ele>269.0</ele><time>2026-04-04T13:50:08.001Z</time></trkpt><trkpt lat="43.049364019324784" lon="12.235176208494027"><ele>269.0</ele><time>2026-04-04T13:50:09.001Z</time></trkpt><trkpt lat="43.04921787616739" lon="12.235219863976116"><ele>269.0</ele><time>2026-04-04T13:50:10.001Z</time></trkpt><trkpt lat="43.04908512369131" lon="12.23532180364919"><ele>269.0</ele><time>2026-04-04T13:50:11.001Z</time></trkpt><trkpt lat="43.04894374699807" lon="12.235466110182271"><ele>267.6666666666667</ele><time>2026-04-04T13:50:12Z</time></trkpt><trkpt lat="43.048797523053594" lon="12.235623993834588"><ele>266.3333333333333</ele><time>2026-04-04T13:50:13Z</time></trkpt><trkpt lat="43.04864462292488" lon="12.235777971091816"><ele>265.0</ele><time>2026-04-04T13:50:14Z</time></trkpt><trkpt lat="43.0484991898648" lon="12.235919077850617"><ele>267.0</ele><time>2026-04-04T13:50:15Z</time></trkpt><trkpt lat="43.048360878940834" lon="12.236049896188105"><ele>269.0</ele><time>2026-04-04T13:50:16Z</time></trkpt><trkpt lat="43.04821582666384" lon="12.236178945196727"><ele>271.0</ele><time>2026-04-04T13:50:17Z</time></trkpt><trkpt lat="43.04806927448448" lon="12.236270595732456"><ele>271.0</ele><time>2026-04-04T13:50:18Z</time></trkpt><trkpt lat="43.04792856358807" lon="12.236366710071149"><ele>271.0</ele><time>2026-04-04T13:50:19Z</time></trkpt><trkpt lat="43.047794472233974" lon="12.236445194666285"><ele>271.0</ele><time>2026-04-04T13:50:20Z</time></trkpt><trkpt lat="43.04768133438973" lon="12.236505990211132"><ele>271.0</ele><time>2026-04-04T13:50:21Z</time></trkpt><trkpt lat="43.047577313952345" lon="12.236556110699574"><ele>270.5</ele><time>2026-04-04T13:50:22Z</time></trkpt><trkpt lat="43.047480461206135" lon="12.236590556323819"><ele>270.0</ele><time>2026-04-04T13:50:23Z</time></trkpt><trkpt lat="43.04738822666851" lon="12.236599666872753"><ele>269.5</ele><time>2026-04-04T13:50:24Z</time></trkpt><trkpt lat="43.04730873053964" lon="12.236566768027046"><ele>269.0</ele><time>2026-04-04T13:50:25Z</time></trkpt><trkpt lat="43.04723447808355" lon="12.236525132229607"><ele>268.5</ele><time>2026-04-04T13:50:26Z</time></trkpt><trkpt lat="43.04716961089238" lon="12.236541538963026"><ele>268.0</ele><time>2026-04-04T13:50:27Z</time></trkpt><trkpt lat="43.047124014071635" lon="12.236602752272518"><ele>268.0</ele><time>2026-04-04T13:50:28Z</time></trkpt><trkpt lat="43.047097482253186" lon="12.2367105288486"><ele>268.0</ele><time>2026-04-04T13:50:29Z</time></trkpt><trkpt lat="43.04708407761909" lon="12.236844899841188"><ele>268.0</ele><time>2026-04-04T13:50:30Z</time></trkpt><trkpt lat="43.047069530038236" lon="12.236985509034133"><ele>268.0</ele><time>2026-04-04T13:50:31Z</time></trkpt><trkpt lat="43.04703331146317" lon="12.23711641737176"><ele>268.0</ele><time>2026-04-04T13:50:32Z</time></trkpt><trkpt lat="43.04697994281754" lon="12.237270765433893"><ele>268.0</ele><time>2026-04-04T13:50:33Z</time></trkpt><trkpt lat="43.0469237565382" lon="12.237441661617046"><ele>268.0</ele><time>2026-04-04T13:50:34Z</time></trkpt><trkpt lat="43.04686886534112" lon="12.23760862250352"><ele>268.0</ele><time>2026-04-04T13:50:35Z</time></trkpt><trkpt lat="43.04681429236762" lon="12.237764728909701"><ele>268.0</ele><time>2026-04-04T13:50:36Z</time></trkpt><trkpt lat="43.046757781333454" lon="12.237922508369172"><ele>268.0</ele><time>2026-04-04T13:50:37Z</time></trkpt><trkpt lat="43.046702346898606" lon="12.238078151860739"><ele>268.0</ele><time>2026-04-04T13:50:38Z</time></trkpt><trkpt lat="43.04665435077857" lon="12.238224946414363"><ele>268.0</ele><time>2026-04-04T13:50:39Z</time></trkpt><trkpt lat="43.04659265125076" lon="12.238366946000363"><ele>268.0</ele><time>2026-04-04T13:50:40Z</time></trkpt><trkpt lat="43.04649754352898" lon="12.238482527231131"><ele>267.25</ele><time>2026-04-04T13:50:41Z</time></trkpt><trkpt lat="43.04637831620724" lon="12.238566056502005"><ele>266.5</ele><time>2026-04-04T13:50:42Z</time></trkpt><trkpt lat="43.04623768326003" lon="12.238604909139678"><ele>265.75</ele><time>2026-04-04T13:50:43Z</time></trkpt><trkpt lat="43.04610177632318" lon="12.238613257422587"><ele>265.0</ele><time>2026-04-04T13:50:44Z</time></trkpt><trkpt lat="43.04597612720537" lon="12.238563429061672"><ele>265.0</ele><time>2026-04-04T13:50:45Z</time></trkpt><trkpt lat="43.04585493943008" lon="12.238471622420626"><ele>265.0</ele><time>2026-04-04T13:50:46Z</time></trkpt><trkpt lat="43.04574815872481" lon="12.238360598773122"><ele>265.0</ele><time>2026-04-04T13:50:47Z</time></trkpt><trkpt lat="43.045643943086155" lon="12.238251727476554"><ele>265.0</ele><time>2026-04-04T13:50:48Z</time></trkpt><trkpt lat="43.045551643359246" lon="12.238152652500816"><ele>263.6</ele><time>2026-04-04T13:50:49Z</time></trkpt><trkpt lat="43.0454905983615" lon="12.238038186525424"><ele>262.2</ele><time>2026-04-04T13:50:50Z</time></trkpt><trkpt lat="43.04546374088132" lon="12.237895173828074"><ele>260.8</ele><time>2026-04-04T13:50:51Z</time></trkpt><trkpt lat="43.04547539554037" lon="12.237758745579784"><ele>259.4</ele><time>2026-04-04T13:50:52Z</time></trkpt><trkpt lat="43.04551516961396" lon="12.237629839058108"><ele>258.0</ele><time>2026-04-04T13:50:53Z</time></trkpt><trkpt lat="43.0455805801759" lon="12.237505859718013"><ele>258.0</ele><time>2026-04-04T13:50:54Z</time></trkpt><trkpt lat="43.04567877480068" lon="12.23743487272719"><ele>258.0</ele><time>2026-04-04T13:50:55Z</time></trkpt><trkpt lat="43.045786887807154" lon="12.23740366485189"><ele>258.0</ele><time>2026-04-04T13:50:56Z</time></trkpt><trkpt lat="43.04591063907517" lon="12.23742273039644"><ele>258.0</ele><time>2026-04-04T13:50:57Z</time></trkpt><trkpt lat="43.04604123046996" lon="12.237499059474448"><ele>259.0</ele><time>2026-04-04T13:50:58Z</time></trkpt><trkpt lat="43.04618910211929" lon="12.237587875522719"><ele>260.0</ele><time>2026-04-04T13:50:59Z</time></trkpt><trkpt lat="43.04634117120283" lon="12.237679731693822"><ele>261.0</ele><time>2026-04-04T13:51:00Z</time></trkpt><trkpt lat="43.04650924729922" lon="12.237779915826916"><ele>263.3333333333333</ele><time>2026-04-04T13:51:01Z</time></trkpt><trkpt lat="43.04669605790404" lon="12.237895226343428"><ele>265.66666666666663</ele><time>2026-04-04T13:51:02Z</time></trkpt><trkpt lat="43.04687728179731" lon="12.238011065244375"><ele>268.0</ele><time>2026-04-04T13:51:03Z</time></trkpt><trkpt lat="43.04704915862348" lon="12.238126680979354"><ele>268.3333333333333</ele><time>2026-04-04T13:51:04Z</time></trkpt><trkpt lat="43.047250684386306" lon="12.238258379229254"><ele>268.6666666666667</ele><time>2026-04-04T13:51:05Z</time></trkpt><trkpt lat="43.04744005186566" lon="12.238379809263753"><ele>269.0</ele><time>2026-04-04T13:51:06Z</time></trkpt><trkpt lat="43.047632082829274" lon="12.238504452153713"><ele>270.33333333333337</ele><time>2026-04-04T13:51:07Z</time></trkpt><trkpt lat="43.0478275022928" lon="12.238629108119339"><ele>271.6666666666667</ele><time>2026-04-04T13:51:08Z</time></trkpt><trkpt lat="43.04801755446011" lon="12.238747674170702"><ele>273.0</ele><time>2026-04-04T13:51:09Z</time></trkpt><trkpt lat="43.04820575853427" lon="12.238867177001591"><ele>271.6666666666667</ele><time>2026-04-04T13:51:10Z</time></trkpt><trkpt lat="43.04838695921718" lon="12.23898717245152"><ele>270.33333333333337</ele><time>2026-04-04T13:51:11Z</time></trkpt><trkpt lat="43.04856396758176" lon="12.23910374760538"><ele>269.0</ele><time>2026-04-04T13:51:12Z</time></trkpt><trkpt lat="43.0487331357618" lon="12.239215827193322"><ele>269.0</ele><time>2026-04-04T13:51:13Z</time></trkpt><trkpt lat="43.04890467787943" lon="12.239335545904646"><ele>269.0</ele><time>2026-04-04T13:51:14Z</time></trkpt><trkpt lat="43.04907267245039" lon="12.23945866370372"><ele>269.0</ele><time>2026-04-04T13:51:15Z</time></trkpt><trkpt lat="43.049240077763145" lon="12.239589783031958"><ele>269.33333333333337</ele><time>2026-04-04T13:51:16Z</time></trkpt><trkpt lat="43.04939440346863" lon="12.239723186013798"><ele>269.6666666666667</ele><time>2026-04-04T13:51:17Z</time></trkpt><trkpt lat="43.049541205373345" lon="12.239842402496361"><ele>270.0</ele><time>2026-04-04T13:51:18Z</time></trkpt><trkpt lat="43.04968014826143" lon="12.239960074711387"><ele>267.6666666666667</ele><time>2026-04-04T13:51:19Z</time></trkpt><trkpt lat="43.04983140098422" lon="12.240090413740667"><ele>265.33333333333337</ele><time>2026-04-04T13:51:20Z</time></trkpt><trkpt lat="43.05000036225169" lon="12.240225980504597"><ele>263.0</ele><time>2026-04-04T13:51:21Z</time></trkpt><trkpt lat="43.05016821407144" lon="12.240355425928833"><ele>262.33333333333337</ele><time>2026-04-04T13:51:22Z</time></trkpt><trkpt lat="43.050324950604065" lon="12.240477191703405"><ele>261.6666666666667</ele><time>2026-04-04T13:51:23Z</time></trkpt><trkpt lat="43.050477356078055" lon="12.240589037705584"><ele>261.0</ele><time>2026-04-04T13:51:24Z</time></trkpt><trkpt lat="43.050625403208265" lon="12.240668365502069"><ele>258.0</ele><time>2026-04-04T13:51:25Z</time></trkpt><trkpt lat="43.050779304150936" lon="12.240712723294164"><ele>255.0</ele><time>2026-04-04T13:51:26Z</time></trkpt><trkpt lat="43.050933875275106" lon="12.240736565845413"><ele>252.0</ele><time>2026-04-04T13:51:27Z</time></trkpt><trkpt lat="43.051080958289916" lon="12.240761422555503"><ele>251.33333333333331</ele><time>2026-04-04T13:51:28Z</time></trkpt><trkpt lat="43.05122864337289" lon="12.240787916847959"><ele>250.66666666666666</ele><time>2026-04-04T13:51:29Z</time></trkpt><trkpt lat="43.05138249667445" lon="12.240813248096313"><ele>250.0</ele><time>2026-04-04T13:51:30Z</time></trkpt><trkpt lat="43.05153955388596" lon="12.240852782022232"><ele>250.0</ele><time>2026-04-04T13:51:31Z</time></trkpt><trkpt lat="43.05168027161378" lon="12.240906994007002"><ele>250.0</ele><time>2026-04-04T13:51:32Z</time></trkpt><trkpt lat="43.051806112553926" lon="12.240992275230655"><ele>250.0</ele><time>2026-04-04T13:51:33Z</time></trkpt><trkpt lat="43.051910896619894" lon="12.241111021039506"><ele>250.0</ele><time>2026-04-04T13:51:34Z</time></trkpt><trkpt lat="43.0519872397727" lon="12.241265665227179"><ele>250.0</ele><time>2026-04-04T13:51:35Z</time></trkpt><trkpt lat="43.05202674253899" lon="12.241444332184303"><ele>250.0</ele><time>2026-04-04T13:51:36Z</time></trkpt><trkpt lat="43.05201228105948" lon="12.241645685680425"><ele>250.0</ele><time>2026-04-04T13:51:37Z</time></trkpt><trkpt lat="43.051971710728345" lon="12.241841609791525"><ele>250.0</ele><time>2026-04-04T13:51:38Z</time></trkpt><trkpt lat="43.05189640342682" lon="12.242024560373839"><ele>248.0</ele><time>2026-04-04T13:51:39Z</time></trkpt><trkpt lat="43.05182437163559" lon="12.242193658870589"><ele>246.0</ele><time>2026-04-04T13:51:40Z</time></trkpt><trkpt lat="43.051762677613276" lon="12.242359256521818"><ele>244.0</ele><time>2026-04-04T13:51:41Z</time></trkpt><trkpt lat="43.05170245488851" lon="12.242527470536881"><ele>242.0</ele><time>2026-04-04T13:51:42Z</time></trkpt><trkpt lat="43.05164619618423" lon="12.242693873536297"><ele>241.75</ele><time>2026-04-04T13:51:43Z</time></trkpt><trkpt lat="43.05159149813227" lon="12.24286934919381"><ele>241.5</ele><time>2026-04-04T13:51:44Z</time></trkpt><trkpt lat="43.05154936718884" lon="12.243054231636053"><ele>241.25</ele><time>2026-04-04T13:51:45Z</time></trkpt><trkpt lat="43.05153923567827" lon="12.243251288103297"><ele>241.0</ele><time>2026-04-04T13:51:46Z</time></trkpt><trkpt lat="43.05156709363858" lon="12.243444141856202"><ele>241.0</ele><time>2026-04-04T13:51:47Z</time></trkpt><trkpt lat="43.05161368409213" lon="12.243628592210491"><ele>241.0</ele><time>2026-04-04T13:51:48.001Z</time></trkpt><trkpt lat="43.051663858284826" lon="12.243807025524053"><ele>241.0</ele><time>2026-04-04T13:51:49.001Z</time></trkpt><trkpt lat="43.05170506606183" lon="12.24398336069682"><ele>241.0</ele><time>2026-04-04T13:51:50.001Z</time></trkpt><trkpt lat="43.05174260357381" lon="12.244158422388054"><ele>239.33333333333331</ele><time>2026-04-04T13:51:51.001Z</time></trkpt><trkpt lat="43.051781219417414" lon="12.244357617030422"><ele>237.66666666666669</ele><time>2026-04-04T13:51:52.001Z</time></trkpt><trkpt lat="43.051816560165804" lon="12.24454944517484"><ele>236.0</ele><time>2026-04-04T13:51:53.001Z</time></trkpt><trkpt lat="43.05185617594567" lon="12.244755919353096"><ele>235.0</ele><time>2026-04-04T13:51:54.001Z</time></trkpt><trkpt lat="43.0518991632807" lon="12.244973778290449"><ele>234.0</ele><time>2026-04-04T13:51:55.001Z</time></trkpt><trkpt lat="43.05194426109909" lon="12.245189108420002"><ele>233.0</ele><time>2026-04-04T13:51:56.001Z</time></trkpt><trkpt lat="43.051987015700895" lon="12.245402136587707"><ele>233.0</ele><time>2026-04-04T13:51:57.001Z</time></trkpt><trkpt lat="43.052030516551724" lon="12.24561930294993"><ele>233.0</ele><time>2026-04-04T13:51:58.001Z</time></trkpt><trkpt lat="43.052073947196575" lon="12.245842253337537"><ele>233.0</ele><time>2026-04-04T13:51:59.001Z</time></trkpt><trkpt lat="43.05211269193838" lon="12.246060101731306"><ele>232.66666666666669</ele><time>2026-04-04T13:52:00.001Z</time></trkpt><trkpt lat="43.05214241170846" lon="12.246281221944091"><ele>232.33333333333331</ele><time>2026-04-04T13:52:01.001Z</time></trkpt><trkpt lat="43.05216603461662" lon="12.246509362970908"><ele>232.0</ele><time>2026-04-04T13:52:02.001Z</time></trkpt><trkpt lat="43.052184497316034" lon="12.24673734879171"><ele>231.66666666666666</ele><time>2026-04-04T13:52:03.001Z</time></trkpt><trkpt lat="43.05220199467423" lon="12.24697896616718"><ele>231.33333333333331</ele><time>2026-04-04T13:52:04.001Z</time></trkpt><trkpt lat="43.0522209462048" lon="12.24722702049903"><ele>231.0</ele><time>2026-04-04T13:52:05.001Z</time></trkpt><trkpt lat="43.05224788293586" lon="12.247468778983981"><ele>232.0</ele><time>2026-04-04T13:52:06.001Z</time></trkpt><trkpt lat="43.05228265043486" lon="12.24771745708516"><ele>233.0</ele><time>2026-04-04T13:52:07.001Z</time></trkpt><trkpt lat="43.052327004784885" lon="12.247963283918587"><ele>234.0</ele><time>2026-04-04T13:52:08.001Z</time></trkpt><trkpt lat="43.0523744644747" lon="12.248200027862552"><ele>235.33333333333331</ele><time>2026-04-04T13:52:09.001Z</time></trkpt><trkpt lat="43.05242811304989" lon="12.248435150850204"><ele>236.66666666666666</ele><time>2026-04-04T13:52:10.001Z</time></trkpt><trkpt lat="43.052480326596005" lon="12.24866614239861"><ele>238.0</ele><time>2026-04-04T13:52:11.001Z</time></trkpt><trkpt lat="43.05252955475125" lon="12.248888843228643"><ele>234.75</ele><time>2026-04-04T13:52:12.001Z</time></trkpt><trkpt lat="43.052573169653314" lon="12.249111013873012"><ele>231.5</ele><time>2026-04-04T13:52:13.001Z</time></trkpt><trkpt lat="43.05261520407354" lon="12.249310351713541"><ele>228.25</ele><time>2026-04-04T13:52:14.001Z</time></trkpt><trkpt lat="43.05264741945212" lon="12.249467265600357"><ele>225.0</ele><time>2026-04-04T13:52:15.001Z</time></trkpt><trkpt lat="43.05267050913117" lon="12.249578798241318"><ele>225.0</ele><time>2026-04-04T13:52:16.001Z</time></trkpt><trkpt lat="43.05268971520628" lon="12.24966980680522"><ele>225.0</ele><time>2026-04-04T13:52:17.001Z</time></trkpt><trkpt lat="43.05263402008442" lon="12.249729871918086"><ele>225.0</ele><time>2026-04-04T13:52:20Z</time></trkpt><trkpt lat="43.05256278983451" lon="12.249747317841885"><ele>225.0</ele><time>2026-04-04T13:52:22Z</time></trkpt><trkpt lat="43.05247209077409" lon="12.249752170213487"><ele>225.0</ele><time>2026-04-04T13:52:24Z</time></trkpt><trkpt lat="43.05239549923721" lon="12.249753395752478"><ele>225.0</ele><time>2026-04-04T13:52:25Z</time></trkpt><trkpt lat="43.052312932399545" lon="12.249749190713938"><ele>226.6</ele><time>2026-04-04T13:52:26Z</time></trkpt><trkpt lat="43.052236983612296" lon="12.249757009520605"><ele>228.2</ele><time>2026-04-04T13:52:27Z</time></trkpt><trkpt lat="43.05215768784792" lon="12.249788025146714"><ele>229.8</ele><time>2026-04-04T13:52:28Z</time></trkpt><trkpt lat="43.05205280856673" lon="12.249837893009351"><ele>231.4</ele><time>2026-04-04T13:52:29Z</time></trkpt><trkpt lat="43.05194540672777" lon="12.249898999047932"><ele>233.0</ele><time>2026-04-04T13:52:30Z</time></trkpt><trkpt lat="43.05184122830102" lon="12.24998000719995"><ele>233.0</ele><time>2026-04-04T13:52:31Z</time></trkpt><trkpt lat="43.051734348423444" lon="12.2500974950774"><ele>233.0</ele><time>2026-04-04T13:52:32Z</time></trkpt><trkpt lat="43.05162860610571" lon="12.250235696167637"><ele>233.0</ele><time>2026-04-04T13:52:33Z</time></trkpt><trkpt lat="43.0515401694184" lon="12.250358576458975"><ele>233.0</ele><time>2026-04-04T13:52:34Z</time></trkpt><trkpt lat="43.0514683021544" lon="12.250455457014144"><ele>233.2</ele><time>2026-04-04T13:52:35Z</time></trkpt><trkpt lat="43.051405577966115" lon="12.250524976203826"><ele>233.4</ele><time>2026-04-04T13:52:36Z</time></trkpt><trkpt lat="43.05134612751561" lon="12.250594795230487"><ele>233.59999999999997</ele><time>2026-04-04T13:52:37Z</time></trkpt><trkpt lat="43.05128236860496" lon="12.250676224121776"><ele>233.79999999999998</ele><time>2026-04-04T13:52:38Z</time></trkpt><trkpt lat="43.05121518317492" lon="12.250772711545864"><ele>234.0</ele><time>2026-04-04T13:52:39Z</time></trkpt><trkpt lat="43.05114243233147" lon="12.250882458067128"><ele>234.0</ele><time>2026-04-04T13:52:40Z</time></trkpt><trkpt lat="43.05106595693581" lon="12.250982725072786"><ele>233.99999999999997</ele><time>2026-04-04T13:52:41Z</time></trkpt><trkpt lat="43.050983243790235" lon="12.251066168970967"><ele>233.99999999999997</ele><time>2026-04-04T13:52:42Z</time></trkpt><trkpt lat="43.05090534284784" lon="12.251162185309692"><ele>234.0</ele><time>2026-04-04T13:52:43Z</time></trkpt><trkpt lat="43.05084078410073" lon="12.251299782583871"><ele>234.0</ele><time>2026-04-04T13:52:44Z</time></trkpt><trkpt lat="43.05078762496435" lon="12.251460779092076"><ele>232.5</ele><time>2026-04-04T13:52:45Z</time></trkpt><trkpt lat="43.05073295901722" lon="12.251629057354567"><ele>231.0</ele><time>2026-04-04T13:52:46Z</time></trkpt><trkpt lat="43.0506814486152" lon="12.251777271211099"><ele>229.5</ele><time>2026-04-04T13:52:47Z</time></trkpt><trkpt lat="43.050632183526794" lon="12.251920594887082"><ele>228.0</ele><time>2026-04-04T13:52:48Z</time></trkpt><trkpt lat="43.05058371281651" lon="12.252062341915662"><ele>228.0</ele><time>2026-04-04T13:52:49Z</time></trkpt><trkpt lat="43.050533961017514" lon="12.252194042950292"><ele>228.0</ele><time>2026-04-04T13:52:50Z</time></trkpt><trkpt lat="43.05049341409801" lon="12.252328343826958"><ele>228.0</ele><time>2026-04-04T13:52:51Z</time></trkpt><trkpt lat="43.05045287066045" lon="12.252449519510254"><ele>228.0</ele><time>2026-04-04T13:52:52Z</time></trkpt><trkpt lat="43.05041509895452" lon="12.252586725288316"><ele>228.0</ele><time>2026-04-04T13:52:53Z</time></trkpt><trkpt lat="43.05039071873932" lon="12.252710790514113"><ele>227.8</ele><time>2026-04-04T13:52:54Z</time></trkpt><trkpt lat="43.050340465621375" lon="12.2528414963033"><ele>227.60000000000002</ele><time>2026-04-04T13:52:55Z</time></trkpt><trkpt lat="43.050279743888446" lon="12.25296369233229"><ele>227.39999999999998</ele><time>2026-04-04T13:52:56Z</time></trkpt><trkpt lat="43.05021319805623" lon="12.253066182979325"><ele>227.2</ele><time>2026-04-04T13:52:57Z</time></trkpt><trkpt lat="43.05014909423335" lon="12.253164288352483"><ele>227.0</ele><time>2026-04-04T13:52:58Z</time></trkpt><trkpt lat="43.050092983664165" lon="12.253259941454164"><ele>226.6</ele><time>2026-04-04T13:52:59Z</time></trkpt><trkpt lat="43.05002412181187" lon="12.25335642079539"><ele>226.2</ele><time>2026-04-04T13:53:00Z</time></trkpt><trkpt lat="43.049945414257365" lon="12.253440482643285"><ele>225.8</ele><time>2026-04-04T13:53:01Z</time></trkpt><trkpt lat="43.04985298784995" lon="12.253514907148036"><ele>225.4</ele><time>2026-04-04T13:53:02Z</time></trkpt><trkpt lat="43.04975338757127" lon="12.253557172975132"><ele>225.0</ele><time>2026-04-04T13:53:03Z</time></trkpt><trkpt lat="43.049626874421605" lon="12.253599174318893"><ele>225.0</ele><time>2026-04-04T13:53:04Z</time></trkpt><trkpt lat="43.049497592059836" lon="12.253655546792734"><ele>225.0</ele><time>2026-04-04T13:53:05Z</time></trkpt><trkpt lat="43.049385873489854" lon="12.253707509694001"><ele>225.0</ele><time>2026-04-04T13:53:06Z</time></trkpt><trkpt lat="43.04928180518916" lon="12.253761809852016"><ele>225.0</ele><time>2026-04-04T13:53:07Z</time></trkpt><trkpt lat="43.0491771703729" lon="12.253818264289643"><ele>225.2</ele><time>2026-04-04T13:53:08Z</time></trkpt><trkpt lat="43.04907621824219" lon="12.253879335610227"><ele>225.4</ele><time>2026-04-04T13:53:09Z</time></trkpt><trkpt lat="43.048979104532165" lon="12.253937577032668"><ele>225.60000000000002</ele><time>2026-04-04T13:53:10Z</time></trkpt><trkpt lat="43.04887743554432" lon="12.253992688195002"><ele>225.8</ele><time>2026-04-04T13:53:11Z</time></trkpt><trkpt lat="43.04877679942623" lon="12.254057691092186"><ele>226.0</ele><time>2026-04-04T13:53:12Z</time></trkpt><trkpt lat="43.048680770951805" lon="12.25412649986575"><ele>225.4</ele><time>2026-04-04T13:53:13Z</time></trkpt><trkpt lat="43.04858496015357" lon="12.254184934354772"><ele>224.8</ele><time>2026-04-04T13:53:14Z</time></trkpt><trkpt lat="43.04850140755672" lon="12.254228607787585"><ele>224.20000000000002</ele><time>2026-04-04T13:53:15Z</time></trkpt><trkpt lat="43.04841439914457" lon="12.254269607214498"><ele>223.60000000000002</ele><time>2026-04-04T13:53:16Z</time></trkpt><trkpt lat="43.04833403889899" lon="12.254311079410986"><ele>223.0</ele><time>2026-04-04T13:53:17Z</time></trkpt><trkpt lat="43.04826252382114" lon="12.254351240318265"><ele>223.99999999999997</ele><time>2026-04-04T13:53:18Z</time></trkpt><trkpt lat="43.04815465244853" lon="12.254422774286905"><ele>225.0</ele><time>2026-04-04T13:53:20Z</time></trkpt><trkpt lat="43.04807129984533" lon="12.254479340830338"><ele>226.0</ele><time>2026-04-04T13:53:22Z</time></trkpt><trkpt lat="43.04801609743416" lon="12.254566675026897"><ele>227.0</ele><time>2026-04-04T13:54:00.001Z</time></trkpt><trkpt lat="43.047969022270024" lon="12.25463612850212"><ele>227.99999999999997</ele><time>2026-04-04T13:54:01.001Z</time></trkpt><trkpt lat="43.04790761422566" lon="12.25469891323462"><ele>229.0</ele><time>2026-04-04T13:54:02.001Z</time></trkpt><trkpt lat="43.047845891497396" lon="12.254759659187318"><ele>227.5</ele><time>2026-04-04T13:54:03.001Z</time></trkpt><trkpt lat="43.04776609702108" lon="12.254841677714321"><ele>226.0</ele><time>2026-04-04T13:54:04.001Z</time></trkpt><trkpt lat="43.047675919855834" lon="12.254932720086499"><ele>224.5</ele><time>2026-04-04T13:54:05.001Z</time></trkpt><trkpt lat="43.047574204114746" lon="12.255030703588076"><ele>223.0</ele><time>2026-04-04T13:54:06.001Z</time></trkpt><trkpt lat="43.0474773993146" lon="12.255125367915275"><ele>226.25</ele><time>2026-04-04T13:54:07.001Z</time></trkpt><trkpt lat="43.04739102651462" lon="12.255214356608766"><ele>229.5</ele><time>2026-04-04T13:54:08.001Z</time></trkpt><trkpt lat="43.04729269713475" lon="12.255308770334171"><ele>232.75</ele><time>2026-04-04T13:54:09.001Z</time></trkpt><trkpt lat="43.04718173198872" lon="12.255400754661691"><ele>236.0</ele><time>2026-04-04T13:54:10.001Z</time></trkpt><trkpt lat="43.04708057876921" lon="12.255486322484739"><ele>236.0</ele><time>2026-04-04T13:54:11.001Z</time></trkpt><trkpt lat="43.046988029028945" lon="12.255568093403728"><ele>236.00000000000003</ele><time>2026-04-04T13:54:12.001Z</time></trkpt><trkpt lat="43.046898403022965" lon="12.255654973532643"><ele>236.00000000000003</ele><time>2026-04-04T13:54:13.001Z</time></trkpt><trkpt lat="43.04681611068977" lon="12.255733924841191"><ele>236.0</ele><time>2026-04-04T13:54:14.001Z</time></trkpt><trkpt lat="43.046738263710715" lon="12.25581397405713"><ele>236.0</ele><time>2026-04-04T13:54:15.001Z</time></trkpt><trkpt lat="43.04665664885909" lon="12.255891871323959"><ele>235.4</ele><time>2026-04-04T13:54:16.001Z</time></trkpt><trkpt lat="43.04655954774298" lon="12.25595586536078"><ele>234.8</ele><time>2026-04-04T13:54:17.001Z</time></trkpt><trkpt lat="43.04646561153485" lon="12.256007529371775"><ele>234.20000000000002</ele><time>2026-04-04T13:54:18.001Z</time></trkpt><trkpt lat="43.046363194741765" lon="12.256072429364597"><ele>233.60000000000002</ele><time>2026-04-04T13:54:19.001Z</time></trkpt><trkpt lat="43.046275465850506" lon="12.256145117196057"><ele>233.0</ele><time>2026-04-04T13:54:20.001Z</time></trkpt><trkpt lat="43.04618420154645" lon="12.256196352721883"><ele>233.0</ele><time>2026-04-04T13:54:21.001Z</time></trkpt><trkpt lat="43.046091500430165" lon="12.256247229880643"><ele>233.0</ele><time>2026-04-04T13:54:22.001Z</time></trkpt><trkpt lat="43.04599415328235" lon="12.256315387682683"><ele>233.0</ele><time>2026-04-04T13:54:23.001Z</time></trkpt><trkpt lat="43.04589527027599" lon="12.256399546197024"><ele>233.0</ele><time>2026-04-04T13:54:24Z</time></trkpt><trkpt lat="43.045788610424665" lon="12.256512292916693"><ele>232.25</ele><time>2026-04-04T13:54:25Z</time></trkpt><trkpt lat="43.04567902183785" lon="12.256612718034368"><ele>231.5</ele><time>2026-04-04T13:54:26Z</time></trkpt><trkpt lat="43.04557153167708" lon="12.25669051050727"><ele>230.75</ele><time>2026-04-04T13:54:27Z</time></trkpt><trkpt lat="43.04547416626662" lon="12.256766709102012"><ele>230.0</ele><time>2026-04-04T13:54:28Z</time></trkpt><trkpt lat="43.045377114554" lon="12.25684313860254"><ele>230.0</ele><time>2026-04-04T13:54:29Z</time></trkpt><trkpt lat="43.04527611010717" lon="12.25691131789206"><ele>230.0</ele><time>2026-04-04T13:54:30Z</time></trkpt><trkpt lat="43.045189640026685" lon="12.256989256918542"><ele>230.0</ele><time>2026-04-04T13:54:31Z</time></trkpt><trkpt lat="43.04511466972448" lon="12.257082063917894"><ele>230.0</ele><time>2026-04-04T13:54:32Z</time></trkpt><trkpt lat="43.04504258733824" lon="12.257183826764233"><ele>230.0</ele><time>2026-04-04T13:54:33Z</time></trkpt><trkpt lat="43.04497552268302" lon="12.257299427190311"><ele>228.25</ele><time>2026-04-04T13:54:34Z</time></trkpt><trkpt lat="43.04489180536525" lon="12.257402793604586"><ele>226.5</ele><time>2026-04-04T13:54:35Z</time></trkpt><trkpt lat="43.044792121258816" lon="12.257501974379274"><ele>224.75</ele><time>2026-04-04T13:54:36Z</time></trkpt><trkpt lat="43.04468910783121" lon="12.257579305686736"><ele>223.0</ele><time>2026-04-04T13:54:37Z</time></trkpt><trkpt lat="43.044593176929716" lon="12.257668246758573"><ele>223.0</ele><time>2026-04-04T13:54:38Z</time></trkpt><trkpt lat="43.04450279935851" lon="12.257779026924625"><ele>223.0</ele><time>2026-04-04T13:54:39Z</time></trkpt><trkpt lat="43.04440641209002" lon="12.257913322385063"><ele>223.0</ele><time>2026-04-04T13:54:40Z</time></trkpt><trkpt lat="43.04431978458063" lon="12.258041489845224"><ele>223.0</ele><time>2026-04-04T13:54:41Z</time></trkpt><trkpt lat="43.0442317477145" lon="12.258166258224183"><ele>222.75</ele><time>2026-04-04T13:54:42Z</time></trkpt><trkpt lat="43.04413795738397" lon="12.258290631974438"><ele>222.5</ele><time>2026-04-04T13:54:43Z</time></trkpt><trkpt lat="43.044053224133684" lon="12.258408358933728"><ele>222.25</ele><time>2026-04-04T13:54:44Z</time></trkpt><trkpt lat="43.043967935922055" lon="12.258517631075634"><ele>222.0</ele><time>2026-04-04T13:54:45Z</time></trkpt><trkpt lat="43.04388576165411" lon="12.258607564112685"><ele>222.8</ele><time>2026-04-04T13:54:46Z</time></trkpt><trkpt lat="43.04380832790405" lon="12.25869220553512"><ele>223.6</ele><time>2026-04-04T13:54:47Z</time></trkpt><trkpt lat="43.04373564584226" lon="12.258789213360465"><ele>224.40000000000003</ele><time>2026-04-04T13:54:48Z</time></trkpt><trkpt lat="43.04367440273764" lon="12.258884059745016"><ele>225.20000000000002</ele><time>2026-04-04T13:54:49Z</time></trkpt><trkpt lat="43.043575827019495" lon="12.258959563032253"><ele>226.0</ele><time>2026-04-04T13:54:51Z</time></trkpt><trkpt lat="43.043511337592896" lon="12.259156222621648"><ele>226.0</ele><time>2026-04-04T13:54:52Z</time></trkpt><trkpt lat="43.04345203382934" lon="12.25927662398664"><ele>226.0</ele><time>2026-04-04T13:54:53Z</time></trkpt><trkpt lat="43.04339487538619" lon="12.259404415214675"><ele>226.0</ele><time>2026-04-04T13:54:54Z</time></trkpt><trkpt lat="43.043325738943" lon="12.259555349524978"><ele>226.0</ele><time>2026-04-04T13:54:55Z</time></trkpt><trkpt lat="43.0432720966383" lon="12.25968548715296"><ele>225.60000000000002</ele><time>2026-04-04T13:54:56Z</time></trkpt><trkpt lat="43.04322230733696" lon="12.25980514232912"><ele>225.20000000000002</ele><time>2026-04-04T13:54:57Z</time></trkpt><trkpt lat="43.04315661924221" lon="12.259923567266764"><ele>224.79999999999998</ele><time>2026-04-04T13:54:58Z</time></trkpt><trkpt lat="43.04308183539154" lon="12.26004738225972"><ele>224.39999999999998</ele><time>2026-04-04T13:54:59Z</time></trkpt><trkpt lat="43.04301929665486" lon="12.260159386203982"><ele>224.0</ele><time>2026-04-04T13:55:00Z</time></trkpt><trkpt lat="43.04294877237002" lon="12.260274638442759"><ele>224.0</ele><time>2026-04-04T13:55:01Z</time></trkpt><trkpt lat="43.0428591757982" lon="12.260396306096371"><ele>224.0</ele><time>2026-04-04T13:55:02Z</time></trkpt><trkpt lat="43.04276142078815" lon="12.260517842072035"><ele>224.0</ele><time>2026-04-04T13:55:03Z</time></trkpt><trkpt lat="43.04264951416416" lon="12.260648671678588"><ele>224.0</ele><time>2026-04-04T13:55:04Z</time></trkpt><trkpt lat="43.04253974733376" lon="12.260770303216681"><ele>223.39999999999998</ele><time>2026-04-04T13:55:05Z</time></trkpt><trkpt lat="43.04244463653946" lon="12.260885967697034"><ele>222.79999999999998</ele><time>2026-04-04T13:55:06Z</time></trkpt><trkpt lat="43.042365885077366" lon="12.260976701212046"><ele>222.20000000000002</ele><time>2026-04-04T13:55:07Z</time></trkpt><trkpt lat="43.04230058030562" lon="12.26105393369067"><ele>221.60000000000002</ele><time>2026-04-04T13:55:08Z</time></trkpt><trkpt lat="43.04224723356541" lon="12.261117084503631"><ele>221.0</ele><time>2026-04-04T13:55:09Z</time></trkpt><trkpt lat="43.04218439947118" lon="12.261187926405379"><ele>221.0</ele><time>2026-04-04T13:55:11Z</time></trkpt><trkpt lat="43.042261085573145" lon="12.261275726253293"><ele>221.00000000000003</ele><time>2026-04-04T13:55:14Z</time></trkpt><trkpt lat="43.04232341999573" lon="12.261316679760034"><ele>221.00000000000003</ele><time>2026-04-04T13:55:15Z</time></trkpt><trkpt lat="43.04241236698721" lon="12.261357397296354"><ele>221.0</ele><time>2026-04-04T13:55:16Z</time></trkpt><trkpt lat="43.042520302447365" lon="12.261429955420086"><ele>221.0</ele><time>2026-04-04T13:55:17Z</time></trkpt><trkpt lat="43.04263009944464" lon="12.261508476935928"><ele>219.50000000000003</ele><time>2026-04-04T13:55:18Z</time></trkpt><trkpt lat="43.04272110324777" lon="12.261580681032267"><ele>218.0</ele><time>2026-04-04T13:55:19Z</time></trkpt><trkpt lat="43.0428117969178" lon="12.261650986340568"><ele>216.5</ele><time>2026-04-04T13:55:20Z</time></trkpt><trkpt lat="43.042872433297596" lon="12.261712616925792"><ele>215.0</ele><time>2026-04-04T13:55:21Z</time></trkpt><trkpt lat="43.042922491690696" lon="12.261791099743226"><ele>213.50000000000003</ele><time>2026-04-04T13:55:23Z</time></trkpt><trkpt lat="43.04286127315067" lon="12.261826725930282"><ele>212.0</ele><time>2026-04-04T13:56:24.001Z</time></trkpt><trkpt lat="43.04279057282372" lon="12.261846532742174"><ele>212.00000000000003</ele><time>2026-04-04T13:56:56Z</time></trkpt><trkpt lat="43.04285483723067" lon="12.261847970345439"><ele>212.0</ele><time>2026-04-04T13:57:01Z</time></trkpt><trkpt lat="43.04280667490819" lon="12.261906285473808"><ele>212.0</ele><time>2026-04-04T13:57:07Z</time></trkpt><trkpt lat="43.0428497409589" lon="12.261831695454962"><ele>212.0</ele><time>2026-04-04T13:57:37Z</time></trkpt><trkpt lat="43.04278231349641" lon="12.261836928869776"><ele>212.00000000000003</ele><time>2026-04-04T13:57:42.001Z</time></trkpt><trkpt lat="43.04284798631201" lon="12.261830662510066"><ele>212.0</ele><time>2026-04-04T13:57:59.001Z</time></trkpt><trkpt lat="43.04301357595626" lon="12.26189391215742"><ele>212.00000000000003</ele><time>2026-04-04T14:02:09.001Z</time></trkpt><trkpt lat="43.04308588524007" lon="12.261964871955001"><ele>212.0</ele><time>2026-04-04T14:02:11.001Z</time></trkpt><trkpt lat="43.04314488473535" lon="12.26202037818505"><ele>212.0</ele><time>2026-04-04T14:03:35.001Z</time></trkpt><trkpt lat="43.04323259330685" lon="12.262099251578002"><ele>212.0</ele><time>2026-04-04T14:04:24.001Z</time></trkpt><trkpt lat="43.04328091622375" lon="12.26216323693087"><ele>212.00000000000003</ele><time>2026-04-04T14:04:25.001Z</time></trkpt><trkpt lat="43.043341679713144" lon="12.262229202704148"><ele>212.0</ele><time>2026-04-04T14:04:26.001Z</time></trkpt><trkpt lat="43.04340858679068" lon="12.262307305142203"><ele>211.8</ele><time>2026-04-04T14:04:27.001Z</time></trkpt><trkpt lat="43.04347773458654" lon="12.262377666405325"><ele>211.6</ele><time>2026-04-04T14:04:28.001Z</time></trkpt><trkpt lat="43.04356139828424" lon="12.262439793629435"><ele>211.4</ele><time>2026-04-04T14:04:29.001Z</time></trkpt><trkpt lat="43.043663863377404" lon="12.262490568341361"><ele>211.20000000000002</ele><time>2026-04-04T14:04:30.001Z</time></trkpt><trkpt lat="43.0437642968171" lon="12.262521308053557"><ele>211.0</ele><time>2026-04-04T14:04:31.001Z</time></trkpt><trkpt lat="43.04386675056859" lon="12.262557311867539"><ele>211.0</ele><time>2026-04-04T14:04:32.001Z</time></trkpt><trkpt lat="43.043952238441484" lon="12.262604646523776"><ele>211.0</ele><time>2026-04-04T14:04:33.001Z</time></trkpt><trkpt lat="43.04401917512109" lon="12.262676437104945"><ele>211.0</ele><time>2026-04-04T14:04:34.001Z</time></trkpt><trkpt lat="43.044086358489764" lon="12.26275899946281"><ele>211.0</ele><time>2026-04-04T14:04:35.001Z</time></trkpt><trkpt lat="43.04415432555638" lon="12.262872774836424"><ele>211.0</ele><time>2026-04-04T14:04:36.001Z</time></trkpt><trkpt lat="43.044233784889876" lon="12.263009844454233"><ele>211.0</ele><time>2026-04-04T14:04:37.001Z</time></trkpt><trkpt lat="43.044299201208666" lon="12.263138118082486"><ele>211.0</ele><time>2026-04-04T14:04:38.001Z</time></trkpt><trkpt lat="43.0443657944446" lon="12.263207802347612"><ele>211.0</ele><time>2026-04-04T14:04:39.001Z</time></trkpt><trkpt lat="43.04441942345277" lon="12.263260871057934"><ele>211.0</ele><time>2026-04-04T14:04:40.001Z</time></trkpt><trkpt lat="43.044492955098846" lon="12.263375068813165"><ele>211.0</ele><time>2026-04-04T14:04:42.001Z</time></trkpt><trkpt lat="43.044567570584896" lon="12.263491644375252"><ele>210.99999999999997</ele><time>2026-04-04T14:04:44.001Z</time></trkpt><trkpt lat="43.0445941875564" lon="12.263577515191963"><ele>211.0</ele><time>2026-04-04T14:04:45.001Z</time></trkpt><trkpt lat="43.04460154135516" lon="12.263663866185222"><ele>211.0</ele><time>2026-04-04T14:04:46.001Z</time></trkpt><trkpt lat="43.04460313393956" lon="12.26375685665216"><ele>211.0</ele><time>2026-04-04T14:04:47.001Z</time></trkpt><trkpt lat="43.04456969287501" lon="12.263894348772952"><ele>210.99999999999997</ele><time>2026-04-04T14:04:49.001Z</time></trkpt><trkpt lat="43.044556056907716" lon="12.263990469583442"><ele>211.0</ele><time>2026-04-04T14:04:51.001Z</time></trkpt><trkpt lat="43.04451299866027" lon="12.264139069943466"><ele>210.83333333333331</ele><time>2026-04-04T14:04:53.001Z</time></trkpt><trkpt lat="43.044558801075574" lon="12.264233482061977"><ele>210.66666666666666</ele><time>2026-04-04T14:04:56.001Z</time></trkpt><trkpt lat="43.044630428113834" lon="12.264233803329676"><ele>210.5</ele><time>2026-04-04T14:04:58Z</time></trkpt><trkpt lat="43.04471810725825" lon="12.264268751786082"><ele>210.33333333333331</ele><time>2026-04-04T14:05:11Z</time></trkpt><trkpt lat="43.04475476124326" lon="12.26434569978289"><ele>210.16666666666666</ele><time>2026-04-04T14:05:12Z</time></trkpt><trkpt lat="43.044811027381016" lon="12.264508408993727"><ele>210.0</ele><time>2026-04-04T14:05:14Z</time></trkpt><trkpt lat="43.04485791469638" lon="12.264593445716494"><ele>210.0</ele><time>2026-04-04T14:05:15Z</time></trkpt><trkpt lat="43.044908475499355" lon="12.264687876216765"><ele>210.0</ele><time>2026-04-04T14:05:16Z</time></trkpt><trkpt lat="43.044943968390655" lon="12.26477235338853"><ele>210.0</ele><time>2026-04-04T14:05:17Z</time></trkpt><trkpt lat="43.04499683300438" lon="12.264904344744322"><ele>210.0</ele><time>2026-04-04T14:05:19Z</time></trkpt><trkpt lat="43.04504707682423" lon="12.265012475857214"><ele>210.0</ele><time>2026-04-04T14:05:21Z</time></trkpt><trkpt lat="43.04508630469163" lon="12.265103179743333"><ele>210.0</ele><time>2026-04-04T14:05:22Z</time></trkpt><trkpt lat="43.045130393482275" lon="12.265201595087644"><ele>210.0</ele><time>2026-04-04T14:05:23Z</time></trkpt><trkpt lat="43.045170271593385" lon="12.265289875238254"><ele>210.0</ele><time>2026-04-04T14:05:24Z</time></trkpt><trkpt lat="43.045207342153724" lon="12.265363755311324"><ele>210.0</ele><time>2026-04-04T14:05:25Z</time></trkpt><trkpt lat="43.04523765353272" lon="12.265443113142174"><ele>210.0</ele><time>2026-04-04T14:05:26Z</time></trkpt><trkpt lat="43.045287012739564" lon="12.26552418283225"><ele>210.0</ele><time>2026-04-04T14:05:28Z</time></trkpt><trkpt lat="43.04536098937478" lon="12.265494676463481"><ele>210.0</ele><time>2026-04-04T14:05:30Z</time></trkpt><trkpt lat="43.045438358549156" lon="12.265395605367432"><ele>210.0</ele><time>2026-04-04T14:05:32Z</time></trkpt><trkpt lat="43.045502741360394" lon="12.265342933302035"><ele>210.0</ele><time>2026-04-04T14:05:33Z</time></trkpt><trkpt lat="43.045573980873684" lon="12.265307024578346"><ele>210.0</ele><time>2026-04-04T14:05:34Z</time></trkpt><trkpt lat="43.045648778667534" lon="12.265275155193818"><ele>210.0</ele><time>2026-04-04T14:05:35Z</time></trkpt><trkpt lat="43.04572110083643" lon="12.26525237664554"><ele>210.0</ele><time>2026-04-04T14:05:36Z</time></trkpt><trkpt lat="43.04579274262199" lon="12.265227455692125"><ele>210.0</ele><time>2026-04-04T14:05:37Z</time></trkpt><trkpt lat="43.04586623330212" lon="12.265199803136467"><ele>210.0</ele><time>2026-04-04T14:05:38Z</time></trkpt><trkpt lat="43.04594851346329" lon="12.265168179993564"><ele>210.0</ele><time>2026-04-04T14:05:39Z</time></trkpt><trkpt lat="43.04603345071905" lon="12.26514177231349"><ele>210.0</ele><time>2026-04-04T14:05:40Z</time></trkpt><trkpt lat="43.04611368573993" lon="12.265117848963046"><ele>210.0</ele><time>2026-04-04T14:05:41Z</time></trkpt><trkpt lat="43.046189717450986" lon="12.265099910714122"><ele>210.0</ele><time>2026-04-04T14:05:42Z</time></trkpt><trkpt lat="43.04626748049822" lon="12.265085799772473"><ele>210.0</ele><time>2026-04-04T14:05:43Z</time></trkpt><trkpt lat="43.04633233648871" lon="12.265086486253818"><ele>210.0</ele><time>2026-04-04T14:05:44Z</time></trkpt><trkpt lat="43.04640902019049" lon="12.265089563352852"><ele>210.0</ele><time>2026-04-04T14:05:45Z</time></trkpt><trkpt lat="43.046485577310264" lon="12.26511308192711"><ele>210.0</ele><time>2026-04-04T14:05:46Z</time></trkpt><trkpt lat="43.04654878387073" lon="12.265128161033125"><ele>210.0</ele><time>2026-04-04T14:05:47Z</time></trkpt><trkpt lat="43.046616040140634" lon="12.265145140260893"><ele>210.0</ele><time>2026-04-04T14:05:48Z</time></trkpt><trkpt lat="43.04672005052969" lon="12.265185564595111"><ele>210.0</ele><time>2026-04-04T14:05:50Z</time></trkpt><trkpt lat="43.046795365575555" lon="12.26520201796634"><ele>209.66666666666666</ele><time>2026-04-04T14:05:51Z</time></trkpt><trkpt lat="43.04686583799135" lon="12.265217783217668"><ele>209.33333333333331</ele><time>2026-04-04T14:05:52Z</time></trkpt><trkpt lat="43.04694612140235" lon="12.265237446938297"><ele>209.0</ele><time>2026-04-04T14:05:54Z</time></trkpt><trkpt lat="43.047045009506405" lon="12.265235809929683"><ele>208.66666666666666</ele><time>2026-04-04T14:05:56Z</time></trkpt><trkpt lat="43.047111854709215" lon="12.265235550486892"><ele>208.33333333333331</ele><time>2026-04-04T14:05:57Z</time></trkpt><trkpt lat="43.047181319047084" lon="12.26523593163597"><ele>208.0</ele><time>2026-04-04T14:05:58Z</time></trkpt><trkpt lat="43.04725067884662" lon="12.2652379560239"><ele>207.99999999999997</ele><time>2026-04-04T14:05:59Z</time></trkpt><trkpt lat="43.04732528468398" lon="12.265240703834367"><ele>208.0</ele><time>2026-04-04T14:06:00Z</time></trkpt><trkpt lat="43.047402970480654" lon="12.265241047591912"><ele>208.0</ele><time>2026-04-04T14:06:01Z</time></trkpt><trkpt lat="43.04747706272771" lon="12.265237083474664"><ele>208.0</ele><time>2026-04-04T14:06:02Z</time></trkpt><trkpt lat="43.047566907773714" lon="12.265227435158284"><ele>207.99999999999997</ele><time>2026-04-04T14:06:03Z</time></trkpt><trkpt lat="43.047667395097626" lon="12.265213015159793"><ele>208.0</ele><time>2026-04-04T14:06:04Z</time></trkpt><trkpt lat="43.047767695349826" lon="12.26519422773105"><ele>208.0</ele><time>2026-04-04T14:06:05Z</time></trkpt><trkpt lat="43.047868333290126" lon="12.265155254161687"><ele>208.0</ele><time>2026-04-04T14:06:06Z</time></trkpt><trkpt lat="43.047972560039426" lon="12.265078647911063"><ele>208.0</ele><time>2026-04-04T14:06:07Z</time></trkpt><trkpt lat="43.04807525294263" lon="12.26498810026428"><ele>208.0</ele><time>2026-04-04T14:06:08Z</time></trkpt><trkpt lat="43.04817827446776" lon="12.264906815351678"><ele>208.0</ele><time>2026-04-04T14:06:09Z</time></trkpt><trkpt lat="43.04827717964732" lon="12.264850695006684"><ele>208.0</ele><time>2026-04-04T14:06:10Z</time></trkpt><trkpt lat="43.0483914844145" lon="12.264800691353033"><ele>208.0</ele><time>2026-04-04T14:06:11Z</time></trkpt><trkpt lat="43.04850249930136" lon="12.26477241969935"><ele>208.0</ele><time>2026-04-04T14:06:12Z</time></trkpt><trkpt lat="43.04860095272811" lon="12.264768072423765"><ele>208.0</ele><time>2026-04-04T14:06:13Z</time></trkpt><trkpt lat="43.04868508050533" lon="12.264780445383348"><ele>208.33333333333331</ele><time>2026-04-04T14:06:14Z</time></trkpt><trkpt lat="43.048764459107396" lon="12.264789526550993"><ele>208.66666666666666</ele><time>2026-04-04T14:06:15Z</time></trkpt><trkpt lat="43.04883564911533" lon="12.26478666809812"><ele>209.0</ele><time>2026-04-04T14:06:16Z</time></trkpt><trkpt lat="43.04891094894427" lon="12.2647649497887"><ele>209.33333333333331</ele><time>2026-04-04T14:06:17Z</time></trkpt><trkpt lat="43.04898358954909" lon="12.264733810386977"><ele>209.66666666666666</ele><time>2026-04-04T14:06:18Z</time></trkpt><trkpt lat="43.049048437103174" lon="12.264700939623786"><ele>210.0</ele><time>2026-04-04T14:06:19Z</time></trkpt><trkpt lat="43.049127196398636" lon="12.264650617641479"><ele>210.2</ele><time>2026-04-04T14:06:20Z</time></trkpt><trkpt lat="43.04919041094569" lon="12.264609538746225"><ele>210.4</ele><time>2026-04-04T14:06:21Z</time></trkpt><trkpt lat="43.049293847068" lon="12.264546211401141"><ele>210.60000000000002</ele><time>2026-04-04T14:06:23Z</time></trkpt><trkpt lat="43.049405078728604" lon="12.264494965103639"><ele>210.8</ele><time>2026-04-04T14:06:25Z</time></trkpt><trkpt lat="43.049527193060044" lon="12.264455471356527"><ele>211.0</ele><time>2026-04-04T14:06:27Z</time></trkpt><trkpt lat="43.04959796420985" lon="12.2644419262637"><ele>210.99999999999997</ele><time>2026-04-04T14:06:28Z</time></trkpt><trkpt lat="43.04966754225256" lon="12.264429867825976"><ele>211.0</ele><time>2026-04-04T14:06:29Z</time></trkpt><trkpt lat="43.04974093332493" lon="12.264431327143802"><ele>211.0</ele><time>2026-04-04T14:06:30Z</time></trkpt><trkpt lat="43.0498073656764" lon="12.264436296573768"><ele>211.0</ele><time>2026-04-04T14:06:31Z</time></trkpt><trkpt lat="43.04987435707593" lon="12.26444664065052"><ele>210.99999999999997</ele><time>2026-04-04T14:06:32Z</time></trkpt><trkpt lat="43.04998629497041" lon="12.264453879166423"><ele>211.0</ele><time>2026-04-04T14:06:34Z</time></trkpt><trkpt lat="43.050051975685996" lon="12.264456511714675"><ele>210.8</ele><time>2026-04-04T14:06:35Z</time></trkpt><trkpt lat="43.05013233425429" lon="12.264462410647106"><ele>210.60000000000002</ele><time>2026-04-04T14:06:36Z</time></trkpt><trkpt lat="43.05022632395259" lon="12.26446563571248"><ele>210.4</ele><time>2026-04-04T14:06:37Z</time></trkpt><trkpt lat="43.0503252015017" lon="12.26447193056604"><ele>210.2</ele><time>2026-04-04T14:06:38Z</time></trkpt><trkpt lat="43.050416706851244" lon="12.26447932374487"><ele>210.0</ele><time>2026-04-04T14:06:39Z</time></trkpt><trkpt lat="43.050528918625524" lon="12.264492294891317"><ele>210.0</ele><time>2026-04-04T14:06:40Z</time></trkpt><trkpt lat="43.05064803147109" lon="12.264523390264811"><ele>210.0</ele><time>2026-04-04T14:06:41Z</time></trkpt><trkpt lat="43.05075962041262" lon="12.264584367973324"><ele>210.0</ele><time>2026-04-04T14:06:42Z</time></trkpt><trkpt lat="43.050869483275825" lon="12.264680038781428"><ele>210.0</ele><time>2026-04-04T14:06:43Z</time></trkpt><trkpt lat="43.050975528725395" lon="12.264802128692025"><ele>210.5</ele><time>2026-04-04T14:06:44Z</time></trkpt><trkpt lat="43.05107615645135" lon="12.26491532426281"><ele>211.0</ele><time>2026-04-04T14:06:45Z</time></trkpt><trkpt lat="43.051175596860816" lon="12.265007008702923"><ele>211.5</ele><time>2026-04-04T14:06:46Z</time></trkpt><trkpt lat="43.05127562109599" lon="12.265103040076049"><ele>212.0</ele><time>2026-04-04T14:06:47Z</time></trkpt><trkpt lat="43.05136513181306" lon="12.265200817412097"><ele>212.0</ele><time>2026-04-04T14:06:48Z</time></trkpt><trkpt lat="43.051449935533846" lon="12.265301353913266"><ele>212.0</ele><time>2026-04-04T14:06:49Z</time></trkpt><trkpt lat="43.05150841716274" lon="12.265386879579214"><ele>212.0</ele><time>2026-04-04T14:06:50Z</time></trkpt><trkpt lat="43.051552190353675" lon="12.265486472991773"><ele>212.0</ele><time>2026-04-04T14:06:51Z</time></trkpt><trkpt lat="43.05158328146596" lon="12.265623009136098"><ele>212.0</ele><time>2026-04-04T14:06:52Z</time></trkpt><trkpt lat="43.0516122434467" lon="12.265772637189642"><ele>211.75</ele><time>2026-04-04T14:06:53Z</time></trkpt><trkpt lat="43.051651635173194" lon="12.265942740882817"><ele>211.5</ele><time>2026-04-04T14:06:54Z</time></trkpt><trkpt lat="43.051696097541445" lon="12.266133065211003"><ele>211.25</ele><time>2026-04-04T14:06:55Z</time></trkpt><trkpt lat="43.05174202928632" lon="12.266340221270937"><ele>211.0</ele><time>2026-04-04T14:06:56Z</time></trkpt><trkpt lat="43.051785533149086" lon="12.266538120490136"><ele>210.66666666666666</ele><time>2026-04-04T14:06:57Z</time></trkpt><trkpt lat="43.05183504640234" lon="12.266738744402375"><ele>210.33333333333331</ele><time>2026-04-04T14:06:58Z</time></trkpt><trkpt lat="43.05188388333313" lon="12.26694040205956"><ele>210.0</ele><time>2026-04-04T14:06:59Z</time></trkpt><trkpt lat="43.05192497645399" lon="12.267122906979258"><ele>209.6</ele><time>2026-04-04T14:07:00Z</time></trkpt><trkpt lat="43.05196399287095" lon="12.26729346545735"><ele>209.2</ele><time>2026-04-04T14:07:01Z</time></trkpt><trkpt lat="43.05199475586994" lon="12.267426656530013"><ele>208.8</ele><time>2026-04-04T14:07:02Z</time></trkpt><trkpt lat="43.05202163916917" lon="12.267526754854599"><ele>208.4</ele><time>2026-04-04T14:07:03Z</time></trkpt><trkpt lat="43.05211422974942" lon="12.267636546279343"><ele>208.0</ele><time>2026-04-04T14:07:05Z</time></trkpt><trkpt lat="43.052186492847255" lon="12.267662021423583"><ele>208.0</ele><time>2026-04-04T14:07:06Z</time></trkpt><trkpt lat="43.05227312999055" lon="12.26765384673161"><ele>208.0</ele><time>2026-04-04T14:07:07Z</time></trkpt><trkpt lat="43.052352992086945" lon="12.267613891565428"><ele>208.0</ele><time>2026-04-04T14:07:08Z</time></trkpt><trkpt lat="43.052457258985314" lon="12.267555545565838"><ele>208.0</ele><time>2026-04-04T14:07:09Z</time></trkpt><trkpt lat="43.05257572620458" lon="12.267503335201711"><ele>208.0</ele><time>2026-04-04T14:07:10Z</time></trkpt><trkpt lat="43.052728899362656" lon="12.267433497795796"><ele>208.25</ele><time>2026-04-04T14:07:11Z</time></trkpt><trkpt lat="43.052862741120904" lon="12.267375412397879"><ele>208.5</ele><time>2026-04-04T14:07:12Z</time></trkpt><trkpt lat="43.052987303341204" lon="12.267311892532996"><ele>208.75</ele><time>2026-04-04T14:07:13Z</time></trkpt><trkpt lat="43.05311893860881" lon="12.267247279009716"><ele>209.0</ele><time>2026-04-04T14:07:14Z</time></trkpt><trkpt lat="43.053249065046394" lon="12.26717154763427"><ele>209.2</ele><time>2026-04-04T14:07:15Z</time></trkpt><trkpt lat="43.05337560755707" lon="12.267068347218219"><ele>209.39999999999998</ele><time>2026-04-04T14:07:16Z</time></trkpt><trkpt lat="43.05346715536004" lon="12.266985246955295"><ele>209.6</ele><time>2026-04-04T14:07:17Z</time></trkpt><trkpt lat="43.05354811503714" lon="12.26692681241541"><ele>209.8</ele><time>2026-04-04T14:07:18Z</time></trkpt><trkpt lat="43.0536257413885" lon="12.266907940661367"><ele>210.0</ele><time>2026-04-04T14:07:19Z</time></trkpt><trkpt lat="43.05371080480423" lon="12.266934573131676"><ele>210.0</ele><time>2026-04-04T14:07:20Z</time></trkpt><trkpt lat="43.053821076305205" lon="12.266990420592423"><ele>210.0</ele><time>2026-04-04T14:07:21Z</time></trkpt><trkpt lat="43.05395498812309" lon="12.267057188300916"><ele>210.0</ele><time>2026-04-04T14:07:22Z</time></trkpt><trkpt lat="43.05409920602462" lon="12.267130196997385"><ele>210.0</ele><time>2026-04-04T14:07:23Z</time></trkpt><trkpt lat="43.05423709300006" lon="12.267198009958378"><ele>210.0</ele><time>2026-04-04T14:07:24Z</time></trkpt><trkpt lat="43.054334524288635" lon="12.26723208532983"><ele>210.0</ele><time>2026-04-04T14:07:25Z</time></trkpt><trkpt lat="43.05439799072032" lon="12.267263359372192"><ele>210.0</ele><time>2026-04-04T14:07:26Z</time></trkpt><trkpt lat="43.05447223230866" lon="12.267315521053606"><ele>210.0</ele><time>2026-04-04T14:07:28Z</time></trkpt><trkpt lat="43.054445816947236" lon="12.267208066768625"><ele>210.0</ele><time>2026-04-04T14:07:36Z</time></trkpt><trkpt lat="43.05436763920622" lon="12.267202319449899"><ele>210.0</ele><time>2026-04-04T14:07:37Z</time></trkpt><trkpt lat="43.05429855071894" lon="12.267257270964244"><ele>209.75</ele><time>2026-04-04T14:07:38Z</time></trkpt><trkpt lat="43.05425009589546" lon="12.267333547682023"><ele>209.5</ele><time>2026-04-04T14:07:39Z</time></trkpt><trkpt lat="43.05419207831341" lon="12.267446734543205"><ele>209.25</ele><time>2026-04-04T14:07:40Z</time></trkpt><trkpt lat="43.05411494683371" lon="12.267607333989838"><ele>209.0</ele><time>2026-04-04T14:07:41Z</time></trkpt><trkpt lat="43.05403448094784" lon="12.267769380115764"><ele>209.0</ele><time>2026-04-04T14:07:42Z</time></trkpt><trkpt lat="43.053940896648946" lon="12.267944140177883"><ele>209.0</ele><time>2026-04-04T14:07:43Z</time></trkpt><trkpt lat="43.05384557941887" lon="12.268122449061785"><ele>209.0</ele><time>2026-04-04T14:07:44Z</time></trkpt><trkpt lat="43.053754229717576" lon="12.268291145978674"><ele>209.0</ele><time>2026-04-04T14:07:45Z</time></trkpt><trkpt lat="43.0536719172307" lon="12.26845228617488"><ele>209.0</ele><time>2026-04-04T14:07:46Z</time></trkpt><trkpt lat="43.05358869409483" lon="12.26860945430779"><ele>209.0</ele><time>2026-04-04T14:07:47Z</time></trkpt><trkpt lat="43.05350638217729" lon="12.268763649943468"><ele>209.0</ele><time>2026-04-04T14:07:48Z</time></trkpt><trkpt lat="43.05343522807643" lon="12.268906433204348"><ele>208.75</ele><time>2026-04-04T14:07:49Z</time></trkpt><trkpt lat="43.05336909437357" lon="12.269036038998108"><ele>208.5</ele><time>2026-04-04T14:07:50Z</time></trkpt><trkpt lat="43.05329306502475" lon="12.26917709684943"><ele>208.25</ele><time>2026-04-04T14:07:51Z</time></trkpt><trkpt lat="43.053211344785176" lon="12.26933085777421"><ele>208.0</ele><time>2026-04-04T14:07:52Z</time></trkpt><trkpt lat="43.05312525557724" lon="12.2694792483008"><ele>208.5</ele><time>2026-04-04T14:07:53Z</time></trkpt><trkpt lat="43.05303991085885" lon="12.269642228289596"><ele>209.0</ele><time>2026-04-04T14:07:54Z</time></trkpt><trkpt lat="43.052959146114574" lon="12.269815763829268"><ele>209.5</ele><time>2026-04-04T14:07:55Z</time></trkpt><trkpt lat="43.05288245098117" lon="12.26997283012965"><ele>210.0</ele><time>2026-04-04T14:07:56Z</time></trkpt><trkpt lat="43.052804261847164" lon="12.270122703689799"><ele>210.0</ele><time>2026-04-04T14:07:57Z</time></trkpt><trkpt lat="43.05272475442584" lon="12.270283281755633"><ele>210.0</ele><time>2026-04-04T14:07:58Z</time></trkpt><trkpt lat="43.05263832736963" lon="12.270446680244968"><ele>210.0</ele><time>2026-04-04T14:07:59Z</time></trkpt><trkpt lat="43.05255232558893" lon="12.270602894396529"><ele>210.0</ele><time>2026-04-04T14:08:00Z</time></trkpt><trkpt lat="43.05247985613361" lon="12.270741073088782"><ele>209.5</ele><time>2026-04-04T14:08:01Z</time></trkpt><trkpt lat="43.05241108410811" lon="12.270871990158357"><ele>209.0</ele><time>2026-04-04T14:08:02Z</time></trkpt><trkpt lat="43.05233990563349" lon="12.271001151708623"><ele>208.5</ele><time>2026-04-04T14:08:03Z</time></trkpt><trkpt lat="43.05225821370237" lon="12.271153441140887"><ele>208.0</ele><time>2026-04-04T14:08:04Z</time></trkpt><trkpt lat="43.052165351763286" lon="12.271331541100134"><ele>208.0</ele><time>2026-04-04T14:08:05Z</time></trkpt><trkpt lat="43.052075153297274" lon="12.271509106069638"><ele>208.0</ele><time>2026-04-04T14:08:06Z</time></trkpt><trkpt lat="43.051984807858815" lon="12.271684096196543"><ele>208.0</ele><time>2026-04-04T14:08:07Z</time></trkpt><trkpt lat="43.05189170170368" lon="12.271850892066595"><ele>208.0</ele><time>2026-04-04T14:08:08Z</time></trkpt><trkpt lat="43.05180251233582" lon="12.272006062680207"><ele>208.0</ele><time>2026-04-04T14:08:09Z</time></trkpt><trkpt lat="43.05172772977299" lon="12.272139244019856"><ele>208.0</ele><time>2026-04-04T14:08:10Z</time></trkpt><trkpt lat="43.05164966405343" lon="12.272288504351062"><ele>208.0</ele><time>2026-04-04T14:08:11Z</time></trkpt><trkpt lat="43.0515768484577" lon="12.272443298450021"><ele>208.0</ele><time>2026-04-04T14:08:12Z</time></trkpt><trkpt lat="43.05149621686206" lon="12.272600391429881"><ele>208.0</ele><time>2026-04-04T14:08:13Z</time></trkpt><trkpt lat="43.05141413912206" lon="12.272751555825081"><ele>208.0</ele><time>2026-04-04T14:08:14Z</time></trkpt><trkpt lat="43.05133050523333" lon="12.272908300652077"><ele>208.0</ele><time>2026-04-04T14:08:15Z</time></trkpt><trkpt lat="43.05125492925599" lon="12.273049690014364"><ele>208.25</ele><time>2026-04-04T14:08:16Z</time></trkpt><trkpt lat="43.05118234932824" lon="12.273193320506481"><ele>208.5</ele><time>2026-04-04T14:08:17Z</time></trkpt><trkpt lat="43.05109563979907" lon="12.273354972634989"><ele>208.75</ele><time>2026-04-04T14:08:18Z</time></trkpt><trkpt lat="43.051008159784125" lon="12.27351805716438"><ele>209.0</ele><time>2026-04-04T14:08:19Z</time></trkpt><trkpt lat="43.050916084226884" lon="12.27369461367375"><ele>209.0</ele><time>2026-04-04T14:08:20Z</time></trkpt><trkpt lat="43.050821310006164" lon="12.273878226329627"><ele>209.0</ele><time>2026-04-04T14:08:21Z</time></trkpt><trkpt lat="43.05073641688278" lon="12.274041148207404"><ele>209.0</ele><time>2026-04-04T14:08:22Z</time></trkpt><trkpt lat="43.050667612539115" lon="12.274183404532444"><ele>209.0</ele><time>2026-04-04T14:08:23Z</time></trkpt><trkpt lat="43.05060503785513" lon="12.274312061178565"><ele>209.0</ele><time>2026-04-04T14:08:24Z</time></trkpt><trkpt lat="43.05054582853918" lon="12.274432914439403"><ele>209.0</ele><time>2026-04-04T14:08:25Z</time></trkpt><trkpt lat="43.05048716240941" lon="12.27454973395458"><ele>209.0</ele><time>2026-04-04T14:08:26Z</time></trkpt><trkpt lat="43.05040121971888" lon="12.274701693807907"><ele>209.0</ele><time>2026-04-04T14:08:27Z</time></trkpt><trkpt lat="43.05031810189854" lon="12.27484709533638"><ele>209.0</ele><time>2026-04-04T14:08:28Z</time></trkpt><trkpt lat="43.050230048880294" lon="12.275004486813259"><ele>209.0</ele><time>2026-04-04T14:08:29Z</time></trkpt><trkpt lat="43.0501464544018" lon="12.275157846716306"><ele>209.0</ele><time>2026-04-04T14:08:30Z</time></trkpt><trkpt lat="43.050070269899095" lon="12.27530077772181"><ele>209.0</ele><time>2026-04-04T14:08:31Z</time></trkpt><trkpt lat="43.049994016202724" lon="12.275437289605001"><ele>209.2</ele><time>2026-04-04T14:08:32Z</time></trkpt><trkpt lat="43.04992641583213" lon="12.275557523587436"><ele>209.39999999999998</ele><time>2026-04-04T14:08:33Z</time></trkpt><trkpt lat="43.049863866284944" lon="12.275678135826572"><ele>209.6</ele><time>2026-04-04T14:08:34Z</time></trkpt><trkpt lat="43.04980119377958" lon="12.275801093994666"><ele>209.8</ele><time>2026-04-04T14:08:35Z</time></trkpt><trkpt lat="43.049742891256514" lon="12.275910566648243"><ele>210.0</ele><time>2026-04-04T14:08:36Z</time></trkpt><trkpt lat="43.04968837290815" lon="12.276007965659687"><ele>210.0</ele><time>2026-04-04T14:08:37Z</time></trkpt><trkpt lat="43.04963734657352" lon="12.27609586275491"><ele>210.0</ele><time>2026-04-04T14:08:38Z</time></trkpt><trkpt lat="43.049592993956935" lon="12.276174251977462"><ele>210.0</ele><time>2026-04-04T14:08:39Z</time></trkpt><trkpt lat="43.0495609143599" lon="12.276249702356473"><ele>210.0</ele><time>2026-04-04T14:08:40Z</time></trkpt><trkpt lat="43.049582710077736" lon="12.276399551909163"><ele>210.0</ele><time>2026-04-04T14:08:42Z</time></trkpt><trkpt lat="43.04964118070403" lon="12.276451688223151"><ele>210.0</ele><time>2026-04-04T14:08:43Z</time></trkpt><trkpt lat="43.04971198090131" lon="12.276509893698334"><ele>210.25</ele><time>2026-04-04T14:08:44Z</time></trkpt><trkpt lat="43.04981425583892" lon="12.27658731590361"><ele>210.5</ele><time>2026-04-04T14:08:45Z</time></trkpt><trkpt lat="43.04992645870109" lon="12.276689240833369"><ele>210.75</ele><time>2026-04-04T14:08:46Z</time></trkpt><trkpt lat="43.05003107162523" lon="12.276779112412408"><ele>211.0</ele><time>2026-04-04T14:08:47Z</time></trkpt><trkpt lat="43.050141751594" lon="12.276880024864946"><ele>210.25</ele><time>2026-04-04T14:08:48Z</time></trkpt><trkpt lat="43.05025489789017" lon="12.276986442008361"><ele>209.5</ele><time>2026-04-04T14:08:49Z</time></trkpt><trkpt lat="43.0503641461822" lon="12.277083841926192"><ele>208.75</ele><time>2026-04-04T14:08:50Z</time></trkpt><trkpt lat="43.050463405542004" lon="12.277169135604062"><ele>208.0</ele><time>2026-04-04T14:08:51Z</time></trkpt><trkpt lat="43.05054368740184" lon="12.277240510372932"><ele>208.0</ele><time>2026-04-04T14:08:52Z</time></trkpt><trkpt lat="43.05062174129517" lon="12.277314858522756"><ele>208.0</ele><time>2026-04-04T14:08:53Z</time></trkpt><trkpt lat="43.05071342144754" lon="12.27740308521375"><ele>208.0</ele><time>2026-04-04T14:08:54Z</time></trkpt><trkpt lat="43.050807372521895" lon="12.2774937961275"><ele>208.0</ele><time>2026-04-04T14:08:55Z</time></trkpt><trkpt lat="43.05089730649533" lon="12.277585929322344"><ele>208.0</ele><time>2026-04-04T14:08:56Z</time></trkpt><trkpt lat="43.05098627243475" lon="12.27767350845849"><ele>208.60000000000002</ele><time>2026-04-04T14:08:57Z</time></trkpt><trkpt lat="43.05107752276578" lon="12.27776602377935"><ele>209.20000000000002</ele><time>2026-04-04T14:08:58Z</time></trkpt><trkpt lat="43.051161801553434" lon="12.277850124661368"><ele>209.8</ele><time>2026-04-04T14:08:59Z</time></trkpt><trkpt lat="43.05124472485622" lon="12.277929809458433"><ele>210.4</ele><time>2026-04-04T14:09:00Z</time></trkpt><trkpt lat="43.051324892779" lon="12.278010574147103"><ele>211.0</ele><time>2026-04-04T14:09:01Z</time></trkpt><trkpt lat="43.051400442617535" lon="12.278092187400686"><ele>210.83333333333331</ele><time>2026-04-04T14:09:02Z</time></trkpt><trkpt lat="43.051473478692486" lon="12.278161752882758"><ele>210.66666666666666</ele><time>2026-04-04T14:09:03Z</time></trkpt><trkpt lat="43.051543054742574" lon="12.278222843461489"><ele>210.5</ele><time>2026-04-04T14:09:04Z</time></trkpt><trkpt lat="43.0516036123052" lon="12.27829464760425"><ele>210.33333333333331</ele><time>2026-04-04T14:09:05Z</time></trkpt><trkpt lat="43.051661980747255" lon="12.278353618191485"><ele>210.16666666666666</ele><time>2026-04-04T14:09:05.999Z</time></trkpt><trkpt lat="43.051721317362855" lon="12.278395575171729"><ele>210.0</ele><time>2026-04-04T14:09:06.999Z</time></trkpt><trkpt lat="43.051811050976205" lon="12.278491257242544"><ele>209.8</ele><time>2026-04-04T14:09:08.999Z</time></trkpt><trkpt lat="43.05182660783254" lon="12.278609538776399"><ele>209.6</ele><time>2026-04-04T14:09:10.999Z</time></trkpt><trkpt lat="43.051867115411014" lon="12.27873203033224"><ele>209.39999999999998</ele><time>2026-04-04T14:09:12.999Z</time></trkpt><trkpt lat="43.051924977064196" lon="12.278769405140022"><ele>209.2</ele><time>2026-04-04T14:09:13.999Z</time></trkpt><trkpt lat="43.052067484507745" lon="12.278784102282483"><ele>209.0</ele><time>2026-04-04T14:09:15.999Z</time></trkpt><trkpt lat="43.052163492299016" lon="12.278809019142601"><ele>209.0</ele><time>2026-04-04T14:09:16.999Z</time></trkpt><trkpt lat="43.05224311051659" lon="12.27883144860461"><ele>209.0</ele><time>2026-04-04T14:09:17.999Z</time></trkpt><trkpt lat="43.052329797214384" lon="12.278856033242048"><ele>209.0</ele><time>2026-04-04T14:09:18.999Z</time></trkpt><trkpt lat="43.05242283126539" lon="12.278877596315441"><ele>209.0</ele><time>2026-04-04T14:09:19.999Z</time></trkpt><trkpt lat="43.052521669316334" lon="12.27890116094138"><ele>209.0</ele><time>2026-04-04T14:09:20.999Z</time></trkpt><trkpt lat="43.052619858876156" lon="12.278926387609905"><ele>209.39999999999998</ele><time>2026-04-04T14:09:22Z</time></trkpt><trkpt lat="43.05272101731445" lon="12.278948177525326"><ele>209.8</ele><time>2026-04-04T14:09:23Z</time></trkpt><trkpt lat="43.05281892094058" lon="12.278973634182856"><ele>210.2</ele><time>2026-04-04T14:09:24Z</time></trkpt><trkpt lat="43.052909010485386" lon="12.278999398592655"><ele>210.60000000000002</ele><time>2026-04-04T14:09:25Z</time></trkpt><trkpt lat="43.052997598033464" lon="12.279021613044462"><ele>211.0</ele><time>2026-04-04T14:09:26Z</time></trkpt><trkpt lat="43.05308621414443" lon="12.279047531853747"><ele>210.99999999999997</ele><time>2026-04-04T14:09:27Z</time></trkpt><trkpt lat="43.0531750545211" lon="12.27907435284336"><ele>211.0</ele><time>2026-04-04T14:09:28Z</time></trkpt><trkpt lat="43.05326020429088" lon="12.27909710750233"><ele>211.0</ele><time>2026-04-04T14:09:29Z</time></trkpt><trkpt lat="43.05333705947588" lon="12.279119346157316"><ele>211.0</ele><time>2026-04-04T14:09:30Z</time></trkpt><trkpt lat="43.05341796856342" lon="12.27913849467368"><ele>210.99999999999997</ele><time>2026-04-04T14:09:31Z</time></trkpt><trkpt lat="43.05348876467596" lon="12.27914962921859"><ele>211.0</ele><time>2026-04-04T14:09:32Z</time></trkpt><trkpt lat="43.05356603560742" lon="12.279170395682845"><ele>211.16666666666666</ele><time>2026-04-04T14:09:33Z</time></trkpt><trkpt lat="43.05365877403566" lon="12.279232058884567"><ele>211.33333333333331</ele><time>2026-04-04T14:09:35Z</time></trkpt><trkpt lat="43.05367336771069" lon="12.279351834545094"><ele>211.5</ele><time>2026-04-04T14:09:37Z</time></trkpt><trkpt lat="43.05365370642995" lon="12.27943762115311"><ele>211.66666666666669</ele><time>2026-04-04T14:09:38Z</time></trkpt><trkpt lat="43.05361718888761" lon="12.279518518672214"><ele>211.83333333333334</ele><time>2026-04-04T14:09:39Z</time></trkpt><trkpt lat="43.05356949305776" lon="12.279599256898504"><ele>212.0</ele><time>2026-04-04T14:09:40Z</time></trkpt><trkpt lat="43.05353776296847" lon="12.279691005646107"><ele>212.0</ele><time>2026-04-04T14:09:41Z</time></trkpt><trkpt lat="43.05354725408023" lon="12.2798169126706"><ele>212.0</ele><time>2026-04-04T14:09:43Z</time></trkpt><trkpt lat="43.0536149577402" lon="12.279887211463356"><ele>212.0</ele><time>2026-04-04T14:09:45Z</time></trkpt><trkpt lat="43.05372041083115" lon="12.279889824372912"><ele>212.0</ele><time>2026-04-04T14:09:47Z</time></trkpt><trkpt lat="43.053838140849386" lon="12.27986382235386"><ele>212.0</ele><time>2026-04-04T14:09:49Z</time></trkpt><trkpt lat="43.05394088067864" lon="12.279851340044019"><ele>212.0</ele><time>2026-04-04T14:09:51Z</time></trkpt><trkpt lat="43.0540078974037" lon="12.279850529966874"><ele>212.0</ele><time>2026-04-04T14:09:52Z</time></trkpt><trkpt lat="43.054086179707944" lon="12.27983664574806"><ele>212.0</ele><time>2026-04-04T14:09:53Z</time></trkpt><trkpt lat="43.054174093041546" lon="12.279825898376972"><ele>212.0</ele><time>2026-04-04T14:09:54Z</time></trkpt><trkpt lat="43.05424521626806" lon="12.279809142080367"><ele>212.0</ele><time>2026-04-04T14:09:55Z</time></trkpt><trkpt lat="43.05430884138317" lon="12.279779628748196"><ele>212.0</ele><time>2026-04-04T14:09:56Z</time></trkpt><trkpt lat="43.05436016184805" lon="12.279720390667334"><ele>212.0</ele><time>2026-04-04T14:09:57Z</time></trkpt><trkpt lat="43.05440811072757" lon="12.279637496822039"><ele>211.8</ele><time>2026-04-04T14:09:58Z</time></trkpt><trkpt lat="43.05446416276877" lon="12.279572790055026"><ele>211.6</ele><time>2026-04-04T14:09:59Z</time></trkpt><trkpt lat="43.0545891011892" lon="12.279551486341358"><ele>211.4</ele><time>2026-04-04T14:10:01Z</time></trkpt><trkpt lat="43.054667680811704" lon="12.279582221890367"><ele>211.20000000000002</ele><time>2026-04-04T14:10:02Z</time></trkpt><trkpt lat="43.05474486822193" lon="12.279618471090519"><ele>211.0</ele><time>2026-04-04T14:10:03Z</time></trkpt><trkpt lat="43.054848423815756" lon="12.279657756214974"><ele>211.0</ele><time>2026-04-04T14:10:04Z</time></trkpt><trkpt lat="43.05494373188944" lon="12.279690802849032"><ele>211.0</ele><time>2026-04-04T14:10:05Z</time></trkpt><trkpt lat="43.05504371190445" lon="12.2797344704485"><ele>211.0</ele><time>2026-04-04T14:10:06Z</time></trkpt><trkpt lat="43.05515426432414" lon="12.279784607162709"><ele>211.0</ele><time>2026-04-04T14:10:07Z</time></trkpt><trkpt lat="43.055283217603595" lon="12.279821211491472"><ele>211.25</ele><time>2026-04-04T14:10:08Z</time></trkpt><trkpt lat="43.05540919754334" lon="12.279861183819058"><ele>211.5</ele><time>2026-04-04T14:10:09Z</time></trkpt><trkpt lat="43.05553627535925" lon="12.279900256783636"><ele>211.75</ele><time>2026-04-04T14:10:10Z</time></trkpt><trkpt lat="43.0556643135027" lon="12.279945675897864"><ele>212.0</ele><time>2026-04-04T14:10:11Z</time></trkpt><trkpt lat="43.05579475531355" lon="12.279996330801403"><ele>211.5</ele><time>2026-04-04T14:10:12Z</time></trkpt><trkpt lat="43.05591542666893" lon="12.2800393271353"><ele>211.0</ele><time>2026-04-04T14:10:13Z</time></trkpt><trkpt lat="43.056032026839134" lon="12.280083215765742"><ele>210.5</ele><time>2026-04-04T14:10:14Z</time></trkpt><trkpt lat="43.05615857667048" lon="12.280123660006959"><ele>210.0</ele><time>2026-04-04T14:10:15Z</time></trkpt><trkpt lat="43.05628646704778" lon="12.280171961385122"><ele>210.0</ele><time>2026-04-04T14:10:16Z</time></trkpt><trkpt lat="43.05640179833504" lon="12.280213267329632"><ele>210.0</ele><time>2026-04-04T14:10:17Z</time></trkpt><trkpt lat="43.056519265984335" lon="12.28025558501143"><ele>210.0</ele><time>2026-04-04T14:10:18Z</time></trkpt><trkpt lat="43.056640608226" lon="12.280297404029456"><ele>210.0</ele><time>2026-04-04T14:10:19Z</time></trkpt><trkpt lat="43.05676458383129" lon="12.280344553123797"><ele>210.5</ele><time>2026-04-04T14:10:20Z</time></trkpt><trkpt lat="43.05689116930949" lon="12.280389904938383"><ele>211.0</ele><time>2026-04-04T14:10:21Z</time></trkpt><trkpt lat="43.05702437843581" lon="12.280437397985727"><ele>211.5</ele><time>2026-04-04T14:10:22Z</time></trkpt><trkpt lat="43.05716077739142" lon="12.280484327637776"><ele>212.0</ele><time>2026-04-04T14:10:23Z</time></trkpt><trkpt lat="43.057296187342075" lon="12.280539335207347"><ele>212.0</ele><time>2026-04-04T14:10:24Z</time></trkpt><trkpt lat="43.05743200335857" lon="12.28058614839025"><ele>212.0</ele><time>2026-04-04T14:10:25Z</time></trkpt><trkpt lat="43.05756862184722" lon="12.280637822436534"><ele>212.0</ele><time>2026-04-04T14:10:26Z</time></trkpt><trkpt lat="43.05770306915469" lon="12.280688382337827"><ele>212.0</ele><time>2026-04-04T14:10:27Z</time></trkpt><trkpt lat="43.057829331538265" lon="12.280730690935894"><ele>212.0</ele><time>2026-04-04T14:10:28Z</time></trkpt><trkpt lat="43.05795097775131" lon="12.280784277948836"><ele>212.0</ele><time>2026-04-04T14:10:29Z</time></trkpt><trkpt lat="43.05808305779245" lon="12.28083242938417"><ele>212.0</ele><time>2026-04-04T14:10:30Z</time></trkpt><trkpt lat="43.05820710299222" lon="12.280880330660493"><ele>212.0</ele><time>2026-04-04T14:10:31Z</time></trkpt><trkpt lat="43.05832720044337" lon="12.280918984568734"><ele>212.0</ele><time>2026-04-04T14:10:32Z</time></trkpt><trkpt lat="43.05845094799107" lon="12.280965908328929"><ele>212.0</ele><time>2026-04-04T14:10:33Z</time></trkpt><trkpt lat="43.058578879060754" lon="12.281013685913875"><ele>212.0</ele><time>2026-04-04T14:10:34Z</time></trkpt><trkpt lat="43.05870584950724" lon="12.281062673922737"><ele>212.0</ele><time>2026-04-04T14:10:35Z</time></trkpt><trkpt lat="43.05881816288865" lon="12.281104092029592"><ele>212.0</ele><time>2026-04-04T14:10:36Z</time></trkpt><trkpt lat="43.05893424165225" lon="12.281143192417783"><ele>212.0</ele><time>2026-04-04T14:10:37Z</time></trkpt><trkpt lat="43.059042818466146" lon="12.281183452689296"><ele>212.0</ele><time>2026-04-04T14:10:38Z</time></trkpt><trkpt lat="43.05913100496819" lon="12.281227803058837"><ele>212.0</ele><time>2026-04-04T14:10:39Z</time></trkpt><trkpt lat="43.059207350338" lon="12.281266569943618"><ele>212.0</ele><time>2026-04-04T14:10:40Z</time></trkpt><trkpt lat="43.05929970200956" lon="12.281315008243013"><ele>212.0</ele><time>2026-04-04T14:10:42Z</time></trkpt><trkpt lat="43.05934488038339" lon="12.281443279685611"><ele>212.0</ele><time>2026-04-04T14:10:51Z</time></trkpt><trkpt lat="43.059321802168576" lon="12.281563191877977"><ele>212.0</ele><time>2026-04-04T14:10:52Z</time></trkpt><trkpt lat="43.0592669234656" lon="12.28172738238364"><ele>212.0</ele><time>2026-04-04T14:10:53Z</time></trkpt><trkpt lat="43.05921846593555" lon="12.281901795758305"><ele>212.0</ele><time>2026-04-04T14:10:54Z</time></trkpt><trkpt lat="43.05916826830242" lon="12.282114804017464"><ele>212.0</ele><time>2026-04-04T14:10:55Z</time></trkpt><trkpt lat="43.05911635165188" lon="12.28234787519426"><ele>212.0</ele><time>2026-04-04T14:10:56Z</time></trkpt><trkpt lat="43.05906446935171" lon="12.28257598047196"><ele>212.33333333333334</ele><time>2026-04-04T14:10:57Z</time></trkpt><trkpt lat="43.05900641098901" lon="12.282822856552775"><ele>212.66666666666669</ele><time>2026-04-04T14:10:58Z</time></trkpt><trkpt lat="43.05894822836285" lon="12.283071695581912"><ele>213.0</ele><time>2026-04-04T14:10:59Z</time></trkpt><trkpt lat="43.0588861261122" lon="12.283339084585373"><ele>213.0</ele><time>2026-04-04T14:11:00Z</time></trkpt><trkpt lat="43.058822318606154" lon="12.28360845737068"><ele>213.0</ele><time>2026-04-04T14:11:01Z</time></trkpt><trkpt lat="43.05876425735981" lon="12.283868991640357"><ele>213.0</ele><time>2026-04-04T14:11:02Z</time></trkpt><trkpt lat="43.05871287691515" lon="12.284115036093928"><ele>213.0</ele><time>2026-04-04T14:11:03Z</time></trkpt><trkpt lat="43.05867205878381" lon="12.284339663903399"><ele>213.0</ele><time>2026-04-04T14:11:04Z</time></trkpt><trkpt lat="43.05864154224996" lon="12.2845511600441"><ele>213.0</ele><time>2026-04-04T14:11:05Z</time></trkpt><trkpt lat="43.05860957473918" lon="12.284770032409545"><ele>213.33333333333331</ele><time>2026-04-04T14:11:06Z</time></trkpt><trkpt lat="43.058551298096" lon="12.284996517011841"><ele>213.66666666666666</ele><time>2026-04-04T14:11:07Z</time></trkpt><trkpt lat="43.05846210782682" lon="12.285231200060013"><ele>214.0</ele><time>2026-04-04T14:11:08Z</time></trkpt><trkpt lat="43.05836867854447" lon="12.285504812582834"><ele>214.0</ele><time>2026-04-04T14:11:09Z</time></trkpt><trkpt lat="43.05829384300783" lon="12.285809498025975"><ele>214.0</ele><time>2026-04-04T14:11:10Z</time></trkpt><trkpt lat="43.058234612310486" lon="12.286085642631795"><ele>214.0</ele><time>2026-04-04T14:11:11Z</time></trkpt><trkpt lat="43.058173442689" lon="12.286322314246139"><ele>214.33333333333331</ele><time>2026-04-04T14:11:11.999Z</time></trkpt><trkpt lat="43.05811511071321" lon="12.286540717198726"><ele>214.66666666666669</ele><time>2026-04-04T14:11:12.999Z</time></trkpt><trkpt lat="43.05806728873099" lon="12.28673770908464"><ele>215.0</ele><time>2026-04-04T14:11:13.999Z</time></trkpt><trkpt lat="43.05803302056624" lon="12.286916422859349"><ele>215.0</ele><time>2026-04-04T14:11:14.999Z</time></trkpt><trkpt lat="43.058027138935216" lon="12.287068735379842"><ele>215.0</ele><time>2026-04-04T14:11:15.999Z</time></trkpt><trkpt lat="43.05805309279144" lon="12.287231428606402"><ele>215.0</ele><time>2026-04-04T14:11:16.999Z</time></trkpt><trkpt lat="43.05812412148216" lon="12.287413450353403"><ele>215.0</ele><time>2026-04-04T14:11:17.999Z</time></trkpt><trkpt lat="43.05820958549672" lon="12.287605706388627"><ele>215.75</ele><time>2026-04-04T14:11:18.999Z</time></trkpt><trkpt lat="43.05828645516132" lon="12.287772184738149"><ele>216.5</ele><time>2026-04-04T14:11:19.999Z</time></trkpt><trkpt lat="43.05834562742842" lon="12.2879230570267"><ele>217.25</ele><time>2026-04-04T14:11:20.999Z</time></trkpt><trkpt lat="43.05839705669088" lon="12.288084287855146"><ele>218.0</ele><time>2026-04-04T14:11:21.999Z</time></trkpt><trkpt lat="43.05845068715252" lon="12.288226450506638"><ele>218.25</ele><time>2026-04-04T14:11:22.999Z</time></trkpt><trkpt lat="43.05852691258802" lon="12.288388781068296"><ele>218.5</ele><time>2026-04-04T14:11:23.999Z</time></trkpt><trkpt lat="43.05859061962149" lon="12.288559565088756"><ele>218.75</ele><time>2026-04-04T14:11:25Z</time></trkpt><trkpt lat="43.058653167988574" lon="12.28874368670869"><ele>219.0</ele><time>2026-04-04T14:11:26Z</time></trkpt><trkpt lat="43.058723064389234" lon="12.288925254504605"><ele>218.5</ele><time>2026-04-04T14:11:27Z</time></trkpt><trkpt lat="43.058783183497106" lon="12.289096756775942"><ele>218.0</ele><time>2026-04-04T14:11:28Z</time></trkpt><trkpt lat="43.05884796854545" lon="12.28926927353078"><ele>217.5</ele><time>2026-04-04T14:11:29Z</time></trkpt><trkpt lat="43.058916562799396" lon="12.28945289688776"><ele>217.0</ele><time>2026-04-04T14:11:30Z</time></trkpt><trkpt lat="43.05898932079381" lon="12.28965330599131"><ele>218.0</ele><time>2026-04-04T14:11:31Z</time></trkpt><trkpt lat="43.05907566908507" lon="12.289868669695865"><ele>219.0</ele><time>2026-04-04T14:11:32Z</time></trkpt><trkpt lat="43.05917877853783" lon="12.29010851209458"><ele>220.0</ele><time>2026-04-04T14:11:33Z</time></trkpt><trkpt lat="43.059287530412256" lon="12.290370957674888"><ele>221.0</ele><time>2026-04-04T14:11:34Z</time></trkpt><trkpt lat="43.0593951754701" lon="12.290611727538609"><ele>222.0</ele><time>2026-04-04T14:11:35Z</time></trkpt><trkpt lat="43.05949022497936" lon="12.29081972089421"><ele>223.0</ele><time>2026-04-04T14:11:36Z</time></trkpt><trkpt lat="43.05957586449459" lon="12.291017431121052"><ele>223.0</ele><time>2026-04-04T14:11:37Z</time></trkpt><trkpt lat="43.059654554071585" lon="12.291201788867095"><ele>223.0</ele><time>2026-04-04T14:11:38Z</time></trkpt><trkpt lat="43.05972495138921" lon="12.291368164464894"><ele>223.0</ele><time>2026-04-04T14:11:39Z</time></trkpt><trkpt lat="43.05979410637222" lon="12.291522989055522"><ele>223.0</ele><time>2026-04-04T14:11:40Z</time></trkpt><trkpt lat="43.05985585661299" lon="12.291657946740832"><ele>223.16666666666666</ele><time>2026-04-04T14:11:41Z</time></trkpt><trkpt lat="43.05989645212412" lon="12.291759463166372"><ele>223.33333333333331</ele><time>2026-04-04T14:11:42Z</time></trkpt><trkpt lat="43.059907538220294" lon="12.291876020214401"><ele>223.5</ele><time>2026-04-04T14:11:44Z</time></trkpt><trkpt lat="43.059855757780596" lon="12.291933971920695"><ele>223.66666666666669</ele><time>2026-04-04T14:11:46Z</time></trkpt><trkpt lat="43.05992573318073" lon="12.291929847525067"><ele>223.83333333333334</ele><time>2026-04-04T14:12:11Z</time></trkpt><trkpt lat="43.06001265508442" lon="12.291969393786447"><ele>224.0</ele><time>2026-04-04T14:12:14Z</time></trkpt><trkpt lat="43.060049872129134" lon="12.292065033875097"><ele>224.2</ele><time>2026-04-04T14:12:15Z</time></trkpt><trkpt lat="43.06007244188994" lon="12.292172875895451"><ele>224.39999999999998</ele><time>2026-04-04T14:12:16Z</time></trkpt><trkpt lat="43.060117159083326" lon="12.292287914786067"><ele>224.6</ele><time>2026-04-04T14:12:17Z</time></trkpt><trkpt lat="43.06017472043353" lon="12.292413412646958"><ele>224.8</ele><time>2026-04-04T14:12:18Z</time></trkpt><trkpt lat="43.06024748836227" lon="12.292569270217077"><ele>225.0</ele><time>2026-04-04T14:12:19Z</time></trkpt><trkpt lat="43.06032459828351" lon="12.292737487774945"><ele>225.0</ele><time>2026-04-04T14:12:20Z</time></trkpt><trkpt lat="43.06040820627575" lon="12.292937367383319"><ele>225.0</ele><time>2026-04-04T14:12:21Z</time></trkpt><trkpt lat="43.06048940062694" lon="12.293141310972377"><ele>225.0</ele><time>2026-04-04T14:12:22Z</time></trkpt><trkpt lat="43.06058182344497" lon="12.293357476654588"><ele>225.33333333333331</ele><time>2026-04-04T14:12:23Z</time></trkpt><trkpt lat="43.060676423538396" lon="12.293572019295427"><ele>225.66666666666666</ele><time>2026-04-04T14:12:24Z</time></trkpt><trkpt lat="43.06077051080843" lon="12.293780258016314"><ele>226.0</ele><time>2026-04-04T14:12:25Z</time></trkpt><trkpt lat="43.06086203919378" lon="12.293987048737913"><ele>226.5</ele><time>2026-04-04T14:12:26Z</time></trkpt><trkpt lat="43.060949388536145" lon="12.294179502053936"><ele>227.0</ele><time>2026-04-04T14:12:27Z</time></trkpt><trkpt lat="43.061024866229374" lon="12.294338798067747"><ele>227.5</ele><time>2026-04-04T14:12:28Z</time></trkpt><trkpt lat="43.06109003768367" lon="12.294477810939311"><ele>228.0</ele><time>2026-04-04T14:12:29Z</time></trkpt><trkpt lat="43.0611391352167" lon="12.294590512618218"><ele>228.0</ele><time>2026-04-04T14:12:30Z</time></trkpt><trkpt lat="43.06118037752955" lon="12.294685175568302"><ele>228.0</ele><time>2026-04-04T14:12:31Z</time></trkpt><trkpt lat="43.061212976908116" lon="12.294802985784507"><ele>228.0</ele><time>2026-04-04T14:12:33Z</time></trkpt><trkpt lat="43.061148085417734" lon="12.294873805189164"><ele>228.0</ele><time>2026-04-04T14:12:36Z</time></trkpt><trkpt lat="43.06104440838744" lon="12.294919029778793"><ele>228.0</ele><time>2026-04-04T14:12:38Z</time></trkpt><trkpt lat="43.06097306853912" lon="12.294935578798237"><ele>228.0</ele><time>2026-04-04T14:12:39Z</time></trkpt><trkpt lat="43.060888695022385" lon="12.2949597700002"><ele>228.5</ele><time>2026-04-04T14:12:40Z</time></trkpt><trkpt lat="43.06080989617787" lon="12.294980667627787"><ele>229.0</ele><time>2026-04-04T14:12:41Z</time></trkpt><trkpt lat="43.06072953844222" lon="12.295001891311891"><ele>229.5</ele><time>2026-04-04T14:12:42Z</time></trkpt><trkpt lat="43.06063985606363" lon="12.295029791443902"><ele>230.0</ele><time>2026-04-04T14:12:43Z</time></trkpt><trkpt lat="43.06055879098235" lon="12.29504193817676"><ele>230.5</ele><time>2026-04-04T14:12:44Z</time></trkpt><trkpt lat="43.06047037616702" lon="12.29505982892707"><ele>231.0</ele><time>2026-04-04T14:12:45Z</time></trkpt><trkpt lat="43.060384644355196" lon="12.295101678725906"><ele>229.5</ele><time>2026-04-04T14:12:46Z</time></trkpt><trkpt lat="43.06028596609672" lon="12.295142294307439"><ele>228.0</ele><time>2026-04-04T14:12:47Z</time></trkpt><trkpt lat="43.06016543556793" lon="12.29518466301852"><ele>226.5</ele><time>2026-04-04T14:12:48Z</time></trkpt><trkpt lat="43.06003976279162" lon="12.295221919222596"><ele>225.0</ele><time>2026-04-04T14:12:49Z</time></trkpt><trkpt lat="43.059925999039756" lon="12.295259958419201"><ele>224.0</ele><time>2026-04-04T14:12:50Z</time></trkpt><trkpt lat="43.05981203645207" lon="12.295292610538285"><ele>223.0</ele><time>2026-04-04T14:12:51Z</time></trkpt><trkpt lat="43.05968746447477" lon="12.295336821914194"><ele>222.0</ele><time>2026-04-04T14:12:52Z</time></trkpt><trkpt lat="43.05957413107369" lon="12.295379737076965"><ele>221.0</ele><time>2026-04-04T14:12:53Z</time></trkpt><trkpt lat="43.05948354203378" lon="12.29541002604667"><ele>221.0</ele><time>2026-04-04T14:12:54Z</time></trkpt><trkpt lat="43.059393270870764" lon="12.295440788037752"><ele>221.00000000000003</ele><time>2026-04-04T14:12:55Z</time></trkpt><trkpt lat="43.059293681864844" lon="12.29547945447222"><ele>221.00000000000003</ele><time>2026-04-04T14:12:56Z</time></trkpt><trkpt lat="43.05918593876355" lon="12.295518655256043"><ele>221.0</ele><time>2026-04-04T14:12:57Z</time></trkpt><trkpt lat="43.05907583728705" lon="12.29555215258838"><ele>221.0</ele><time>2026-04-04T14:12:58Z</time></trkpt><trkpt lat="43.05897186244161" lon="12.295584814168368"><ele>221.60000000000002</ele><time>2026-04-04T14:12:59Z</time></trkpt><trkpt lat="43.05885785509498" lon="12.295633050239173"><ele>222.20000000000002</ele><time>2026-04-04T14:13:00Z</time></trkpt><trkpt lat="43.058749101182975" lon="12.295668796993896"><ele>222.79999999999998</ele><time>2026-04-04T14:13:01Z</time></trkpt><trkpt lat="43.05864441208117" lon="12.295703349134822"><ele>223.39999999999998</ele><time>2026-04-04T14:13:02Z</time></trkpt><trkpt lat="43.05855225431805" lon="12.295746044894583"><ele>224.0</ele><time>2026-04-04T14:13:03Z</time></trkpt><trkpt lat="43.058473636177474" lon="12.295786384711535"><ele>224.00000000000003</ele><time>2026-04-04T14:13:04Z</time></trkpt><trkpt lat="43.058407017777036" lon="12.295837191043532"><ele>224.0</ele><time>2026-04-04T14:13:05Z</time></trkpt><trkpt lat="43.05836533051897" lon="12.295912907802293"><ele>224.0</ele><time>2026-04-04T14:13:06Z</time></trkpt><trkpt lat="43.05833147306434" lon="12.29601450795086"><ele>224.0</ele><time>2026-04-04T14:13:07Z</time></trkpt><trkpt lat="43.058318008329955" lon="12.296123364024936"><ele>224.00000000000003</ele><time>2026-04-04T14:13:08Z</time></trkpt><trkpt lat="43.05830476457145" lon="12.296254691011287"><ele>224.0</ele><time>2026-04-04T14:13:09Z</time></trkpt><trkpt lat="43.05829521739027" lon="12.29634289019005"><ele>224.0</ele><time>2026-04-04T14:13:10Z</time></trkpt><trkpt lat="43.058280892186126" lon="12.296507615831294"><ele>223.99999999999997</ele><time>2026-04-04T14:13:12Z</time></trkpt><trkpt lat="43.05829034247444" lon="12.296617653075673"><ele>223.99999999999997</ele><time>2026-04-04T14:13:13Z</time></trkpt><trkpt lat="43.0583222355297" lon="12.296756092223063"><ele>224.0</ele><time>2026-04-04T14:13:14Z</time></trkpt><trkpt lat="43.05836546285806" lon="12.296897122001056"><ele>224.0</ele><time>2026-04-04T14:13:15Z</time></trkpt><trkpt lat="43.058408708079185" lon="12.29704846545794"><ele>224.0</ele><time>2026-04-04T14:13:16Z</time></trkpt><trkpt lat="43.058457671228666" lon="12.297215825523905"><ele>224.0</ele><time>2026-04-04T14:13:17Z</time></trkpt><trkpt lat="43.05851360590194" lon="12.297393688425702"><ele>224.0</ele><time>2026-04-04T14:13:18Z</time></trkpt><trkpt lat="43.05856543200799" lon="12.297554637140026"><ele>224.0</ele><time>2026-04-04T14:13:19Z</time></trkpt><trkpt lat="43.05861535978585" lon="12.29771135464605"><ele>224.75</ele><time>2026-04-04T14:13:20Z</time></trkpt><trkpt lat="43.05867120122885" lon="12.297873362181749"><ele>225.5</ele><time>2026-04-04T14:13:21Z</time></trkpt><trkpt lat="43.05871797643494" lon="12.298040292566391"><ele>226.25</ele><time>2026-04-04T14:13:22Z</time></trkpt><trkpt lat="43.0587556866366" lon="12.298211634799536"><ele>227.0</ele><time>2026-04-04T14:13:23Z</time></trkpt><trkpt lat="43.058788482151215" lon="12.298388016104912"><ele>227.25</ele><time>2026-04-04T14:13:24Z</time></trkpt><trkpt lat="43.058808030855886" lon="12.29855666925838"><ele>227.5</ele><time>2026-04-04T14:13:25Z</time></trkpt><trkpt lat="43.058823134314274" lon="12.298714913318832"><ele>227.75</ele><time>2026-04-04T14:13:26Z</time></trkpt><trkpt lat="43.05883016512734" lon="12.298873278192707"><ele>228.0</ele><time>2026-04-04T14:13:27Z</time></trkpt><trkpt lat="43.05883683082628" lon="12.299034665684896"><ele>228.0</ele><time>2026-04-04T14:13:28Z</time></trkpt><trkpt lat="43.05883086556874" lon="12.2991951388861"><ele>228.0</ele><time>2026-04-04T14:13:29Z</time></trkpt><trkpt lat="43.058835669563756" lon="12.299352918039885"><ele>228.0</ele><time>2026-04-04T14:13:30Z</time></trkpt><trkpt lat="43.05884883458557" lon="12.299506771273474"><ele>228.0</ele><time>2026-04-04T14:13:31Z</time></trkpt><trkpt lat="43.05888274989423" lon="12.299662673258252"><ele>228.0</ele><time>2026-04-04T14:13:32Z</time></trkpt><trkpt lat="43.05891792142856" lon="12.299816884515625"><ele>228.0</ele><time>2026-04-04T14:13:33Z</time></trkpt><trkpt lat="43.058954584294334" lon="12.299985944516733"><ele>228.0</ele><time>2026-04-04T14:13:34Z</time></trkpt><trkpt lat="43.05899137739749" lon="12.300156599612826"><ele>228.0</ele><time>2026-04-04T14:13:35Z</time></trkpt><trkpt lat="43.05902428429626" lon="12.300322028442086"><ele>228.0</ele><time>2026-04-04T14:13:36Z</time></trkpt><trkpt lat="43.05905209942223" lon="12.300493551109279"><ele>228.0</ele><time>2026-04-04T14:13:37Z</time></trkpt><trkpt lat="43.059073282738105" lon="12.300669686177129"><ele>228.0</ele><time>2026-04-04T14:13:38Z</time></trkpt><trkpt lat="43.05909683344564" lon="12.300846577041467"><ele>228.0</ele><time>2026-04-04T14:13:39Z</time></trkpt><trkpt lat="43.05911846650703" lon="12.301021317365212"><ele>229.25</ele><time>2026-04-04T14:13:40Z</time></trkpt><trkpt lat="43.05913958523339" lon="12.301198942323875"><ele>230.5</ele><time>2026-04-04T14:13:41Z</time></trkpt><trkpt lat="43.05915544644626" lon="12.301375108793996"><ele>231.75</ele><time>2026-04-04T14:13:42Z</time></trkpt><trkpt lat="43.059167679217914" lon="12.301548071438006"><ele>233.0</ele><time>2026-04-04T14:13:43Z</time></trkpt><trkpt lat="43.05918004317198" lon="12.301712668989788"><ele>233.4</ele><time>2026-04-04T14:13:44Z</time></trkpt><trkpt lat="43.059185386362685" lon="12.301866930434997"><ele>233.8</ele><time>2026-04-04T14:13:45Z</time></trkpt><trkpt lat="43.059191339750946" lon="12.302004946643608"><ele>234.2</ele><time>2026-04-04T14:13:46Z</time></trkpt><trkpt lat="43.05920320151218" lon="12.30212930821549"><ele>234.6</ele><time>2026-04-04T14:13:47Z</time></trkpt><trkpt lat="43.059221321122614" lon="12.302246372038386"><ele>235.0</ele><time>2026-04-04T14:13:48Z</time></trkpt><trkpt lat="43.059244945262776" lon="12.30237182053685"><ele>235.0</ele><time>2026-04-04T14:13:49Z</time></trkpt><trkpt lat="43.05927696279902" lon="12.302513643290911"><ele>235.0</ele><time>2026-04-04T14:13:50Z</time></trkpt><trkpt lat="43.059309048275225" lon="12.302665067639406"><ele>235.0</ele><time>2026-04-04T14:13:51Z</time></trkpt><trkpt lat="43.05934520461512" lon="12.302810617107065"><ele>235.0</ele><time>2026-04-04T14:13:52Z</time></trkpt><trkpt lat="43.059373822898955" lon="12.302965614159804"><ele>235.0</ele><time>2026-04-04T14:13:53Z</time></trkpt><trkpt lat="43.05938870649041" lon="12.303128626871663"><ele>235.0</ele><time>2026-04-04T14:13:54Z</time></trkpt><trkpt lat="43.05938949164782" lon="12.30327645941279"><ele>235.0</ele><time>2026-04-04T14:13:55Z</time></trkpt><trkpt lat="43.059382601188275" lon="12.30339740901364"><ele>235.0</ele><time>2026-04-04T14:13:56Z</time></trkpt><trkpt lat="43.059392365396825" lon="12.303502448423465"><ele>235.0</ele><time>2026-04-04T14:13:57Z</time></trkpt><trkpt lat="43.05939652165439" lon="12.30360281319734"><ele>234.99999999999997</ele><time>2026-04-04T14:13:58Z</time></trkpt><trkpt lat="43.05940463997997" lon="12.30370047013172"><ele>235.0</ele><time>2026-04-04T14:13:59Z</time></trkpt><trkpt lat="43.05940474490973" lon="12.303870628432627"><ele>235.0</ele><time>2026-04-04T14:14:01Z</time></trkpt><trkpt lat="43.059399470174604" lon="12.303961117882402"><ele>235.0</ele><time>2026-04-04T14:14:02Z</time></trkpt><trkpt lat="43.05939042858775" lon="12.304055354472613"><ele>234.99999999999997</ele><time>2026-04-04T14:14:03Z</time></trkpt><trkpt lat="43.05938685019409" lon="12.304166594579268"><ele>235.0</ele><time>2026-04-04T14:14:04Z</time></trkpt><trkpt lat="43.059381185238" lon="12.304260649184844"><ele>235.16666666666666</ele><time>2026-04-04T14:14:05Z</time></trkpt><trkpt lat="43.05938262661631" lon="12.304354972162132"><ele>235.33333333333331</ele><time>2026-04-04T14:14:06Z</time></trkpt><trkpt lat="43.05937174010454" lon="12.304464114236222"><ele>235.5</ele><time>2026-04-04T14:14:07Z</time></trkpt><trkpt lat="43.059367844306884" lon="12.304595224010843"><ele>235.66666666666669</ele><time>2026-04-04T14:14:08Z</time></trkpt><trkpt lat="43.05936599150935" lon="12.304716022535784"><ele>235.83333333333334</ele><time>2026-04-04T14:14:09Z</time></trkpt><trkpt lat="43.059370478038346" lon="12.304829528143195"><ele>236.0</ele><time>2026-04-04T14:14:10Z</time></trkpt><trkpt lat="43.05936299804214" lon="12.304917058279392"><ele>235.60000000000002</ele><time>2026-04-04T14:14:11Z</time></trkpt><trkpt lat="43.05929096368612" lon="12.305026977388684"><ele>235.20000000000002</ele><time>2026-04-04T14:14:13Z</time></trkpt><trkpt lat="43.05920772555686" lon="12.305101009384618"><ele>234.79999999999998</ele><time>2026-04-04T14:14:15Z</time></trkpt><trkpt lat="43.05910365320356" lon="12.305160225170459"><ele>234.39999999999998</ele><time>2026-04-04T14:14:17Z</time></trkpt><trkpt lat="43.05904083321154" lon="12.305234182186297"><ele>234.0</ele><time>2026-04-04T14:14:18Z</time></trkpt><trkpt lat="43.058984781620644" lon="12.305343169541713"><ele>234.0</ele><time>2026-04-04T14:14:19Z</time></trkpt><trkpt lat="43.05893403196094" lon="12.305450424924391"><ele>233.99999999999997</ele><time>2026-04-04T14:14:20Z</time></trkpt><trkpt lat="43.05888831817063" lon="12.305527335475862"><ele>233.99999999999997</ele><time>2026-04-04T14:14:21Z</time></trkpt><trkpt lat="43.05879784513106" lon="12.305633315805334"><ele>234.0</ele><time>2026-04-04T14:14:23Z</time></trkpt><trkpt lat="43.05870327297605" lon="12.305741206434528"><ele>234.0</ele><time>2026-04-04T14:14:25Z</time></trkpt><trkpt lat="43.05866631231773" lon="12.305847255254834"><ele>234.66666666666666</ele><time>2026-04-04T14:14:26Z</time></trkpt><trkpt lat="43.058639150917415" lon="12.305968602227832"><ele>235.33333333333331</ele><time>2026-04-04T14:14:27Z</time></trkpt><trkpt lat="43.0586099065388" lon="12.306084732060791"><ele>236.0</ele><time>2026-04-04T14:14:28Z</time></trkpt><trkpt lat="43.05856095185496" lon="12.306182977921818"><ele>236.66666666666666</ele><time>2026-04-04T14:14:29Z</time></trkpt><trkpt lat="43.05853666432965" lon="12.306284339750965"><ele>237.33333333333331</ele><time>2026-04-04T14:14:31Z</time></trkpt><trkpt lat="43.05850238601672" lon="12.306379932730449"><ele>238.0</ele><time>2026-04-04T14:14:33Z</time></trkpt><trkpt lat="43.058449544610006" lon="12.306508320568717"><ele>238.0</ele><time>2026-04-04T14:14:35Z</time></trkpt><trkpt lat="43.058411657694336" lon="12.306650941110798"><ele>238.0</ele><time>2026-04-04T14:14:37Z</time></trkpt><trkpt lat="43.058377931507735" lon="12.306804215854418"><ele>238.0</ele><time>2026-04-04T14:14:39Z</time></trkpt><trkpt lat="43.05833658057951" lon="12.30690289579528"><ele>238.0</ele><time>2026-04-04T14:14:40Z</time></trkpt><trkpt lat="43.058305282458825" lon="12.307009007191239"><ele>238.0</ele><time>2026-04-04T14:14:41Z</time></trkpt><trkpt lat="43.0582861926281" lon="12.307091240089328"><ele>237.0</ele><time>2026-04-04T14:14:42Z</time></trkpt><trkpt lat="43.05822501735463" lon="12.307214378606407"><ele>236.0</ele><time>2026-04-04T14:14:44Z</time></trkpt><trkpt lat="43.058162313283326" lon="12.307281544138885"><ele>235.0</ele><time>2026-04-04T14:14:45Z</time></trkpt><trkpt lat="43.0580763899442" lon="12.307359636340783"><ele>234.0</ele><time>2026-04-04T14:14:46Z</time></trkpt><trkpt lat="43.05797518559304" lon="12.307443021419342"><ele>233.0</ele><time>2026-04-04T14:14:47Z</time></trkpt><trkpt lat="43.057889815298104" lon="12.307537706571173"><ele>232.60000000000002</ele><time>2026-04-04T14:14:48Z</time></trkpt><trkpt lat="43.05782926658911" lon="12.30762607652138"><ele>232.20000000000002</ele><time>2026-04-04T14:14:49Z</time></trkpt><trkpt lat="43.057771890045665" lon="12.307702911822036"><ele>231.8</ele><time>2026-04-04T14:14:50Z</time></trkpt><trkpt lat="43.05767818652892" lon="12.307805372968938"><ele>231.4</ele><time>2026-04-04T14:14:51Z</time></trkpt><trkpt lat="43.05757759414923" lon="12.30788842451725"><ele>231.0</ele><time>2026-04-04T14:14:52Z</time></trkpt><trkpt lat="43.05748331057887" lon="12.307980827461785"><ele>229.25</ele><time>2026-04-04T14:14:53Z</time></trkpt><trkpt lat="43.05739064787968" lon="12.308077297726234"><ele>227.5</ele><time>2026-04-04T14:14:54Z</time></trkpt><trkpt lat="43.05729655502523" lon="12.308180470175131"><ele>225.75</ele><time>2026-04-04T14:14:55Z</time></trkpt><trkpt lat="43.057210186493954" lon="12.308282472105466"><ele>224.0</ele><time>2026-04-04T14:14:56Z</time></trkpt><trkpt lat="43.057127280385835" lon="12.308379891853818"><ele>224.0</ele><time>2026-04-04T14:14:57.001Z</time></trkpt><trkpt lat="43.05704598656263" lon="12.308476538746746"><ele>223.99999999999997</ele><time>2026-04-04T14:14:58.001Z</time></trkpt><trkpt lat="43.05696632569091" lon="12.308575591297691"><ele>223.99999999999997</ele><time>2026-04-04T14:14:59.001Z</time></trkpt><trkpt lat="43.056895163129454" lon="12.308675862334415"><ele>224.0</ele><time>2026-04-04T14:15:00.001Z</time></trkpt><trkpt lat="43.056821521175884" lon="12.308776370039467"><ele>224.0</ele><time>2026-04-04T14:15:01.001Z</time></trkpt><trkpt lat="43.05676106104813" lon="12.308863517667524"><ele>223.83333333333334</ele><time>2026-04-04T14:15:02.001Z</time></trkpt><trkpt lat="43.05670262265692" lon="12.308942852280117"><ele>223.66666666666669</ele><time>2026-04-04T14:15:03.001Z</time></trkpt><trkpt lat="43.056649289671086" lon="12.309007664149195"><ele>223.5</ele><time>2026-04-04T14:15:04.001Z</time></trkpt><trkpt lat="43.0565856156257" lon="12.309057816192679"><ele>223.33333333333331</ele><time>2026-04-04T14:15:06.001Z</time></trkpt><trkpt lat="43.05665012059378" lon="12.309178876822168"><ele>223.16666666666666</ele><time>2026-04-04T14:15:15.001Z</time></trkpt><trkpt lat="43.05672567654533" lon="12.309272252668856"><ele>223.0</ele><time>2026-04-04T14:15:16.001Z</time></trkpt><trkpt lat="43.05678343206266" lon="12.309349303174004"><ele>223.0</ele><time>2026-04-04T14:15:17.001Z</time></trkpt><trkpt lat="43.05685837245332" lon="12.309454741244092"><ele>223.0</ele><time>2026-04-04T14:15:18.001Z</time></trkpt><trkpt lat="43.05694780968981" lon="12.309558883345234"><ele>223.0</ele><time>2026-04-04T14:15:19.001Z</time></trkpt><trkpt lat="43.05701980106612" lon="12.309652490984403"><ele>223.0</ele><time>2026-04-04T14:15:20.001Z</time></trkpt><trkpt lat="43.05707480560852" lon="12.309745848460686"><ele>223.0</ele><time>2026-04-04T14:15:21.001Z</time></trkpt><trkpt lat="43.05710113799197" lon="12.309861524417114"><ele>223.75</ele><time>2026-04-04T14:15:22.001Z</time></trkpt><trkpt lat="43.057106015926415" lon="12.309998557327326"><ele>224.5</ele><time>2026-04-04T14:15:23.001Z</time></trkpt><trkpt lat="43.05710722850707" lon="12.310168693570905"><ele>225.25</ele><time>2026-04-04T14:15:24Z</time></trkpt><trkpt lat="43.05711296551698" lon="12.31033098942824"><ele>226.0</ele><time>2026-04-04T14:15:25Z</time></trkpt><trkpt lat="43.05713354939191" lon="12.31047450216857"><ele>226.25</ele><time>2026-04-04T14:15:26Z</time></trkpt><trkpt lat="43.05716732066649" lon="12.310611918607231"><ele>226.5</ele><time>2026-04-04T14:15:27Z</time></trkpt><trkpt lat="43.057225644890636" lon="12.310759837716889"><ele>226.75</ele><time>2026-04-04T14:15:28Z</time></trkpt><trkpt lat="43.057293695981514" lon="12.310901277477457"><ele>227.0</ele><time>2026-04-04T14:15:29Z</time></trkpt><trkpt lat="43.057355166314764" lon="12.311034774233894"><ele>227.00000000000003</ele><time>2026-04-04T14:15:30Z</time></trkpt><trkpt lat="43.05741022891364" lon="12.311148949061849"><ele>227.0</ele><time>2026-04-04T14:15:31Z</time></trkpt><trkpt lat="43.057453656083084" lon="12.311245631906791"><ele>227.0</ele><time>2026-04-04T14:15:32Z</time></trkpt><trkpt lat="43.057493839228016" lon="12.311346547544044"><ele>227.0</ele><time>2026-04-04T14:15:33Z</time></trkpt><trkpt lat="43.057535428770244" lon="12.311444803386754"><ele>227.00000000000003</ele><time>2026-04-04T14:15:34Z</time></trkpt><trkpt lat="43.05757617333031" lon="12.311522198343615"><ele>227.0</ele><time>2026-04-04T14:15:35Z</time></trkpt><trkpt lat="43.05765877444156" lon="12.31163171315946"><ele>227.57142857142858</ele><time>2026-04-04T14:15:37Z</time></trkpt><trkpt lat="43.05771137782199" lon="12.31170782803659"><ele>228.14285714285717</ele><time>2026-04-04T14:15:38Z</time></trkpt><trkpt lat="43.05776026520588" lon="12.311780143759627"><ele>228.71428571428572</ele><time>2026-04-04T14:15:39Z</time></trkpt><trkpt lat="43.05780618245419" lon="12.311839195248691"><ele>229.28571428571428</ele><time>2026-04-04T14:15:40Z</time></trkpt><trkpt lat="43.05785637113347" lon="12.311893656697965"><ele>229.85714285714286</ele><time>2026-04-04T14:15:41Z</time></trkpt><trkpt lat="43.05790630078565" lon="12.311950284836767"><ele>230.42857142857144</ele><time>2026-04-04T14:15:42Z</time></trkpt><trkpt lat="43.05796809911971" lon="12.3120286314132"><ele>231.0</ele><time>2026-04-04T14:15:43Z</time></trkpt><trkpt lat="43.058024265114184" lon="12.31209286683052"><ele>231.0</ele><time>2026-04-04T14:15:44Z</time></trkpt><trkpt lat="43.058134424172465" lon="12.312145920018049"><ele>231.0</ele><time>2026-04-04T14:15:46Z</time></trkpt><trkpt lat="43.05820242665942" lon="12.312155795939782"><ele>231.0</ele><time>2026-04-04T14:15:47Z</time></trkpt><trkpt lat="43.05827461888103" lon="12.312141300022361"><ele>231.0</ele><time>2026-04-04T14:15:48Z</time></trkpt><trkpt lat="43.05833873002465" lon="12.312134635405862"><ele>231.0</ele><time>2026-04-04T14:15:49Z</time></trkpt><trkpt lat="43.05840920216213" lon="12.31212537350999"><ele>231.0</ele><time>2026-04-04T14:15:50Z</time></trkpt><trkpt lat="43.058492377314344" lon="12.31216310575277"><ele>231.33333333333334</ele><time>2026-04-04T14:15:52Z</time></trkpt><trkpt lat="43.058572079506256" lon="12.312193377990516"><ele>231.66666666666669</ele><time>2026-04-04T14:15:54Z</time></trkpt><trkpt lat="43.05864444339157" lon="12.312214406986017"><ele>232.0</ele><time>2026-04-04T14:15:57Z</time></trkpt><trkpt lat="43.058692643996885" lon="12.312327376278477"><ele>232.33333333333334</ele><time>2026-04-04T14:16:00Z</time></trkpt><trkpt lat="43.05869263284925" lon="12.312441307823851"><ele>232.66666666666669</ele><time>2026-04-04T14:16:01Z</time></trkpt><trkpt lat="43.05869451261769" lon="12.312565725560276"><ele>233.0</ele><time>2026-04-04T14:16:02Z</time></trkpt><trkpt lat="43.05870597231661" lon="12.312727782068409"><ele>233.0</ele><time>2026-04-04T14:16:03Z</time></trkpt><trkpt lat="43.058726627966145" lon="12.312908081305105"><ele>233.0</ele><time>2026-04-04T14:16:04Z</time></trkpt><trkpt lat="43.058744375023636" lon="12.31309213863804"><ele>233.0</ele><time>2026-04-04T14:16:05Z</time></trkpt><trkpt lat="43.05876279459483" lon="12.313297410309358"><ele>233.0</ele><time>2026-04-04T14:16:06Z</time></trkpt><trkpt lat="43.05878258129074" lon="12.313519252673554"><ele>233.0</ele><time>2026-04-04T14:16:07Z</time></trkpt><trkpt lat="43.05880413829396" lon="12.313731273513145"><ele>233.0</ele><time>2026-04-04T14:16:08Z</time></trkpt><trkpt lat="43.05883120328814" lon="12.31392191962237"><ele>233.0</ele><time>2026-04-04T14:16:09Z</time></trkpt><trkpt lat="43.05886700979082" lon="12.314122793309295"><ele>233.0</ele><time>2026-04-04T14:16:10Z</time></trkpt><trkpt lat="43.05890852557181" lon="12.314319106978894"><ele>232.75</ele><time>2026-04-04T14:16:11Z</time></trkpt><trkpt lat="43.058950075765964" lon="12.31451287187974"><ele>232.5</ele><time>2026-04-04T14:16:12Z</time></trkpt><trkpt lat="43.05898689961187" lon="12.314686244075084"><ele>232.25</ele><time>2026-04-04T14:16:13Z</time></trkpt><trkpt lat="43.05901943041973" lon="12.314834962490519"><ele>232.0</ele><time>2026-04-04T14:16:14Z</time></trkpt><trkpt lat="43.05902736017156" lon="12.314971453667692"><ele>231.75</ele><time>2026-04-04T14:16:15Z</time></trkpt><trkpt lat="43.05901412198364" lon="12.315111439488629"><ele>231.5</ele><time>2026-04-04T14:16:16Z</time></trkpt><trkpt lat="43.05896613012458" lon="12.315264311284057"><ele>231.25</ele><time>2026-04-04T14:16:17Z</time></trkpt><trkpt lat="43.05887115251338" lon="12.315387880951427"><ele>231.0</ele><time>2026-04-04T14:16:18Z</time></trkpt><trkpt lat="43.05873448297562" lon="12.315461298530208"><ele>231.0</ele><time>2026-04-04T14:16:19Z</time></trkpt><trkpt lat="43.05858711449031" lon="12.315518318940159"><ele>231.0</ele><time>2026-04-04T14:16:20Z</time></trkpt><trkpt lat="43.05844174329969" lon="12.31560086429623"><ele>231.0</ele><time>2026-04-04T14:16:21Z</time></trkpt><trkpt lat="43.05831534205223" lon="12.315713612950537"><ele>231.0</ele><time>2026-04-04T14:16:22Z</time></trkpt><trkpt lat="43.058200856231934" lon="12.315853381798554"><ele>231.0</ele><time>2026-04-04T14:16:23Z</time></trkpt><trkpt lat="43.05808917696649" lon="12.316003067678798"><ele>231.0</ele><time>2026-04-04T14:16:24Z</time></trkpt><trkpt lat="43.05797823654792" lon="12.316142138649948"><ele>231.0</ele><time>2026-04-04T14:16:25Z</time></trkpt><trkpt lat="43.057858991028226" lon="12.316279310341729"><ele>231.0</ele><time>2026-04-04T14:16:26Z</time></trkpt><trkpt lat="43.05774257956425" lon="12.316407456913613"><ele>231.0</ele><time>2026-04-04T14:16:27Z</time></trkpt><trkpt lat="43.05763841446282" lon="12.316512873640031"><ele>231.0</ele><time>2026-04-04T14:16:28Z</time></trkpt><trkpt lat="43.05753964141314" lon="12.316599317225316"><ele>231.60000000000002</ele><time>2026-04-04T14:16:29Z</time></trkpt><trkpt lat="43.05743300962772" lon="12.31667913000909"><ele>232.20000000000002</ele><time>2026-04-04T14:16:30Z</time></trkpt><trkpt lat="43.057324387870004" lon="12.316757060474139"><ele>232.79999999999998</ele><time>2026-04-04T14:16:31Z</time></trkpt><trkpt lat="43.05722937919492" lon="12.316824223984714"><ele>233.39999999999998</ele><time>2026-04-04T14:16:32Z</time></trkpt><trkpt lat="43.05715904771795" lon="12.31687297758349"><ele>234.0</ele><time>2026-04-04T14:16:33Z</time></trkpt><trkpt lat="43.057105916886684" lon="12.31699027425599"><ele>234.0</ele><time>2026-04-04T14:16:35Z</time></trkpt><trkpt lat="43.05714954510843" lon="12.317138774860387"><ele>233.99999999999997</ele><time>2026-04-04T14:16:37Z</time></trkpt><trkpt lat="43.057183021744464" lon="12.317241289468702"><ele>233.99999999999997</ele><time>2026-04-04T14:16:38Z</time></trkpt><trkpt lat="43.0572278729583" lon="12.317383185675872"><ele>234.0</ele><time>2026-04-04T14:16:39Z</time></trkpt><trkpt lat="43.05727368230903" lon="12.317538841537601"><ele>234.0</ele><time>2026-04-04T14:16:40Z</time></trkpt><trkpt lat="43.05731039149382" lon="12.317706504924379"><ele>235.0</ele><time>2026-04-04T14:16:41Z</time></trkpt><trkpt lat="43.057342399347725" lon="12.317854085756581"><ele>236.0</ele><time>2026-04-04T14:16:42Z</time></trkpt><trkpt lat="43.05740041045573" lon="12.317985709508037"><ele>237.0</ele><time>2026-04-04T14:16:43Z</time></trkpt><trkpt lat="43.057497711619305" lon="12.318135161144513"><ele>238.0</ele><time>2026-04-04T14:16:44Z</time></trkpt><trkpt lat="43.05759320227196" lon="12.318268427477227"><ele>238.5</ele><time>2026-04-04T14:16:45Z</time></trkpt><trkpt lat="43.05766001543342" lon="12.318399741314844"><ele>239.0</ele><time>2026-04-04T14:16:46Z</time></trkpt><trkpt lat="43.057706048595755" lon="12.318539217686308"><ele>239.5</ele><time>2026-04-04T14:16:47Z</time></trkpt><trkpt lat="43.057751696037265" lon="12.31867914494118"><ele>240.0</ele><time>2026-04-04T14:16:48Z</time></trkpt><trkpt lat="43.057824332080585" lon="12.318815416748453"><ele>241.25</ele><time>2026-04-04T14:16:49Z</time></trkpt><trkpt lat="43.05789765959094" lon="12.318937276200865"><ele>242.5</ele><time>2026-04-04T14:16:50.001Z</time></trkpt><trkpt lat="43.0579872774182" lon="12.319059708007225"><ele>243.75</ele><time>2026-04-04T14:16:51.001Z</time></trkpt><trkpt lat="43.058063648998925" lon="12.319186741528393"><ele>245.0</ele><time>2026-04-04T14:16:52.001Z</time></trkpt><trkpt lat="43.058126679256596" lon="12.319332234285309"><ele>245.0</ele><time>2026-04-04T14:16:53.001Z</time></trkpt><trkpt lat="43.05819330453616" lon="12.319470074199907"><ele>245.0</ele><time>2026-04-04T14:16:54.001Z</time></trkpt><trkpt lat="43.058257129632814" lon="12.319589039562906"><ele>245.0</ele><time>2026-04-04T14:16:55.001Z</time></trkpt><trkpt lat="43.05831979795731" lon="12.319717146633145"><ele>245.0</ele><time>2026-04-04T14:16:56.001Z</time></trkpt><trkpt lat="43.05839561257763" lon="12.319846559998904"><ele>243.6</ele><time>2026-04-04T14:16:57.001Z</time></trkpt><trkpt lat="43.05844684537271" lon="12.319959952449155"><ele>242.2</ele><time>2026-04-04T14:16:58.001Z</time></trkpt><trkpt lat="43.05849926659446" lon="12.32006449158166"><ele>240.8</ele><time>2026-04-04T14:16:59.001Z</time></trkpt><trkpt lat="43.05852970126294" lon="12.32017846959933"><ele>239.4</ele><time>2026-04-04T14:17:00.001Z</time></trkpt><trkpt lat="43.05854382342163" lon="12.320312843945183"><ele>238.0</ele><time>2026-04-04T14:17:01.001Z</time></trkpt><trkpt lat="43.05853203385006" lon="12.32046292864749"><ele>238.75</ele><time>2026-04-04T14:17:02.001Z</time></trkpt><trkpt lat="43.05849809094864" lon="12.320636908179218"><ele>239.5</ele><time>2026-04-04T14:17:03.001Z</time></trkpt><trkpt lat="43.05846403189404" lon="12.320795941920032"><ele>240.25</ele><time>2026-04-04T14:17:04.001Z</time></trkpt><trkpt lat="43.058425954696716" lon="12.320948147609872"><ele>241.0</ele><time>2026-04-04T14:17:05.001Z</time></trkpt><trkpt lat="43.058400963277265" lon="12.321104186234848"><ele>241.0</ele><time>2026-04-04T14:17:06.001Z</time></trkpt><trkpt lat="43.058384659571026" lon="12.321267524996511"><ele>241.0</ele><time>2026-04-04T14:17:07.001Z</time></trkpt><trkpt lat="43.05836603627955" lon="12.321429873481561"><ele>241.0</ele><time>2026-04-04T14:17:08.001Z</time></trkpt><trkpt lat="43.058337803085614" lon="12.321596042728567"><ele>241.0</ele><time>2026-04-04T14:17:09.001Z</time></trkpt><trkpt lat="43.058306612788" lon="12.32174173791064"><ele>242.25</ele><time>2026-04-04T14:17:10.001Z</time></trkpt><trkpt lat="43.05827428522087" lon="12.321889084228221"><ele>243.5</ele><time>2026-04-04T14:17:11.001Z</time></trkpt><trkpt lat="43.05822668144153" lon="12.322052371686205"><ele>244.75</ele><time>2026-04-04T14:17:12.001Z</time></trkpt><trkpt lat="43.058177942086594" lon="12.322204927792333"><ele>246.0</ele><time>2026-04-04T14:17:13.001Z</time></trkpt><trkpt lat="43.05814382227512" lon="12.322343019194284"><ele>246.8</ele><time>2026-04-04T14:17:14.001Z</time></trkpt><trkpt lat="43.0581039000305" lon="12.322471228094171"><ele>247.60000000000002</ele><time>2026-04-04T14:17:15.001Z</time></trkpt><trkpt lat="43.05806112377503" lon="12.322585484728895"><ele>248.4</ele><time>2026-04-04T14:17:16.001Z</time></trkpt><trkpt lat="43.05803944068516" lon="12.322692542475373"><ele>249.2</ele><time>2026-04-04T14:17:17.001Z</time></trkpt><trkpt lat="43.05802832793345" lon="12.322818290243923"><ele>250.0</ele><time>2026-04-04T14:17:18.001Z</time></trkpt><trkpt lat="43.058010216381" lon="12.32294114850578"><ele>250.0</ele><time>2026-04-04T14:17:19.001Z</time></trkpt><trkpt lat="43.05797137760584" lon="12.323039786296203"><ele>250.0</ele><time>2026-04-04T14:17:20.001Z</time></trkpt><trkpt lat="43.0579035259498" lon="12.323121997868197"><ele>250.0</ele><time>2026-04-04T14:17:21.001Z</time></trkpt><trkpt lat="43.05781639128261" lon="12.323204998244943"><ele>250.0</ele><time>2026-04-04T14:17:22.001Z</time></trkpt><trkpt lat="43.05772479162457" lon="12.323305781331316"><ele>250.0</ele><time>2026-04-04T14:17:23.001Z</time></trkpt><trkpt lat="43.05763547957605" lon="12.323446778783634"><ele>251.0</ele><time>2026-04-04T14:17:24.001Z</time></trkpt><trkpt lat="43.057555093460806" lon="12.323608159279384"><ele>252.0</ele><time>2026-04-04T14:17:25.001Z</time></trkpt><trkpt lat="43.057491091962795" lon="12.323791116337082"><ele>253.0</ele><time>2026-04-04T14:17:26.001Z</time></trkpt><trkpt lat="43.057427244141415" lon="12.32399344703406"><ele>253.25</ele><time>2026-04-04T14:17:27.001Z</time></trkpt><trkpt lat="43.05736482460895" lon="12.324171471438284"><ele>253.5</ele><time>2026-04-04T14:17:28.001Z</time></trkpt><trkpt lat="43.05730583520824" lon="12.324342694712588"><ele>253.75</ele><time>2026-04-04T14:17:29.001Z</time></trkpt><trkpt lat="43.057244629667295" lon="12.324517803552473"><ele>254.0</ele><time>2026-04-04T14:17:30Z</time></trkpt><trkpt lat="43.057184350639766" lon="12.324696587564821"><ele>256.0</ele><time>2026-04-04T14:17:31Z</time></trkpt><trkpt lat="43.05712693372072" lon="12.324865999213735"><ele>258.0</ele><time>2026-04-04T14:17:32Z</time></trkpt><trkpt lat="43.05707480745706" lon="12.325010174784252"><ele>260.0</ele><time>2026-04-04T14:17:33Z</time></trkpt><trkpt lat="43.05702791671241" lon="12.325150622719299"><ele>262.0</ele><time>2026-04-04T14:17:34Z</time></trkpt><trkpt lat="43.05699350518469" lon="12.325280188596922"><ele>262.0</ele><time>2026-04-04T14:17:35Z</time></trkpt><trkpt lat="43.05697924305615" lon="12.325402497364744"><ele>262.0</ele><time>2026-04-04T14:17:36Z</time></trkpt><trkpt lat="43.0569825167119" lon="12.325526671197482"><ele>262.0</ele><time>2026-04-04T14:17:37Z</time></trkpt><trkpt lat="43.05701083996036" lon="12.325623878939902"><ele>262.0</ele><time>2026-04-04T14:17:38Z</time></trkpt><trkpt lat="43.05704778408614" lon="12.325717692884046"><ele>262.0</ele><time>2026-04-04T14:17:39Z</time></trkpt><trkpt lat="43.05709901659615" lon="12.325815419680591"><ele>262.0</ele><time>2026-04-04T14:17:40Z</time></trkpt><trkpt lat="43.05715479767076" lon="12.325930608153735"><ele>262.6</ele><time>2026-04-04T14:17:41Z</time></trkpt><trkpt lat="43.05719776641748" lon="12.326059359199194"><ele>263.2</ele><time>2026-04-04T14:17:42Z</time></trkpt><trkpt lat="43.057239225211305" lon="12.326191028194096"><ele>263.8</ele><time>2026-04-04T14:17:43Z</time></trkpt><trkpt lat="43.057290968534105" lon="12.326319179513646"><ele>264.4</ele><time>2026-04-04T14:17:44Z</time></trkpt><trkpt lat="43.0573332867269" lon="12.326426460065004"><ele>265.0</ele><time>2026-04-04T14:17:45Z</time></trkpt><trkpt lat="43.05736606214427" lon="12.326524360927932"><ele>266.16666666666663</ele><time>2026-04-04T14:17:46Z</time></trkpt><trkpt lat="43.05738915644394" lon="12.3266096909516"><ele>267.3333333333333</ele><time>2026-04-04T14:17:47Z</time></trkpt><trkpt lat="43.057421077443784" lon="12.326728780743514"><ele>268.5</ele><time>2026-04-04T14:17:49Z</time></trkpt><trkpt lat="43.057340507782605" lon="12.326830335547488"><ele>269.6666666666667</ele><time>2026-04-04T14:17:52Z</time></trkpt><trkpt lat="43.05727018199749" lon="12.32688539912222"><ele>270.83333333333337</ele><time>2026-04-04T14:17:53Z</time></trkpt><trkpt lat="43.057185432513116" lon="12.326934043230898"><ele>272.0</ele><time>2026-04-04T14:17:54Z</time></trkpt><trkpt lat="43.05709815796305" lon="12.326979333795013"><ele>272.0</ele><time>2026-04-04T14:17:55Z</time></trkpt><trkpt lat="43.05702101676168" lon="12.327038268090377"><ele>272.0</ele><time>2026-04-04T14:17:56Z</time></trkpt><trkpt lat="43.05695099802036" lon="12.32708730889219"><ele>272.0</ele><time>2026-04-04T14:17:57Z</time></trkpt><trkpt lat="43.05687603473256" lon="12.327143712390573"><ele>272.0</ele><time>2026-04-04T14:17:58Z</time></trkpt><trkpt lat="43.05678128462447" lon="12.32721084599805"><ele>272.0</ele><time>2026-04-04T14:17:59Z</time></trkpt><trkpt lat="43.05668471933635" lon="12.327287332619438"><ele>273.1666666666667</ele><time>2026-04-04T14:18:00Z</time></trkpt><trkpt lat="43.05660696244405" lon="12.327351425962354"><ele>274.33333333333337</ele><time>2026-04-04T14:18:01Z</time></trkpt><trkpt lat="43.05654463193613" lon="12.327405488807067"><ele>275.5</ele><time>2026-04-04T14:18:02Z</time></trkpt><trkpt lat="43.05648744110748" lon="12.327454142596146"><ele>276.6666666666667</ele><time>2026-04-04T14:18:03Z</time></trkpt><trkpt lat="43.056389818525155" lon="12.327545432811323"><ele>277.8333333333333</ele><time>2026-04-04T14:18:05Z</time></trkpt><trkpt lat="43.05633709622211" lon="12.327593861359585"><ele>279.0</ele><time>2026-04-04T14:18:06Z</time></trkpt><trkpt lat="43.05627528722003" lon="12.327655367100935"><ele>279.0</ele><time>2026-04-04T14:18:07Z</time></trkpt><trkpt lat="43.05620271136335" lon="12.327728098476857"><ele>279.0</ele><time>2026-04-04T14:18:08Z</time></trkpt><trkpt lat="43.056106767498235" lon="12.327814506434944"><ele>279.0</ele><time>2026-04-04T14:18:09Z</time></trkpt><trkpt lat="43.056011652866296" lon="12.327908045252082"><ele>279.0</ele><time>2026-04-04T14:18:10Z</time></trkpt><trkpt lat="43.05591336051784" lon="12.328004706399122"><ele>279.0</ele><time>2026-04-04T14:18:11Z</time></trkpt><trkpt lat="43.0558080101271" lon="12.328099438705605"><ele>280.0</ele><time>2026-04-04T14:18:12Z</time></trkpt><trkpt lat="43.055703176247825" lon="12.328188886022673"><ele>281.0</ele><time>2026-04-04T14:18:13Z</time></trkpt><trkpt lat="43.05560427768953" lon="12.32827721241482"><ele>282.0</ele><time>2026-04-04T14:18:14Z</time></trkpt><trkpt lat="43.05550771456106" lon="12.328357218301417"><ele>283.0</ele><time>2026-04-04T14:18:15Z</time></trkpt><trkpt lat="43.055419523101705" lon="12.328423323665355"><ele>283.0</ele><time>2026-04-04T14:18:16Z</time></trkpt><trkpt lat="43.05534112875538" lon="12.328490211269738"><ele>283.0</ele><time>2026-04-04T14:18:17Z</time></trkpt><trkpt lat="43.05527188759705" lon="12.32855387263957"><ele>283.0</ele><time>2026-04-04T14:18:18Z</time></trkpt><trkpt lat="43.055199887094155" lon="12.32861990051619"><ele>283.0</ele><time>2026-04-04T14:18:19Z</time></trkpt><trkpt lat="43.055116314456605" lon="12.32865280387678"><ele>283.0</ele><time>2026-04-04T14:18:20Z</time></trkpt><trkpt lat="43.05501731431693" lon="12.32863745196726"><ele>283.0</ele><time>2026-04-04T14:18:21Z</time></trkpt><trkpt lat="43.05492169356782" lon="12.32858692870898"><ele>284.0</ele><time>2026-04-04T14:18:22Z</time></trkpt><trkpt lat="43.05482996465892" lon="12.328499395981924"><ele>285.0</ele><time>2026-04-04T14:18:23Z</time></trkpt><trkpt lat="43.05471637269299" lon="12.328424350470641"><ele>286.0</ele><time>2026-04-04T14:18:24Z</time></trkpt><trkpt lat="43.0545978857259" lon="12.328370937991439"><ele>287.0</ele><time>2026-04-04T14:18:25Z</time></trkpt><trkpt lat="43.05446452207651" lon="12.328329631133824"><ele>287.0</ele><time>2026-04-04T14:18:26Z</time></trkpt><trkpt lat="43.05433429292045" lon="12.328285473408666"><ele>287.0</ele><time>2026-04-04T14:18:27Z</time></trkpt><trkpt lat="43.054199368362575" lon="12.328226820534347"><ele>287.0</ele><time>2026-04-04T14:18:28Z</time></trkpt><trkpt lat="43.054069054939745" lon="12.328173574390188"><ele>287.0</ele><time>2026-04-04T14:18:29Z</time></trkpt><trkpt lat="43.053944123646986" lon="12.328134399091159"><ele>287.4</ele><time>2026-04-04T14:18:30Z</time></trkpt><trkpt lat="43.053826921245204" lon="12.328080925197565"><ele>287.79999999999995</ele><time>2026-04-04T14:18:31Z</time></trkpt><trkpt lat="43.053718348580674" lon="12.328031698875586"><ele>288.2</ele><time>2026-04-04T14:18:32Z</time></trkpt><trkpt lat="43.05361668092549" lon="12.32801000630967"><ele>288.59999999999997</ele><time>2026-04-04T14:18:33Z</time></trkpt><trkpt lat="43.053524070810354" lon="12.327977303799514"><ele>289.0</ele><time>2026-04-04T14:18:34Z</time></trkpt><trkpt lat="43.05345262601523" lon="12.327993981876332"><ele>289.2</ele><time>2026-04-04T14:18:35Z</time></trkpt><trkpt lat="43.05340470327814" lon="12.328069555732945"><ele>289.4</ele><time>2026-04-04T14:18:36Z</time></trkpt><trkpt lat="43.05337514256102" lon="12.32817770219926"><ele>289.6</ele><time>2026-04-04T14:18:37Z</time></trkpt><trkpt lat="43.05335789755617" lon="12.328335780702883"><ele>289.8</ele><time>2026-04-04T14:18:38Z</time></trkpt><trkpt lat="43.053341895886476" lon="12.32848369242601"><ele>290.0</ele><time>2026-04-04T14:18:39Z</time></trkpt><trkpt lat="43.05331993693528" lon="12.32862655985702"><ele>290.0</ele><time>2026-04-04T14:18:40Z</time></trkpt><trkpt lat="43.05329461694968" lon="12.328761465872583"><ele>290.0</ele><time>2026-04-04T14:18:41Z</time></trkpt><trkpt lat="43.053275289950754" lon="12.32887841415687"><ele>290.0</ele><time>2026-04-04T14:18:42Z</time></trkpt><trkpt lat="43.05326024418614" lon="12.328995497757226"><ele>290.0</ele><time>2026-04-04T14:18:43Z</time></trkpt><trkpt lat="43.053230623645604" lon="12.329102899536863"><ele>290.0</ele><time>2026-04-04T14:18:44Z</time></trkpt><trkpt lat="43.053182546923935" lon="12.32917387843076"><ele>290.0</ele><time>2026-04-04T14:18:45Z</time></trkpt><trkpt lat="43.053125986435326" lon="12.329239574476999"><ele>290.83333333333337</ele><time>2026-04-04T14:18:46Z</time></trkpt><trkpt lat="43.05305131826886" lon="12.329263982451646"><ele>291.6666666666667</ele><time>2026-04-04T14:18:47Z</time></trkpt><trkpt lat="43.05296699005504" lon="12.32922834744492"><ele>292.5</ele><time>2026-04-04T14:18:48Z</time></trkpt><trkpt lat="43.05287937609379" lon="12.32917955904522"><ele>293.3333333333333</ele><time>2026-04-04T14:18:49.001Z</time></trkpt><trkpt lat="43.052787023333494" lon="12.329143258901935"><ele>294.16666666666663</ele><time>2026-04-04T14:18:50.001Z</time></trkpt><trkpt lat="43.052719667113905" lon="12.329133330586036"><ele>295.0</ele><time>2026-04-04T14:18:51.001Z</time></trkpt><trkpt lat="43.0526439077212" lon="12.3291137221987"><ele>295.0</ele><time>2026-04-04T14:18:53.001Z</time></trkpt><trkpt lat="43.05261561852282" lon="12.329223428231034"><ele>295.0</ele><time>2026-04-04T14:18:56.001Z</time></trkpt><trkpt lat="43.052576912740975" lon="12.329340659159065"><ele>295.0</ele><time>2026-04-04T14:19:00.001Z</time></trkpt><trkpt lat="43.05250793289018" lon="12.329499754514266"><ele>295.0</ele><time>2026-04-04T14:19:02.001Z</time></trkpt><trkpt lat="43.052461124537516" lon="12.329588976768614"><ele>295.0</ele><time>2026-04-04T14:19:03.001Z</time></trkpt><trkpt lat="43.05241722122873" lon="12.329680930632795"><ele>295.4</ele><time>2026-04-04T14:19:04.001Z</time></trkpt><trkpt lat="43.052380088109" lon="12.32978695514303"><ele>295.8</ele><time>2026-04-04T14:19:05.001Z</time></trkpt><trkpt lat="43.05234466722374" lon="12.329924091586035"><ele>296.2</ele><time>2026-04-04T14:19:06.001Z</time></trkpt><trkpt lat="43.05230239469496" lon="12.330060427280346"><ele>296.6</ele><time>2026-04-04T14:19:07.001Z</time></trkpt><trkpt lat="43.052259518219216" lon="12.330190700907078"><ele>297.0</ele><time>2026-04-04T14:19:08.001Z</time></trkpt><trkpt lat="43.05221942429298" lon="12.3303109212176"><ele>297.0</ele><time>2026-04-04T14:19:09.001Z</time></trkpt><trkpt lat="43.05218519896061" lon="12.330429639016836"><ele>297.0</ele><time>2026-04-04T14:19:10.001Z</time></trkpt><trkpt lat="43.05214921139365" lon="12.330529293873267"><ele>297.0</ele><time>2026-04-04T14:19:11.001Z</time></trkpt><trkpt lat="43.0521163116116" lon="12.330623260918808"><ele>297.0</ele><time>2026-04-04T14:19:12.001Z</time></trkpt><trkpt lat="43.05207883921367" lon="12.3307261809722"><ele>297.0</ele><time>2026-04-04T14:19:13.001Z</time></trkpt><trkpt lat="43.05204275612466" lon="12.33082711944612"><ele>297.0</ele><time>2026-04-04T14:19:14.001Z</time></trkpt><trkpt lat="43.05202758234458" lon="12.330941533104673"><ele>297.25</ele><time>2026-04-04T14:19:15.001Z</time></trkpt><trkpt lat="43.05206178134065" lon="12.331070844281971"><ele>297.5</ele><time>2026-04-04T14:19:16.001Z</time></trkpt><trkpt lat="43.052130125172084" lon="12.33118955035528"><ele>297.75</ele><time>2026-04-04T14:19:17.001Z</time></trkpt><trkpt lat="43.052232195542935" lon="12.33129821060136"><ele>298.0</ele><time>2026-04-04T14:19:18.001Z</time></trkpt><trkpt lat="43.052353750409" lon="12.331460291720617"><ele>297.3333333333333</ele><time>2026-04-04T14:19:19.001Z</time></trkpt><trkpt lat="43.05252235878384" lon="12.331670433477559"><ele>296.6666666666667</ele><time>2026-04-04T14:19:20.001Z</time></trkpt><trkpt lat="43.052667127837104" lon="12.331854488093692"><ele>296.0</ele><time>2026-04-04T14:19:21.001Z</time></trkpt><trkpt lat="43.05278753662656" lon="12.332027361605896"><ele>296.0</ele><time>2026-04-04T14:19:22.001Z</time></trkpt><trkpt lat="43.05289576667102" lon="12.332174824389977"><ele>296.0</ele><time>2026-04-04T14:19:23.001Z</time></trkpt><trkpt lat="43.052979808177575" lon="12.33231300006712"><ele>296.0</ele><time>2026-04-04T14:19:24.001Z</time></trkpt><trkpt lat="43.053071028987674" lon="12.332435715681173"><ele>296.0</ele><time>2026-04-04T14:19:25.001Z</time></trkpt><trkpt lat="43.053156406456935" lon="12.332553584252937"><ele>296.2</ele><time>2026-04-04T14:19:26.001Z</time></trkpt><trkpt lat="43.05323987135947" lon="12.332659737237384"><ele>296.40000000000003</ele><time>2026-04-04T14:19:27.001Z</time></trkpt><trkpt lat="43.0533209760493" lon="12.332759013815325"><ele>296.6</ele><time>2026-04-04T14:19:28.001Z</time></trkpt><trkpt lat="43.05339620785466" lon="12.33285175391684"><ele>296.8</ele><time>2026-04-04T14:19:29.001Z</time></trkpt><trkpt lat="43.05347635087501" lon="12.33295346265555"><ele>297.0</ele><time>2026-04-04T14:19:30.001Z</time></trkpt><trkpt lat="43.05355809383354" lon="12.333062044497254"><ele>295.4</ele><time>2026-04-04T14:19:31.001Z</time></trkpt><trkpt lat="43.05363980334386" lon="12.333169730344839"><ele>293.79999999999995</ele><time>2026-04-04T14:19:32.001Z</time></trkpt><trkpt lat="43.05371947535393" lon="12.333276069365166"><ele>292.2</ele><time>2026-04-04T14:19:33.001Z</time></trkpt><trkpt lat="43.05380079194133" lon="12.333381498529997"><ele>290.59999999999997</ele><time>2026-04-04T14:19:34.001Z</time></trkpt><trkpt lat="43.05387940234867" lon="12.333486815163386"><ele>289.0</ele><time>2026-04-04T14:19:35.001Z</time></trkpt><trkpt lat="43.05395684846178" lon="12.333589659885648"><ele>289.0</ele><time>2026-04-04T14:19:36Z</time></trkpt><trkpt lat="43.05403264423629" lon="12.333685655732886"><ele>289.0</ele><time>2026-04-04T14:19:37Z</time></trkpt><trkpt lat="43.05410211269254" lon="12.333771658381133"><ele>289.0</ele><time>2026-04-04T14:19:38Z</time></trkpt><trkpt lat="43.05416403111075" lon="12.333852538008085"><ele>289.0</ele><time>2026-04-04T14:19:39Z</time></trkpt><trkpt lat="43.05423070908253" lon="12.333935484313063"><ele>289.0</ele><time>2026-04-04T14:19:40Z</time></trkpt><trkpt lat="43.0543006424134" lon="12.33402001842999"><ele>288.8333333333333</ele><time>2026-04-04T14:19:41Z</time></trkpt><trkpt lat="43.054372532522784" lon="12.334108695631063"><ele>288.66666666666663</ele><time>2026-04-04T14:19:42Z</time></trkpt><trkpt lat="43.0544437741427" lon="12.334198316911825"><ele>288.5</ele><time>2026-04-04T14:19:43Z</time></trkpt><trkpt lat="43.0545048364185" lon="12.334277922196263"><ele>288.3333333333333</ele><time>2026-04-04T14:19:44Z</time></trkpt><trkpt lat="43.05455962210859" lon="12.334358126464688"><ele>288.1666666666667</ele><time>2026-04-04T14:19:45Z</time></trkpt><trkpt lat="43.05462382898277" lon="12.334442112353564"><ele>288.0</ele><time>2026-04-04T14:19:46Z</time></trkpt><trkpt lat="43.054685237372055" lon="12.334529104674939"><ele>288.0</ele><time>2026-04-04T14:19:47Z</time></trkpt><trkpt lat="43.054760715277915" lon="12.334626432571698"><ele>288.0</ele><time>2026-04-04T14:19:48Z</time></trkpt><trkpt lat="43.054842102724386" lon="12.33473145798861"><ele>288.0</ele><time>2026-04-04T14:19:49Z</time></trkpt><trkpt lat="43.05492466376361" lon="12.334831382423515"><ele>288.0</ele><time>2026-04-04T14:19:50Z</time></trkpt><trkpt lat="43.05500283947119" lon="12.334922858407447"><ele>288.0</ele><time>2026-04-04T14:19:51Z</time></trkpt><trkpt lat="43.055080967673874" lon="12.335011929965226"><ele>287.5</ele><time>2026-04-04T14:19:52Z</time></trkpt><trkpt lat="43.05515165300248" lon="12.335094569294915"><ele>287.0</ele><time>2026-04-04T14:19:53Z</time></trkpt><trkpt lat="43.055226288545455" lon="12.335172895090764"><ele>286.5</ele><time>2026-04-04T14:19:54Z</time></trkpt><trkpt lat="43.05530177629891" lon="12.33525177320422"><ele>286.0</ele><time>2026-04-04T14:19:55Z</time></trkpt><trkpt lat="43.0553709273703" lon="12.335325734971727"><ele>285.5</ele><time>2026-04-04T14:19:56Z</time></trkpt><trkpt lat="43.05543303335809" lon="12.335392629248936"><ele>285.0</ele><time>2026-04-04T14:19:57Z</time></trkpt><trkpt lat="43.05549588493341" lon="12.335455623173788"><ele>285.0</ele><time>2026-04-04T14:19:58Z</time></trkpt><trkpt lat="43.055554587851" lon="12.335517062262394"><ele>285.0</ele><time>2026-04-04T14:19:59Z</time></trkpt><trkpt lat="43.05561744807611" lon="12.335578764418479"><ele>285.0</ele><time>2026-04-04T14:20:00Z</time></trkpt><trkpt lat="43.05566967677591" lon="12.33565033133839"><ele>285.0</ele><time>2026-04-04T14:20:01Z</time></trkpt><trkpt lat="43.05570973627454" lon="12.335734089782461"><ele>285.0</ele><time>2026-04-04T14:20:02Z</time></trkpt><trkpt lat="43.05573488970663" lon="12.33582242472401"><ele>285.0</ele><time>2026-04-04T14:20:03Z</time></trkpt><trkpt lat="43.05574288440507" lon="12.335930142225488"><ele>285.0</ele><time>2026-04-04T14:20:04Z</time></trkpt><trkpt lat="43.05572200085542" lon="12.33603597892811"><ele>285.4</ele><time>2026-04-04T14:20:05Z</time></trkpt><trkpt lat="43.05567785484164" lon="12.336128088411842"><ele>285.8</ele><time>2026-04-04T14:20:06Z</time></trkpt><trkpt lat="43.05560391495365" lon="12.336187007774713"><ele>286.2</ele><time>2026-04-04T14:20:07Z</time></trkpt><trkpt lat="43.055501323212454" lon="12.336252210191368"><ele>286.6</ele><time>2026-04-04T14:20:08Z</time></trkpt><trkpt lat="43.055380714451886" lon="12.3363400135892"><ele>287.0</ele><time>2026-04-04T14:20:09Z</time></trkpt><trkpt lat="43.05525152644873" lon="12.33645068838056"><ele>287.6666666666667</ele><time>2026-04-04T14:20:10Z</time></trkpt><trkpt lat="43.055120688786474" lon="12.336553254620064"><ele>288.3333333333333</ele><time>2026-04-04T14:20:11Z</time></trkpt><trkpt lat="43.05497829264921" lon="12.336668643607544"><ele>289.0</ele><time>2026-04-04T14:20:12Z</time></trkpt><trkpt lat="43.05484306152622" lon="12.33676807627589"><ele>293.3333333333333</ele><time>2026-04-04T14:20:13Z</time></trkpt><trkpt lat="43.05470051202196" lon="12.336869482305797"><ele>297.6666666666667</ele><time>2026-04-04T14:20:14Z</time></trkpt><trkpt lat="43.0545526157468" lon="12.336990565935448"><ele>302.0</ele><time>2026-04-04T14:20:15Z</time></trkpt><trkpt lat="43.0544244904531" lon="12.337079598756448"><ele>302.0</ele><time>2026-04-04T14:20:16Z</time></trkpt><trkpt lat="43.054300551543605" lon="12.33717454697816"><ele>302.0</ele><time>2026-04-04T14:20:17Z</time></trkpt><trkpt lat="43.05418303238905" lon="12.337246021783338"><ele>302.0</ele><time>2026-04-04T14:20:18Z</time></trkpt><trkpt lat="43.0540461860904" lon="12.33730820479932"><ele>302.0</ele><time>2026-04-04T14:20:19Z</time></trkpt><trkpt lat="43.05390459485078" lon="12.337369975481916"><ele>301.8</ele><time>2026-04-04T14:20:20Z</time></trkpt><trkpt lat="43.05377006092898" lon="12.33744116292837"><ele>301.6</ele><time>2026-04-04T14:20:21Z</time></trkpt><trkpt lat="43.0536656764374" lon="12.337518396986061"><ele>301.40000000000003</ele><time>2026-04-04T14:20:22Z</time></trkpt><trkpt lat="43.053580033035686" lon="12.337582621436793"><ele>301.2</ele><time>2026-04-04T14:20:23Z</time></trkpt><trkpt lat="43.053504788434545" lon="12.337633166851662"><ele>301.0</ele><time>2026-04-04T14:20:24Z</time></trkpt><trkpt lat="43.0534429875087" lon="12.337664284476311"><ele>301.0</ele><time>2026-04-04T14:20:25Z</time></trkpt><trkpt lat="43.053364484982325" lon="12.337679379699603"><ele>301.0</ele><time>2026-04-04T14:20:28Z</time></trkpt><trkpt lat="43.05335106979834" lon="12.337785355613649"><ele>301.0</ele><time>2026-04-04T14:20:30Z</time></trkpt><trkpt lat="43.053361065400246" lon="12.337877910024874"><ele>301.0</ele><time>2026-04-04T14:20:31Z</time></trkpt><trkpt lat="43.053388997977" lon="12.337986724069582"><ele>301.0</ele><time>2026-04-04T14:20:32Z</time></trkpt><trkpt lat="43.053427477136005" lon="12.338111875378518"><ele>301.0</ele><time>2026-04-04T14:20:33Z</time></trkpt><trkpt lat="43.05347751049327" lon="12.338279044705565"><ele>300.0</ele><time>2026-04-04T14:20:34Z</time></trkpt><trkpt lat="43.05352078808358" lon="12.33845433837254"><ele>299.0</ele><time>2026-04-04T14:20:35Z</time></trkpt><trkpt lat="43.05357832658666" lon="12.338629406594059"><ele>298.0</ele><time>2026-04-04T14:20:36Z</time></trkpt><trkpt lat="43.05365296781962" lon="12.338795663931197"><ele>297.0</ele><time>2026-04-04T14:20:37Z</time></trkpt><trkpt lat="43.053739659021325" lon="12.33894536003704"><ele>296.25</ele><time>2026-04-04T14:20:38Z</time></trkpt><trkpt lat="43.053829225713315" lon="12.339089284753848"><ele>295.5</ele><time>2026-04-04T14:20:39Z</time></trkpt><trkpt lat="43.0539137268778" lon="12.339218261772874"><ele>294.75</ele><time>2026-04-04T14:20:40Z</time></trkpt><trkpt lat="43.0539913078764" lon="12.339340324571523"><ele>294.0</ele><time>2026-04-04T14:20:41Z</time></trkpt><trkpt lat="43.05406235683041" lon="12.33945316966915"><ele>293.8</ele><time>2026-04-04T14:20:42Z</time></trkpt><trkpt lat="43.05412641050187" lon="12.339560279080212"><ele>293.59999999999997</ele><time>2026-04-04T14:20:43Z</time></trkpt><trkpt lat="43.05416321681443" lon="12.33967403667799"><ele>293.4</ele><time>2026-04-04T14:20:44Z</time></trkpt><trkpt lat="43.05417541334043" lon="12.339786129561785"><ele>293.2</ele><time>2026-04-04T14:20:45Z</time></trkpt><trkpt lat="43.054177845162236" lon="12.33992818904446"><ele>293.0</ele><time>2026-04-04T14:20:46Z</time></trkpt><trkpt lat="43.05415491781666" lon="12.340088470486984"><ele>292.0</ele><time>2026-04-04T14:20:47Z</time></trkpt><trkpt lat="43.054116460413525" lon="12.340238883721126"><ele>291.0</ele><time>2026-04-04T14:20:48Z</time></trkpt><trkpt lat="43.05407372905418" lon="12.340394554246517"><ele>290.0</ele><time>2026-04-04T14:20:49.001Z</time></trkpt><trkpt lat="43.054016744896245" lon="12.340571720878199"><ele>289.0</ele><time>2026-04-04T14:20:50.001Z</time></trkpt><trkpt lat="43.05395326867731" lon="12.340738082196877"><ele>288.25</ele><time>2026-04-04T14:20:51.001Z</time></trkpt><trkpt lat="43.05388815073112" lon="12.340908315839185"><ele>287.5</ele><time>2026-04-04T14:20:52.001Z</time></trkpt><trkpt lat="43.053823860486716" lon="12.341065424423094"><ele>286.75</ele><time>2026-04-04T14:20:53.001Z</time></trkpt><trkpt lat="43.05376864403695" lon="12.341209718665047"><ele>286.0</ele><time>2026-04-04T14:20:54.001Z</time></trkpt><trkpt lat="43.05370783750434" lon="12.341361978573746"><ele>286.0</ele><time>2026-04-04T14:20:55.001Z</time></trkpt><trkpt lat="43.053644354686675" lon="12.341516593937586"><ele>286.0</ele><time>2026-04-04T14:20:56.001Z</time></trkpt><trkpt lat="43.05357989362214" lon="12.34164842451533"><ele>286.0</ele><time>2026-04-04T14:20:57.001Z</time></trkpt><trkpt lat="43.05349536004712" lon="12.3417695944016"><ele>286.0</ele><time>2026-04-04T14:20:58.001Z</time></trkpt><trkpt lat="43.053391704260235" lon="12.341880362030539"><ele>284.5</ele><time>2026-04-04T14:20:59.001Z</time></trkpt><trkpt lat="43.05326473976076" lon="12.34196378898093"><ele>283.0</ele><time>2026-04-04T14:21:00.001Z</time></trkpt><trkpt lat="43.053126857233515" lon="12.342031649387378"><ele>281.5</ele><time>2026-04-04T14:21:01.001Z</time></trkpt><trkpt lat="43.05299408015846" lon="12.342113627181991"><ele>280.0</ele><time>2026-04-04T14:21:02.001Z</time></trkpt><trkpt lat="43.052870802356225" lon="12.342211580724898"><ele>279.3333333333333</ele><time>2026-04-04T14:21:03.001Z</time></trkpt><trkpt lat="43.05274618368313" lon="12.342337768243796"><ele>278.6666666666667</ele><time>2026-04-04T14:21:04.001Z</time></trkpt><trkpt lat="43.052637868260135" lon="12.342482212186518"><ele>278.0</ele><time>2026-04-04T14:21:05.001Z</time></trkpt><trkpt lat="43.052535873323215" lon="12.342649372185473"><ele>275.33333333333337</ele><time>2026-04-04T14:21:06.001Z</time></trkpt><trkpt lat="43.05244943605012" lon="12.342826427991684"><ele>272.6666666666667</ele><time>2026-04-04T14:21:07.001Z</time></trkpt><trkpt lat="43.052368773071045" lon="12.343004633243204"><ele>270.0</ele><time>2026-04-04T14:21:08.001Z</time></trkpt><trkpt lat="43.05224479890931" lon="12.343141487099583"><ele>269.6666666666667</ele><time>2026-04-04T14:21:09.001Z</time></trkpt><trkpt lat="43.052149873643536" lon="12.34329520735814"><ele>269.33333333333337</ele><time>2026-04-04T14:21:10.001Z</time></trkpt><trkpt lat="43.05203952288047" lon="12.343458195733719"><ele>269.0</ele><time>2026-04-04T14:21:11.001Z</time></trkpt><trkpt lat="43.0519247279398" lon="12.34362057399384"><ele>269.0</ele><time>2026-04-04T14:21:12.001Z</time></trkpt><trkpt lat="43.051804365917526" lon="12.343787809272074"><ele>269.0</ele><time>2026-04-04T14:21:13.001Z</time></trkpt><trkpt lat="43.05169524388268" lon="12.343944288526846"><ele>269.0</ele><time>2026-04-04T14:21:14.001Z</time></trkpt><trkpt lat="43.05159917104701" lon="12.344104380601529"><ele>268.0</ele><time>2026-04-04T14:21:15.001Z</time></trkpt><trkpt lat="43.05151220433508" lon="12.34427319264595"><ele>267.0</ele><time>2026-04-04T14:21:16.001Z</time></trkpt><trkpt lat="43.051433847176455" lon="12.344435420255623"><ele>266.0</ele><time>2026-04-04T14:21:17.001Z</time></trkpt><trkpt lat="43.05135658581872" lon="12.34459537912153"><ele>265.0</ele><time>2026-04-04T14:21:18.001Z</time></trkpt><trkpt lat="43.051275197255805" lon="12.344763872858978"><ele>265.0</ele><time>2026-04-04T14:21:19.001Z</time></trkpt><trkpt lat="43.05118963847448" lon="12.34492474903075"><ele>265.0</ele><time>2026-04-04T14:21:20.001Z</time></trkpt><trkpt lat="43.05109156704118" lon="12.345082824483226"><ele>265.0</ele><time>2026-04-04T14:21:21.001Z</time></trkpt><trkpt lat="43.0509846690796" lon="12.345243958739117"><ele>265.0</ele><time>2026-04-04T14:21:22.001Z</time></trkpt><trkpt lat="43.050880104067566" lon="12.345409310385664"><ele>265.0</ele><time>2026-04-04T14:21:23.001Z</time></trkpt><trkpt lat="43.05077907103361" lon="12.34557800619269"><ele>265.0</ele><time>2026-04-04T14:21:24.001Z</time></trkpt><trkpt lat="43.05068533331964" lon="12.345741206630093"><ele>264.25</ele><time>2026-04-04T14:21:25.001Z</time></trkpt><trkpt lat="43.05059582909009" lon="12.345910863994423"><ele>263.5</ele><time>2026-04-04T14:21:26.001Z</time></trkpt><trkpt lat="43.05051257056801" lon="12.346081050119558"><ele>262.75</ele><time>2026-04-04T14:21:27.001Z</time></trkpt><trkpt lat="43.05043743610367" lon="12.346248208509483"><ele>262.0</ele><time>2026-04-04T14:21:28.001Z</time></trkpt><trkpt lat="43.05036864060765" lon="12.346413213667695"><ele>262.0</ele><time>2026-04-04T14:21:29.001Z</time></trkpt><trkpt lat="43.050309596487196" lon="12.346568824279709"><ele>262.0</ele><time>2026-04-04T14:21:30.001Z</time></trkpt><trkpt lat="43.0502570594841" lon="12.346716860163596"><ele>262.0</ele><time>2026-04-04T14:21:31.001Z</time></trkpt><trkpt lat="43.05020675893746" lon="12.346859276746583"><ele>262.0</ele><time>2026-04-04T14:21:32.001Z</time></trkpt><trkpt lat="43.05015403125863" lon="12.347015931765876"><ele>262.0</ele><time>2026-04-04T14:21:33.001Z</time></trkpt><trkpt lat="43.05010597024988" lon="12.347166331648708"><ele>262.0</ele><time>2026-04-04T14:21:34.001Z</time></trkpt><trkpt lat="43.050059345023655" lon="12.347330155721659"><ele>262.0</ele><time>2026-04-04T14:21:35.001Z</time></trkpt><trkpt lat="43.05002003783095" lon="12.3475086429532"><ele>262.0</ele><time>2026-04-04T14:21:36.001Z</time></trkpt><trkpt lat="43.04999714194638" lon="12.347678542877675"><ele>262.3333333333333</ele><time>2026-04-04T14:21:37.001Z</time></trkpt><trkpt lat="43.04998416173191" lon="12.347857357858581"><ele>262.6666666666667</ele><time>2026-04-04T14:21:38.001Z</time></trkpt><trkpt lat="43.049975276631855" lon="12.348091286074945"><ele>263.0</ele><time>2026-04-04T14:21:39.001Z</time></trkpt><trkpt lat="43.04996742639893" lon="12.348339708671265"><ele>262.33333333333337</ele><time>2026-04-04T14:21:40.001Z</time></trkpt><trkpt lat="43.04996333640336" lon="12.348566599363437"><ele>261.6666666666667</ele><time>2026-04-04T14:21:41.001Z</time></trkpt><trkpt lat="43.049959154087695" lon="12.348782067552463"><ele>261.0</ele><time>2026-04-04T14:21:42Z</time></trkpt><trkpt lat="43.0499547646462" lon="12.349001360484802"><ele>261.0</ele><time>2026-04-04T14:21:43Z</time></trkpt><trkpt lat="43.04994947224489" lon="12.349213120138199"><ele>261.0</ele><time>2026-04-04T14:21:44Z</time></trkpt><trkpt lat="43.04994293857339" lon="12.349420337645494"><ele>261.0</ele><time>2026-04-04T14:21:45Z</time></trkpt><trkpt lat="43.04993650457271" lon="12.349613682501749"><ele>261.0</ele><time>2026-04-04T14:21:46Z</time></trkpt><trkpt lat="43.04992938723542" lon="12.349804143795588"><ele>260.75</ele><time>2026-04-04T14:21:47Z</time></trkpt><trkpt lat="43.04992230501291" lon="12.349993665586052"><ele>260.5</ele><time>2026-04-04T14:21:48Z</time></trkpt><trkpt lat="43.04991551287805" lon="12.350164455165684"><ele>260.25</ele><time>2026-04-04T14:21:49Z</time></trkpt><trkpt lat="43.049909004800526" lon="12.350318557209022"><ele>260.0</ele><time>2026-04-04T14:21:50Z</time></trkpt><trkpt lat="43.04990342628725" lon="12.350450648498274"><ele>259.2</ele><time>2026-04-04T14:21:51Z</time></trkpt><trkpt lat="43.04989940469818" lon="12.35054548859287"><ele>258.4</ele><time>2026-04-04T14:21:52Z</time></trkpt><trkpt lat="43.04988886937819" lon="12.350743000300863"><ele>257.6</ele><time>2026-04-04T14:21:54Z</time></trkpt><trkpt lat="43.049896604442075" lon="12.350882720820762"><ele>256.8</ele><time>2026-04-04T14:21:55Z</time></trkpt><trkpt lat="43.04988677265886" lon="12.351004435870523"><ele>256.0</ele><time>2026-04-04T14:21:56Z</time></trkpt><trkpt lat="43.049867693124256" lon="12.351096845404628"><ele>256.0</ele><time>2026-04-04T14:21:57Z</time></trkpt><trkpt lat="43.049854782585754" lon="12.351185679186168"><ele>256.0</ele><time>2026-04-04T14:21:59Z</time></trkpt><trkpt lat="43.049749886437354" lon="12.351212292349533"><ele>256.0</ele><time>2026-04-04T14:22:01Z</time></trkpt><trkpt lat="43.049659542320214" lon="12.35119506416611"><ele>256.0</ele><time>2026-04-04T14:22:02Z</time></trkpt><trkpt lat="43.04955383526416" lon="12.351180638076414"><ele>256.0</ele><time>2026-04-04T14:22:03Z</time></trkpt><trkpt lat="43.049414056387675" lon="12.35118230048997"><ele>256.0</ele><time>2026-04-04T14:22:04Z</time></trkpt><trkpt lat="43.04924275744773" lon="12.351129606799741"><ele>256.0</ele><time>2026-04-04T14:22:05Z</time></trkpt><trkpt lat="43.049062034305024" lon="12.351079404242263"><ele>256.0</ele><time>2026-04-04T14:22:06Z</time></trkpt><trkpt lat="43.04888039590622" lon="12.3510230330454"><ele>253.33333333333331</ele><time>2026-04-04T14:22:07Z</time></trkpt><trkpt lat="43.04870939570216" lon="12.350968140836091"><ele>250.66666666666669</ele><time>2026-04-04T14:22:08Z</time></trkpt><trkpt lat="43.048512904418835" lon="12.350911517387535"><ele>248.0</ele><time>2026-04-04T14:22:09Z</time></trkpt><trkpt lat="43.048307220316694" lon="12.350857042688405"><ele>245.0</ele><time>2026-04-04T14:22:10Z</time></trkpt><trkpt lat="43.04811356636563" lon="12.35080320493119"><ele>242.0</ele><time>2026-04-04T14:22:11Z</time></trkpt><trkpt lat="43.047925725175325" lon="12.35075495279324"><ele>239.0</ele><time>2026-04-04T14:22:12Z</time></trkpt><trkpt lat="43.04772704863134" lon="12.35069887866864"><ele>239.0</ele><time>2026-04-04T14:22:13Z</time></trkpt><trkpt lat="43.04753646686948" lon="12.350641802280656"><ele>239.0</ele><time>2026-04-04T14:22:14Z</time></trkpt><trkpt lat="43.047340825251766" lon="12.350588048012712"><ele>239.0</ele><time>2026-04-04T14:22:15Z</time></trkpt><trkpt lat="43.04713425100767" lon="12.35052805654024"><ele>239.0</ele><time>2026-04-04T14:22:16Z</time></trkpt><trkpt lat="43.04693228997664" lon="12.350469497026795"><ele>239.0</ele><time>2026-04-04T14:22:17Z</time></trkpt><trkpt lat="43.04674069500098" lon="12.350414671252375"><ele>239.0</ele><time>2026-04-04T14:22:18Z</time></trkpt><trkpt lat="43.04656777948738" lon="12.350363291902514"><ele>237.33333333333334</ele><time>2026-04-04T14:22:19Z</time></trkpt><trkpt lat="43.046393228711906" lon="12.35031563401987"><ele>235.66666666666669</ele><time>2026-04-04T14:22:20Z</time></trkpt><trkpt lat="43.04621853887927" lon="12.350242905225452"><ele>234.0</ele><time>2026-04-04T14:22:21Z</time></trkpt><trkpt lat="43.046030542315236" lon="12.35021174307308"><ele>234.0</ele><time>2026-04-04T14:22:22Z</time></trkpt><trkpt lat="43.045834339719924" lon="12.350150934025402"><ele>234.0</ele><time>2026-04-04T14:22:23Z</time></trkpt><trkpt lat="43.045661499296905" lon="12.350081340933874"><ele>234.0</ele><time>2026-04-04T14:22:24Z</time></trkpt><trkpt lat="43.045495534282644" lon="12.350032557800922"><ele>233.0</ele><time>2026-04-04T14:22:25Z</time></trkpt><trkpt lat="43.0453375727176" lon="12.349986127184172"><ele>232.0</ele><time>2026-04-04T14:22:26Z</time></trkpt><trkpt lat="43.04518971420851" lon="12.349965540204503"><ele>231.0</ele><time>2026-04-04T14:22:27Z</time></trkpt><trkpt lat="43.04506117135568" lon="12.34990488281149"><ele>230.0</ele><time>2026-04-04T14:22:28Z</time></trkpt><trkpt lat="43.044922492650635" lon="12.349864120136997"><ele>228.75</ele><time>2026-04-04T14:22:29Z</time></trkpt><trkpt lat="43.04478520535301" lon="12.349824249498578"><ele>227.5</ele><time>2026-04-04T14:22:30Z</time></trkpt><trkpt lat="43.04465834291737" lon="12.349787022864168"><ele>226.25</ele><time>2026-04-04T14:22:31Z</time></trkpt><trkpt lat="43.04453447341071" lon="12.349750971811046"><ele>225.0</ele><time>2026-04-04T14:22:32Z</time></trkpt><trkpt lat="43.044413821713526" lon="12.34971820412892"><ele>225.0</ele><time>2026-04-04T14:22:33Z</time></trkpt><trkpt lat="43.04430136364897" lon="12.349709002704762"><ele>225.0</ele><time>2026-04-04T14:22:34Z</time></trkpt><trkpt lat="43.04419450881138" lon="12.349671394874223"><ele>225.0</ele><time>2026-04-04T14:22:35Z</time></trkpt><trkpt lat="43.0440869146781" lon="12.349642734998469"><ele>225.0</ele><time>2026-04-04T14:22:36Z</time></trkpt><trkpt lat="43.043991421806375" lon="12.349618670549319"><ele>225.0</ele><time>2026-04-04T14:22:37Z</time></trkpt><trkpt lat="43.04390056991554" lon="12.349592688195067"><ele>224.5</ele><time>2026-04-04T14:22:38.001Z</time></trkpt><trkpt lat="43.043830348387544" lon="12.34957264126775"><ele>224.0</ele><time>2026-04-04T14:22:39.001Z</time></trkpt><trkpt lat="43.04375859698916" lon="12.349553618869004"><ele>223.5</ele><time>2026-04-04T14:22:40.001Z</time></trkpt><trkpt lat="43.04364720586182" lon="12.349509929451573"><ele>223.0</ele><time>2026-04-04T14:22:42.001Z</time></trkpt><trkpt lat="43.043589473808126" lon="12.349470564014803"><ele>222.5</ele><time>2026-04-04T14:22:44.001Z</time></trkpt><trkpt lat="43.043524087747805" lon="12.349462632574257"><ele>222.0</ele><time>2026-04-04T14:22:46.001Z</time></trkpt><trkpt lat="43.043384997576716" lon="12.349541429200164"><ele>222.0</ele><time>2026-04-04T14:22:48.001Z</time></trkpt><trkpt lat="43.04330949041206" lon="12.349648043787315"><ele>222.0</ele><time>2026-04-04T14:22:49.001Z</time></trkpt><trkpt lat="43.043233656956936" lon="12.349800482578775"><ele>222.0</ele><time>2026-04-04T14:22:50.001Z</time></trkpt><trkpt lat="43.04312525082787" lon="12.349967425721628"><ele>222.0</ele><time>2026-04-04T14:22:51.001Z</time></trkpt><trkpt lat="43.043033971231885" lon="12.350192047940178"><ele>221.33333333333331</ele><time>2026-04-04T14:22:52.001Z</time></trkpt><trkpt lat="43.04293883210228" lon="12.350430293962027"><ele>220.66666666666666</ele><time>2026-04-04T14:22:53.001Z</time></trkpt><trkpt lat="43.04283537202253" lon="12.350688508504664"><ele>220.0</ele><time>2026-04-04T14:22:54.001Z</time></trkpt><trkpt lat="43.042729872432396" lon="12.350949663132518"><ele>220.0</ele><time>2026-04-04T14:22:55.001Z</time></trkpt><trkpt lat="43.042629163412236" lon="12.351192983470227"><ele>220.0</ele><time>2026-04-04T14:22:56.001Z</time></trkpt><trkpt lat="43.042529802798676" lon="12.351410450710048"><ele>220.0</ele><time>2026-04-04T14:22:57.001Z</time></trkpt><trkpt lat="43.042406352416776" lon="12.351596172703573"><ele>220.0</ele><time>2026-04-04T14:22:58.001Z</time></trkpt><trkpt lat="43.04225042796535" lon="12.351762927939655"><ele>220.0</ele><time>2026-04-04T14:22:59.001Z</time></trkpt><trkpt lat="43.04208063830896" lon="12.351938490237467"><ele>220.0</ele><time>2026-04-04T14:23:00.001Z</time></trkpt><trkpt lat="43.04193023070771" lon="12.352099506807505"><ele>220.0</ele><time>2026-04-04T14:23:01.001Z</time></trkpt><trkpt lat="43.04179354921042" lon="12.352292204254175"><ele>220.0</ele><time>2026-04-04T14:23:02.001Z</time></trkpt><trkpt lat="43.041685891940155" lon="12.35253906108753"><ele>220.0</ele><time>2026-04-04T14:23:03.001Z</time></trkpt><trkpt lat="43.041591338681336" lon="12.35280830123324"><ele>219.66666666666666</ele><time>2026-04-04T14:23:04.001Z</time></trkpt><trkpt lat="43.04150311822658" lon="12.353073559141185"><ele>219.33333333333331</ele><time>2026-04-04T14:23:05.001Z</time></trkpt><trkpt lat="43.04141600549933" lon="12.35333479073134"><ele>219.0</ele><time>2026-04-04T14:23:06.001Z</time></trkpt><trkpt lat="43.04132751959019" lon="12.35360216309363"><ele>219.0</ele><time>2026-04-04T14:23:07.001Z</time></trkpt><trkpt lat="43.04123934415116" lon="12.353866685969159"><ele>219.0</ele><time>2026-04-04T14:23:08.001Z</time></trkpt><trkpt lat="43.04114824211797" lon="12.354139660052482"><ele>219.0</ele><time>2026-04-04T14:23:09.001Z</time></trkpt><trkpt lat="43.04105770388193" lon="12.354410944785402"><ele>219.0</ele><time>2026-04-04T14:23:10.001Z</time></trkpt><trkpt lat="43.040966716984144" lon="12.354678455453763"><ele>219.0</ele><time>2026-04-04T14:23:11.001Z</time></trkpt><trkpt lat="43.04087002752547" lon="12.35495629812534"><ele>219.0</ele><time>2026-04-04T14:23:12.001Z</time></trkpt><trkpt lat="43.0407664269919" lon="12.355245337085533"><ele>219.5</ele><time>2026-04-04T14:23:13.001Z</time></trkpt><trkpt lat="43.040661433978585" lon="12.355536811554096"><ele>220.0</ele><time>2026-04-04T14:23:14.001Z</time></trkpt><trkpt lat="43.040556975178234" lon="12.355833263751588"><ele>222.0</ele><time>2026-04-04T14:23:15.001Z</time></trkpt><trkpt lat="43.040453968373775" lon="12.356129474962744"><ele>224.0</ele><time>2026-04-04T14:23:16.001Z</time></trkpt><trkpt lat="43.040352922032" lon="12.356420048728873"><ele>225.5</ele><time>2026-04-04T14:23:17.001Z</time></trkpt><trkpt lat="43.04025275055602" lon="12.356708113788454"><ele>227.0</ele><time>2026-04-04T14:23:18.001Z</time></trkpt><trkpt lat="43.04015287559668" lon="12.356994603110424"><ele>228.33333333333334</ele><time>2026-04-04T14:23:19.001Z</time></trkpt><trkpt lat="43.040053059755806" lon="12.357272115317336"><ele>229.66666666666669</ele><time>2026-04-04T14:23:20.001Z</time></trkpt><trkpt lat="43.03994394260344" lon="12.357532616274892"><ele>231.0</ele><time>2026-04-04T14:23:21.001Z</time></trkpt><trkpt lat="43.03983703645382" lon="12.357783292712378"><ele>234.0</ele><time>2026-04-04T14:23:22.001Z</time></trkpt><trkpt lat="43.039747313720326" lon="12.35799824825261"><ele>237.0</ele><time>2026-04-04T14:23:23.001Z</time></trkpt><trkpt lat="43.039682768504605" lon="12.358229996372003"><ele>240.0</ele><time>2026-04-04T14:23:24.001Z</time></trkpt><trkpt lat="43.03964182083702" lon="12.358451463591688"><ele>242.33333333333331</ele><time>2026-04-04T14:23:25.001Z</time></trkpt><trkpt lat="43.039696788601304" lon="12.358678225615602"><ele>244.66666666666666</ele><time>2026-04-04T14:23:26.001Z</time></trkpt><trkpt lat="43.03974182961033" lon="12.358886969171346"><ele>247.0</ele><time>2026-04-04T14:23:27.001Z</time></trkpt><trkpt lat="43.03977414445828" lon="12.359107402266947"><ele>248.33333333333331</ele><time>2026-04-04T14:23:28.001Z</time></trkpt><trkpt lat="43.03981197492787" lon="12.35934047610539"><ele>249.66666666666669</ele><time>2026-04-04T14:23:29.001Z</time></trkpt><trkpt lat="43.03984482201204" lon="12.359585470660264"><ele>251.0</ele><time>2026-04-04T14:23:30.001Z</time></trkpt><trkpt lat="43.03986809542263" lon="12.359840580019036"><ele>252.33333333333334</ele><time>2026-04-04T14:23:31.001Z</time></trkpt><trkpt lat="43.03987960741136" lon="12.36009231348844"><ele>253.66666666666669</ele><time>2026-04-04T14:23:32.001Z</time></trkpt><trkpt lat="43.03986822821549" lon="12.360335064106913"><ele>255.0</ele><time>2026-04-04T14:23:33.001Z</time></trkpt><trkpt lat="43.039825902022045" lon="12.360552208203604"><ele>255.66666666666669</ele><time>2026-04-04T14:23:34.001Z</time></trkpt><trkpt lat="43.03974898557717" lon="12.360771158381791"><ele>256.33333333333337</ele><time>2026-04-04T14:23:35.001Z</time></trkpt><trkpt lat="43.039655351983086" lon="12.36099734831266"><ele>257.0</ele><time>2026-04-04T14:23:36.001Z</time></trkpt><trkpt lat="43.03956069121077" lon="12.361208643010512"><ele>256.6666666666667</ele><time>2026-04-04T14:23:37.001Z</time></trkpt><trkpt lat="43.039452703800244" lon="12.361370297703106"><ele>256.3333333333333</ele><time>2026-04-04T14:23:38.001Z</time></trkpt><trkpt lat="43.039324295301206" lon="12.361515824983082"><ele>256.0</ele><time>2026-04-04T14:23:39.001Z</time></trkpt><trkpt lat="43.039183166028046" lon="12.361618203121528"><ele>257.0</ele><time>2026-04-04T14:23:40.001Z</time></trkpt><trkpt lat="43.039016663624075" lon="12.361688800244409"><ele>258.0</ele><time>2026-04-04T14:23:41.001Z</time></trkpt><trkpt lat="43.03883964665179" lon="12.36171696940377"><ele>259.0</ele><time>2026-04-04T14:23:42.001Z</time></trkpt><trkpt lat="43.03864840883613" lon="12.361701924690662"><ele>259.0</ele><time>2026-04-04T14:23:43.001Z</time></trkpt><trkpt lat="43.03842583632899" lon="12.361656718869721"><ele>259.0</ele><time>2026-04-04T14:23:44.001Z</time></trkpt><trkpt lat="43.038173368217855" lon="12.361624973829105"><ele>260.5</ele><time>2026-04-04T14:23:45.001Z</time></trkpt><trkpt lat="43.037916575375505" lon="12.36157844842513"><ele>262.0</ele><time>2026-04-04T14:23:46.001Z</time></trkpt><trkpt lat="43.03769306821698" lon="12.361560649353349"><ele>262.0</ele><time>2026-04-04T14:23:47.001Z</time></trkpt><trkpt lat="43.03750043013876" lon="12.361554182618015"><ele>262.0</ele><time>2026-04-04T14:23:48.001Z</time></trkpt><trkpt lat="43.037320758606754" lon="12.361556385866388"><ele>262.0</ele><time>2026-04-04T14:23:49.001Z</time></trkpt><trkpt lat="43.03715562922483" lon="12.361599002985352"><ele>262.66666666666663</ele><time>2026-04-04T14:23:50.001Z</time></trkpt><trkpt lat="43.036988882053805" lon="12.361681368828764"><ele>263.3333333333333</ele><time>2026-04-04T14:23:51.001Z</time></trkpt><trkpt lat="43.03682536258231" lon="12.361815407047233"><ele>264.0</ele><time>2026-04-04T14:23:52.001Z</time></trkpt><trkpt lat="43.036665278865506" lon="12.3619507093069"><ele>264.0</ele><time>2026-04-04T14:23:53.001Z</time></trkpt><trkpt lat="43.036527675100956" lon="12.362123691174574"><ele>264.0</ele><time>2026-04-04T14:23:54.001Z</time></trkpt><trkpt lat="43.03637790725794" lon="12.362261664906718"><ele>264.0</ele><time>2026-04-04T14:23:55.001Z</time></trkpt><trkpt lat="43.0362517538051" lon="12.36243029148497"><ele>264.3333333333333</ele><time>2026-04-04T14:23:56.001Z</time></trkpt><trkpt lat="43.03614983429399" lon="12.362630774142087"><ele>264.66666666666663</ele><time>2026-04-04T14:23:57.001Z</time></trkpt><trkpt lat="43.03607456385025" lon="12.362879922854589"><ele>265.0</ele><time>2026-04-04T14:23:58.001Z</time></trkpt><trkpt lat="43.03596095069249" lon="12.363145943309366"><ele>264.0</ele><time>2026-04-04T14:23:59.001Z</time></trkpt><trkpt lat="43.03585916756568" lon="12.363426829537204"><ele>263.0</ele><time>2026-04-04T14:24:00.001Z</time></trkpt><trkpt lat="43.03575532206618" lon="12.363709268928595"><ele>265.6666666666667</ele><time>2026-04-04T14:24:01.001Z</time></trkpt><trkpt lat="43.03565156255455" lon="12.363961212639444"><ele>268.3333333333333</ele><time>2026-04-04T14:24:02Z</time></trkpt><trkpt lat="43.035536402090685" lon="12.364187314307463"><ele>271.0</ele><time>2026-04-04T14:24:03Z</time></trkpt><trkpt lat="43.03540354523092" lon="12.364406590460638"><ele>271.0</ele><time>2026-04-04T14:24:04Z</time></trkpt><trkpt lat="43.03527252543467" lon="12.364602299542373"><ele>271.0</ele><time>2026-04-04T14:24:05Z</time></trkpt><trkpt lat="43.03515311459997" lon="12.364764536296345"><ele>271.0</ele><time>2026-04-04T14:24:06Z</time></trkpt><trkpt lat="43.03504610364092" lon="12.364895666851924"><ele>271.0</ele><time>2026-04-04T14:24:07Z</time></trkpt><trkpt lat="43.034945032194386" lon="12.365012556136177"><ele>271.0</ele><time>2026-04-04T14:24:08Z</time></trkpt><trkpt lat="43.03485505942777" lon="12.365116289965245"><ele>271.0</ele><time>2026-04-04T14:24:09Z</time></trkpt><trkpt lat="43.03477944175627" lon="12.36518394329253"><ele>271.0</ele><time>2026-04-04T14:24:10Z</time></trkpt><trkpt lat="43.0346994555429" lon="12.36519637571134"><ele>271.0</ele><time>2026-04-04T14:24:11Z</time></trkpt><trkpt lat="43.034615228573536" lon="12.365185711242361"><ele>271.0</ele><time>2026-04-04T14:24:12Z</time></trkpt><trkpt lat="43.03452323718216" lon="12.365128507448414"><ele>271.0</ele><time>2026-04-04T14:24:13Z</time></trkpt><trkpt lat="43.034430976006696" lon="12.365038390413472"><ele>271.0</ele><time>2026-04-04T14:24:14Z</time></trkpt><trkpt lat="43.034314807576834" lon="12.364903721549277"><ele>271.0</ele><time>2026-04-04T14:24:15Z</time></trkpt><trkpt lat="43.03417376331441" lon="12.364760503292542"><ele>272.3333333333333</ele><time>2026-04-04T14:24:16Z</time></trkpt><trkpt lat="43.03401548945111" lon="12.364658131649534"><ele>273.6666666666667</ele><time>2026-04-04T14:24:17Z</time></trkpt><trkpt lat="43.03383739752306" lon="12.364588488959264"><ele>275.0</ele><time>2026-04-04T14:24:18Z</time></trkpt><trkpt lat="43.03368268069236" lon="12.364542349751966"><ele>275.0</ele><time>2026-04-04T14:24:19Z</time></trkpt><trkpt lat="43.03354805281106" lon="12.364506791120887"><ele>275.0</ele><time>2026-04-04T14:24:20Z</time></trkpt><trkpt lat="43.03341118635937" lon="12.36447139053707"><ele>275.0</ele><time>2026-04-04T14:24:21Z</time></trkpt><trkpt lat="43.03328800662767" lon="12.364426152259588"><ele>275.0</ele><time>2026-04-04T14:24:22Z</time></trkpt><trkpt lat="43.03318442381363" lon="12.364389288254023"><ele>274.1666666666667</ele><time>2026-04-04T14:24:23Z</time></trkpt><trkpt lat="43.03308901444031" lon="12.364365199381831"><ele>273.33333333333337</ele><time>2026-04-04T14:24:24Z</time></trkpt><trkpt lat="43.03299605672762" lon="12.364378153601812"><ele>272.5</ele><time>2026-04-04T14:24:25Z</time></trkpt><trkpt lat="43.03290923690319" lon="12.364410382001253"><ele>271.6666666666667</ele><time>2026-04-04T14:24:26Z</time></trkpt><trkpt lat="43.03282631770317" lon="12.3644234953648"><ele>270.8333333333333</ele><time>2026-04-04T14:24:27Z</time></trkpt><trkpt lat="43.032752863255276" lon="12.364454077195175"><ele>270.0</ele><time>2026-04-04T14:24:28Z</time></trkpt><trkpt lat="43.03269176216458" lon="12.364480632088249"><ele>270.0</ele><time>2026-04-04T14:24:29Z</time></trkpt><trkpt lat="43.032591678301415" lon="12.364527163044638"><ele>270.0</ele><time>2026-04-04T14:24:31Z</time></trkpt><trkpt lat="43.032501221347346" lon="12.364569218264036"><ele>270.0</ele><time>2026-04-04T14:24:33Z</time></trkpt><trkpt lat="43.032421389562316" lon="12.364606333631588"><ele>270.0</ele><time>2026-04-04T14:24:35Z</time></trkpt><trkpt lat="43.03233390593792" lon="12.364647272058672"><ele>270.0</ele><time>2026-04-04T14:24:37Z</time></trkpt><trkpt lat="43.03226444543784" lon="12.364680409613475"><ele>269.5</ele><time>2026-04-04T14:24:38Z</time></trkpt><trkpt lat="43.03217313126871" lon="12.36472397284164"><ele>269.0</ele><time>2026-04-04T14:24:39Z</time></trkpt><trkpt lat="43.03207180538094" lon="12.364770448278875"><ele>268.5</ele><time>2026-04-04T14:24:40Z</time></trkpt><trkpt lat="43.03195393671989" lon="12.364825086046642"><ele>268.0</ele><time>2026-04-04T14:24:41Z</time></trkpt><trkpt lat="43.031811429510654" lon="12.364913278935822"><ele>268.0</ele><time>2026-04-04T14:24:42Z</time></trkpt><trkpt lat="43.031659877315654" lon="12.364986051140336"><ele>268.0</ele><time>2026-04-04T14:24:43Z</time></trkpt><trkpt lat="43.03150334017788" lon="12.36503477630441"><ele>268.0</ele><time>2026-04-04T14:24:44Z</time></trkpt><trkpt lat="43.03134258672246" lon="12.365112487116587"><ele>267.3333333333333</ele><time>2026-04-04T14:24:45Z</time></trkpt><trkpt lat="43.03116906474212" lon="12.365202090382114"><ele>266.6666666666667</ele><time>2026-04-04T14:24:46Z</time></trkpt><trkpt lat="43.03098311307643" lon="12.365298903901323"><ele>266.0</ele><time>2026-04-04T14:24:47Z</time></trkpt><trkpt lat="43.03078868322166" lon="12.365402926498179"><ele>265.0</ele><time>2026-04-04T14:24:48Z</time></trkpt><trkpt lat="43.03059501922602" lon="12.36550693703475"><ele>264.0</ele><time>2026-04-04T14:24:49Z</time></trkpt><trkpt lat="43.03038590726819" lon="12.36561473378891"><ele>263.0</ele><time>2026-04-04T14:24:50Z</time></trkpt><trkpt lat="43.03016582278932" lon="12.365724711066507"><ele>264.6666666666667</ele><time>2026-04-04T14:24:51Z</time></trkpt><trkpt lat="43.029950843698835" lon="12.365829741749916"><ele>266.3333333333333</ele><time>2026-04-04T14:24:52Z</time></trkpt><trkpt lat="43.029745547601" lon="12.365930077736275"><ele>268.0</ele><time>2026-04-04T14:24:53Z</time></trkpt><trkpt lat="43.029555971942564" lon="12.366024007133577"><ele>268.0</ele><time>2026-04-04T14:24:54Z</time></trkpt><trkpt lat="43.029377702607846" lon="12.366112334556762"><ele>268.0</ele><time>2026-04-04T14:24:55Z</time></trkpt><trkpt lat="43.02921757236729" lon="12.36619137049295"><ele>268.0</ele><time>2026-04-04T14:24:56Z</time></trkpt><trkpt lat="43.02907537941943" lon="12.36625282736341"><ele>269.0</ele><time>2026-04-04T14:24:57Z</time></trkpt><trkpt lat="43.02891701290511" lon="12.366297095421858"><ele>270.0</ele><time>2026-04-04T14:24:58Z</time></trkpt><trkpt lat="43.028765876261716" lon="12.366313967607798"><ele>271.0</ele><time>2026-04-04T14:24:59Z</time></trkpt><trkpt lat="43.02860151864219" lon="12.366232821862702"><ele>271.0</ele><time>2026-04-04T14:25:00Z</time></trkpt><trkpt lat="43.028441503213756" lon="12.366100267881315"><ele>271.0</ele><time>2026-04-04T14:25:01Z</time></trkpt><trkpt lat="43.02828302841464" lon="12.365901341977121"><ele>271.0</ele><time>2026-04-04T14:25:02Z</time></trkpt><trkpt lat="43.02810923659304" lon="12.365664357016762"><ele>271.0</ele><time>2026-04-04T14:25:03Z</time></trkpt><trkpt lat="43.02792382187004" lon="12.365426082875556"><ele>271.0</ele><time>2026-04-04T14:25:04Z</time></trkpt><trkpt lat="43.02772434183684" lon="12.365192583933693"><ele>271.0</ele><time>2026-04-04T14:25:05Z</time></trkpt><trkpt lat="43.02750944417523" lon="12.364939033642399"><ele>271.0</ele><time>2026-04-04T14:25:06Z</time></trkpt><trkpt lat="43.027289910492705" lon="12.36468833772813"><ele>273.5</ele><time>2026-04-04T14:25:07Z</time></trkpt><trkpt lat="43.027091215486905" lon="12.364446509812513"><ele>276.0</ele><time>2026-04-04T14:25:08Z</time></trkpt><trkpt lat="43.0268977744993" lon="12.364216111914505"><ele>276.0</ele><time>2026-04-04T14:25:09Z</time></trkpt><trkpt lat="43.026693781686426" lon="12.363974401637142"><ele>276.0</ele><time>2026-04-04T14:25:10Z</time></trkpt><trkpt lat="43.02648889454322" lon="12.363729591799952"><ele>276.5</ele><time>2026-04-04T14:25:11Z</time></trkpt><trkpt lat="43.026289063028706" lon="12.363490516723346"><ele>277.0</ele><time>2026-04-04T14:25:12Z</time></trkpt><trkpt lat="43.02609026880444" lon="12.363262341555954"><ele>277.0</ele><time>2026-04-04T14:25:13Z</time></trkpt><trkpt lat="43.02589122679318" lon="12.363033665938216"><ele>277.0</ele><time>2026-04-04T14:25:14Z</time></trkpt><trkpt lat="43.02569821217416" lon="12.362804036355685"><ele>276.0</ele><time>2026-04-04T14:25:15.001Z</time></trkpt><trkpt lat="43.02550181317136" lon="12.362583818232663"><ele>275.0</ele><time>2026-04-04T14:25:16.001Z</time></trkpt><trkpt lat="43.025298568316344" lon="12.362358544389282"><ele>277.5</ele><time>2026-04-04T14:25:17.001Z</time></trkpt><trkpt lat="43.02508959735381" lon="12.362109428918142"><ele>280.0</ele><time>2026-04-04T14:25:18.001Z</time></trkpt><trkpt lat="43.0248857606028" lon="12.361842864189425"><ele>275.0</ele><time>2026-04-04T14:25:19.001Z</time></trkpt><trkpt lat="43.02468663622704" lon="12.361581650330978"><ele>270.0</ele><time>2026-04-04T14:25:20.001Z</time></trkpt><trkpt lat="43.024491131873894" lon="12.361329600723725"><ele>270.0</ele><time>2026-04-04T14:25:21.001Z</time></trkpt><trkpt lat="43.02431469210217" lon="12.361094155118186"><ele>270.0</ele><time>2026-04-04T14:25:22.001Z</time></trkpt><trkpt lat="43.02413418288354" lon="12.36086261099912"><ele>268.0</ele><time>2026-04-04T14:25:23.001Z</time></trkpt><trkpt lat="43.02396133871079" lon="12.360638928820627"><ele>266.0</ele><time>2026-04-04T14:25:24.001Z</time></trkpt><trkpt lat="43.0237959531953" lon="12.360431262916613"><ele>266.0</ele><time>2026-04-04T14:25:25.001Z</time></trkpt><trkpt lat="43.023630890949285" lon="12.360248074610917"><ele>266.0</ele><time>2026-04-04T14:25:26.001Z</time></trkpt><trkpt lat="43.02345278316773" lon="12.36010087489634"><ele>266.0</ele><time>2026-04-04T14:25:27.001Z</time></trkpt><trkpt lat="43.023249299173706" lon="12.360022612779467"><ele>265.0</ele><time>2026-04-04T14:25:28.001Z</time></trkpt><trkpt lat="43.02301930309152" lon="12.359981685458532"><ele>264.0</ele><time>2026-04-04T14:25:29.001Z</time></trkpt><trkpt lat="43.02276110492482" lon="12.35996183588277"><ele>264.0</ele><time>2026-04-04T14:25:30.001Z</time></trkpt><trkpt lat="43.02250330506493" lon="12.359920728612655"><ele>264.0</ele><time>2026-04-04T14:25:31.001Z</time></trkpt><trkpt lat="43.02224347687372" lon="12.359870133148489"><ele>265.5</ele><time>2026-04-04T14:25:32.001Z</time></trkpt><trkpt lat="43.021984519397215" lon="12.359830162084474"><ele>267.0</ele><time>2026-04-04T14:25:33.001Z</time></trkpt><trkpt lat="43.02171699096525" lon="12.359782171391076"><ele>269.0</ele><time>2026-04-04T14:25:34.001Z</time></trkpt><trkpt lat="43.02145112356109" lon="12.35973451382275"><ele>271.0</ele><time>2026-04-04T14:25:35.001Z</time></trkpt><trkpt lat="43.021181764876864" lon="12.359684588841933"><ele>271.0</ele><time>2026-04-04T14:25:36.001Z</time></trkpt><trkpt lat="43.02091483255014" lon="12.3596341940875"><ele>271.0</ele><time>2026-04-04T14:25:37.001Z</time></trkpt><trkpt lat="43.02064185136844" lon="12.359592266681485"><ele>273.5</ele><time>2026-04-04T14:25:38.001Z</time></trkpt><trkpt lat="43.02036771457971" lon="12.359536395334533"><ele>276.0</ele><time>2026-04-04T14:25:39.001Z</time></trkpt><trkpt lat="43.02010298748367" lon="12.359485744125346"><ele>278.5</ele><time>2026-04-04T14:25:40.001Z</time></trkpt><trkpt lat="43.01984490580821" lon="12.359438973411011"><ele>281.0</ele><time>2026-04-04T14:25:41.001Z</time></trkpt><trkpt lat="43.01958520410967" lon="12.35939194738827"><ele>281.0</ele><time>2026-04-04T14:25:42.001Z</time></trkpt><trkpt lat="43.01932040287144" lon="12.359345016991881"><ele>281.0</ele><time>2026-04-04T14:25:43.001Z</time></trkpt><trkpt lat="43.0190448439878" lon="12.35929359736614"><ele>282.5</ele><time>2026-04-04T14:25:44.001Z</time></trkpt><trkpt lat="43.01878199762771" lon="12.359240821734438"><ele>284.0</ele><time>2026-04-04T14:25:45.001Z</time></trkpt><trkpt lat="43.01854780753536" lon="12.359209748674287"><ele>284.0</ele><time>2026-04-04T14:25:46.001Z</time></trkpt><trkpt lat="43.01831968818486" lon="12.359159918896344"><ele>284.0</ele><time>2026-04-04T14:25:47.001Z</time></trkpt><trkpt lat="43.01807717703804" lon="12.359168776147374"><ele>284.0</ele><time>2026-04-04T14:25:48.001Z</time></trkpt><trkpt lat="43.01781845646135" lon="12.359224747082198"><ele>284.0</ele><time>2026-04-04T14:25:49.001Z</time></trkpt><trkpt lat="43.01752732341748" lon="12.35926405052484"><ele>282.0</ele><time>2026-04-04T14:25:50.001Z</time></trkpt><trkpt lat="43.0172592525845" lon="12.359314232425136"><ele>280.0</ele><time>2026-04-04T14:25:51.001Z</time></trkpt><trkpt lat="43.01701201992487" lon="12.359360790953948"><ele>280.0</ele><time>2026-04-04T14:25:52.001Z</time></trkpt><trkpt lat="43.01678325851021" lon="12.35940387097106"><ele>280.0</ele><time>2026-04-04T14:25:53.001Z</time></trkpt><trkpt lat="43.016573136199035" lon="12.35944344092939"><ele>280.0</ele><time>2026-04-04T14:25:54.001Z</time></trkpt><trkpt lat="43.01636828687583" lon="12.359480893186424"><ele>280.0</ele><time>2026-04-04T14:25:55.001Z</time></trkpt><trkpt lat="43.01618405869949" lon="12.359514529474042"><ele>280.0</ele><time>2026-04-04T14:25:56.001Z</time></trkpt><trkpt lat="43.01601508506809" lon="12.359545380922317"><ele>280.0</ele><time>2026-04-04T14:25:57.001Z</time></trkpt><trkpt lat="43.01586580993286" lon="12.359574276516163"><ele>278.25</ele><time>2026-04-04T14:25:58.001Z</time></trkpt><trkpt lat="43.015736287553864" lon="12.359598851558255"><ele>276.5</ele><time>2026-04-04T14:25:59.001Z</time></trkpt><trkpt lat="43.01560980354144" lon="12.359622506268966"><ele>274.75</ele><time>2026-04-04T14:26:00.001Z</time></trkpt><trkpt lat="43.01547932325551" lon="12.359647424528694"><ele>273.0</ele><time>2026-04-04T14:26:01.001Z</time></trkpt><trkpt lat="43.01534530750464" lon="12.359672983759236"><ele>273.0</ele><time>2026-04-04T14:26:02.001Z</time></trkpt><trkpt lat="43.01521629074784" lon="12.359697589584423"><ele>273.0</ele><time>2026-04-04T14:26:03.001Z</time></trkpt><trkpt lat="43.015091499070664" lon="12.359721389632618"><ele>273.0</ele><time>2026-04-04T14:26:04.001Z</time></trkpt><trkpt lat="43.01497286394399" lon="12.359758497131633"><ele>273.0</ele><time>2026-04-04T14:26:05.001Z</time></trkpt><trkpt lat="43.01485619136745" lon="12.359779316248297"><ele>273.0</ele><time>2026-04-04T14:26:06Z</time></trkpt><trkpt lat="43.01473821754725" lon="12.359799544379594"><ele>273.0</ele><time>2026-04-04T14:26:07Z</time></trkpt><trkpt lat="43.014621655263" lon="12.359823494243638"><ele>273.0</ele><time>2026-04-04T14:26:08Z</time></trkpt><trkpt lat="43.014512035879875" lon="12.359840744683533"><ele>273.0</ele><time>2026-04-04T14:26:09Z</time></trkpt><trkpt lat="43.01441230197769" lon="12.359857964859996"><ele>273.0</ele><time>2026-04-04T14:26:10Z</time></trkpt><trkpt lat="43.0143151544709" lon="12.359880487417126"><ele>273.0</ele><time>2026-04-04T14:26:11Z</time></trkpt><trkpt lat="43.01421399949485" lon="12.359900748315578"><ele>273.0</ele><time>2026-04-04T14:26:12Z</time></trkpt><trkpt lat="43.0140955344751" lon="12.35992046265632"><ele>273.0</ele><time>2026-04-04T14:26:13Z</time></trkpt><trkpt lat="43.01396921551507" lon="12.359939644695052"><ele>273.0</ele><time>2026-04-04T14:26:14Z</time></trkpt><trkpt lat="43.01384713989058" lon="12.359963797328534"><ele>271.75</ele><time>2026-04-04T14:26:15Z</time></trkpt><trkpt lat="43.01372002519006" lon="12.359989050157742"><ele>270.5</ele><time>2026-04-04T14:26:16Z</time></trkpt><trkpt lat="43.01358874182901" lon="12.360016616708432"><ele>269.25</ele><time>2026-04-04T14:26:17Z</time></trkpt><trkpt lat="43.01346004750077" lon="12.36004400913705"><ele>268.0</ele><time>2026-04-04T14:26:18Z</time></trkpt><trkpt lat="43.013326450307176" lon="12.360063406292923"><ele>267.25</ele><time>2026-04-04T14:26:19Z</time></trkpt><trkpt lat="43.01319518212745" lon="12.360068010070233"><ele>266.5</ele><time>2026-04-04T14:26:20Z</time></trkpt><trkpt lat="43.01305967824114" lon="12.360070256228761"><ele>265.75</ele><time>2026-04-04T14:26:21Z</time></trkpt><trkpt lat="43.01292417152074" lon="12.360058716612443"><ele>265.0</ele><time>2026-04-04T14:26:22Z</time></trkpt><trkpt lat="43.01278676038765" lon="12.360034641712613"><ele>265.0</ele><time>2026-04-04T14:26:23Z</time></trkpt><trkpt lat="43.01264952480253" lon="12.360002550169183"><ele>265.0</ele><time>2026-04-04T14:26:24Z</time></trkpt><trkpt lat="43.01251788581741" lon="12.359960191209352"><ele>265.0</ele><time>2026-04-04T14:26:25Z</time></trkpt><trkpt lat="43.01239083759925" lon="12.359905540629363"><ele>265.0</ele><time>2026-04-04T14:26:26Z</time></trkpt><trkpt lat="43.01226867972627" lon="12.359852679871628"><ele>264.8</ele><time>2026-04-04T14:26:27Z</time></trkpt><trkpt lat="43.01215154748537" lon="12.35980341447821"><ele>264.6</ele><time>2026-04-04T14:26:28Z</time></trkpt><trkpt lat="43.01204649997273" lon="12.359768395455278"><ele>264.4</ele><time>2026-04-04T14:26:29Z</time></trkpt><trkpt lat="43.011963025889365" lon="12.359728363349138"><ele>264.2</ele><time>2026-04-04T14:26:30Z</time></trkpt><trkpt lat="43.011900926519644" lon="12.359698050490898"><ele>264.0</ele><time>2026-04-04T14:26:31Z</time></trkpt><trkpt lat="43.01182889173003" lon="12.359675761952177"><ele>266.0</ele><time>2026-04-04T14:26:33Z</time></trkpt><trkpt lat="43.01174793116463" lon="12.35978473555238"><ele>264.0</ele><time>2026-04-04T14:26:35Z</time></trkpt><trkpt lat="43.01170314634345" lon="12.35992080984028"><ele>264.0</ele><time>2026-04-04T14:26:38Z</time></trkpt><trkpt lat="43.011673240720704" lon="12.360006805261717"><ele>264.0</ele><time>2026-04-04T14:26:41Z</time></trkpt></trkseg></trk></gpx>